<?xml version="1.0" encoding="UTF-8" standalone="no" ?>
<gpx xmlns="http://www.topografix.com/GPX/1/1" xmlns:xsi="http://www.w3.org/2001/XMLSchema-instance" xsi:schemaLocation="http://www.topografix.com/GPX/1/1 http://www.topografix.com/GPX/1/1/gpx.xsd" version="1.1" creator="VisuGPX - https://www.visugpx.com">
  <metadata>
    <name>Road trip fait P/E</name>
  </metadata>
  <trk>
    <name><![CDATA[Road trip fait P/E_3]]></name>
    <extensions>
      <line xmlns="http://www.topografix.com/GPX/gpx_style/0/2">
        <color>FF0000</color>
        <width>4</width>
      </line>
    </extensions>
    <trkseg>
      <trkpt lat="41.1619" lon="-8.60632">
        <ele>146.7172</ele>
        <time>2021-07-06T13:57:46Z</time>
      </trkpt>
      <trkpt lat="41.1619" lon="-8.60632">
        <ele>146.7172</ele>
        <time>2021-07-06T13:57:46Z</time>
      </trkpt>
      <trkpt lat="41.14774" lon="-8.60343">
        <ele>99.78713</ele>
        <time>2021-07-08T06:17:07Z</time>
      </trkpt>
      <trkpt lat="41.14768" lon="-8.60363">
        <ele>100.2161</ele>
        <time>2021-07-08T06:17:18Z</time>
      </trkpt>
      <trkpt lat="41.14781" lon="-8.60392">
        <ele>99.70386</ele>
        <time>2021-07-08T06:17:29Z</time>
      </trkpt>
      <trkpt lat="41.14788" lon="-8.60344">
        <ele>99.19895</ele>
        <time>2021-07-08T06:17:40Z</time>
      </trkpt>
      <trkpt lat="41.14785" lon="-8.60348">
        <ele>100.3222</ele>
        <time>2021-07-08T06:18:30Z</time>
      </trkpt>
      <trkpt lat="41.14785" lon="-8.60348">
        <ele>100.2243</ele>
        <time>2021-07-08T06:19:30Z</time>
      </trkpt>
      <trkpt lat="41.14785" lon="-8.60348">
        <ele>100.2243</ele>
        <time>2021-07-08T06:20:29Z</time>
      </trkpt>
      <trkpt lat="41.14781" lon="-8.60347">
        <ele>100.6921</ele>
        <time>2021-07-08T06:20:43Z</time>
      </trkpt>
      <trkpt lat="41.14774" lon="-8.60349">
        <ele>100.8818</ele>
        <time>2021-07-08T06:20:54Z</time>
      </trkpt>
      <trkpt lat="41.14768" lon="-8.60351">
        <ele>100.4583</ele>
        <time>2021-07-08T06:21:12Z</time>
      </trkpt>
      <trkpt lat="41.14772" lon="-8.60351">
        <ele>101.4379</ele>
        <time>2021-07-08T06:21:23Z</time>
      </trkpt>
      <trkpt lat="41.14778" lon="-8.60348">
        <ele>101.1075</ele>
        <time>2021-07-08T06:21:34Z</time>
      </trkpt>
      <trkpt lat="41.14782" lon="-8.60342">
        <ele>98.62409</ele>
        <time>2021-07-08T06:21:45Z</time>
      </trkpt>
      <trkpt lat="41.14772" lon="-8.60362">
        <ele>98.83809</ele>
        <time>2021-07-08T06:21:56Z</time>
      </trkpt>
      <trkpt lat="41.14768" lon="-8.60371">
        <ele>99.17088</ele>
        <time>2021-07-08T06:22:07Z</time>
      </trkpt>
      <trkpt lat="41.14768" lon="-8.60371">
        <ele>99.17088</ele>
        <time>2021-07-08T06:23:06Z</time>
      </trkpt>
      <trkpt lat="41.14767" lon="-8.60357">
        <ele>99.14607</ele>
        <time>2021-07-08T06:23:32Z</time>
      </trkpt>
      <trkpt lat="41.14767" lon="-8.60362">
        <ele>99.20263</ele>
        <time>2021-07-08T06:23:43Z</time>
      </trkpt>
      <trkpt lat="41.14758" lon="-8.60347">
        <ele>100.0422</ele>
        <time>2021-07-08T06:23:54Z</time>
      </trkpt>
      <trkpt lat="41.14759" lon="-8.60346">
        <ele>100.2753</ele>
        <time>2021-07-08T06:24:53Z</time>
      </trkpt>
      <trkpt lat="41.14762" lon="-8.60345">
        <ele>99.71568</ele>
        <time>2021-07-08T06:25:24Z</time>
      </trkpt>
      <trkpt lat="41.14759" lon="-8.60345">
        <ele>99.10031</ele>
        <time>2021-07-08T06:25:44Z</time>
      </trkpt>
      <trkpt lat="41.1476" lon="-8.60347">
        <ele>99.76211</ele>
        <time>2021-07-08T06:26:43Z</time>
      </trkpt>
      <trkpt lat="41.14755" lon="-8.60345">
        <ele>100.1906</ele>
        <time>2021-07-08T06:27:10Z</time>
      </trkpt>
      <trkpt lat="41.14745" lon="-8.60308">
        <ele>100.3815</ele>
        <time>2021-07-08T06:27:21Z</time>
      </trkpt>
      <trkpt lat="41.14742" lon="-8.60296">
        <ele>100.8241</ele>
        <time>2021-07-08T06:27:32Z</time>
      </trkpt>
      <trkpt lat="41.14732" lon="-8.60277">
        <ele>100.9424</ele>
        <time>2021-07-08T06:27:43Z</time>
      </trkpt>
      <trkpt lat="41.14727" lon="-8.60245">
        <ele>100.5081</ele>
        <time>2021-07-08T06:27:54Z</time>
      </trkpt>
      <trkpt lat="41.14725" lon="-8.60238">
        <ele>99.88608</ele>
        <time>2021-07-08T06:28:15Z</time>
      </trkpt>
      <trkpt lat="41.14724" lon="-8.6016">
        <ele>98.64127</ele>
        <time>2021-07-08T06:28:26Z</time>
      </trkpt>
      <trkpt lat="41.14756" lon="-8.60062">
        <ele>98.53268</ele>
        <time>2021-07-08T06:28:37Z</time>
      </trkpt>
      <trkpt lat="41.14759" lon="-8.60006">
        <ele>98.05276</ele>
        <time>2021-07-08T06:28:48Z</time>
      </trkpt>
      <trkpt lat="41.14713" lon="-8.59977">
        <ele>97.58407</ele>
        <time>2021-07-08T06:28:59Z</time>
      </trkpt>
      <trkpt lat="41.14645" lon="-8.59947">
        <ele>96.31378</ele>
        <time>2021-07-08T06:29:10Z</time>
      </trkpt>
      <trkpt lat="41.14608" lon="-8.59929">
        <ele>96.32754</ele>
        <time>2021-07-08T06:29:21Z</time>
      </trkpt>
      <trkpt lat="41.14606" lon="-8.59926">
        <ele>97.40147</ele>
        <time>2021-07-08T06:29:32Z</time>
      </trkpt>
      <trkpt lat="41.14598" lon="-8.59925">
        <ele>98.55818</ele>
        <time>2021-07-08T06:29:43Z</time>
      </trkpt>
      <trkpt lat="41.14584" lon="-8.59917">
        <ele>96.35728</ele>
        <time>2021-07-08T06:29:54Z</time>
      </trkpt>
      <trkpt lat="41.14575" lon="-8.59913">
        <ele>97.47528</ele>
        <time>2021-07-08T06:30:08Z</time>
      </trkpt>
      <trkpt lat="41.14579" lon="-8.59915">
        <ele>95.38128</ele>
        <time>2021-07-08T06:30:40Z</time>
      </trkpt>
      <trkpt lat="41.1459" lon="-8.59921">
        <ele>96.001</ele>
        <time>2021-07-08T06:30:51Z</time>
      </trkpt>
      <trkpt lat="41.14594" lon="-8.59922">
        <ele>95.24425</ele>
        <time>2021-07-08T06:31:02Z</time>
      </trkpt>
      <trkpt lat="41.14599" lon="-8.59917">
        <ele>96.7011</ele>
        <time>2021-07-08T06:31:13Z</time>
      </trkpt>
      <trkpt lat="41.14592" lon="-8.59921">
        <ele>97.10789</ele>
        <time>2021-07-08T06:31:24Z</time>
      </trkpt>
      <trkpt lat="41.14599" lon="-8.59921">
        <ele>95.02675</ele>
        <time>2021-07-08T06:31:35Z</time>
      </trkpt>
      <trkpt lat="41.14602" lon="-8.59923">
        <ele>93.0922</ele>
        <time>2021-07-08T06:31:49Z</time>
      </trkpt>
      <trkpt lat="41.14599" lon="-8.59927">
        <ele>95.1705</ele>
        <time>2021-07-08T06:32:17Z</time>
      </trkpt>
      <trkpt lat="41.14616" lon="-8.59901">
        <ele>96.33156</ele>
        <time>2021-07-08T06:32:52Z</time>
      </trkpt>
      <trkpt lat="41.14602" lon="-8.59918">
        <ele>94.06082</ele>
        <time>2021-07-08T06:33:35Z</time>
      </trkpt>
      <trkpt lat="41.14587" lon="-8.59904">
        <ele>95.22103</ele>
        <time>2021-07-08T06:33:46Z</time>
      </trkpt>
      <trkpt lat="41.14594" lon="-8.59936">
        <ele>98.14008</ele>
        <time>2021-07-08T06:33:57Z</time>
      </trkpt>
      <trkpt lat="41.14591" lon="-8.59939">
        <ele>96.75934</ele>
        <time>2021-07-08T06:34:08Z</time>
      </trkpt>
      <trkpt lat="41.14595" lon="-8.5993">
        <ele>98.68044</ele>
        <time>2021-07-08T06:34:19Z</time>
      </trkpt>
      <trkpt lat="41.14591" lon="-8.59935">
        <ele>94.81922</ele>
        <time>2021-07-08T06:34:30Z</time>
      </trkpt>
      <trkpt lat="41.14597" lon="-8.59925">
        <ele>96.57738</ele>
        <time>2021-07-08T06:34:41Z</time>
      </trkpt>
      <trkpt lat="41.14584" lon="-8.5993">
        <ele>95.80353</ele>
        <time>2021-07-08T06:34:52Z</time>
      </trkpt>
      <trkpt lat="41.14591" lon="-8.59933">
        <ele>97.51352</ele>
        <time>2021-07-08T06:35:03Z</time>
      </trkpt>
      <trkpt lat="41.14595" lon="-8.59927">
        <ele>95.86333</ele>
        <time>2021-07-08T06:35:23Z</time>
      </trkpt>
      <trkpt lat="41.14597" lon="-8.59923">
        <ele>96.27123</ele>
        <time>2021-07-08T06:36:00Z</time>
      </trkpt>
      <trkpt lat="41.14593" lon="-8.59925">
        <ele>95.85505</ele>
        <time>2021-07-08T06:36:36Z</time>
      </trkpt>
      <trkpt lat="41.14591" lon="-8.59926">
        <ele>96.17281</ele>
        <time>2021-07-08T06:37:35Z</time>
      </trkpt>
      <trkpt lat="41.14594" lon="-8.59924">
        <ele>94.36382</ele>
        <time>2021-07-08T06:37:52Z</time>
      </trkpt>
      <trkpt lat="41.14591" lon="-8.5993">
        <ele>96.41476</ele>
        <time>2021-07-08T06:38:12Z</time>
      </trkpt>
      <trkpt lat="41.14594" lon="-8.59927">
        <ele>94.79095</ele>
        <time>2021-07-08T06:38:43Z</time>
      </trkpt>
      <trkpt lat="41.14597" lon="-8.59924">
        <ele>95.9465</ele>
        <time>2021-07-08T06:39:10Z</time>
      </trkpt>
      <trkpt lat="41.14596" lon="-8.59925">
        <ele>96.67316</ele>
        <time>2021-07-08T06:40:09Z</time>
      </trkpt>
      <trkpt lat="41.14599" lon="-8.59925">
        <ele>96.17782</ele>
        <time>2021-07-08T06:40:57Z</time>
      </trkpt>
      <trkpt lat="41.14596" lon="-8.59923">
        <ele>96.39233</ele>
        <time>2021-07-08T06:41:31Z</time>
      </trkpt>
      <trkpt lat="41.14593" lon="-8.5992">
        <ele>95.82157</ele>
        <time>2021-07-08T06:41:50Z</time>
      </trkpt>
      <trkpt lat="41.14587" lon="-8.59926">
        <ele>97.75545</ele>
        <time>2021-07-08T06:42:42Z</time>
      </trkpt>
      <trkpt lat="41.14584" lon="-8.59926">
        <ele>95.37498</ele>
        <time>2021-07-08T06:43:31Z</time>
      </trkpt>
      <trkpt lat="41.14591" lon="-8.59924">
        <ele>96.10479</ele>
        <time>2021-07-08T06:43:54Z</time>
      </trkpt>
      <trkpt lat="41.14587" lon="-8.59925">
        <ele>96.86751</ele>
        <time>2021-07-08T06:44:22Z</time>
      </trkpt>
      <trkpt lat="41.1459" lon="-8.59921">
        <ele>96.1502</ele>
        <time>2021-07-08T06:44:41Z</time>
      </trkpt>
      <trkpt lat="41.14592" lon="-8.59925">
        <ele>96.74932</ele>
        <time>2021-07-08T06:45:06Z</time>
      </trkpt>
      <trkpt lat="41.14588" lon="-8.59929">
        <ele>95.75974</ele>
        <time>2021-07-08T06:45:17Z</time>
      </trkpt>
      <trkpt lat="41.14586" lon="-8.59926">
        <ele>95.9598</ele>
        <time>2021-07-08T06:46:16Z</time>
      </trkpt>
      <trkpt lat="41.14589" lon="-8.59923">
        <ele>95.08283</ele>
        <time>2021-07-08T06:46:58Z</time>
      </trkpt>
      <trkpt lat="41.14586" lon="-8.59926">
        <ele>96.08473</ele>
        <time>2021-07-08T06:47:44Z</time>
      </trkpt>
      <trkpt lat="41.14589" lon="-8.59926">
        <ele>95.77399</ele>
        <time>2021-07-08T06:48:43Z</time>
      </trkpt>
      <trkpt lat="41.14585" lon="-8.59928">
        <ele>96.13677</ele>
        <time>2021-07-08T06:49:03Z</time>
      </trkpt>
      <trkpt lat="41.14581" lon="-8.59929">
        <ele>96.43434</ele>
        <time>2021-07-08T06:49:30Z</time>
      </trkpt>
      <trkpt lat="41.14582" lon="-8.59924">
        <ele>96.33885</ele>
        <time>2021-07-08T06:49:46Z</time>
      </trkpt>
      <trkpt lat="41.14581" lon="-8.59919">
        <ele>96.90412</ele>
        <time>2021-07-08T06:49:58Z</time>
      </trkpt>
      <trkpt lat="41.14581" lon="-8.5991">
        <ele>95.53742</ele>
        <time>2021-07-08T06:50:09Z</time>
      </trkpt>
      <trkpt lat="41.14574" lon="-8.59906">
        <ele>95.91526</ele>
        <time>2021-07-08T06:50:20Z</time>
      </trkpt>
      <trkpt lat="41.14572" lon="-8.59911">
        <ele>95.89467</ele>
        <time>2021-07-08T06:50:31Z</time>
      </trkpt>
      <trkpt lat="41.14576" lon="-8.59909">
        <ele>97.05005</ele>
        <time>2021-07-08T06:50:46Z</time>
      </trkpt>
      <trkpt lat="41.14574" lon="-8.5991">
        <ele>98.19433</ele>
        <time>2021-07-08T06:51:45Z</time>
      </trkpt>
      <trkpt lat="41.14572" lon="-8.59906">
        <ele>97.20443</ele>
        <time>2021-07-08T06:52:08Z</time>
      </trkpt>
      <trkpt lat="41.14568" lon="-8.59908">
        <ele>94.02191</ele>
        <time>2021-07-08T06:52:38Z</time>
      </trkpt>
      <trkpt lat="41.14496" lon="-8.59879">
        <ele>94.16051</ele>
        <time>2021-07-08T06:52:49Z</time>
      </trkpt>
      <trkpt lat="41.14476" lon="-8.59845">
        <ele>90.00613</ele>
        <time>2021-07-08T06:53:00Z</time>
      </trkpt>
      <trkpt lat="41.14501" lon="-8.59804">
        <ele>100.1444</ele>
        <time>2021-07-08T06:53:11Z</time>
      </trkpt>
      <trkpt lat="41.14569" lon="-8.59825">
        <ele>96.32432</ele>
        <time>2021-07-08T06:53:22Z</time>
      </trkpt>
      <trkpt lat="41.14572" lon="-8.59832">
        <ele>96.02771</ele>
        <time>2021-07-08T06:53:33Z</time>
      </trkpt>
      <trkpt lat="41.14591" lon="-8.59884">
        <ele>96.94503</ele>
        <time>2021-07-08T06:53:44Z</time>
      </trkpt>
      <trkpt lat="41.14592" lon="-8.59911">
        <ele>99.5207</ele>
        <time>2021-07-08T06:53:55Z</time>
      </trkpt>
      <trkpt lat="41.14584" lon="-8.60048">
        <ele>95.47354</ele>
        <time>2021-07-08T06:54:06Z</time>
      </trkpt>
      <trkpt lat="41.14575" lon="-8.60123">
        <ele>92.75706</ele>
        <time>2021-07-08T06:54:17Z</time>
      </trkpt>
      <trkpt lat="41.14592" lon="-8.60187">
        <ele>93.74352</ele>
        <time>2021-07-08T06:54:28Z</time>
      </trkpt>
      <trkpt lat="41.14614" lon="-8.60191">
        <ele>95.29816</ele>
        <time>2021-07-08T06:54:39Z</time>
      </trkpt>
      <trkpt lat="41.14657" lon="-8.60194">
        <ele>96.439</ele>
        <time>2021-07-08T06:54:50Z</time>
      </trkpt>
      <trkpt lat="41.14677" lon="-8.60196">
        <ele>97.04529</ele>
        <time>2021-07-08T06:55:01Z</time>
      </trkpt>
      <trkpt lat="41.14761" lon="-8.602">
        <ele>100.3967</ele>
        <time>2021-07-08T06:55:12Z</time>
      </trkpt>
      <trkpt lat="41.14875" lon="-8.60208">
        <ele>101.7055</ele>
        <time>2021-07-08T06:55:23Z</time>
      </trkpt>
      <trkpt lat="41.14892" lon="-8.60209">
        <ele>102.5766</ele>
        <time>2021-07-08T06:55:34Z</time>
      </trkpt>
      <trkpt lat="41.14898" lon="-8.6021">
        <ele>100.4302</ele>
        <time>2021-07-08T06:56:13Z</time>
      </trkpt>
      <trkpt lat="41.15025" lon="-8.60219">
        <ele>106.322</ele>
        <time>2021-07-08T06:56:24Z</time>
      </trkpt>
      <trkpt lat="41.15102" lon="-8.60242">
        <ele>109.9666</ele>
        <time>2021-07-08T06:56:35Z</time>
      </trkpt>
      <trkpt lat="41.15097" lon="-8.60378">
        <ele>112.3872</ele>
        <time>2021-07-08T06:56:46Z</time>
      </trkpt>
      <trkpt lat="41.15098" lon="-8.60421">
        <ele>113.1289</ele>
        <time>2021-07-08T06:56:57Z</time>
      </trkpt>
      <trkpt lat="41.15029" lon="-8.60419">
        <ele>107.1794</ele>
        <time>2021-07-08T06:57:08Z</time>
      </trkpt>
      <trkpt lat="41.14977" lon="-8.60414">
        <ele>105.0427</ele>
        <time>2021-07-08T06:57:19Z</time>
      </trkpt>
      <trkpt lat="41.14956" lon="-8.60412">
        <ele>103.8839</ele>
        <time>2021-07-08T06:57:30Z</time>
      </trkpt>
      <trkpt lat="41.14867" lon="-8.60403">
        <ele>98.93977</ele>
        <time>2021-07-08T06:57:41Z</time>
      </trkpt>
      <trkpt lat="41.1479" lon="-8.60395">
        <ele>97.45766</ele>
        <time>2021-07-08T06:57:52Z</time>
      </trkpt>
      <trkpt lat="41.14755" lon="-8.60353">
        <ele>99.85877</ele>
        <time>2021-07-08T06:58:03Z</time>
      </trkpt>
      <trkpt lat="41.14755" lon="-8.60353">
        <ele>99.9185</ele>
        <time>2021-07-08T06:59:02Z</time>
      </trkpt>
      <trkpt lat="41.14755" lon="-8.60352">
        <ele>99.12036</ele>
        <time>2021-07-08T07:00:01Z</time>
      </trkpt>
      <trkpt lat="41.14755" lon="-8.60351">
        <ele>99.36482</ele>
        <time>2021-07-08T07:01:00Z</time>
      </trkpt>
      <trkpt lat="41.14748" lon="-8.60325">
        <ele>100.0426</ele>
        <time>2021-07-08T07:01:11Z</time>
      </trkpt>
      <trkpt lat="41.14727" lon="-8.60254">
        <ele>100.7026</ele>
        <time>2021-07-08T07:01:22Z</time>
      </trkpt>
      <trkpt lat="41.14725" lon="-8.60244">
        <ele>100.3907</ele>
        <time>2021-07-08T07:01:33Z</time>
      </trkpt>
      <trkpt lat="41.14728" lon="-8.60241">
        <ele>100.7319</ele>
        <time>2021-07-08T07:01:55Z</time>
      </trkpt>
      <trkpt lat="41.14725" lon="-8.60238">
        <ele>100.0364</ele>
        <time>2021-07-08T07:02:25Z</time>
      </trkpt>
      <trkpt lat="41.14727" lon="-8.60153">
        <ele>98.61368</ele>
        <time>2021-07-08T07:02:36Z</time>
      </trkpt>
      <trkpt lat="41.1476" lon="-8.60044">
        <ele>97.66218</ele>
        <time>2021-07-08T07:02:47Z</time>
      </trkpt>
      <trkpt lat="41.14749" lon="-8.59998">
        <ele>95.62567</ele>
        <time>2021-07-08T07:02:58Z</time>
      </trkpt>
      <trkpt lat="41.14683" lon="-8.59965">
        <ele>94.6917</ele>
        <time>2021-07-08T07:03:09Z</time>
      </trkpt>
      <trkpt lat="41.14614" lon="-8.59933">
        <ele>93.51401</ele>
        <time>2021-07-08T07:03:20Z</time>
      </trkpt>
      <trkpt lat="41.14601" lon="-8.59927">
        <ele>95.36518</ele>
        <time>2021-07-08T07:03:31Z</time>
      </trkpt>
      <trkpt lat="41.14596" lon="-8.59927">
        <ele>97.13035</ele>
        <time>2021-07-08T07:03:42Z</time>
      </trkpt>
      <trkpt lat="41.14593" lon="-8.59924">
        <ele>97.41042</ele>
        <time>2021-07-08T07:03:57Z</time>
      </trkpt>
      <trkpt lat="41.14583" lon="-8.60042">
        <ele>96.30863</ele>
        <time>2021-07-08T07:04:08Z</time>
      </trkpt>
      <trkpt lat="41.14573" lon="-8.60145">
        <ele>92.24131</ele>
        <time>2021-07-08T07:04:19Z</time>
      </trkpt>
      <trkpt lat="41.14572" lon="-8.6015">
        <ele>93.64071</ele>
        <time>2021-07-08T07:04:31Z</time>
      </trkpt>
      <trkpt lat="41.14566" lon="-8.60212">
        <ele>92.87586</ele>
        <time>2021-07-08T07:04:42Z</time>
      </trkpt>
      <trkpt lat="41.14548" lon="-8.60369">
        <ele>93.46371</ele>
        <time>2021-07-08T07:04:53Z</time>
      </trkpt>
      <trkpt lat="41.14514" lon="-8.60449">
        <ele>91.38196</ele>
        <time>2021-07-08T07:05:04Z</time>
      </trkpt>
      <trkpt lat="41.14455" lon="-8.60479">
        <ele>91.44809</ele>
        <time>2021-07-08T07:05:15Z</time>
      </trkpt>
      <trkpt lat="41.14422" lon="-8.60492">
        <ele>90.82429</ele>
        <time>2021-07-08T07:05:26Z</time>
      </trkpt>
      <trkpt lat="41.14418" lon="-8.60491">
        <ele>87.95296</ele>
        <time>2021-07-08T07:05:57Z</time>
      </trkpt>
      <trkpt lat="41.14387" lon="-8.60447">
        <ele>85.81214</ele>
        <time>2021-07-08T07:06:08Z</time>
      </trkpt>
      <trkpt lat="41.14342" lon="-8.60307">
        <ele>76.24164</ele>
        <time>2021-07-08T07:06:19Z</time>
      </trkpt>
      <trkpt lat="41.14258" lon="-8.60206">
        <ele>72.47316</ele>
        <time>2021-07-08T07:06:30Z</time>
      </trkpt>
      <trkpt lat="41.141" lon="-8.60171">
        <ele>77.04292</ele>
        <time>2021-07-08T07:06:41Z</time>
      </trkpt>
      <trkpt lat="41.13921" lon="-8.60135">
        <ele>73.04492</ele>
        <time>2021-07-08T07:06:52Z</time>
      </trkpt>
      <trkpt lat="41.13763" lon="-8.60135">
        <ele>72.59288</ele>
        <time>2021-07-08T07:07:03Z</time>
      </trkpt>
      <trkpt lat="41.1367" lon="-8.60191">
        <ele>72.59221</ele>
        <time>2021-07-08T07:07:14Z</time>
      </trkpt>
      <trkpt lat="41.13529" lon="-8.60257">
        <ele>78.39001</ele>
        <time>2021-07-08T07:07:25Z</time>
      </trkpt>
      <trkpt lat="41.13397" lon="-8.6018">
        <ele>75.4463</ele>
        <time>2021-07-08T07:07:36Z</time>
      </trkpt>
      <trkpt lat="41.13312" lon="-8.59998">
        <ele>59.91638</ele>
        <time>2021-07-08T07:07:47Z</time>
      </trkpt>
      <trkpt lat="41.1323" lon="-8.59812">
        <ele>45.46449</ele>
        <time>2021-07-08T07:07:58Z</time>
      </trkpt>
      <trkpt lat="41.13121" lon="-8.59711">
        <ele>46.40702</ele>
        <time>2021-07-08T07:08:09Z</time>
      </trkpt>
      <trkpt lat="41.13065" lon="-8.59719">
        <ele>47.66379</ele>
        <time>2021-07-08T07:08:20Z</time>
      </trkpt>
      <trkpt lat="41.12951" lon="-8.59785">
        <ele>53.85292</ele>
        <time>2021-07-08T07:08:31Z</time>
      </trkpt>
      <trkpt lat="41.12785" lon="-8.59813">
        <ele>65.80152</ele>
        <time>2021-07-08T07:08:42Z</time>
      </trkpt>
      <trkpt lat="41.12622" lon="-8.59833">
        <ele>82.58512</ele>
        <time>2021-07-08T07:08:53Z</time>
      </trkpt>
      <trkpt lat="41.12539" lon="-8.59847">
        <ele>89.53708</ele>
        <time>2021-07-08T07:09:04Z</time>
      </trkpt>
      <trkpt lat="41.12502" lon="-8.59863">
        <ele>90.59018</ele>
        <time>2021-07-08T07:09:15Z</time>
      </trkpt>
      <trkpt lat="41.12488" lon="-8.59745">
        <ele>83.43494</ele>
        <time>2021-07-08T07:09:26Z</time>
      </trkpt>
      <trkpt lat="41.12454" lon="-8.59638">
        <ele>75.58448</ele>
        <time>2021-07-08T07:09:37Z</time>
      </trkpt>
      <trkpt lat="41.12529" lon="-8.59596">
        <ele>77.57382</ele>
        <time>2021-07-08T07:09:48Z</time>
      </trkpt>
      <trkpt lat="41.12693" lon="-8.59554">
        <ele>70.73854</ele>
        <time>2021-07-08T07:09:59Z</time>
      </trkpt>
      <trkpt lat="41.12869" lon="-8.59497">
        <ele>62.11772</ele>
        <time>2021-07-08T07:10:10Z</time>
      </trkpt>
      <trkpt lat="41.13007" lon="-8.59319">
        <ele>66.25234</ele>
        <time>2021-07-08T07:10:21Z</time>
      </trkpt>
      <trkpt lat="41.12992" lon="-8.59111">
        <ele>60.1383</ele>
        <time>2021-07-08T07:10:32Z</time>
      </trkpt>
      <trkpt lat="41.12992" lon="-8.58892">
        <ele>50.67065</ele>
        <time>2021-07-08T07:10:43Z</time>
      </trkpt>
      <trkpt lat="41.1303" lon="-8.58812">
        <ele>42.86731</ele>
        <time>2021-07-08T07:10:54Z</time>
      </trkpt>
      <trkpt lat="41.13041" lon="-8.58818">
        <ele>42.76401</ele>
        <time>2021-07-08T07:11:05Z</time>
      </trkpt>
      <trkpt lat="41.13062" lon="-8.5877">
        <ele>48.89314</ele>
        <time>2021-07-08T07:11:16Z</time>
      </trkpt>
      <trkpt lat="41.13084" lon="-8.58669">
        <ele>59.2599</ele>
        <time>2021-07-08T07:11:27Z</time>
      </trkpt>
      <trkpt lat="41.13119" lon="-8.58541">
        <ele>64.85147</ele>
        <time>2021-07-08T07:11:38Z</time>
      </trkpt>
      <trkpt lat="41.13126" lon="-8.58429">
        <ele>67.24333</ele>
        <time>2021-07-08T07:11:49Z</time>
      </trkpt>
      <trkpt lat="41.13091" lon="-8.58319">
        <ele>65.79787</ele>
        <time>2021-07-08T07:12:00Z</time>
      </trkpt>
      <trkpt lat="41.1307" lon="-8.58227">
        <ele>71.80196</ele>
        <time>2021-07-08T07:12:11Z</time>
      </trkpt>
      <trkpt lat="41.13026" lon="-8.5817">
        <ele>72.68692</ele>
        <time>2021-07-08T07:12:22Z</time>
      </trkpt>
      <trkpt lat="41.12959" lon="-8.58123">
        <ele>76.77166</ele>
        <time>2021-07-08T07:12:33Z</time>
      </trkpt>
      <trkpt lat="41.12877" lon="-8.58087">
        <ele>78.18205</ele>
        <time>2021-07-08T07:12:44Z</time>
      </trkpt>
      <trkpt lat="41.12791" lon="-8.58051">
        <ele>77.80809</ele>
        <time>2021-07-08T07:12:55Z</time>
      </trkpt>
      <trkpt lat="41.12689" lon="-8.58002">
        <ele>84.43288</ele>
        <time>2021-07-08T07:13:06Z</time>
      </trkpt>
      <trkpt lat="41.12611" lon="-8.57968">
        <ele>86.2961</ele>
        <time>2021-07-08T07:13:17Z</time>
      </trkpt>
      <trkpt lat="41.12545" lon="-8.5792">
        <ele>85.33843</ele>
        <time>2021-07-08T07:13:28Z</time>
      </trkpt>
      <trkpt lat="41.12488" lon="-8.57851">
        <ele>83.52144</ele>
        <time>2021-07-08T07:13:39Z</time>
      </trkpt>
      <trkpt lat="41.12436" lon="-8.57775">
        <ele>83.58956</ele>
        <time>2021-07-08T07:13:50Z</time>
      </trkpt>
      <trkpt lat="41.1235" lon="-8.5776">
        <ele>79.54583</ele>
        <time>2021-07-08T07:14:01Z</time>
      </trkpt>
      <trkpt lat="41.12254" lon="-8.57733">
        <ele>75.48164</ele>
        <time>2021-07-08T07:14:12Z</time>
      </trkpt>
      <trkpt lat="41.12168" lon="-8.57728">
        <ele>72.06735</ele>
        <time>2021-07-08T07:14:23Z</time>
      </trkpt>
      <trkpt lat="41.12143" lon="-8.57728">
        <ele>72.53331</ele>
        <time>2021-07-08T07:14:34Z</time>
      </trkpt>
      <trkpt lat="41.12078" lon="-8.57734">
        <ele>73.20198</ele>
        <time>2021-07-08T07:14:45Z</time>
      </trkpt>
      <trkpt lat="41.11999" lon="-8.57713">
        <ele>68.15225</ele>
        <time>2021-07-08T07:14:56Z</time>
      </trkpt>
      <trkpt lat="41.11931" lon="-8.57749">
        <ele>68.80734</ele>
        <time>2021-07-08T07:15:07Z</time>
      </trkpt>
      <trkpt lat="41.11898" lon="-8.57778">
        <ele>75.83071</ele>
        <time>2021-07-08T07:15:18Z</time>
      </trkpt>
      <trkpt lat="41.11823" lon="-8.57765">
        <ele>88.1873</ele>
        <time>2021-07-08T07:15:29Z</time>
      </trkpt>
      <trkpt lat="41.11735" lon="-8.57874">
        <ele>96.3942</ele>
        <time>2021-07-08T07:15:40Z</time>
      </trkpt>
      <trkpt lat="41.11581" lon="-8.57921">
        <ele>111.7627</ele>
        <time>2021-07-08T07:15:51Z</time>
      </trkpt>
      <trkpt lat="41.11495" lon="-8.57972">
        <ele>121.8839</ele>
        <time>2021-07-08T07:16:02Z</time>
      </trkpt>
      <trkpt lat="41.11489" lon="-8.57979">
        <ele>123.1955</ele>
        <time>2021-07-08T07:16:27Z</time>
      </trkpt>
      <trkpt lat="41.11411" lon="-8.58052">
        <ele>126.131</ele>
        <time>2021-07-08T07:16:38Z</time>
      </trkpt>
      <trkpt lat="41.11339" lon="-8.58118">
        <ele>127.1323</ele>
        <time>2021-07-08T07:16:49Z</time>
      </trkpt>
      <trkpt lat="41.11334" lon="-8.58122">
        <ele>127.5982</ele>
        <time>2021-07-08T07:17:04Z</time>
      </trkpt>
      <trkpt lat="41.11314" lon="-8.5814">
        <ele>127.3974</ele>
        <time>2021-07-08T07:17:15Z</time>
      </trkpt>
      <trkpt lat="41.11238" lon="-8.58019">
        <ele>123.8904</ele>
        <time>2021-07-08T07:17:26Z</time>
      </trkpt>
      <trkpt lat="41.11152" lon="-8.57881">
        <ele>112.8006</ele>
        <time>2021-07-08T07:17:37Z</time>
      </trkpt>
      <trkpt lat="41.11076" lon="-8.57759">
        <ele>115.0791</ele>
        <time>2021-07-08T07:17:48Z</time>
      </trkpt>
      <trkpt lat="41.11003" lon="-8.57641">
        <ele>117.8697</ele>
        <time>2021-07-08T07:17:59Z</time>
      </trkpt>
      <trkpt lat="41.10964" lon="-8.57575">
        <ele>117.8458</ele>
        <time>2021-07-08T07:18:10Z</time>
      </trkpt>
      <trkpt lat="41.10957" lon="-8.57567">
        <ele>116.7963</ele>
        <time>2021-07-08T07:18:21Z</time>
      </trkpt>
      <trkpt lat="41.10924" lon="-8.57515">
        <ele>118.1256</ele>
        <time>2021-07-08T07:18:32Z</time>
      </trkpt>
      <trkpt lat="41.10831" lon="-8.5737">
        <ele>112.2396</ele>
        <time>2021-07-08T07:18:43Z</time>
      </trkpt>
      <trkpt lat="41.1073" lon="-8.5721">
        <ele>103.8271</ele>
        <time>2021-07-08T07:18:54Z</time>
      </trkpt>
      <trkpt lat="41.1064" lon="-8.57069">
        <ele>95.53428</ele>
        <time>2021-07-08T07:19:05Z</time>
      </trkpt>
      <trkpt lat="41.10551" lon="-8.5697">
        <ele>94.76882</ele>
        <time>2021-07-08T07:19:16Z</time>
      </trkpt>
      <trkpt lat="41.10427" lon="-8.56915">
        <ele>91.12294</ele>
        <time>2021-07-08T07:19:27Z</time>
      </trkpt>
      <trkpt lat="41.10267" lon="-8.56842">
        <ele>82.13031</ele>
        <time>2021-07-08T07:19:38Z</time>
      </trkpt>
      <trkpt lat="41.10088" lon="-8.5672">
        <ele>72.24598</ele>
        <time>2021-07-08T07:19:49Z</time>
      </trkpt>
      <trkpt lat="41.09921" lon="-8.56618">
        <ele>61.17352</ele>
        <time>2021-07-08T07:20:00Z</time>
      </trkpt>
      <trkpt lat="41.09882" lon="-8.56532">
        <ele>64.78276</ele>
        <time>2021-07-08T07:20:11Z</time>
      </trkpt>
      <trkpt lat="41.09877" lon="-8.56512">
        <ele>65.07262</ele>
        <time>2021-07-08T07:20:22Z</time>
      </trkpt>
      <trkpt lat="41.09854" lon="-8.56432">
        <ele>68.17934</ele>
        <time>2021-07-08T07:20:33Z</time>
      </trkpt>
      <trkpt lat="41.09816" lon="-8.56298">
        <ele>72.20311</ele>
        <time>2021-07-08T07:20:44Z</time>
      </trkpt>
      <trkpt lat="41.09765" lon="-8.5612">
        <ele>66.55233</ele>
        <time>2021-07-08T07:20:55Z</time>
      </trkpt>
      <trkpt lat="41.09722" lon="-8.55969">
        <ele>62.87262</ele>
        <time>2021-07-08T07:21:06Z</time>
      </trkpt>
      <trkpt lat="41.0968" lon="-8.55827">
        <ele>61.39758</ele>
        <time>2021-07-08T07:21:17Z</time>
      </trkpt>
      <trkpt lat="41.09636" lon="-8.55671">
        <ele>65.273</ele>
        <time>2021-07-08T07:21:28Z</time>
      </trkpt>
      <trkpt lat="41.09604" lon="-8.55558">
        <ele>66.35539</ele>
        <time>2021-07-08T07:21:39Z</time>
      </trkpt>
      <trkpt lat="41.09569" lon="-8.5544">
        <ele>66.12497</ele>
        <time>2021-07-08T07:21:50Z</time>
      </trkpt>
      <trkpt lat="41.09524" lon="-8.55284">
        <ele>71.65946</ele>
        <time>2021-07-08T07:22:01Z</time>
      </trkpt>
      <trkpt lat="41.0949" lon="-8.55161">
        <ele>79.99884</ele>
        <time>2021-07-08T07:22:12Z</time>
      </trkpt>
      <trkpt lat="41.0947" lon="-8.55089">
        <ele>83.77028</ele>
        <time>2021-07-08T07:22:23Z</time>
      </trkpt>
      <trkpt lat="41.0946" lon="-8.55053">
        <ele>85.67763</ele>
        <time>2021-07-08T07:22:34Z</time>
      </trkpt>
      <trkpt lat="41.09435" lon="-8.54963">
        <ele>89.07625</ele>
        <time>2021-07-08T07:22:45Z</time>
      </trkpt>
      <trkpt lat="41.09389" lon="-8.54815">
        <ele>94.07782</ele>
        <time>2021-07-08T07:22:56Z</time>
      </trkpt>
      <trkpt lat="41.09333" lon="-8.54618">
        <ele>98.65273</ele>
        <time>2021-07-08T07:23:07Z</time>
      </trkpt>
      <trkpt lat="41.0927" lon="-8.54404">
        <ele>100.8675</ele>
        <time>2021-07-08T07:23:18Z</time>
      </trkpt>
      <trkpt lat="41.0922" lon="-8.54228">
        <ele>104.4717</ele>
        <time>2021-07-08T07:23:29Z</time>
      </trkpt>
      <trkpt lat="41.09165" lon="-8.54035">
        <ele>109.2878</ele>
        <time>2021-07-08T07:23:40Z</time>
      </trkpt>
      <trkpt lat="41.09111" lon="-8.53838">
        <ele>110.6544</ele>
        <time>2021-07-08T07:23:51Z</time>
      </trkpt>
      <trkpt lat="41.0905" lon="-8.53644">
        <ele>114.7815</ele>
        <time>2021-07-08T07:24:02Z</time>
      </trkpt>
      <trkpt lat="41.08954" lon="-8.53476">
        <ele>117.3938</ele>
        <time>2021-07-08T07:24:13Z</time>
      </trkpt>
      <trkpt lat="41.08795" lon="-8.53375">
        <ele>116.1324</ele>
        <time>2021-07-08T07:24:24Z</time>
      </trkpt>
      <trkpt lat="41.0862" lon="-8.5335">
        <ele>113.9916</ele>
        <time>2021-07-08T07:24:35Z</time>
      </trkpt>
      <trkpt lat="41.0844" lon="-8.53335">
        <ele>110.5398</ele>
        <time>2021-07-08T07:24:46Z</time>
      </trkpt>
      <trkpt lat="41.08266" lon="-8.53321">
        <ele>107.7247</ele>
        <time>2021-07-08T07:24:57Z</time>
      </trkpt>
      <trkpt lat="41.08084" lon="-8.53396">
        <ele>104.3858</ele>
        <time>2021-07-08T07:25:08Z</time>
      </trkpt>
      <trkpt lat="41.07899" lon="-8.53502">
        <ele>98.30961</ele>
        <time>2021-07-08T07:25:19Z</time>
      </trkpt>
      <trkpt lat="41.07688" lon="-8.53381">
        <ele>107.5619</ele>
        <time>2021-07-08T07:25:30Z</time>
      </trkpt>
      <trkpt lat="41.07479" lon="-8.53335">
        <ele>111.2621</ele>
        <time>2021-07-08T07:25:41Z</time>
      </trkpt>
      <trkpt lat="41.07257" lon="-8.53368">
        <ele>105.1094</ele>
        <time>2021-07-08T07:25:52Z</time>
      </trkpt>
      <trkpt lat="41.07041" lon="-8.53359">
        <ele>101.7089</ele>
        <time>2021-07-08T07:26:03Z</time>
      </trkpt>
      <trkpt lat="41.0692" lon="-8.53239">
        <ele>102.8903</ele>
        <time>2021-07-08T07:26:14Z</time>
      </trkpt>
      <trkpt lat="41.06768" lon="-8.53069">
        <ele>108.2117</ele>
        <time>2021-07-08T07:26:25Z</time>
      </trkpt>
      <trkpt lat="41.06594" lon="-8.52947">
        <ele>119.1354</ele>
        <time>2021-07-08T07:26:36Z</time>
      </trkpt>
      <trkpt lat="41.06415" lon="-8.52843">
        <ele>128.0353</ele>
        <time>2021-07-08T07:26:47Z</time>
      </trkpt>
      <trkpt lat="41.06269" lon="-8.52765">
        <ele>136.5746</ele>
        <time>2021-07-08T07:26:59Z</time>
      </trkpt>
      <trkpt lat="41.06179" lon="-8.52612">
        <ele>135.0603</ele>
        <time>2021-07-08T07:27:10Z</time>
      </trkpt>
      <trkpt lat="41.06095" lon="-8.52494">
        <ele>152.1558</ele>
        <time>2021-07-08T07:27:21Z</time>
      </trkpt>
      <trkpt lat="41.05996" lon="-8.52404">
        <ele>168.1203</ele>
        <time>2021-07-08T07:27:32Z</time>
      </trkpt>
      <trkpt lat="41.05893" lon="-8.52319">
        <ele>167.4107</ele>
        <time>2021-07-08T07:27:43Z</time>
      </trkpt>
      <trkpt lat="41.05816" lon="-8.52256">
        <ele>175.6065</ele>
        <time>2021-07-08T07:27:54Z</time>
      </trkpt>
      <trkpt lat="41.05779" lon="-8.52242">
        <ele>178.3069</ele>
        <time>2021-07-08T07:28:05Z</time>
      </trkpt>
      <trkpt lat="41.05707" lon="-8.52105">
        <ele>189.898</ele>
        <time>2021-07-08T07:28:16Z</time>
      </trkpt>
      <trkpt lat="41.05537" lon="-8.52087">
        <ele>196.0842</ele>
        <time>2021-07-08T07:28:27Z</time>
      </trkpt>
      <trkpt lat="41.05378" lon="-8.52235">
        <ele>209.4233</ele>
        <time>2021-07-08T07:28:38Z</time>
      </trkpt>
      <trkpt lat="41.05212" lon="-8.52254">
        <ele>220.3658</ele>
        <time>2021-07-08T07:28:49Z</time>
      </trkpt>
      <trkpt lat="41.05102" lon="-8.52106">
        <ele>224.6576</ele>
        <time>2021-07-08T07:29:00Z</time>
      </trkpt>
      <trkpt lat="41.04967" lon="-8.52">
        <ele>229.8181</ele>
        <time>2021-07-08T07:29:11Z</time>
      </trkpt>
      <trkpt lat="41.04804" lon="-8.5191">
        <ele>229.3463</ele>
        <time>2021-07-08T07:29:22Z</time>
      </trkpt>
      <trkpt lat="41.04673" lon="-8.51754">
        <ele>210.8683</ele>
        <time>2021-07-08T07:29:33Z</time>
      </trkpt>
      <trkpt lat="41.04622" lon="-8.51502">
        <ele>205.9921</ele>
        <time>2021-07-08T07:29:44Z</time>
      </trkpt>
      <trkpt lat="41.04736" lon="-8.51282">
        <ele>199.4234</ele>
        <time>2021-07-08T07:29:55Z</time>
      </trkpt>
      <trkpt lat="41.04816" lon="-8.51114">
        <ele>200.1343</ele>
        <time>2021-07-08T07:30:06Z</time>
      </trkpt>
      <trkpt lat="41.04823" lon="-8.51085">
        <ele>200.8752</ele>
        <time>2021-07-08T07:30:17Z</time>
      </trkpt>
      <trkpt lat="41.04832" lon="-8.51025">
        <ele>200.9701</ele>
        <time>2021-07-08T07:30:28Z</time>
      </trkpt>
      <trkpt lat="41.04802" lon="-8.5083">
        <ele>198.4724</ele>
        <time>2021-07-08T07:30:39Z</time>
      </trkpt>
      <trkpt lat="41.04753" lon="-8.50621">
        <ele>186.0651</ele>
        <time>2021-07-08T07:30:50Z</time>
      </trkpt>
      <trkpt lat="41.04693" lon="-8.50351">
        <ele>168.7025</ele>
        <time>2021-07-08T07:31:01Z</time>
      </trkpt>
      <trkpt lat="41.04635" lon="-8.50084">
        <ele>166.0343</ele>
        <time>2021-07-08T07:31:12Z</time>
      </trkpt>
      <trkpt lat="41.04653" lon="-8.49788">
        <ele>162.8576</ele>
        <time>2021-07-08T07:31:23Z</time>
      </trkpt>
      <trkpt lat="41.04644" lon="-8.49455">
        <ele>146.8608</ele>
        <time>2021-07-08T07:31:34Z</time>
      </trkpt>
      <trkpt lat="41.04646" lon="-8.49172">
        <ele>127.3772</ele>
        <time>2021-07-08T07:31:45Z</time>
      </trkpt>
      <trkpt lat="41.04747" lon="-8.48984">
        <ele>112.7096</ele>
        <time>2021-07-08T07:31:56Z</time>
      </trkpt>
      <trkpt lat="41.04664" lon="-8.48879">
        <ele>106.8815</ele>
        <time>2021-07-08T07:32:07Z</time>
      </trkpt>
      <trkpt lat="41.04567" lon="-8.48752">
        <ele>94.76349</ele>
        <time>2021-07-08T07:32:18Z</time>
      </trkpt>
      <trkpt lat="41.0457" lon="-8.48523">
        <ele>71.39098</ele>
        <time>2021-07-08T07:32:29Z</time>
      </trkpt>
      <trkpt lat="41.04444" lon="-8.48439">
        <ele>56.99747</ele>
        <time>2021-07-08T07:32:40Z</time>
      </trkpt>
      <trkpt lat="41.04267" lon="-8.48403">
        <ele>58.6911</ele>
        <time>2021-07-08T07:32:51Z</time>
      </trkpt>
      <trkpt lat="41.0416" lon="-8.48198">
        <ele>60.66653</ele>
        <time>2021-07-08T07:33:02Z</time>
      </trkpt>
      <trkpt lat="41.04007" lon="-8.48035">
        <ele>50.62082</ele>
        <time>2021-07-08T07:33:13Z</time>
      </trkpt>
      <trkpt lat="41.03902" lon="-8.47919">
        <ele>49.65945</ele>
        <time>2021-07-08T07:33:24Z</time>
      </trkpt>
      <trkpt lat="41.03756" lon="-8.47871">
        <ele>57.21002</ele>
        <time>2021-07-08T07:33:35Z</time>
      </trkpt>
      <trkpt lat="41.0362" lon="-8.47857">
        <ele>71.65278</ele>
        <time>2021-07-08T07:33:46Z</time>
      </trkpt>
      <trkpt lat="41.03537" lon="-8.4798">
        <ele>95.55562</ele>
        <time>2021-07-08T07:33:57Z</time>
      </trkpt>
      <trkpt lat="41.03375" lon="-8.47952">
        <ele>100.6347</ele>
        <time>2021-07-08T07:34:08Z</time>
      </trkpt>
      <trkpt lat="41.03295" lon="-8.47792">
        <ele>104.9909</ele>
        <time>2021-07-08T07:34:19Z</time>
      </trkpt>
      <trkpt lat="41.03137" lon="-8.47697">
        <ele>123.711</ele>
        <time>2021-07-08T07:34:30Z</time>
      </trkpt>
      <trkpt lat="41.02998" lon="-8.47756">
        <ele>128.7256</ele>
        <time>2021-07-08T07:34:41Z</time>
      </trkpt>
      <trkpt lat="41.02901" lon="-8.47621">
        <ele>143.8034</ele>
        <time>2021-07-08T07:34:52Z</time>
      </trkpt>
      <trkpt lat="41.02834" lon="-8.475">
        <ele>154.7494</ele>
        <time>2021-07-08T07:35:03Z</time>
      </trkpt>
      <trkpt lat="41.02691" lon="-8.47562">
        <ele>164.3748</ele>
        <time>2021-07-08T07:35:14Z</time>
      </trkpt>
      <trkpt lat="41.02558" lon="-8.4751">
        <ele>173.6497</ele>
        <time>2021-07-08T07:35:25Z</time>
      </trkpt>
      <trkpt lat="41.02392" lon="-8.47463">
        <ele>177.7384</ele>
        <time>2021-07-08T07:35:36Z</time>
      </trkpt>
      <trkpt lat="41.02248" lon="-8.47455">
        <ele>178.9951</ele>
        <time>2021-07-08T07:35:47Z</time>
      </trkpt>
      <trkpt lat="41.02096" lon="-8.47463">
        <ele>172.2013</ele>
        <time>2021-07-08T07:35:58Z</time>
      </trkpt>
      <trkpt lat="41.01976" lon="-8.47352">
        <ele>160.0675</ele>
        <time>2021-07-08T07:36:09Z</time>
      </trkpt>
      <trkpt lat="41.01848" lon="-8.47236">
        <ele>157.5034</ele>
        <time>2021-07-08T07:36:20Z</time>
      </trkpt>
      <trkpt lat="41.0171" lon="-8.47169">
        <ele>156.5347</ele>
        <time>2021-07-08T07:36:31Z</time>
      </trkpt>
      <trkpt lat="41.01569" lon="-8.47119">
        <ele>160.1848</ele>
        <time>2021-07-08T07:36:42Z</time>
      </trkpt>
      <trkpt lat="41.01473" lon="-8.46944">
        <ele>169.9563</ele>
        <time>2021-07-08T07:36:53Z</time>
      </trkpt>
      <trkpt lat="41.01379" lon="-8.46773">
        <ele>182.3549</ele>
        <time>2021-07-08T07:37:04Z</time>
      </trkpt>
      <trkpt lat="41.01288" lon="-8.46594">
        <ele>194.6137</ele>
        <time>2021-07-08T07:37:15Z</time>
      </trkpt>
      <trkpt lat="41.01215" lon="-8.46427">
        <ele>204.2284</ele>
        <time>2021-07-08T07:37:26Z</time>
      </trkpt>
      <trkpt lat="41.01148" lon="-8.46262">
        <ele>211.242</ele>
        <time>2021-07-08T07:37:37Z</time>
      </trkpt>
      <trkpt lat="41.01091" lon="-8.46185">
        <ele>215.5323</ele>
        <time>2021-07-08T07:37:48Z</time>
      </trkpt>
      <trkpt lat="41.01064" lon="-8.46177">
        <ele>216.6891</ele>
        <time>2021-07-08T07:37:59Z</time>
      </trkpt>
      <trkpt lat="41.01025" lon="-8.46194">
        <ele>218.6518</ele>
        <time>2021-07-08T07:38:10Z</time>
      </trkpt>
      <trkpt lat="41.01065" lon="-8.46118">
        <ele>214.3072</ele>
        <time>2021-07-08T07:38:21Z</time>
      </trkpt>
      <trkpt lat="41.01111" lon="-8.45962">
        <ele>207.6377</ele>
        <time>2021-07-08T07:38:32Z</time>
      </trkpt>
      <trkpt lat="41.01163" lon="-8.45769">
        <ele>201.2896</ele>
        <time>2021-07-08T07:38:43Z</time>
      </trkpt>
      <trkpt lat="41.01204" lon="-8.45586">
        <ele>201.0616</ele>
        <time>2021-07-08T07:38:54Z</time>
      </trkpt>
      <trkpt lat="41.01158" lon="-8.45443">
        <ele>191.643</ele>
        <time>2021-07-08T07:39:05Z</time>
      </trkpt>
      <trkpt lat="41.0116" lon="-8.45304">
        <ele>186.8513</ele>
        <time>2021-07-08T07:39:16Z</time>
      </trkpt>
      <trkpt lat="41.01246" lon="-8.45222">
        <ele>183.9481</ele>
        <time>2021-07-08T07:39:27Z</time>
      </trkpt>
      <trkpt lat="41.01297" lon="-8.45098">
        <ele>182.555</ele>
        <time>2021-07-08T07:39:38Z</time>
      </trkpt>
      <trkpt lat="41.01429" lon="-8.45063">
        <ele>178.6202</ele>
        <time>2021-07-08T07:39:49Z</time>
      </trkpt>
      <trkpt lat="41.01576" lon="-8.45064">
        <ele>165.5032</ele>
        <time>2021-07-08T07:40:00Z</time>
      </trkpt>
      <trkpt lat="41.01737" lon="-8.45028">
        <ele>154.8397</ele>
        <time>2021-07-08T07:40:11Z</time>
      </trkpt>
      <trkpt lat="41.01799" lon="-8.44879">
        <ele>148.6244</ele>
        <time>2021-07-08T07:40:22Z</time>
      </trkpt>
      <trkpt lat="41.01738" lon="-8.44684">
        <ele>140.3426</ele>
        <time>2021-07-08T07:40:33Z</time>
      </trkpt>
      <trkpt lat="41.01673" lon="-8.44463">
        <ele>136.7081</ele>
        <time>2021-07-08T07:40:44Z</time>
      </trkpt>
      <trkpt lat="41.01617" lon="-8.44267">
        <ele>124.5073</ele>
        <time>2021-07-08T07:40:55Z</time>
      </trkpt>
      <trkpt lat="41.01605" lon="-8.44032">
        <ele>115.0455</ele>
        <time>2021-07-08T07:41:06Z</time>
      </trkpt>
      <trkpt lat="41.01592" lon="-8.43813">
        <ele>106.0359</ele>
        <time>2021-07-08T07:41:17Z</time>
      </trkpt>
      <trkpt lat="41.01654" lon="-8.43677">
        <ele>99.01203</ele>
        <time>2021-07-08T07:41:28Z</time>
      </trkpt>
      <trkpt lat="41.01715" lon="-8.43519">
        <ele>89.80699</ele>
        <time>2021-07-08T07:41:39Z</time>
      </trkpt>
      <trkpt lat="41.01818" lon="-8.43397">
        <ele>75.5655</ele>
        <time>2021-07-08T07:41:50Z</time>
      </trkpt>
      <trkpt lat="41.01899" lon="-8.432">
        <ele>68.32909</ele>
        <time>2021-07-08T07:42:01Z</time>
      </trkpt>
      <trkpt lat="41.01997" lon="-8.43091">
        <ele>64.27413</ele>
        <time>2021-07-08T07:42:12Z</time>
      </trkpt>
      <trkpt lat="41.02124" lon="-8.43103">
        <ele>61.0053</ele>
        <time>2021-07-08T07:42:23Z</time>
      </trkpt>
      <trkpt lat="41.02246" lon="-8.43092">
        <ele>52.3479</ele>
        <time>2021-07-08T07:42:34Z</time>
      </trkpt>
      <trkpt lat="41.02355" lon="-8.43018">
        <ele>34.46731</ele>
        <time>2021-07-08T07:42:45Z</time>
      </trkpt>
      <trkpt lat="41.02493" lon="-8.42993">
        <ele>28.18165</ele>
        <time>2021-07-08T07:42:56Z</time>
      </trkpt>
      <trkpt lat="41.02624" lon="-8.43026">
        <ele>35.36506</ele>
        <time>2021-07-08T07:43:07Z</time>
      </trkpt>
      <trkpt lat="41.0278" lon="-8.43071">
        <ele>48.65492</ele>
        <time>2021-07-08T07:43:18Z</time>
      </trkpt>
      <trkpt lat="41.02911" lon="-8.43144">
        <ele>58.50969</ele>
        <time>2021-07-08T07:43:29Z</time>
      </trkpt>
      <trkpt lat="41.02904" lon="-8.42999">
        <ele>65.6646</ele>
        <time>2021-07-08T07:43:40Z</time>
      </trkpt>
      <trkpt lat="41.02998" lon="-8.42873">
        <ele>76.77226</ele>
        <time>2021-07-08T07:43:51Z</time>
      </trkpt>
      <trkpt lat="41.03065" lon="-8.42714">
        <ele>86.50446</ele>
        <time>2021-07-08T07:44:02Z</time>
      </trkpt>
      <trkpt lat="41.03161" lon="-8.42655">
        <ele>94.64527</ele>
        <time>2021-07-08T07:44:13Z</time>
      </trkpt>
      <trkpt lat="41.03288" lon="-8.42641">
        <ele>103.7407</ele>
        <time>2021-07-08T07:44:24Z</time>
      </trkpt>
      <trkpt lat="41.0338" lon="-8.42558">
        <ele>111.9146</ele>
        <time>2021-07-08T07:44:35Z</time>
      </trkpt>
      <trkpt lat="41.03308" lon="-8.4242">
        <ele>114.2336</ele>
        <time>2021-07-08T07:44:46Z</time>
      </trkpt>
      <trkpt lat="41.03225" lon="-8.42267">
        <ele>118.9814</ele>
        <time>2021-07-08T07:44:57Z</time>
      </trkpt>
      <trkpt lat="41.03167" lon="-8.42091">
        <ele>131.5682</ele>
        <time>2021-07-08T07:45:08Z</time>
      </trkpt>
      <trkpt lat="41.03094" lon="-8.41953">
        <ele>134.4702</ele>
        <time>2021-07-08T07:45:19Z</time>
      </trkpt>
      <trkpt lat="41.03003" lon="-8.41835">
        <ele>134.2044</ele>
        <time>2021-07-08T07:45:30Z</time>
      </trkpt>
      <trkpt lat="41.03095" lon="-8.41708">
        <ele>139.7533</ele>
        <time>2021-07-08T07:45:41Z</time>
      </trkpt>
      <trkpt lat="41.03204" lon="-8.41573">
        <ele>154.8276</ele>
        <time>2021-07-08T07:45:52Z</time>
      </trkpt>
      <trkpt lat="41.03222" lon="-8.41375">
        <ele>163.7621</ele>
        <time>2021-07-08T07:46:03Z</time>
      </trkpt>
      <trkpt lat="41.03193" lon="-8.41159">
        <ele>175.6144</ele>
        <time>2021-07-08T07:46:14Z</time>
      </trkpt>
      <trkpt lat="41.03224" lon="-8.40976">
        <ele>187.3167</ele>
        <time>2021-07-08T07:46:25Z</time>
      </trkpt>
      <trkpt lat="41.03248" lon="-8.40757">
        <ele>199.0039</ele>
        <time>2021-07-08T07:46:36Z</time>
      </trkpt>
      <trkpt lat="41.03221" lon="-8.4059">
        <ele>199.1346</ele>
        <time>2021-07-08T07:46:47Z</time>
      </trkpt>
      <trkpt lat="41.03142" lon="-8.40462">
        <ele>181.8337</ele>
        <time>2021-07-08T07:46:58Z</time>
      </trkpt>
      <trkpt lat="41.03148" lon="-8.40312">
        <ele>182.3985</ele>
        <time>2021-07-08T07:47:09Z</time>
      </trkpt>
      <trkpt lat="41.03083" lon="-8.40183">
        <ele>169.9385</ele>
        <time>2021-07-08T07:47:20Z</time>
      </trkpt>
      <trkpt lat="41.03022" lon="-8.40011">
        <ele>164.6938</ele>
        <time>2021-07-08T07:47:31Z</time>
      </trkpt>
      <trkpt lat="41.02925" lon="-8.39943">
        <ele>161.9436</ele>
        <time>2021-07-08T07:47:42Z</time>
      </trkpt>
      <trkpt lat="41.0281" lon="-8.39867">
        <ele>155.566</ele>
        <time>2021-07-08T07:47:53Z</time>
      </trkpt>
      <trkpt lat="41.0276" lon="-8.39739">
        <ele>147.1243</ele>
        <time>2021-07-08T07:48:04Z</time>
      </trkpt>
      <trkpt lat="41.02881" lon="-8.3971">
        <ele>145.1835</ele>
        <time>2021-07-08T07:48:15Z</time>
      </trkpt>
      <trkpt lat="41.03025" lon="-8.39733">
        <ele>157.7109</ele>
        <time>2021-07-08T07:48:26Z</time>
      </trkpt>
      <trkpt lat="41.03165" lon="-8.39694">
        <ele>162.7662</ele>
        <time>2021-07-08T07:48:37Z</time>
      </trkpt>
      <trkpt lat="41.03291" lon="-8.39718">
        <ele>170.1168</ele>
        <time>2021-07-08T07:48:48Z</time>
      </trkpt>
      <trkpt lat="41.03387" lon="-8.39646">
        <ele>166.7541</ele>
        <time>2021-07-08T07:48:59Z</time>
      </trkpt>
      <trkpt lat="41.03455" lon="-8.39556">
        <ele>162.7733</ele>
        <time>2021-07-08T07:49:10Z</time>
      </trkpt>
      <trkpt lat="41.03488" lon="-8.39619">
        <ele>159.3089</ele>
        <time>2021-07-08T07:49:21Z</time>
      </trkpt>
      <trkpt lat="41.03528" lon="-8.3971">
        <ele>155.9071</ele>
        <time>2021-07-08T07:49:32Z</time>
      </trkpt>
      <trkpt lat="41.03681" lon="-8.39662">
        <ele>160.2657</ele>
        <time>2021-07-08T07:49:43Z</time>
      </trkpt>
      <trkpt lat="41.03799" lon="-8.39514">
        <ele>156.9862</ele>
        <time>2021-07-08T07:49:54Z</time>
      </trkpt>
      <trkpt lat="41.03944" lon="-8.39463">
        <ele>145.6862</ele>
        <time>2021-07-08T07:50:05Z</time>
      </trkpt>
      <trkpt lat="41.04094" lon="-8.39643">
        <ele>130.196</ele>
        <time>2021-07-08T07:50:16Z</time>
      </trkpt>
      <trkpt lat="41.04291" lon="-8.39646">
        <ele>126.4539</ele>
        <time>2021-07-08T07:50:27Z</time>
      </trkpt>
      <trkpt lat="41.04475" lon="-8.39568">
        <ele>116.3336</ele>
        <time>2021-07-08T07:50:38Z</time>
      </trkpt>
      <trkpt lat="41.04591" lon="-8.39438">
        <ele>105.07</ele>
        <time>2021-07-08T07:50:49Z</time>
      </trkpt>
      <trkpt lat="41.04659" lon="-8.3922">
        <ele>99.8345</ele>
        <time>2021-07-08T07:51:00Z</time>
      </trkpt>
      <trkpt lat="41.04786" lon="-8.38989">
        <ele>85.06785</ele>
        <time>2021-07-08T07:51:11Z</time>
      </trkpt>
      <trkpt lat="41.04781" lon="-8.38752">
        <ele>58.41215</ele>
        <time>2021-07-08T07:51:22Z</time>
      </trkpt>
      <trkpt lat="41.0474" lon="-8.38508">
        <ele>44.17316</ele>
        <time>2021-07-08T07:51:33Z</time>
      </trkpt>
      <trkpt lat="41.04755" lon="-8.38305">
        <ele>31.57127</ele>
        <time>2021-07-08T07:51:44Z</time>
      </trkpt>
      <trkpt lat="41.0473" lon="-8.38159">
        <ele>31.80561</ele>
        <time>2021-07-08T07:51:55Z</time>
      </trkpt>
      <trkpt lat="41.04727" lon="-8.38043">
        <ele>28.38898</ele>
        <time>2021-07-08T07:52:06Z</time>
      </trkpt>
      <trkpt lat="41.0474" lon="-8.37936">
        <ele>24.94664</ele>
        <time>2021-07-08T07:52:17Z</time>
      </trkpt>
      <trkpt lat="41.04761" lon="-8.37811">
        <ele>27.40664</ele>
        <time>2021-07-08T07:52:28Z</time>
      </trkpt>
      <trkpt lat="41.0479" lon="-8.37664">
        <ele>27.45711</ele>
        <time>2021-07-08T07:52:39Z</time>
      </trkpt>
      <trkpt lat="41.04828" lon="-8.37492">
        <ele>26.24361</ele>
        <time>2021-07-08T07:52:50Z</time>
      </trkpt>
      <trkpt lat="41.04888" lon="-8.37312">
        <ele>26.02948</ele>
        <time>2021-07-08T07:53:01Z</time>
      </trkpt>
      <trkpt lat="41.04925" lon="-8.37099">
        <ele>32.43519</ele>
        <time>2021-07-08T07:53:12Z</time>
      </trkpt>
      <trkpt lat="41.04819" lon="-8.36838">
        <ele>39.3451</ele>
        <time>2021-07-08T07:53:23Z</time>
      </trkpt>
      <trkpt lat="41.04611" lon="-8.36636">
        <ele>46.73116</ele>
        <time>2021-07-08T07:53:34Z</time>
      </trkpt>
      <trkpt lat="41.04433" lon="-8.36469">
        <ele>55.68583</ele>
        <time>2021-07-08T07:53:45Z</time>
      </trkpt>
      <trkpt lat="41.04315" lon="-8.36299">
        <ele>66.60918</ele>
        <time>2021-07-08T07:53:56Z</time>
      </trkpt>
      <trkpt lat="41.0422" lon="-8.36229">
        <ele>64.84428</ele>
        <time>2021-07-08T07:54:07Z</time>
      </trkpt>
      <trkpt lat="41.04113" lon="-8.36129">
        <ele>65.63125</ele>
        <time>2021-07-08T07:54:18Z</time>
      </trkpt>
      <trkpt lat="41.03984" lon="-8.35967">
        <ele>73.19951</ele>
        <time>2021-07-08T07:54:29Z</time>
      </trkpt>
      <trkpt lat="41.03862" lon="-8.35809">
        <ele>85.49183</ele>
        <time>2021-07-08T07:54:40Z</time>
      </trkpt>
      <trkpt lat="41.03774" lon="-8.35605">
        <ele>88.40209</ele>
        <time>2021-07-08T07:54:51Z</time>
      </trkpt>
      <trkpt lat="41.03658" lon="-8.35388">
        <ele>97.19728</ele>
        <time>2021-07-08T07:55:02Z</time>
      </trkpt>
      <trkpt lat="41.0353" lon="-8.35191">
        <ele>107.3133</ele>
        <time>2021-07-08T07:55:13Z</time>
      </trkpt>
      <trkpt lat="41.0342" lon="-8.35042">
        <ele>113.2061</ele>
        <time>2021-07-08T07:55:24Z</time>
      </trkpt>
      <trkpt lat="41.03408" lon="-8.34936">
        <ele>115.7195</ele>
        <time>2021-07-08T07:55:35Z</time>
      </trkpt>
      <trkpt lat="41.03342" lon="-8.34844">
        <ele>114.9367</ele>
        <time>2021-07-08T07:55:46Z</time>
      </trkpt>
      <trkpt lat="41.03424" lon="-8.34683">
        <ele>113.4599</ele>
        <time>2021-07-08T07:55:57Z</time>
      </trkpt>
      <trkpt lat="41.03354" lon="-8.3455">
        <ele>112.7086</ele>
        <time>2021-07-08T07:56:08Z</time>
      </trkpt>
      <trkpt lat="41.03283" lon="-8.34378">
        <ele>114.51</ele>
        <time>2021-07-08T07:56:19Z</time>
      </trkpt>
      <trkpt lat="41.03409" lon="-8.34443">
        <ele>112.0281</ele>
        <time>2021-07-08T07:56:30Z</time>
      </trkpt>
      <trkpt lat="41.03572" lon="-8.3459">
        <ele>117.8529</ele>
        <time>2021-07-08T07:56:41Z</time>
      </trkpt>
      <trkpt lat="41.03659" lon="-8.34722">
        <ele>125.6507</ele>
        <time>2021-07-08T07:56:52Z</time>
      </trkpt>
      <trkpt lat="41.03685" lon="-8.34537">
        <ele>124.6797</ele>
        <time>2021-07-08T07:57:03Z</time>
      </trkpt>
      <trkpt lat="41.03644" lon="-8.3432">
        <ele>132.6013</ele>
        <time>2021-07-08T07:57:14Z</time>
      </trkpt>
      <trkpt lat="41.03572" lon="-8.34131">
        <ele>134.6329</ele>
        <time>2021-07-08T07:57:25Z</time>
      </trkpt>
      <trkpt lat="41.03558" lon="-8.33955">
        <ele>138.334</ele>
        <time>2021-07-08T07:57:36Z</time>
      </trkpt>
      <trkpt lat="41.03658" lon="-8.33866">
        <ele>135.9964</ele>
        <time>2021-07-08T07:57:47Z</time>
      </trkpt>
      <trkpt lat="41.03719" lon="-8.33727">
        <ele>150.3241</ele>
        <time>2021-07-08T07:57:58Z</time>
      </trkpt>
      <trkpt lat="41.03709" lon="-8.33513">
        <ele>162.3971</ele>
        <time>2021-07-08T07:58:09Z</time>
      </trkpt>
      <trkpt lat="41.03675" lon="-8.33272">
        <ele>170.9689</ele>
        <time>2021-07-08T07:58:20Z</time>
      </trkpt>
      <trkpt lat="41.03591" lon="-8.33102">
        <ele>174.1153</ele>
        <time>2021-07-08T07:58:31Z</time>
      </trkpt>
      <trkpt lat="41.03545" lon="-8.32962">
        <ele>171.361</ele>
        <time>2021-07-08T07:58:42Z</time>
      </trkpt>
      <trkpt lat="41.03641" lon="-8.32898">
        <ele>171.0918</ele>
        <time>2021-07-08T07:58:53Z</time>
      </trkpt>
      <trkpt lat="41.03635" lon="-8.32768">
        <ele>173.7161</ele>
        <time>2021-07-08T07:59:04Z</time>
      </trkpt>
      <trkpt lat="41.03746" lon="-8.32869">
        <ele>181.1536</ele>
        <time>2021-07-08T07:59:15Z</time>
      </trkpt>
      <trkpt lat="41.03876" lon="-8.33049">
        <ele>182.7283</ele>
        <time>2021-07-08T07:59:26Z</time>
      </trkpt>
      <trkpt lat="41.03979" lon="-8.32957">
        <ele>193.9795</ele>
        <time>2021-07-08T07:59:37Z</time>
      </trkpt>
      <trkpt lat="41.04076" lon="-8.32922">
        <ele>192.5409</ele>
        <time>2021-07-08T07:59:48Z</time>
      </trkpt>
      <trkpt lat="41.04095" lon="-8.32938">
        <ele>189.209</ele>
        <time>2021-07-08T07:59:59Z</time>
      </trkpt>
      <trkpt lat="41.04198" lon="-8.32892">
        <ele>191.5013</ele>
        <time>2021-07-08T08:00:10Z</time>
      </trkpt>
      <trkpt lat="41.04221" lon="-8.32659">
        <ele>199.2134</ele>
        <time>2021-07-08T08:00:21Z</time>
      </trkpt>
      <trkpt lat="41.0426" lon="-8.32503">
        <ele>204.9604</ele>
        <time>2021-07-08T08:00:32Z</time>
      </trkpt>
      <trkpt lat="41.04366" lon="-8.32504">
        <ele>210.7532</ele>
        <time>2021-07-08T08:00:43Z</time>
      </trkpt>
      <trkpt lat="41.04514" lon="-8.32511">
        <ele>213.8002</ele>
        <time>2021-07-08T08:00:54Z</time>
      </trkpt>
      <trkpt lat="41.04577" lon="-8.32577">
        <ele>201.0707</ele>
        <time>2021-07-08T08:01:05Z</time>
      </trkpt>
      <trkpt lat="41.04575" lon="-8.32591">
        <ele>198.5408</ele>
        <time>2021-07-08T08:01:16Z</time>
      </trkpt>
      <trkpt lat="41.04575" lon="-8.32593">
        <ele>200.6678</ele>
        <time>2021-07-08T08:02:15Z</time>
      </trkpt>
      <trkpt lat="41.04569" lon="-8.32592">
        <ele>200.8508</ele>
        <time>2021-07-08T08:02:46Z</time>
      </trkpt>
      <trkpt lat="41.0461" lon="-8.3257">
        <ele>204.4828</ele>
        <time>2021-07-08T08:02:57Z</time>
      </trkpt>
      <trkpt lat="41.04602" lon="-8.32386">
        <ele>210.7718</ele>
        <time>2021-07-08T08:03:08Z</time>
      </trkpt>
      <trkpt lat="41.04535" lon="-8.32202">
        <ele>213.8496</ele>
        <time>2021-07-08T08:03:19Z</time>
      </trkpt>
      <trkpt lat="41.04657" lon="-8.32156">
        <ele>218.2579</ele>
        <time>2021-07-08T08:03:30Z</time>
      </trkpt>
      <trkpt lat="41.04624" lon="-8.31929">
        <ele>219.7367</ele>
        <time>2021-07-08T08:03:41Z</time>
      </trkpt>
      <trkpt lat="41.04581" lon="-8.31784">
        <ele>224.1662</ele>
        <time>2021-07-08T08:03:52Z</time>
      </trkpt>
      <trkpt lat="41.0463" lon="-8.31667">
        <ele>231.7635</ele>
        <time>2021-07-08T08:04:03Z</time>
      </trkpt>
      <trkpt lat="41.04624" lon="-8.31511">
        <ele>231.0357</ele>
        <time>2021-07-08T08:04:14Z</time>
      </trkpt>
      <trkpt lat="41.04552" lon="-8.31305">
        <ele>216.8441</ele>
        <time>2021-07-08T08:04:25Z</time>
      </trkpt>
      <trkpt lat="41.04533" lon="-8.31089">
        <ele>200.974</ele>
        <time>2021-07-08T08:04:36Z</time>
      </trkpt>
      <trkpt lat="41.04576" lon="-8.30834">
        <ele>186.6224</ele>
        <time>2021-07-08T08:04:47Z</time>
      </trkpt>
      <trkpt lat="41.04665" lon="-8.30687">
        <ele>175.9649</ele>
        <time>2021-07-08T08:04:58Z</time>
      </trkpt>
      <trkpt lat="41.04712" lon="-8.30475">
        <ele>173.6241</ele>
        <time>2021-07-08T08:05:09Z</time>
      </trkpt>
      <trkpt lat="41.04828" lon="-8.30329">
        <ele>161.5744</ele>
        <time>2021-07-08T08:05:20Z</time>
      </trkpt>
      <trkpt lat="41.04954" lon="-8.30286">
        <ele>157.1051</ele>
        <time>2021-07-08T08:05:31Z</time>
      </trkpt>
      <trkpt lat="41.05061" lon="-8.30405">
        <ele>139.7742</ele>
        <time>2021-07-08T08:05:42Z</time>
      </trkpt>
      <trkpt lat="41.05204" lon="-8.30358">
        <ele>139.2489</ele>
        <time>2021-07-08T08:05:53Z</time>
      </trkpt>
      <trkpt lat="41.05291" lon="-8.30378">
        <ele>129.0637</ele>
        <time>2021-07-08T08:06:04Z</time>
      </trkpt>
      <trkpt lat="41.05366" lon="-8.30192">
        <ele>116.6606</ele>
        <time>2021-07-08T08:06:15Z</time>
      </trkpt>
      <trkpt lat="41.0549" lon="-8.30079">
        <ele>106.1372</ele>
        <time>2021-07-08T08:06:26Z</time>
      </trkpt>
      <trkpt lat="41.05494" lon="-8.2998">
        <ele>103.9145</ele>
        <time>2021-07-08T08:06:37Z</time>
      </trkpt>
      <trkpt lat="41.05587" lon="-8.29861">
        <ele>113.305</ele>
        <time>2021-07-08T08:06:48Z</time>
      </trkpt>
      <trkpt lat="41.05612" lon="-8.29715">
        <ele>116.2393</ele>
        <time>2021-07-08T08:06:59Z</time>
      </trkpt>
      <trkpt lat="41.05662" lon="-8.29559">
        <ele>117.2566</ele>
        <time>2021-07-08T08:07:10Z</time>
      </trkpt>
      <trkpt lat="41.05702" lon="-8.29472">
        <ele>117.839</ele>
        <time>2021-07-08T08:07:21Z</time>
      </trkpt>
      <trkpt lat="41.05722" lon="-8.29349">
        <ele>109.0554</ele>
        <time>2021-07-08T08:07:32Z</time>
      </trkpt>
      <trkpt lat="41.05831" lon="-8.29269">
        <ele>103.6055</ele>
        <time>2021-07-08T08:07:43Z</time>
      </trkpt>
      <trkpt lat="41.05927" lon="-8.29158">
        <ele>102.0523</ele>
        <time>2021-07-08T08:07:54Z</time>
      </trkpt>
      <trkpt lat="41.06041" lon="-8.29038">
        <ele>89.50294</ele>
        <time>2021-07-08T08:08:05Z</time>
      </trkpt>
      <trkpt lat="41.06153" lon="-8.29111">
        <ele>81.03314</ele>
        <time>2021-07-08T08:08:16Z</time>
      </trkpt>
      <trkpt lat="41.06285" lon="-8.29182">
        <ele>84.93255</ele>
        <time>2021-07-08T08:08:27Z</time>
      </trkpt>
      <trkpt lat="41.06411" lon="-8.29186">
        <ele>80.87524</ele>
        <time>2021-07-08T08:08:38Z</time>
      </trkpt>
      <trkpt lat="41.06505" lon="-8.2921">
        <ele>83.7283</ele>
        <time>2021-07-08T08:08:49Z</time>
      </trkpt>
      <trkpt lat="41.06518" lon="-8.29392">
        <ele>83.66976</ele>
        <time>2021-07-08T08:09:00Z</time>
      </trkpt>
      <trkpt lat="41.06552" lon="-8.29553">
        <ele>84.32964</ele>
        <time>2021-07-08T08:09:11Z</time>
      </trkpt>
      <trkpt lat="41.0657" lon="-8.29656">
        <ele>91.55887</ele>
        <time>2021-07-08T08:09:22Z</time>
      </trkpt>
      <trkpt lat="41.06594" lon="-8.29743">
        <ele>88.35852</ele>
        <time>2021-07-08T08:09:33Z</time>
      </trkpt>
      <trkpt lat="41.06734" lon="-8.29741">
        <ele>81.3732</ele>
        <time>2021-07-08T08:09:44Z</time>
      </trkpt>
      <trkpt lat="41.06851" lon="-8.29664">
        <ele>75.61733</ele>
        <time>2021-07-08T08:09:55Z</time>
      </trkpt>
      <trkpt lat="41.06982" lon="-8.29672">
        <ele>71.42355</ele>
        <time>2021-07-08T08:10:06Z</time>
      </trkpt>
      <trkpt lat="41.07093" lon="-8.29611">
        <ele>64.16345</ele>
        <time>2021-07-08T08:10:17Z</time>
      </trkpt>
      <trkpt lat="41.07229" lon="-8.29608">
        <ele>59.23742</ele>
        <time>2021-07-08T08:10:28Z</time>
      </trkpt>
      <trkpt lat="41.07349" lon="-8.29536">
        <ele>55.61306</ele>
        <time>2021-07-08T08:10:39Z</time>
      </trkpt>
      <trkpt lat="41.07457" lon="-8.29513">
        <ele>45.82632</ele>
        <time>2021-07-08T08:10:50Z</time>
      </trkpt>
      <trkpt lat="41.07598" lon="-8.29568">
        <ele>40.77859</ele>
        <time>2021-07-08T08:11:01Z</time>
      </trkpt>
      <trkpt lat="41.07716" lon="-8.29478">
        <ele>39.48609</ele>
        <time>2021-07-08T08:11:12Z</time>
      </trkpt>
      <trkpt lat="41.07804" lon="-8.29531">
        <ele>36.54144</ele>
        <time>2021-07-08T08:11:23Z</time>
      </trkpt>
      <trkpt lat="41.07945" lon="-8.29654">
        <ele>37.87201</ele>
        <time>2021-07-08T08:11:34Z</time>
      </trkpt>
      <trkpt lat="41.08063" lon="-8.29735">
        <ele>37.55932</ele>
        <time>2021-07-08T08:11:45Z</time>
      </trkpt>
      <trkpt lat="41.08145" lon="-8.29657">
        <ele>35.52448</ele>
        <time>2021-07-08T08:11:56Z</time>
      </trkpt>
      <trkpt lat="41.08205" lon="-8.29568">
        <ele>35.11</ele>
        <time>2021-07-08T08:12:07Z</time>
      </trkpt>
      <trkpt lat="41.08271" lon="-8.29545">
        <ele>35.95667</ele>
        <time>2021-07-08T08:12:18Z</time>
      </trkpt>
      <trkpt lat="41.0834" lon="-8.29482">
        <ele>35.96358</ele>
        <time>2021-07-08T08:12:29Z</time>
      </trkpt>
      <trkpt lat="41.08425" lon="-8.29408">
        <ele>36.05394</ele>
        <time>2021-07-08T08:12:40Z</time>
      </trkpt>
      <trkpt lat="41.08485" lon="-8.29303">
        <ele>33.15724</ele>
        <time>2021-07-08T08:12:51Z</time>
      </trkpt>
      <trkpt lat="41.0858" lon="-8.2924">
        <ele>32.67565</ele>
        <time>2021-07-08T08:13:02Z</time>
      </trkpt>
      <trkpt lat="41.08661" lon="-8.2917">
        <ele>31.57801</ele>
        <time>2021-07-08T08:13:13Z</time>
      </trkpt>
      <trkpt lat="41.08762" lon="-8.29116">
        <ele>35.37074</ele>
        <time>2021-07-08T08:13:24Z</time>
      </trkpt>
      <trkpt lat="41.08832" lon="-8.29056">
        <ele>36.37885</ele>
        <time>2021-07-08T08:13:35Z</time>
      </trkpt>
      <trkpt lat="41.08869" lon="-8.28983">
        <ele>34.6973</ele>
        <time>2021-07-08T08:13:46Z</time>
      </trkpt>
      <trkpt lat="41.08811" lon="-8.28902">
        <ele>33.37581</ele>
        <time>2021-07-08T08:13:57Z</time>
      </trkpt>
      <trkpt lat="41.08747" lon="-8.28822">
        <ele>31.05013</ele>
        <time>2021-07-08T08:14:08Z</time>
      </trkpt>
      <trkpt lat="41.08736" lon="-8.28749">
        <ele>31.39565</ele>
        <time>2021-07-08T08:14:19Z</time>
      </trkpt>
      <trkpt lat="41.08814" lon="-8.28597">
        <ele>49.13251</ele>
        <time>2021-07-08T08:14:30Z</time>
      </trkpt>
      <trkpt lat="41.08967" lon="-8.28447">
        <ele>67.29762</ele>
        <time>2021-07-08T08:14:41Z</time>
      </trkpt>
      <trkpt lat="41.09121" lon="-8.28226">
        <ele>77.79138</ele>
        <time>2021-07-08T08:14:52Z</time>
      </trkpt>
      <trkpt lat="41.09245" lon="-8.2797">
        <ele>86.46516</ele>
        <time>2021-07-08T08:15:03Z</time>
      </trkpt>
      <trkpt lat="41.09345" lon="-8.27735">
        <ele>87.84603</ele>
        <time>2021-07-08T08:15:14Z</time>
      </trkpt>
      <trkpt lat="41.09414" lon="-8.27517">
        <ele>80.81281</ele>
        <time>2021-07-08T08:15:25Z</time>
      </trkpt>
      <trkpt lat="41.09477" lon="-8.2724">
        <ele>65.16565</ele>
        <time>2021-07-08T08:15:36Z</time>
      </trkpt>
      <trkpt lat="41.09476" lon="-8.26968">
        <ele>62.18675</ele>
        <time>2021-07-08T08:15:47Z</time>
      </trkpt>
      <trkpt lat="41.09576" lon="-8.26722">
        <ele>59.37081</ele>
        <time>2021-07-08T08:15:58Z</time>
      </trkpt>
      <trkpt lat="41.09623" lon="-8.2646">
        <ele>60.24742</ele>
        <time>2021-07-08T08:16:09Z</time>
      </trkpt>
      <trkpt lat="41.09607" lon="-8.26278">
        <ele>69.58811</ele>
        <time>2021-07-08T08:16:20Z</time>
      </trkpt>
      <trkpt lat="41.09628" lon="-8.26074">
        <ele>74.38649</ele>
        <time>2021-07-08T08:16:31Z</time>
      </trkpt>
      <trkpt lat="41.09543" lon="-8.25954">
        <ele>79.54866</ele>
        <time>2021-07-08T08:16:42Z</time>
      </trkpt>
      <trkpt lat="41.09512" lon="-8.25785">
        <ele>89.94273</ele>
        <time>2021-07-08T08:16:53Z</time>
      </trkpt>
      <trkpt lat="41.09423" lon="-8.25653">
        <ele>102.2969</ele>
        <time>2021-07-08T08:17:04Z</time>
      </trkpt>
      <trkpt lat="41.09339" lon="-8.25543">
        <ele>114.1478</ele>
        <time>2021-07-08T08:17:15Z</time>
      </trkpt>
      <trkpt lat="41.09187" lon="-8.25624">
        <ele>132.4389</ele>
        <time>2021-07-08T08:17:26Z</time>
      </trkpt>
      <trkpt lat="41.09057" lon="-8.25703">
        <ele>141.6081</ele>
        <time>2021-07-08T08:17:37Z</time>
      </trkpt>
      <trkpt lat="41.08909" lon="-8.25648">
        <ele>154.1271</ele>
        <time>2021-07-08T08:17:48Z</time>
      </trkpt>
      <trkpt lat="41.0875" lon="-8.25634">
        <ele>164.6705</ele>
        <time>2021-07-08T08:17:59Z</time>
      </trkpt>
      <trkpt lat="41.08582" lon="-8.25624">
        <ele>161.4679</ele>
        <time>2021-07-08T08:18:10Z</time>
      </trkpt>
      <trkpt lat="41.0848" lon="-8.25599">
        <ele>161.6899</ele>
        <time>2021-07-08T08:18:21Z</time>
      </trkpt>
      <trkpt lat="41.08459" lon="-8.25507">
        <ele>158.4594</ele>
        <time>2021-07-08T08:18:32Z</time>
      </trkpt>
      <trkpt lat="41.08481" lon="-8.25361">
        <ele>156.316</ele>
        <time>2021-07-08T08:18:43Z</time>
      </trkpt>
      <trkpt lat="41.08495" lon="-8.25218">
        <ele>152.5947</ele>
        <time>2021-07-08T08:18:54Z</time>
      </trkpt>
      <trkpt lat="41.08588" lon="-8.25071">
        <ele>149.2794</ele>
        <time>2021-07-08T08:19:05Z</time>
      </trkpt>
      <trkpt lat="41.08658" lon="-8.24966">
        <ele>144.8248</ele>
        <time>2021-07-08T08:19:16Z</time>
      </trkpt>
      <trkpt lat="41.08716" lon="-8.24885">
        <ele>145.7364</ele>
        <time>2021-07-08T08:19:27Z</time>
      </trkpt>
      <trkpt lat="41.08766" lon="-8.24827">
        <ele>144.7857</ele>
        <time>2021-07-08T08:19:38Z</time>
      </trkpt>
      <trkpt lat="41.0882" lon="-8.24763">
        <ele>139.5255</ele>
        <time>2021-07-08T08:19:49Z</time>
      </trkpt>
      <trkpt lat="41.08823" lon="-8.24743">
        <ele>138.3212</ele>
        <time>2021-07-08T08:20:00Z</time>
      </trkpt>
      <trkpt lat="41.08895" lon="-8.24709">
        <ele>139.4291</ele>
        <time>2021-07-08T08:20:11Z</time>
      </trkpt>
      <trkpt lat="41.08967" lon="-8.24691">
        <ele>139.2065</ele>
        <time>2021-07-08T08:20:22Z</time>
      </trkpt>
      <trkpt lat="41.09043" lon="-8.24634">
        <ele>138.6581</ele>
        <time>2021-07-08T08:20:33Z</time>
      </trkpt>
      <trkpt lat="41.09139" lon="-8.24545">
        <ele>139.1239</ele>
        <time>2021-07-08T08:20:44Z</time>
      </trkpt>
      <trkpt lat="41.09297" lon="-8.24519">
        <ele>147.4707</ele>
        <time>2021-07-08T08:20:55Z</time>
      </trkpt>
      <trkpt lat="41.09437" lon="-8.24464">
        <ele>155.1592</ele>
        <time>2021-07-08T08:21:06Z</time>
      </trkpt>
      <trkpt lat="41.09556" lon="-8.24395">
        <ele>161.6628</ele>
        <time>2021-07-08T08:21:17Z</time>
      </trkpt>
      <trkpt lat="41.09674" lon="-8.24352">
        <ele>168.2716</ele>
        <time>2021-07-08T08:21:28Z</time>
      </trkpt>
      <trkpt lat="41.09773" lon="-8.24279">
        <ele>179.2869</ele>
        <time>2021-07-08T08:21:39Z</time>
      </trkpt>
      <trkpt lat="41.09884" lon="-8.24366">
        <ele>182.6235</ele>
        <time>2021-07-08T08:21:50Z</time>
      </trkpt>
      <trkpt lat="41.0996" lon="-8.24259">
        <ele>185.9468</ele>
        <time>2021-07-08T08:22:01Z</time>
      </trkpt>
      <trkpt lat="41.10005" lon="-8.24118">
        <ele>195.32</ele>
        <time>2021-07-08T08:22:12Z</time>
      </trkpt>
      <trkpt lat="41.10159" lon="-8.24101">
        <ele>196.2465</ele>
        <time>2021-07-08T08:22:23Z</time>
      </trkpt>
      <trkpt lat="41.10322" lon="-8.24085">
        <ele>197.6023</ele>
        <time>2021-07-08T08:22:34Z</time>
      </trkpt>
      <trkpt lat="41.10486" lon="-8.24068">
        <ele>199.0368</ele>
        <time>2021-07-08T08:22:45Z</time>
      </trkpt>
      <trkpt lat="41.10621" lon="-8.24023">
        <ele>201.782</ele>
        <time>2021-07-08T08:22:56Z</time>
      </trkpt>
      <trkpt lat="41.10674" lon="-8.23876">
        <ele>198.1652</ele>
        <time>2021-07-08T08:23:07Z</time>
      </trkpt>
      <trkpt lat="41.10631" lon="-8.23703">
        <ele>196.3718</ele>
        <time>2021-07-08T08:23:18Z</time>
      </trkpt>
      <trkpt lat="41.10699" lon="-8.23597">
        <ele>201.6675</ele>
        <time>2021-07-08T08:23:29Z</time>
      </trkpt>
      <trkpt lat="41.10815" lon="-8.23552">
        <ele>206.8132</ele>
        <time>2021-07-08T08:23:40Z</time>
      </trkpt>
      <trkpt lat="41.1095" lon="-8.2351">
        <ele>206.3037</ele>
        <time>2021-07-08T08:23:51Z</time>
      </trkpt>
      <trkpt lat="41.11062" lon="-8.23447">
        <ele>206.8344</ele>
        <time>2021-07-08T08:24:02Z</time>
      </trkpt>
      <trkpt lat="41.11204" lon="-8.23418">
        <ele>209.6432</ele>
        <time>2021-07-08T08:24:13Z</time>
      </trkpt>
      <trkpt lat="41.1133" lon="-8.23362">
        <ele>210.6975</ele>
        <time>2021-07-08T08:24:24Z</time>
      </trkpt>
      <trkpt lat="41.1141" lon="-8.2322">
        <ele>210.7388</ele>
        <time>2021-07-08T08:24:35Z</time>
      </trkpt>
      <trkpt lat="41.11419" lon="-8.23045">
        <ele>208.2767</ele>
        <time>2021-07-08T08:24:46Z</time>
      </trkpt>
      <trkpt lat="41.11447" lon="-8.22889">
        <ele>205.6956</ele>
        <time>2021-07-08T08:24:57Z</time>
      </trkpt>
      <trkpt lat="41.11535" lon="-8.22731">
        <ele>206.8928</ele>
        <time>2021-07-08T08:25:08Z</time>
      </trkpt>
      <trkpt lat="41.11602" lon="-8.22594">
        <ele>209.5727</ele>
        <time>2021-07-08T08:25:19Z</time>
      </trkpt>
      <trkpt lat="41.11698" lon="-8.22405">
        <ele>206.5822</ele>
        <time>2021-07-08T08:25:30Z</time>
      </trkpt>
      <trkpt lat="41.11791" lon="-8.22237">
        <ele>199.386</ele>
        <time>2021-07-08T08:25:41Z</time>
      </trkpt>
      <trkpt lat="41.11951" lon="-8.22151">
        <ele>193.0511</ele>
        <time>2021-07-08T08:25:52Z</time>
      </trkpt>
      <trkpt lat="41.12111" lon="-8.2209">
        <ele>196.7702</ele>
        <time>2021-07-08T08:26:03Z</time>
      </trkpt>
      <trkpt lat="41.12253" lon="-8.22011">
        <ele>200.757</ele>
        <time>2021-07-08T08:26:14Z</time>
      </trkpt>
      <trkpt lat="41.12283" lon="-8.21991">
        <ele>203.0281</ele>
        <time>2021-07-08T08:26:25Z</time>
      </trkpt>
      <trkpt lat="41.12288" lon="-8.21988">
        <ele>203.5525</ele>
        <time>2021-07-08T08:27:06Z</time>
      </trkpt>
      <trkpt lat="41.12367" lon="-8.21881">
        <ele>206.3789</ele>
        <time>2021-07-08T08:27:17Z</time>
      </trkpt>
      <trkpt lat="41.1246" lon="-8.21711">
        <ele>211.7444</ele>
        <time>2021-07-08T08:27:28Z</time>
      </trkpt>
      <trkpt lat="41.12589" lon="-8.21582">
        <ele>214.1076</ele>
        <time>2021-07-08T08:27:39Z</time>
      </trkpt>
      <trkpt lat="41.12706" lon="-8.21442">
        <ele>214.9579</ele>
        <time>2021-07-08T08:27:50Z</time>
      </trkpt>
      <trkpt lat="41.12768" lon="-8.21259">
        <ele>220.7117</ele>
        <time>2021-07-08T08:28:01Z</time>
      </trkpt>
      <trkpt lat="41.12832" lon="-8.21067">
        <ele>221.7398</ele>
        <time>2021-07-08T08:28:12Z</time>
      </trkpt>
      <trkpt lat="41.12906" lon="-8.20858">
        <ele>221.0269</ele>
        <time>2021-07-08T08:28:23Z</time>
      </trkpt>
      <trkpt lat="41.13063" lon="-8.20757">
        <ele>224.0415</ele>
        <time>2021-07-08T08:28:34Z</time>
      </trkpt>
      <trkpt lat="41.13221" lon="-8.2069">
        <ele>227.3506</ele>
        <time>2021-07-08T08:28:45Z</time>
      </trkpt>
      <trkpt lat="41.13382" lon="-8.20713">
        <ele>230.5175</ele>
        <time>2021-07-08T08:28:56Z</time>
      </trkpt>
      <trkpt lat="41.13544" lon="-8.20629">
        <ele>237.1817</ele>
        <time>2021-07-08T08:29:07Z</time>
      </trkpt>
      <trkpt lat="41.1369" lon="-8.20559">
        <ele>248.4289</ele>
        <time>2021-07-08T08:29:18Z</time>
      </trkpt>
      <trkpt lat="41.13832" lon="-8.20556">
        <ele>245.8675</ele>
        <time>2021-07-08T08:29:29Z</time>
      </trkpt>
      <trkpt lat="41.1393" lon="-8.20465">
        <ele>242.0646</ele>
        <time>2021-07-08T08:29:40Z</time>
      </trkpt>
      <trkpt lat="41.14051" lon="-8.20442">
        <ele>239.348</ele>
        <time>2021-07-08T08:29:51Z</time>
      </trkpt>
      <trkpt lat="41.14165" lon="-8.2036">
        <ele>238.1176</ele>
        <time>2021-07-08T08:30:02Z</time>
      </trkpt>
      <trkpt lat="41.14168" lon="-8.20215">
        <ele>236.3363</ele>
        <time>2021-07-08T08:30:13Z</time>
      </trkpt>
      <trkpt lat="41.14241" lon="-8.20092">
        <ele>238.4755</ele>
        <time>2021-07-08T08:30:24Z</time>
      </trkpt>
      <trkpt lat="41.14414" lon="-8.19967">
        <ele>237.9453</ele>
        <time>2021-07-08T08:30:35Z</time>
      </trkpt>
      <trkpt lat="41.14609" lon="-8.19854">
        <ele>231.7379</ele>
        <time>2021-07-08T08:30:46Z</time>
      </trkpt>
      <trkpt lat="41.1477" lon="-8.19649">
        <ele>234.49</ele>
        <time>2021-07-08T08:30:57Z</time>
      </trkpt>
      <trkpt lat="41.14915" lon="-8.19449">
        <ele>243.7087</ele>
        <time>2021-07-08T08:31:08Z</time>
      </trkpt>
      <trkpt lat="41.15084" lon="-8.19274">
        <ele>246.1257</ele>
        <time>2021-07-08T08:31:19Z</time>
      </trkpt>
      <trkpt lat="41.1523" lon="-8.19137">
        <ele>250.3925</ele>
        <time>2021-07-08T08:31:30Z</time>
      </trkpt>
      <trkpt lat="41.15368" lon="-8.19059">
        <ele>250.5111</ele>
        <time>2021-07-08T08:31:41Z</time>
      </trkpt>
      <trkpt lat="41.15446" lon="-8.19025">
        <ele>248.3316</ele>
        <time>2021-07-08T08:31:52Z</time>
      </trkpt>
      <trkpt lat="41.15596" lon="-8.18908">
        <ele>242.7796</ele>
        <time>2021-07-08T08:32:03Z</time>
      </trkpt>
      <trkpt lat="41.15752" lon="-8.18805">
        <ele>239.0572</ele>
        <time>2021-07-08T08:32:14Z</time>
      </trkpt>
      <trkpt lat="41.15912" lon="-8.18686">
        <ele>239.2695</ele>
        <time>2021-07-08T08:32:25Z</time>
      </trkpt>
      <trkpt lat="41.16033" lon="-8.18578">
        <ele>239.2093</ele>
        <time>2021-07-08T08:32:36Z</time>
      </trkpt>
      <trkpt lat="41.16119" lon="-8.18404">
        <ele>238.0192</ele>
        <time>2021-07-08T08:32:47Z</time>
      </trkpt>
      <trkpt lat="41.16112" lon="-8.18235">
        <ele>227.2479</ele>
        <time>2021-07-08T08:32:58Z</time>
      </trkpt>
      <trkpt lat="41.16265" lon="-8.18114">
        <ele>236.3081</ele>
        <time>2021-07-08T08:33:09Z</time>
      </trkpt>
      <trkpt lat="41.16326" lon="-8.1795">
        <ele>238.4464</ele>
        <time>2021-07-08T08:33:20Z</time>
      </trkpt>
      <trkpt lat="41.16231" lon="-8.1777">
        <ele>227.5368</ele>
        <time>2021-07-08T08:33:31Z</time>
      </trkpt>
      <trkpt lat="41.16101" lon="-8.1764">
        <ele>222.0974</ele>
        <time>2021-07-08T08:33:42Z</time>
      </trkpt>
      <trkpt lat="41.16128" lon="-8.1744">
        <ele>216.6618</ele>
        <time>2021-07-08T08:33:53Z</time>
      </trkpt>
      <trkpt lat="41.16273" lon="-8.17357">
        <ele>209.1649</ele>
        <time>2021-07-08T08:34:04Z</time>
      </trkpt>
      <trkpt lat="41.16396" lon="-8.17239">
        <ele>201.2475</ele>
        <time>2021-07-08T08:34:15Z</time>
      </trkpt>
      <trkpt lat="41.16446" lon="-8.16985">
        <ele>190.9723</ele>
        <time>2021-07-08T08:34:26Z</time>
      </trkpt>
      <trkpt lat="41.16397" lon="-8.168">
        <ele>180.8456</ele>
        <time>2021-07-08T08:34:37Z</time>
      </trkpt>
      <trkpt lat="41.16371" lon="-8.1662">
        <ele>172.1207</ele>
        <time>2021-07-08T08:34:48Z</time>
      </trkpt>
      <trkpt lat="41.16268" lon="-8.16463">
        <ele>172.724</ele>
        <time>2021-07-08T08:34:59Z</time>
      </trkpt>
      <trkpt lat="41.16339" lon="-8.16343">
        <ele>174.3195</ele>
        <time>2021-07-08T08:35:10Z</time>
      </trkpt>
      <trkpt lat="41.16478" lon="-8.16428">
        <ele>184.9439</ele>
        <time>2021-07-08T08:35:21Z</time>
      </trkpt>
      <trkpt lat="41.16603" lon="-8.16545">
        <ele>193.5211</ele>
        <time>2021-07-08T08:35:32Z</time>
      </trkpt>
      <trkpt lat="41.16733" lon="-8.16646">
        <ele>201.4725</ele>
        <time>2021-07-08T08:35:43Z</time>
      </trkpt>
      <trkpt lat="41.16878" lon="-8.16527">
        <ele>208.68</ele>
        <time>2021-07-08T08:35:54Z</time>
      </trkpt>
      <trkpt lat="41.17001" lon="-8.1638">
        <ele>211.2104</ele>
        <time>2021-07-08T08:36:05Z</time>
      </trkpt>
      <trkpt lat="41.17147" lon="-8.16254">
        <ele>210.4083</ele>
        <time>2021-07-08T08:36:16Z</time>
      </trkpt>
      <trkpt lat="41.17293" lon="-8.1618">
        <ele>217.7522</ele>
        <time>2021-07-08T08:36:27Z</time>
      </trkpt>
      <trkpt lat="41.17433" lon="-8.1621">
        <ele>225.6375</ele>
        <time>2021-07-08T08:36:38Z</time>
      </trkpt>
      <trkpt lat="41.17535" lon="-8.1616">
        <ele>236.2574</ele>
        <time>2021-07-08T08:36:49Z</time>
      </trkpt>
      <trkpt lat="41.17605" lon="-8.15992">
        <ele>236.9652</ele>
        <time>2021-07-08T08:37:00Z</time>
      </trkpt>
      <trkpt lat="41.17678" lon="-8.15833">
        <ele>237.1011</ele>
        <time>2021-07-08T08:37:11Z</time>
      </trkpt>
      <trkpt lat="41.1775" lon="-8.1567">
        <ele>238.6945</ele>
        <time>2021-07-08T08:37:22Z</time>
      </trkpt>
      <trkpt lat="41.17798" lon="-8.15505">
        <ele>242.0818</ele>
        <time>2021-07-08T08:37:33Z</time>
      </trkpt>
      <trkpt lat="41.17889" lon="-8.15541">
        <ele>237.5398</ele>
        <time>2021-07-08T08:37:44Z</time>
      </trkpt>
      <trkpt lat="41.18008" lon="-8.15642">
        <ele>230.5504</ele>
        <time>2021-07-08T08:37:55Z</time>
      </trkpt>
      <trkpt lat="41.18137" lon="-8.15685">
        <ele>219.1214</ele>
        <time>2021-07-08T08:38:06Z</time>
      </trkpt>
      <trkpt lat="41.18277" lon="-8.15686">
        <ele>210.6027</ele>
        <time>2021-07-08T08:38:17Z</time>
      </trkpt>
      <trkpt lat="41.18447" lon="-8.15659">
        <ele>192.0068</ele>
        <time>2021-07-08T08:38:28Z</time>
      </trkpt>
      <trkpt lat="41.1863" lon="-8.15615">
        <ele>171.7383</ele>
        <time>2021-07-08T08:38:39Z</time>
      </trkpt>
      <trkpt lat="41.18776" lon="-8.15511">
        <ele>167.6831</ele>
        <time>2021-07-08T08:38:50Z</time>
      </trkpt>
      <trkpt lat="41.18912" lon="-8.15363">
        <ele>158.5561</ele>
        <time>2021-07-08T08:39:01Z</time>
      </trkpt>
      <trkpt lat="41.19052" lon="-8.15281">
        <ele>135.7347</ele>
        <time>2021-07-08T08:39:12Z</time>
      </trkpt>
      <trkpt lat="41.1922" lon="-8.15348">
        <ele>119.142</ele>
        <time>2021-07-08T08:39:23Z</time>
      </trkpt>
      <trkpt lat="41.19346" lon="-8.15445">
        <ele>99.36582</ele>
        <time>2021-07-08T08:39:34Z</time>
      </trkpt>
      <trkpt lat="41.19407" lon="-8.15418">
        <ele>96.41103</ele>
        <time>2021-07-08T08:39:45Z</time>
      </trkpt>
      <trkpt lat="41.19558" lon="-8.15341">
        <ele>106.6033</ele>
        <time>2021-07-08T08:39:56Z</time>
      </trkpt>
      <trkpt lat="41.19659" lon="-8.15179">
        <ele>119.883</ele>
        <time>2021-07-08T08:40:07Z</time>
      </trkpt>
      <trkpt lat="41.19721" lon="-8.15005">
        <ele>127.4488</ele>
        <time>2021-07-08T08:40:18Z</time>
      </trkpt>
      <trkpt lat="41.19696" lon="-8.14859">
        <ele>131.1123</ele>
        <time>2021-07-08T08:40:29Z</time>
      </trkpt>
      <trkpt lat="41.19667" lon="-8.14697">
        <ele>141.0887</ele>
        <time>2021-07-08T08:40:40Z</time>
      </trkpt>
      <trkpt lat="41.19573" lon="-8.14569">
        <ele>145.6034</ele>
        <time>2021-07-08T08:40:51Z</time>
      </trkpt>
      <trkpt lat="41.19532" lon="-8.14444">
        <ele>154.1312</ele>
        <time>2021-07-08T08:41:02Z</time>
      </trkpt>
      <trkpt lat="41.19504" lon="-8.14381">
        <ele>157.7486</ele>
        <time>2021-07-08T08:41:13Z</time>
      </trkpt>
      <trkpt lat="41.1941" lon="-8.14299">
        <ele>163.6127</ele>
        <time>2021-07-08T08:41:24Z</time>
      </trkpt>
      <trkpt lat="41.19279" lon="-8.14302">
        <ele>170.5118</ele>
        <time>2021-07-08T08:41:35Z</time>
      </trkpt>
      <trkpt lat="41.19211" lon="-8.14191">
        <ele>176.7534</ele>
        <time>2021-07-08T08:41:46Z</time>
      </trkpt>
      <trkpt lat="41.19204" lon="-8.14145">
        <ele>176.6511</ele>
        <time>2021-07-08T08:41:57Z</time>
      </trkpt>
      <trkpt lat="41.19259" lon="-8.14094">
        <ele>166.8352</ele>
        <time>2021-07-08T08:42:08Z</time>
      </trkpt>
      <trkpt lat="41.19287" lon="-8.13987">
        <ele>151.6843</ele>
        <time>2021-07-08T08:42:19Z</time>
      </trkpt>
      <trkpt lat="41.19383" lon="-8.13989">
        <ele>145.6043</ele>
        <time>2021-07-08T08:42:30Z</time>
      </trkpt>
      <trkpt lat="41.19462" lon="-8.13872">
        <ele>136.7014</ele>
        <time>2021-07-08T08:42:41Z</time>
      </trkpt>
      <trkpt lat="41.19484" lon="-8.1376">
        <ele>123.8653</ele>
        <time>2021-07-08T08:42:52Z</time>
      </trkpt>
      <trkpt lat="41.19574" lon="-8.13683">
        <ele>110.132</ele>
        <time>2021-07-08T08:43:03Z</time>
      </trkpt>
      <trkpt lat="41.19609" lon="-8.13598">
        <ele>94.83755</ele>
        <time>2021-07-08T08:43:14Z</time>
      </trkpt>
      <trkpt lat="41.19526" lon="-8.13608">
        <ele>91.47222</ele>
        <time>2021-07-08T08:43:25Z</time>
      </trkpt>
      <trkpt lat="41.19581" lon="-8.13557">
        <ele>85.62069</ele>
        <time>2021-07-08T08:43:36Z</time>
      </trkpt>
      <trkpt lat="41.19628" lon="-8.13521">
        <ele>82.94429</ele>
        <time>2021-07-08T08:43:47Z</time>
      </trkpt>
      <trkpt lat="41.19756" lon="-8.13588">
        <ele>88.95267</ele>
        <time>2021-07-08T08:43:58Z</time>
      </trkpt>
      <trkpt lat="41.19712" lon="-8.13816">
        <ele>99.26281</ele>
        <time>2021-07-08T08:44:09Z</time>
      </trkpt>
      <trkpt lat="41.19831" lon="-8.1392">
        <ele>88.25267</ele>
        <time>2021-07-08T08:44:20Z</time>
      </trkpt>
      <trkpt lat="41.19986" lon="-8.14023">
        <ele>84.2806</ele>
        <time>2021-07-08T08:44:31Z</time>
      </trkpt>
      <trkpt lat="41.19951" lon="-8.14001">
        <ele>93.12323</ele>
        <time>2021-07-08T08:44:42Z</time>
      </trkpt>
      <trkpt lat="41.19866" lon="-8.13871">
        <ele>105.9697</ele>
        <time>2021-07-08T08:44:53Z</time>
      </trkpt>
      <trkpt lat="41.19764" lon="-8.13797">
        <ele>107.6851</ele>
        <time>2021-07-08T08:45:04Z</time>
      </trkpt>
      <trkpt lat="41.19875" lon="-8.13596">
        <ele>117.4035</ele>
        <time>2021-07-08T08:45:15Z</time>
      </trkpt>
      <trkpt lat="41.19953" lon="-8.13603">
        <ele>126.4484</ele>
        <time>2021-07-08T08:45:26Z</time>
      </trkpt>
      <trkpt lat="41.20037" lon="-8.13665">
        <ele>140.0022</ele>
        <time>2021-07-08T08:45:37Z</time>
      </trkpt>
      <trkpt lat="41.2013" lon="-8.13561">
        <ele>151.8483</ele>
        <time>2021-07-08T08:45:48Z</time>
      </trkpt>
      <trkpt lat="41.20222" lon="-8.13486">
        <ele>151.9856</ele>
        <time>2021-07-08T08:45:59Z</time>
      </trkpt>
      <trkpt lat="41.20335" lon="-8.13465">
        <ele>159.9505</ele>
        <time>2021-07-08T08:46:10Z</time>
      </trkpt>
      <trkpt lat="41.20419" lon="-8.13335">
        <ele>173.7899</ele>
        <time>2021-07-08T08:46:21Z</time>
      </trkpt>
      <trkpt lat="41.20429" lon="-8.13157">
        <ele>182.0613</ele>
        <time>2021-07-08T08:46:32Z</time>
      </trkpt>
      <trkpt lat="41.20443" lon="-8.13026">
        <ele>185.9832</ele>
        <time>2021-07-08T08:46:43Z</time>
      </trkpt>
      <trkpt lat="41.2046" lon="-8.12873">
        <ele>186.6902</ele>
        <time>2021-07-08T08:46:54Z</time>
      </trkpt>
      <trkpt lat="41.20544" lon="-8.12739">
        <ele>180.0217</ele>
        <time>2021-07-08T08:47:05Z</time>
      </trkpt>
      <trkpt lat="41.20561" lon="-8.12572">
        <ele>180.2775</ele>
        <time>2021-07-08T08:47:16Z</time>
      </trkpt>
      <trkpt lat="41.20538" lon="-8.1243">
        <ele>186.8059</ele>
        <time>2021-07-08T08:47:27Z</time>
      </trkpt>
      <trkpt lat="41.20618" lon="-8.12276">
        <ele>191.5378</ele>
        <time>2021-07-08T08:47:38Z</time>
      </trkpt>
      <trkpt lat="41.20764" lon="-8.1219">
        <ele>202.6873</ele>
        <time>2021-07-08T08:47:49Z</time>
      </trkpt>
      <trkpt lat="41.209" lon="-8.1209">
        <ele>208.3467</ele>
        <time>2021-07-08T08:48:00Z</time>
      </trkpt>
      <trkpt lat="41.20939" lon="-8.11948">
        <ele>197.169</ele>
        <time>2021-07-08T08:48:11Z</time>
      </trkpt>
      <trkpt lat="41.21001" lon="-8.11826">
        <ele>182.6715</ele>
        <time>2021-07-08T08:48:22Z</time>
      </trkpt>
      <trkpt lat="41.21059" lon="-8.11768">
        <ele>184.0269</ele>
        <time>2021-07-08T08:48:33Z</time>
      </trkpt>
      <trkpt lat="41.21165" lon="-8.11545">
        <ele>194.4685</ele>
        <time>2021-07-08T08:48:44Z</time>
      </trkpt>
      <trkpt lat="41.21321" lon="-8.11405">
        <ele>189.3573</ele>
        <time>2021-07-08T08:48:55Z</time>
      </trkpt>
      <trkpt lat="41.21486" lon="-8.11335">
        <ele>209.5649</ele>
        <time>2021-07-08T08:49:06Z</time>
      </trkpt>
      <trkpt lat="41.2157" lon="-8.1119">
        <ele>224.8741</ele>
        <time>2021-07-08T08:49:17Z</time>
      </trkpt>
      <trkpt lat="41.21666" lon="-8.11025">
        <ele>230.5491</ele>
        <time>2021-07-08T08:49:28Z</time>
      </trkpt>
      <trkpt lat="41.21749" lon="-8.10894">
        <ele>246.6199</ele>
        <time>2021-07-08T08:49:39Z</time>
      </trkpt>
      <trkpt lat="41.2181" lon="-8.10748">
        <ele>252.2656</ele>
        <time>2021-07-08T08:49:50Z</time>
      </trkpt>
      <trkpt lat="41.219" lon="-8.10582">
        <ele>254.2428</ele>
        <time>2021-07-08T08:50:01Z</time>
      </trkpt>
      <trkpt lat="41.21993" lon="-8.10435">
        <ele>256.9111</ele>
        <time>2021-07-08T08:50:12Z</time>
      </trkpt>
      <trkpt lat="41.22076" lon="-8.10269">
        <ele>256.8218</ele>
        <time>2021-07-08T08:50:23Z</time>
      </trkpt>
      <trkpt lat="41.22207" lon="-8.10169">
        <ele>260.9536</ele>
        <time>2021-07-08T08:50:34Z</time>
      </trkpt>
      <trkpt lat="41.22335" lon="-8.10056">
        <ele>264.6486</ele>
        <time>2021-07-08T08:50:45Z</time>
      </trkpt>
      <trkpt lat="41.22451" lon="-8.09947">
        <ele>270.4286</ele>
        <time>2021-07-08T08:50:56Z</time>
      </trkpt>
      <trkpt lat="41.22565" lon="-8.09809">
        <ele>280.4077</ele>
        <time>2021-07-08T08:51:07Z</time>
      </trkpt>
      <trkpt lat="41.22666" lon="-8.09672">
        <ele>285.9516</ele>
        <time>2021-07-08T08:51:18Z</time>
      </trkpt>
      <trkpt lat="41.22813" lon="-8.09609">
        <ele>299.7711</ele>
        <time>2021-07-08T08:51:29Z</time>
      </trkpt>
      <trkpt lat="41.22911" lon="-8.09468">
        <ele>301.5959</ele>
        <time>2021-07-08T08:51:40Z</time>
      </trkpt>
      <trkpt lat="41.22959" lon="-8.09323">
        <ele>300.7283</ele>
        <time>2021-07-08T08:51:51Z</time>
      </trkpt>
      <trkpt lat="41.2311" lon="-8.09301">
        <ele>308.7802</ele>
        <time>2021-07-08T08:52:02Z</time>
      </trkpt>
      <trkpt lat="41.23244" lon="-8.09247">
        <ele>308.9965</ele>
        <time>2021-07-08T08:52:13Z</time>
      </trkpt>
      <trkpt lat="41.23382" lon="-8.0924">
        <ele>311.117</ele>
        <time>2021-07-08T08:52:24Z</time>
      </trkpt>
      <trkpt lat="41.23517" lon="-8.09207">
        <ele>322.3401</ele>
        <time>2021-07-08T08:52:35Z</time>
      </trkpt>
      <trkpt lat="41.23592" lon="-8.09075">
        <ele>321.2564</ele>
        <time>2021-07-08T08:52:46Z</time>
      </trkpt>
      <trkpt lat="41.23698" lon="-8.08983">
        <ele>321.8738</ele>
        <time>2021-07-08T08:52:57Z</time>
      </trkpt>
      <trkpt lat="41.23857" lon="-8.08981">
        <ele>322.1979</ele>
        <time>2021-07-08T08:53:08Z</time>
      </trkpt>
      <trkpt lat="41.23977" lon="-8.08897">
        <ele>319.625</ele>
        <time>2021-07-08T08:53:19Z</time>
      </trkpt>
      <trkpt lat="41.24075" lon="-8.08807">
        <ele>322.62</ele>
        <time>2021-07-08T08:53:30Z</time>
      </trkpt>
      <trkpt lat="41.24193" lon="-8.08771">
        <ele>317.0604</ele>
        <time>2021-07-08T08:53:41Z</time>
      </trkpt>
      <trkpt lat="41.24234" lon="-8.08521">
        <ele>310.0861</ele>
        <time>2021-07-08T08:53:52Z</time>
      </trkpt>
      <trkpt lat="41.24342" lon="-8.08327">
        <ele>315.669</ele>
        <time>2021-07-08T08:54:03Z</time>
      </trkpt>
      <trkpt lat="41.24467" lon="-8.08165">
        <ele>317.1431</ele>
        <time>2021-07-08T08:54:14Z</time>
      </trkpt>
      <trkpt lat="41.24629" lon="-8.08069">
        <ele>308.604</ele>
        <time>2021-07-08T08:54:25Z</time>
      </trkpt>
      <trkpt lat="41.24728" lon="-8.07892">
        <ele>301.3025</ele>
        <time>2021-07-08T08:54:36Z</time>
      </trkpt>
      <trkpt lat="41.24755" lon="-8.07704">
        <ele>295.9896</ele>
        <time>2021-07-08T08:54:47Z</time>
      </trkpt>
      <trkpt lat="41.24765" lon="-8.07495">
        <ele>302.0445</ele>
        <time>2021-07-08T08:54:58Z</time>
      </trkpt>
      <trkpt lat="41.24901" lon="-8.07489">
        <ele>299.492</ele>
        <time>2021-07-08T08:55:09Z</time>
      </trkpt>
      <trkpt lat="41.25007" lon="-8.07589">
        <ele>289.4048</ele>
        <time>2021-07-08T08:55:20Z</time>
      </trkpt>
      <trkpt lat="41.25135" lon="-8.07537">
        <ele>274.6499</ele>
        <time>2021-07-08T08:55:31Z</time>
      </trkpt>
      <trkpt lat="41.25248" lon="-8.07395">
        <ele>263.635</ele>
        <time>2021-07-08T08:55:42Z</time>
      </trkpt>
      <trkpt lat="41.25395" lon="-8.07295">
        <ele>248.3333</ele>
        <time>2021-07-08T08:55:53Z</time>
      </trkpt>
      <trkpt lat="41.25532" lon="-8.0739">
        <ele>238.7783</ele>
        <time>2021-07-08T08:56:04Z</time>
      </trkpt>
      <trkpt lat="41.25656" lon="-8.07352">
        <ele>223.6846</ele>
        <time>2021-07-08T08:56:15Z</time>
      </trkpt>
      <trkpt lat="41.25788" lon="-8.07398">
        <ele>206.6115</ele>
        <time>2021-07-08T08:56:26Z</time>
      </trkpt>
      <trkpt lat="41.2592" lon="-8.07418">
        <ele>186.6532</ele>
        <time>2021-07-08T08:56:37Z</time>
      </trkpt>
      <trkpt lat="41.26056" lon="-8.07404">
        <ele>181.259</ele>
        <time>2021-07-08T08:56:48Z</time>
      </trkpt>
      <trkpt lat="41.26156" lon="-8.07405">
        <ele>175.9572</ele>
        <time>2021-07-08T08:56:59Z</time>
      </trkpt>
      <trkpt lat="41.26268" lon="-8.07404">
        <ele>165.5089</ele>
        <time>2021-07-08T08:57:10Z</time>
      </trkpt>
      <trkpt lat="41.26367" lon="-8.07352">
        <ele>159.4686</ele>
        <time>2021-07-08T08:57:21Z</time>
      </trkpt>
      <trkpt lat="41.26446" lon="-8.07514">
        <ele>145.5924</ele>
        <time>2021-07-08T08:57:32Z</time>
      </trkpt>
      <trkpt lat="41.2653" lon="-8.07588">
        <ele>137.9628</ele>
        <time>2021-07-08T08:57:43Z</time>
      </trkpt>
      <trkpt lat="41.26606" lon="-8.07428">
        <ele>124.2454</ele>
        <time>2021-07-08T08:57:54Z</time>
      </trkpt>
      <trkpt lat="41.26553" lon="-8.07228">
        <ele>103.8605</ele>
        <time>2021-07-08T08:58:05Z</time>
      </trkpt>
      <trkpt lat="41.26543" lon="-8.07042">
        <ele>89.33845</ele>
        <time>2021-07-08T08:58:16Z</time>
      </trkpt>
      <trkpt lat="41.26472" lon="-8.06886">
        <ele>96.83287</ele>
        <time>2021-07-08T08:58:27Z</time>
      </trkpt>
      <trkpt lat="41.26469" lon="-8.06719">
        <ele>99.08107</ele>
        <time>2021-07-08T08:58:38Z</time>
      </trkpt>
      <trkpt lat="41.26402" lon="-8.06573">
        <ele>113.8773</ele>
        <time>2021-07-08T08:58:49Z</time>
      </trkpt>
      <trkpt lat="41.26401" lon="-8.06365">
        <ele>124.251</ele>
        <time>2021-07-08T08:59:00Z</time>
      </trkpt>
      <trkpt lat="41.26313" lon="-8.06313">
        <ele>136.536</ele>
        <time>2021-07-08T08:59:11Z</time>
      </trkpt>
      <trkpt lat="41.26252" lon="-8.06183">
        <ele>156.7193</ele>
        <time>2021-07-08T08:59:22Z</time>
      </trkpt>
      <trkpt lat="41.26213" lon="-8.06055">
        <ele>164.3173</ele>
        <time>2021-07-08T08:59:33Z</time>
      </trkpt>
      <trkpt lat="41.26109" lon="-8.06">
        <ele>172.6838</ele>
        <time>2021-07-08T08:59:44Z</time>
      </trkpt>
      <trkpt lat="41.26037" lon="-8.05975">
        <ele>177.4866</ele>
        <time>2021-07-08T08:59:55Z</time>
      </trkpt>
      <trkpt lat="41.25924" lon="-8.05907">
        <ele>182.72</ele>
        <time>2021-07-08T09:00:06Z</time>
      </trkpt>
      <trkpt lat="41.25824" lon="-8.05797">
        <ele>194.4484</ele>
        <time>2021-07-08T09:00:17Z</time>
      </trkpt>
      <trkpt lat="41.25761" lon="-8.05639">
        <ele>189.5562</ele>
        <time>2021-07-08T09:00:28Z</time>
      </trkpt>
      <trkpt lat="41.25727" lon="-8.05465">
        <ele>186.4147</ele>
        <time>2021-07-08T09:00:39Z</time>
      </trkpt>
      <trkpt lat="41.25668" lon="-8.05337">
        <ele>186.0052</ele>
        <time>2021-07-08T09:00:50Z</time>
      </trkpt>
      <trkpt lat="41.25559" lon="-8.05236">
        <ele>183.9499</ele>
        <time>2021-07-08T09:01:01Z</time>
      </trkpt>
      <trkpt lat="41.25502" lon="-8.05115">
        <ele>181.1382</ele>
        <time>2021-07-08T09:01:12Z</time>
      </trkpt>
      <trkpt lat="41.25446" lon="-8.04948">
        <ele>176.1525</ele>
        <time>2021-07-08T09:01:23Z</time>
      </trkpt>
      <trkpt lat="41.25454" lon="-8.0472">
        <ele>172.7768</ele>
        <time>2021-07-08T09:01:34Z</time>
      </trkpt>
      <trkpt lat="41.2539" lon="-8.04575">
        <ele>169.6451</ele>
        <time>2021-07-08T09:01:45Z</time>
      </trkpt>
      <trkpt lat="41.2531" lon="-8.04446">
        <ele>170.4105</ele>
        <time>2021-07-08T09:01:56Z</time>
      </trkpt>
      <trkpt lat="41.25313" lon="-8.0428">
        <ele>165.8342</ele>
        <time>2021-07-08T09:02:07Z</time>
      </trkpt>
      <trkpt lat="41.25369" lon="-8.04165">
        <ele>163.0728</ele>
        <time>2021-07-08T09:02:18Z</time>
      </trkpt>
      <trkpt lat="41.25338" lon="-8.04035">
        <ele>163.9854</ele>
        <time>2021-07-08T09:02:29Z</time>
      </trkpt>
      <trkpt lat="41.25254" lon="-8.03921">
        <ele>165.1553</ele>
        <time>2021-07-08T09:02:40Z</time>
      </trkpt>
      <trkpt lat="41.25186" lon="-8.03772">
        <ele>164.8672</ele>
        <time>2021-07-08T09:02:51Z</time>
      </trkpt>
      <trkpt lat="41.25182" lon="-8.0365">
        <ele>158.4862</ele>
        <time>2021-07-08T09:03:02Z</time>
      </trkpt>
      <trkpt lat="41.25203" lon="-8.03513">
        <ele>159.0134</ele>
        <time>2021-07-08T09:03:13Z</time>
      </trkpt>
      <trkpt lat="41.25221" lon="-8.03378">
        <ele>169.5067</ele>
        <time>2021-07-08T09:03:24Z</time>
      </trkpt>
      <trkpt lat="41.25385" lon="-8.03314">
        <ele>174.8974</ele>
        <time>2021-07-08T09:03:35Z</time>
      </trkpt>
      <trkpt lat="41.25526" lon="-8.03336">
        <ele>176.4508</ele>
        <time>2021-07-08T09:03:46Z</time>
      </trkpt>
      <trkpt lat="41.25527" lon="-8.03162">
        <ele>176.7339</ele>
        <time>2021-07-08T09:03:57Z</time>
      </trkpt>
      <trkpt lat="41.25549" lon="-8.02941">
        <ele>184.3354</ele>
        <time>2021-07-08T09:04:08Z</time>
      </trkpt>
      <trkpt lat="41.25627" lon="-8.02843">
        <ele>190.1477</ele>
        <time>2021-07-08T09:04:19Z</time>
      </trkpt>
      <trkpt lat="41.25775" lon="-8.02777">
        <ele>195.9597</ele>
        <time>2021-07-08T09:04:30Z</time>
      </trkpt>
      <trkpt lat="41.25925" lon="-8.02783">
        <ele>201.3961</ele>
        <time>2021-07-08T09:04:41Z</time>
      </trkpt>
      <trkpt lat="41.26007" lon="-8.02606">
        <ele>209.3215</ele>
        <time>2021-07-08T09:04:52Z</time>
      </trkpt>
      <trkpt lat="41.26035" lon="-8.02491">
        <ele>215.2557</ele>
        <time>2021-07-08T09:05:03Z</time>
      </trkpt>
      <trkpt lat="41.26105" lon="-8.02314">
        <ele>225.1081</ele>
        <time>2021-07-08T09:05:14Z</time>
      </trkpt>
      <trkpt lat="41.26243" lon="-8.02221">
        <ele>233.3807</ele>
        <time>2021-07-08T09:05:25Z</time>
      </trkpt>
      <trkpt lat="41.26218" lon="-8.02003">
        <ele>234.7172</ele>
        <time>2021-07-08T09:05:36Z</time>
      </trkpt>
      <trkpt lat="41.2616" lon="-8.0188">
        <ele>233.8371</ele>
        <time>2021-07-08T09:05:47Z</time>
      </trkpt>
      <trkpt lat="41.26063" lon="-8.018">
        <ele>237.6887</ele>
        <time>2021-07-08T09:05:58Z</time>
      </trkpt>
      <trkpt lat="41.26178" lon="-8.01749">
        <ele>246.3553</ele>
        <time>2021-07-08T09:06:09Z</time>
      </trkpt>
      <trkpt lat="41.26259" lon="-8.01597">
        <ele>254.6517</ele>
        <time>2021-07-08T09:06:20Z</time>
      </trkpt>
      <trkpt lat="41.26211" lon="-8.01485">
        <ele>256.0136</ele>
        <time>2021-07-08T09:06:31Z</time>
      </trkpt>
      <trkpt lat="41.26282" lon="-8.01328">
        <ele>265.3058</ele>
        <time>2021-07-08T09:06:42Z</time>
      </trkpt>
      <trkpt lat="41.26403" lon="-8.01263">
        <ele>269.9054</ele>
        <time>2021-07-08T09:06:53Z</time>
      </trkpt>
      <trkpt lat="41.26501" lon="-8.01252">
        <ele>268.1444</ele>
        <time>2021-07-08T09:07:04Z</time>
      </trkpt>
      <trkpt lat="41.26603" lon="-8.01164">
        <ele>269.1804</ele>
        <time>2021-07-08T09:07:15Z</time>
      </trkpt>
      <trkpt lat="41.26637" lon="-8.01067">
        <ele>266.5649</ele>
        <time>2021-07-08T09:07:26Z</time>
      </trkpt>
      <trkpt lat="41.26596" lon="-8.00936">
        <ele>251.2266</ele>
        <time>2021-07-08T09:07:37Z</time>
      </trkpt>
      <trkpt lat="41.26596" lon="-8.00778">
        <ele>237.4288</ele>
        <time>2021-07-08T09:07:48Z</time>
      </trkpt>
      <trkpt lat="41.26713" lon="-8.00653">
        <ele>231.0205</ele>
        <time>2021-07-08T09:07:59Z</time>
      </trkpt>
      <trkpt lat="41.26797" lon="-8.00649">
        <ele>224.6089</ele>
        <time>2021-07-08T09:08:10Z</time>
      </trkpt>
      <trkpt lat="41.2689" lon="-8.0052">
        <ele>242.7402</ele>
        <time>2021-07-08T09:08:21Z</time>
      </trkpt>
      <trkpt lat="41.26933" lon="-8.00368">
        <ele>251.2355</ele>
        <time>2021-07-08T09:08:32Z</time>
      </trkpt>
      <trkpt lat="41.26979" lon="-8.00219">
        <ele>251.1742</ele>
        <time>2021-07-08T09:08:43Z</time>
      </trkpt>
      <trkpt lat="41.27076" lon="-8.001">
        <ele>251.1997</ele>
        <time>2021-07-08T09:08:54Z</time>
      </trkpt>
      <trkpt lat="41.27162" lon="-7.99931">
        <ele>264.832</ele>
        <time>2021-07-08T09:09:05Z</time>
      </trkpt>
      <trkpt lat="41.27237" lon="-7.99747">
        <ele>269.8008</ele>
        <time>2021-07-08T09:09:16Z</time>
      </trkpt>
      <trkpt lat="41.27343" lon="-7.99638">
        <ele>277.9137</ele>
        <time>2021-07-08T09:09:27Z</time>
      </trkpt>
      <trkpt lat="41.27438" lon="-7.99525">
        <ele>266.914</ele>
        <time>2021-07-08T09:09:38Z</time>
      </trkpt>
      <trkpt lat="41.27549" lon="-7.99501">
        <ele>267.6432</ele>
        <time>2021-07-08T09:09:49Z</time>
      </trkpt>
      <trkpt lat="41.27642" lon="-7.99389">
        <ele>272.9607</ele>
        <time>2021-07-08T09:10:00Z</time>
      </trkpt>
      <trkpt lat="41.27706" lon="-7.99361">
        <ele>271.8245</ele>
        <time>2021-07-08T09:10:11Z</time>
      </trkpt>
      <trkpt lat="41.27787" lon="-7.9928">
        <ele>275.1171</ele>
        <time>2021-07-08T09:10:22Z</time>
      </trkpt>
      <trkpt lat="41.27876" lon="-7.99231">
        <ele>286.8673</ele>
        <time>2021-07-08T09:10:33Z</time>
      </trkpt>
      <trkpt lat="41.28011" lon="-7.99273">
        <ele>274.2088</ele>
        <time>2021-07-08T09:10:44Z</time>
      </trkpt>
      <trkpt lat="41.28009" lon="-7.99214">
        <ele>283.0755</ele>
        <time>2021-07-08T09:10:55Z</time>
      </trkpt>
      <trkpt lat="41.27819" lon="-7.99195">
        <ele>299.0354</ele>
        <time>2021-07-08T09:11:06Z</time>
      </trkpt>
      <trkpt lat="41.27602" lon="-7.99212">
        <ele>318.9871</ele>
        <time>2021-07-08T09:11:17Z</time>
      </trkpt>
      <trkpt lat="41.27365" lon="-7.99215">
        <ele>340.9632</ele>
        <time>2021-07-08T09:11:28Z</time>
      </trkpt>
      <trkpt lat="41.2714" lon="-7.99133">
        <ele>363.3748</ele>
        <time>2021-07-08T09:11:39Z</time>
      </trkpt>
      <trkpt lat="41.27053" lon="-7.98839">
        <ele>382.4438</ele>
        <time>2021-07-08T09:11:50Z</time>
      </trkpt>
      <trkpt lat="41.26958" lon="-7.98568">
        <ele>400.1691</ele>
        <time>2021-07-08T09:12:01Z</time>
      </trkpt>
      <trkpt lat="41.26777" lon="-7.9838">
        <ele>421.4377</ele>
        <time>2021-07-08T09:12:12Z</time>
      </trkpt>
      <trkpt lat="41.2681" lon="-7.98081">
        <ele>440.5266</ele>
        <time>2021-07-08T09:12:23Z</time>
      </trkpt>
      <trkpt lat="41.26631" lon="-7.97937">
        <ele>461.6422</ele>
        <time>2021-07-08T09:12:34Z</time>
      </trkpt>
      <trkpt lat="41.26385" lon="-7.97931">
        <ele>469.5146</ele>
        <time>2021-07-08T09:12:45Z</time>
      </trkpt>
      <trkpt lat="41.26251" lon="-7.97671">
        <ele>485.242</ele>
        <time>2021-07-08T09:12:56Z</time>
      </trkpt>
      <trkpt lat="41.26335" lon="-7.97403">
        <ele>509.3609</ele>
        <time>2021-07-08T09:13:07Z</time>
      </trkpt>
      <trkpt lat="41.26498" lon="-7.97174">
        <ele>528.1763</ele>
        <time>2021-07-08T09:13:18Z</time>
      </trkpt>
      <trkpt lat="41.26406" lon="-7.96945">
        <ele>547.6313</ele>
        <time>2021-07-08T09:13:29Z</time>
      </trkpt>
      <trkpt lat="41.26169" lon="-7.97034">
        <ele>564.7516</ele>
        <time>2021-07-08T09:13:40Z</time>
      </trkpt>
      <trkpt lat="41.25928" lon="-7.96984">
        <ele>583.37</ele>
        <time>2021-07-08T09:13:51Z</time>
      </trkpt>
      <trkpt lat="41.25688" lon="-7.96914">
        <ele>602.7711</ele>
        <time>2021-07-08T09:14:02Z</time>
      </trkpt>
      <trkpt lat="41.25582" lon="-7.96635">
        <ele>624.3777</ele>
        <time>2021-07-08T09:14:13Z</time>
      </trkpt>
      <trkpt lat="41.25581" lon="-7.9629">
        <ele>644.1743</ele>
        <time>2021-07-08T09:14:24Z</time>
      </trkpt>
      <trkpt lat="41.25547" lon="-7.95978">
        <ele>665.9114</ele>
        <time>2021-07-08T09:14:35Z</time>
      </trkpt>
      <trkpt lat="41.25554" lon="-7.95674">
        <ele>682.0007</ele>
        <time>2021-07-08T09:14:46Z</time>
      </trkpt>
      <trkpt lat="41.25726" lon="-7.95431">
        <ele>700.1672</ele>
        <time>2021-07-08T09:14:57Z</time>
      </trkpt>
      <trkpt lat="41.25892" lon="-7.95185">
        <ele>716.3923</ele>
        <time>2021-07-08T09:15:08Z</time>
      </trkpt>
      <trkpt lat="41.26041" lon="-7.94923">
        <ele>735.1472</ele>
        <time>2021-07-08T09:15:19Z</time>
      </trkpt>
      <trkpt lat="41.26217" lon="-7.94726">
        <ele>760.2045</ele>
        <time>2021-07-08T09:15:30Z</time>
      </trkpt>
      <trkpt lat="41.2643" lon="-7.94699">
        <ele>772.2163</ele>
        <time>2021-07-08T09:15:41Z</time>
      </trkpt>
      <trkpt lat="41.26593" lon="-7.94544">
        <ele>786.3864</ele>
        <time>2021-07-08T09:15:52Z</time>
      </trkpt>
      <trkpt lat="41.26781" lon="-7.94408">
        <ele>803.5347</ele>
        <time>2021-07-08T09:16:03Z</time>
      </trkpt>
      <trkpt lat="41.26977" lon="-7.94266">
        <ele>822.0853</ele>
        <time>2021-07-08T09:16:14Z</time>
      </trkpt>
      <trkpt lat="41.27157" lon="-7.94073">
        <ele>837.8314</ele>
        <time>2021-07-08T09:16:25Z</time>
      </trkpt>
      <trkpt lat="41.27301" lon="-7.93829">
        <ele>857.8333</ele>
        <time>2021-07-08T09:16:36Z</time>
      </trkpt>
      <trkpt lat="41.27487" lon="-7.93648">
        <ele>877.4631</ele>
        <time>2021-07-08T09:16:47Z</time>
      </trkpt>
      <trkpt lat="41.27622" lon="-7.93404">
        <ele>897.5852</ele>
        <time>2021-07-08T09:16:58Z</time>
      </trkpt>
      <trkpt lat="41.27638" lon="-7.93072">
        <ele>916.8074</ele>
        <time>2021-07-08T09:17:09Z</time>
      </trkpt>
      <trkpt lat="41.27774" lon="-7.92804">
        <ele>935.5856</ele>
        <time>2021-07-08T09:17:20Z</time>
      </trkpt>
      <trkpt lat="41.27899" lon="-7.92521">
        <ele>952.1984</ele>
        <time>2021-07-08T09:17:31Z</time>
      </trkpt>
      <trkpt lat="41.28096" lon="-7.92311">
        <ele>973.4114</ele>
        <time>2021-07-08T09:17:42Z</time>
      </trkpt>
      <trkpt lat="41.28186" lon="-7.92001">
        <ele>993.9893</ele>
        <time>2021-07-08T09:17:53Z</time>
      </trkpt>
      <trkpt lat="41.28107" lon="-7.91675">
        <ele>1015.064</ele>
        <time>2021-07-08T09:18:04Z</time>
      </trkpt>
      <trkpt lat="41.27954" lon="-7.91412">
        <ele>1017.86</ele>
        <time>2021-07-08T09:18:15Z</time>
      </trkpt>
      <trkpt lat="41.27781" lon="-7.91158">
        <ele>1001.166</ele>
        <time>2021-07-08T09:18:26Z</time>
      </trkpt>
      <trkpt lat="41.27682" lon="-7.90855">
        <ele>982.1436</ele>
        <time>2021-07-08T09:18:37Z</time>
      </trkpt>
      <trkpt lat="41.27638" lon="-7.90511">
        <ele>966.0166</ele>
        <time>2021-07-08T09:18:48Z</time>
      </trkpt>
      <trkpt lat="41.2765" lon="-7.9018">
        <ele>951.7033</ele>
        <time>2021-07-08T09:18:59Z</time>
      </trkpt>
      <trkpt lat="41.27672" lon="-7.89853">
        <ele>935.8112</ele>
        <time>2021-07-08T09:19:10Z</time>
      </trkpt>
      <trkpt lat="41.27687" lon="-7.89538">
        <ele>923.3999</ele>
        <time>2021-07-08T09:19:21Z</time>
      </trkpt>
      <trkpt lat="41.27701" lon="-7.89226">
        <ele>909.3774</ele>
        <time>2021-07-08T09:19:32Z</time>
      </trkpt>
      <trkpt lat="41.27779" lon="-7.88933">
        <ele>895.4835</ele>
        <time>2021-07-08T09:19:43Z</time>
      </trkpt>
      <trkpt lat="41.2788" lon="-7.88651">
        <ele>883.8564</ele>
        <time>2021-07-08T09:19:54Z</time>
      </trkpt>
      <trkpt lat="41.28107" lon="-7.88568">
        <ele>874.0038</ele>
        <time>2021-07-08T09:20:05Z</time>
      </trkpt>
      <trkpt lat="41.28259" lon="-7.88349">
        <ele>869.0864</ele>
        <time>2021-07-08T09:20:16Z</time>
      </trkpt>
      <trkpt lat="41.28175" lon="-7.88068">
        <ele>850.5474</ele>
        <time>2021-07-08T09:20:27Z</time>
      </trkpt>
      <trkpt lat="41.28122" lon="-7.87749">
        <ele>833.9465</ele>
        <time>2021-07-08T09:20:38Z</time>
      </trkpt>
      <trkpt lat="41.28101" lon="-7.8739">
        <ele>815.7546</ele>
        <time>2021-07-08T09:20:49Z</time>
      </trkpt>
      <trkpt lat="41.2806" lon="-7.87069">
        <ele>803.4888</ele>
        <time>2021-07-08T09:21:00Z</time>
      </trkpt>
      <trkpt lat="41.28105" lon="-7.86755">
        <ele>797.2385</ele>
        <time>2021-07-08T09:21:11Z</time>
      </trkpt>
      <trkpt lat="41.27952" lon="-7.86505">
        <ele>791.3601</ele>
        <time>2021-07-08T09:21:22Z</time>
      </trkpt>
      <trkpt lat="41.27876" lon="-7.86181">
        <ele>786.5254</ele>
        <time>2021-07-08T09:21:33Z</time>
      </trkpt>
      <trkpt lat="41.27814" lon="-7.85862">
        <ele>782.348</ele>
        <time>2021-07-08T09:21:44Z</time>
      </trkpt>
      <trkpt lat="41.27857" lon="-7.85545">
        <ele>777.5794</ele>
        <time>2021-07-08T09:21:55Z</time>
      </trkpt>
      <trkpt lat="41.27921" lon="-7.85222">
        <ele>768.7672</ele>
        <time>2021-07-08T09:22:06Z</time>
      </trkpt>
      <trkpt lat="41.27971" lon="-7.84907">
        <ele>755.7699</ele>
        <time>2021-07-08T09:22:17Z</time>
      </trkpt>
      <trkpt lat="41.28015" lon="-7.84616">
        <ele>738.7678</ele>
        <time>2021-07-08T09:22:28Z</time>
      </trkpt>
      <trkpt lat="41.2808" lon="-7.84289">
        <ele>720.4826</ele>
        <time>2021-07-08T09:22:39Z</time>
      </trkpt>
      <trkpt lat="41.28249" lon="-7.83979">
        <ele>710.73</ele>
        <time>2021-07-08T09:22:50Z</time>
      </trkpt>
      <trkpt lat="41.28327" lon="-7.83647">
        <ele>701.8011</ele>
        <time>2021-07-08T09:23:01Z</time>
      </trkpt>
      <trkpt lat="41.28384" lon="-7.83301">
        <ele>696.398</ele>
        <time>2021-07-08T09:23:12Z</time>
      </trkpt>
      <trkpt lat="41.28495" lon="-7.82999">
        <ele>696.3598</ele>
        <time>2021-07-08T09:23:23Z</time>
      </trkpt>
      <trkpt lat="41.28424" lon="-7.82661">
        <ele>691.4681</ele>
        <time>2021-07-08T09:23:34Z</time>
      </trkpt>
      <trkpt lat="41.28369" lon="-7.8233">
        <ele>701.543</ele>
        <time>2021-07-08T09:23:45Z</time>
      </trkpt>
      <trkpt lat="41.28458" lon="-7.82003">
        <ele>701.4358</ele>
        <time>2021-07-08T09:23:56Z</time>
      </trkpt>
      <trkpt lat="41.28462" lon="-7.81662">
        <ele>694.796</ele>
        <time>2021-07-08T09:24:07Z</time>
      </trkpt>
      <trkpt lat="41.28503" lon="-7.81326">
        <ele>682.7062</ele>
        <time>2021-07-08T09:24:18Z</time>
      </trkpt>
      <trkpt lat="41.28549" lon="-7.80986">
        <ele>670.6106</ele>
        <time>2021-07-08T09:24:29Z</time>
      </trkpt>
      <trkpt lat="41.28483" lon="-7.80683">
        <ele>659.289</ele>
        <time>2021-07-08T09:24:40Z</time>
      </trkpt>
      <trkpt lat="41.28325" lon="-7.8038">
        <ele>644.73</ele>
        <time>2021-07-08T09:24:51Z</time>
      </trkpt>
      <trkpt lat="41.28163" lon="-7.8008">
        <ele>632.8782</ele>
        <time>2021-07-08T09:25:02Z</time>
      </trkpt>
      <trkpt lat="41.27993" lon="-7.79808">
        <ele>623.4603</ele>
        <time>2021-07-08T09:25:13Z</time>
      </trkpt>
      <trkpt lat="41.27757" lon="-7.7963">
        <ele>604.2565</ele>
        <time>2021-07-08T09:25:24Z</time>
      </trkpt>
      <trkpt lat="41.27595" lon="-7.79361">
        <ele>584.353</ele>
        <time>2021-07-08T09:25:35Z</time>
      </trkpt>
      <trkpt lat="41.27379" lon="-7.79233">
        <ele>567.342</ele>
        <time>2021-07-08T09:25:46Z</time>
      </trkpt>
      <trkpt lat="41.27312" lon="-7.79027">
        <ele>555.0764</ele>
        <time>2021-07-08T09:25:57Z</time>
      </trkpt>
      <trkpt lat="41.27342" lon="-7.78855">
        <ele>553.2131</ele>
        <time>2021-07-08T09:26:08Z</time>
      </trkpt>
      <trkpt lat="41.27431" lon="-7.78698">
        <ele>552.059</ele>
        <time>2021-07-08T09:26:19Z</time>
      </trkpt>
      <trkpt lat="41.27506" lon="-7.7854">
        <ele>548.4898</ele>
        <time>2021-07-08T09:26:30Z</time>
      </trkpt>
      <trkpt lat="41.27524" lon="-7.78329">
        <ele>542.7484</ele>
        <time>2021-07-08T09:26:41Z</time>
      </trkpt>
      <trkpt lat="41.27526" lon="-7.78126">
        <ele>539.4779</ele>
        <time>2021-07-08T09:26:52Z</time>
      </trkpt>
      <trkpt lat="41.27567" lon="-7.77975">
        <ele>534.7951</ele>
        <time>2021-07-08T09:27:03Z</time>
      </trkpt>
      <trkpt lat="41.27589" lon="-7.77797">
        <ele>528.8456</ele>
        <time>2021-07-08T09:27:14Z</time>
      </trkpt>
      <trkpt lat="41.27593" lon="-7.77622">
        <ele>521.205</ele>
        <time>2021-07-08T09:27:25Z</time>
      </trkpt>
      <trkpt lat="41.27627" lon="-7.77459">
        <ele>517.6394</ele>
        <time>2021-07-08T09:27:36Z</time>
      </trkpt>
      <trkpt lat="41.2768" lon="-7.77333">
        <ele>512.3611</ele>
        <time>2021-07-08T09:27:47Z</time>
      </trkpt>
      <trkpt lat="41.27728" lon="-7.77243">
        <ele>506.0385</ele>
        <time>2021-07-08T09:27:58Z</time>
      </trkpt>
      <trkpt lat="41.27793" lon="-7.77126">
        <ele>497.6793</ele>
        <time>2021-07-08T09:28:09Z</time>
      </trkpt>
      <trkpt lat="41.27862" lon="-7.76998">
        <ele>489.7698</ele>
        <time>2021-07-08T09:28:20Z</time>
      </trkpt>
      <trkpt lat="41.27931" lon="-7.76879">
        <ele>484.0063</ele>
        <time>2021-07-08T09:28:31Z</time>
      </trkpt>
      <trkpt lat="41.2801" lon="-7.76796">
        <ele>477.0429</ele>
        <time>2021-07-08T09:28:42Z</time>
      </trkpt>
      <trkpt lat="41.28092" lon="-7.7672">
        <ele>469.8623</ele>
        <time>2021-07-08T09:28:53Z</time>
      </trkpt>
      <trkpt lat="41.28172" lon="-7.76644">
        <ele>462.8847</ele>
        <time>2021-07-08T09:29:04Z</time>
      </trkpt>
      <trkpt lat="41.28243" lon="-7.76553">
        <ele>456.3207</ele>
        <time>2021-07-08T09:29:15Z</time>
      </trkpt>
      <trkpt lat="41.28298" lon="-7.76427">
        <ele>451.3405</ele>
        <time>2021-07-08T09:29:26Z</time>
      </trkpt>
      <trkpt lat="41.28321" lon="-7.76279">
        <ele>440.2003</ele>
        <time>2021-07-08T09:29:37Z</time>
      </trkpt>
      <trkpt lat="41.28334" lon="-7.76128">
        <ele>435.4275</ele>
        <time>2021-07-08T09:29:48Z</time>
      </trkpt>
      <trkpt lat="41.28384" lon="-7.76002">
        <ele>428.127</ele>
        <time>2021-07-08T09:29:59Z</time>
      </trkpt>
      <trkpt lat="41.28469" lon="-7.75923">
        <ele>423.1476</ele>
        <time>2021-07-08T09:30:10Z</time>
      </trkpt>
      <trkpt lat="41.28556" lon="-7.75891">
        <ele>421.5019</ele>
        <time>2021-07-08T09:30:21Z</time>
      </trkpt>
      <trkpt lat="41.28655" lon="-7.75857">
        <ele>417.0134</ele>
        <time>2021-07-08T09:30:32Z</time>
      </trkpt>
      <trkpt lat="41.28763" lon="-7.75817">
        <ele>412.1624</ele>
        <time>2021-07-08T09:30:43Z</time>
      </trkpt>
      <trkpt lat="41.28869" lon="-7.75772">
        <ele>408.2548</ele>
        <time>2021-07-08T09:30:54Z</time>
      </trkpt>
      <trkpt lat="41.28982" lon="-7.75723">
        <ele>402.2511</ele>
        <time>2021-07-08T09:31:05Z</time>
      </trkpt>
      <trkpt lat="41.29073" lon="-7.75674">
        <ele>395.8995</ele>
        <time>2021-07-08T09:31:16Z</time>
      </trkpt>
      <trkpt lat="41.29163" lon="-7.75619">
        <ele>387.783</ele>
        <time>2021-07-08T09:31:27Z</time>
      </trkpt>
      <trkpt lat="41.2927" lon="-7.75551">
        <ele>381.3642</ele>
        <time>2021-07-08T09:31:38Z</time>
      </trkpt>
      <trkpt lat="41.29403" lon="-7.75539">
        <ele>372.0435</ele>
        <time>2021-07-08T09:31:49Z</time>
      </trkpt>
      <trkpt lat="41.29561" lon="-7.75569">
        <ele>373.9179</ele>
        <time>2021-07-08T09:32:00Z</time>
      </trkpt>
      <trkpt lat="41.29744" lon="-7.7556">
        <ele>380.2089</ele>
        <time>2021-07-08T09:32:11Z</time>
      </trkpt>
      <trkpt lat="41.29888" lon="-7.75438">
        <ele>386.1744</ele>
        <time>2021-07-08T09:32:22Z</time>
      </trkpt>
      <trkpt lat="41.30002" lon="-7.75357">
        <ele>391.4069</ele>
        <time>2021-07-08T09:32:33Z</time>
      </trkpt>
      <trkpt lat="41.30122" lon="-7.75295">
        <ele>397.5647</ele>
        <time>2021-07-08T09:32:44Z</time>
      </trkpt>
      <trkpt lat="41.30239" lon="-7.75236">
        <ele>399.2748</ele>
        <time>2021-07-08T09:32:55Z</time>
      </trkpt>
      <trkpt lat="41.30359" lon="-7.75168">
        <ele>397.7726</ele>
        <time>2021-07-08T09:33:06Z</time>
      </trkpt>
      <trkpt lat="41.30468" lon="-7.75101">
        <ele>397.9538</ele>
        <time>2021-07-08T09:33:17Z</time>
      </trkpt>
      <trkpt lat="41.30383" lon="-7.75069">
        <ele>400.6603</ele>
        <time>2021-07-08T09:33:28Z</time>
      </trkpt>
      <trkpt lat="41.30345" lon="-7.75154">
        <ele>397.6442</ele>
        <time>2021-07-08T09:33:39Z</time>
      </trkpt>
      <trkpt lat="41.3025" lon="-7.75142">
        <ele>402.9151</ele>
        <time>2021-07-08T09:33:50Z</time>
      </trkpt>
      <trkpt lat="41.30168" lon="-7.75207">
        <ele>407.9496</ele>
        <time>2021-07-08T09:34:01Z</time>
      </trkpt>
      <trkpt lat="41.30063" lon="-7.75261">
        <ele>411.048</ele>
        <time>2021-07-08T09:34:12Z</time>
      </trkpt>
      <trkpt lat="41.29958" lon="-7.75223">
        <ele>413.5849</ele>
        <time>2021-07-08T09:34:23Z</time>
      </trkpt>
      <trkpt lat="41.29915" lon="-7.7517">
        <ele>412.7741</ele>
        <time>2021-07-08T09:34:34Z</time>
      </trkpt>
      <trkpt lat="41.29904" lon="-7.75164">
        <ele>412.4468</ele>
        <time>2021-07-08T09:34:45Z</time>
      </trkpt>
      <trkpt lat="41.29855" lon="-7.75064">
        <ele>413.8527</ele>
        <time>2021-07-08T09:34:56Z</time>
      </trkpt>
      <trkpt lat="41.29797" lon="-7.74963">
        <ele>410.0256</ele>
        <time>2021-07-08T09:35:07Z</time>
      </trkpt>
      <trkpt lat="41.29745" lon="-7.74874">
        <ele>407.7731</ele>
        <time>2021-07-08T09:35:18Z</time>
      </trkpt>
      <trkpt lat="41.29686" lon="-7.74828">
        <ele>413.0622</ele>
        <time>2021-07-08T09:35:29Z</time>
      </trkpt>
      <trkpt lat="41.29598" lon="-7.74807">
        <ele>415.1511</ele>
        <time>2021-07-08T09:35:40Z</time>
      </trkpt>
      <trkpt lat="41.29577" lon="-7.74754">
        <ele>420.1892</ele>
        <time>2021-07-08T09:35:51Z</time>
      </trkpt>
      <trkpt lat="41.29572" lon="-7.74725">
        <ele>421.0706</ele>
        <time>2021-07-08T09:36:02Z</time>
      </trkpt>
      <trkpt lat="41.29551" lon="-7.74674">
        <ele>422.7178</ele>
        <time>2021-07-08T09:36:13Z</time>
      </trkpt>
      <trkpt lat="41.29544" lon="-7.74635">
        <ele>425.506</ele>
        <time>2021-07-08T09:36:24Z</time>
      </trkpt>
      <trkpt lat="41.2954" lon="-7.74583">
        <ele>428.3142</ele>
        <time>2021-07-08T09:36:35Z</time>
      </trkpt>
      <trkpt lat="41.29536" lon="-7.74548">
        <ele>426.8935</ele>
        <time>2021-07-08T09:36:46Z</time>
      </trkpt>
      <trkpt lat="41.29534" lon="-7.74477">
        <ele>426.8811</ele>
        <time>2021-07-08T09:36:57Z</time>
      </trkpt>
      <trkpt lat="41.29583" lon="-7.74394">
        <ele>426.1711</ele>
        <time>2021-07-08T09:37:09Z</time>
      </trkpt>
      <trkpt lat="41.29653" lon="-7.74387">
        <ele>417.3698</ele>
        <time>2021-07-08T09:37:20Z</time>
      </trkpt>
      <trkpt lat="41.29714" lon="-7.74363">
        <ele>419.1751</ele>
        <time>2021-07-08T09:37:31Z</time>
      </trkpt>
      <trkpt lat="41.29749" lon="-7.74303">
        <ele>418.9473</ele>
        <time>2021-07-08T09:37:42Z</time>
      </trkpt>
      <trkpt lat="41.29781" lon="-7.74206">
        <ele>422.6867</ele>
        <time>2021-07-08T09:37:53Z</time>
      </trkpt>
      <trkpt lat="41.29787" lon="-7.74189">
        <ele>422.8643</ele>
        <time>2021-07-08T09:38:04Z</time>
      </trkpt>
      <trkpt lat="41.29789" lon="-7.74185">
        <ele>423.3087</ele>
        <time>2021-07-08T09:38:16Z</time>
      </trkpt>
      <trkpt lat="41.29792" lon="-7.74182">
        <ele>422.1486</ele>
        <time>2021-07-08T09:38:31Z</time>
      </trkpt>
      <trkpt lat="41.29797" lon="-7.74168">
        <ele>422.7298</ele>
        <time>2021-07-08T09:38:42Z</time>
      </trkpt>
      <trkpt lat="41.29795" lon="-7.74173">
        <ele>424.8506</ele>
        <time>2021-07-08T09:39:04Z</time>
      </trkpt>
      <trkpt lat="41.29793" lon="-7.74168">
        <ele>422.8562</ele>
        <time>2021-07-08T09:39:34Z</time>
      </trkpt>
      <trkpt lat="41.29796" lon="-7.7417">
        <ele>422.4577</ele>
        <time>2021-07-08T09:39:45Z</time>
      </trkpt>
      <trkpt lat="41.29795" lon="-7.74175">
        <ele>422.1326</ele>
        <time>2021-07-08T09:40:05Z</time>
      </trkpt>
      <trkpt lat="41.29797" lon="-7.74169">
        <ele>423.3023</ele>
        <time>2021-07-08T09:40:46Z</time>
      </trkpt>
      <trkpt lat="41.29799" lon="-7.74165">
        <ele>423.5956</ele>
        <time>2021-07-08T09:40:59Z</time>
      </trkpt>
      <trkpt lat="41.29797" lon="-7.74169">
        <ele>423.0967</ele>
        <time>2021-07-08T09:41:32Z</time>
      </trkpt>
      <trkpt lat="41.29793" lon="-7.74175">
        <ele>424.2194</ele>
        <time>2021-07-08T09:42:25Z</time>
      </trkpt>
      <trkpt lat="41.29796" lon="-7.74171">
        <ele>424.5078</ele>
        <time>2021-07-08T09:42:41Z</time>
      </trkpt>
      <trkpt lat="41.29804" lon="-7.74157">
        <ele>424.0768</ele>
        <time>2021-07-08T09:42:52Z</time>
      </trkpt>
      <trkpt lat="41.29806" lon="-7.74153">
        <ele>423.8935</ele>
        <time>2021-07-08T09:43:04Z</time>
      </trkpt>
      <trkpt lat="41.29782" lon="-7.74129">
        <ele>419.2426</ele>
        <time>2021-07-08T09:43:15Z</time>
      </trkpt>
      <trkpt lat="41.29693" lon="-7.74065">
        <ele>414.8224</ele>
        <time>2021-07-08T09:43:27Z</time>
      </trkpt>
      <trkpt lat="41.29588" lon="-7.73992">
        <ele>418.7285</ele>
        <time>2021-07-08T09:43:38Z</time>
      </trkpt>
      <trkpt lat="41.29516" lon="-7.73937">
        <ele>428.0651</ele>
        <time>2021-07-08T09:43:49Z</time>
      </trkpt>
      <trkpt lat="41.29457" lon="-7.73895">
        <ele>421.9463</ele>
        <time>2021-07-08T09:44:00Z</time>
      </trkpt>
      <trkpt lat="41.29439" lon="-7.73847">
        <ele>419.9095</ele>
        <time>2021-07-08T09:44:11Z</time>
      </trkpt>
      <trkpt lat="41.29461" lon="-7.73788">
        <ele>418.7352</ele>
        <time>2021-07-08T09:44:22Z</time>
      </trkpt>
      <trkpt lat="41.29486" lon="-7.73776">
        <ele>423.6996</ele>
        <time>2021-07-08T09:44:33Z</time>
      </trkpt>
      <trkpt lat="41.29535" lon="-7.7389">
        <ele>422.2531</ele>
        <time>2021-07-08T09:44:44Z</time>
      </trkpt>
      <trkpt lat="41.29581" lon="-7.73971">
        <ele>418.0981</ele>
        <time>2021-07-08T09:44:55Z</time>
      </trkpt>
      <trkpt lat="41.29712" lon="-7.74068">
        <ele>413.6137</ele>
        <time>2021-07-08T09:45:06Z</time>
      </trkpt>
      <trkpt lat="41.29723" lon="-7.74076">
        <ele>417.5516</ele>
        <time>2021-07-08T09:45:17Z</time>
      </trkpt>
      <trkpt lat="41.29727" lon="-7.7408">
        <ele>422.181</ele>
        <time>2021-07-08T09:46:01Z</time>
      </trkpt>
      <trkpt lat="41.29779" lon="-7.74095">
        <ele>423.5435</ele>
        <time>2021-07-08T09:46:12Z</time>
      </trkpt>
      <trkpt lat="41.29841" lon="-7.74066">
        <ele>405.4844</ele>
        <time>2021-07-08T09:46:23Z</time>
      </trkpt>
      <trkpt lat="41.29836" lon="-7.74042">
        <ele>403.6086</ele>
        <time>2021-07-08T09:46:34Z</time>
      </trkpt>
      <trkpt lat="41.29781" lon="-7.74033">
        <ele>398.172</ele>
        <time>2021-07-08T09:46:45Z</time>
      </trkpt>
      <trkpt lat="41.29717" lon="-7.74038">
        <ele>395.2902</ele>
        <time>2021-07-08T09:46:56Z</time>
      </trkpt>
      <trkpt lat="41.29681" lon="-7.73968">
        <ele>397.1908</ele>
        <time>2021-07-08T09:47:07Z</time>
      </trkpt>
      <trkpt lat="41.29657" lon="-7.73836">
        <ele>413.0394</ele>
        <time>2021-07-08T09:47:18Z</time>
      </trkpt>
      <trkpt lat="41.29633" lon="-7.73715">
        <ele>406.3194</ele>
        <time>2021-07-08T09:47:29Z</time>
      </trkpt>
      <trkpt lat="41.29663" lon="-7.73602">
        <ele>409.9771</ele>
        <time>2021-07-08T09:47:40Z</time>
      </trkpt>
      <trkpt lat="41.29659" lon="-7.73496">
        <ele>411.8799</ele>
        <time>2021-07-08T09:47:51Z</time>
      </trkpt>
      <trkpt lat="41.29654" lon="-7.73468">
        <ele>412.3957</ele>
        <time>2021-07-08T09:48:02Z</time>
      </trkpt>
      <trkpt lat="41.29682" lon="-7.73455">
        <ele>414.6278</ele>
        <time>2021-07-08T09:48:44Z</time>
      </trkpt>
      <trkpt lat="41.29684" lon="-7.7345">
        <ele>414.6278</ele>
        <time>2021-07-08T09:48:56Z</time>
      </trkpt>
      <trkpt lat="41.2968" lon="-7.73449">
        <ele>414.6278</ele>
        <time>2021-07-08T09:49:09Z</time>
      </trkpt>
      <trkpt lat="41.29683" lon="-7.73453">
        <ele>414.6278</ele>
        <time>2021-07-08T09:49:42Z</time>
      </trkpt>
      <trkpt lat="41.29673" lon="-7.73449">
        <ele>414.6278</ele>
        <time>2021-07-08T09:49:56Z</time>
      </trkpt>
      <trkpt lat="41.29677" lon="-7.73452">
        <ele>414.6278</ele>
        <time>2021-07-08T09:50:09Z</time>
      </trkpt>
      <trkpt lat="41.29667" lon="-7.73456">
        <ele>414.6278</ele>
        <time>2021-07-08T09:50:21Z</time>
      </trkpt>
      <trkpt lat="41.2967" lon="-7.7346">
        <ele>414.6278</ele>
        <time>2021-07-08T09:50:34Z</time>
      </trkpt>
      <trkpt lat="41.29683" lon="-7.73454">
        <ele>414.6278</ele>
        <time>2021-07-08T09:50:48Z</time>
      </trkpt>
      <trkpt lat="41.29677" lon="-7.73445">
        <ele>414.6278</ele>
        <time>2021-07-08T09:51:01Z</time>
      </trkpt>
      <trkpt lat="41.29673" lon="-7.73452">
        <ele>414.6278</ele>
        <time>2021-07-08T09:51:14Z</time>
      </trkpt>
      <trkpt lat="41.29678" lon="-7.73455">
        <ele>414.6278</ele>
        <time>2021-07-08T09:51:26Z</time>
      </trkpt>
      <trkpt lat="41.29682" lon="-7.73443">
        <ele>414.6278</ele>
        <time>2021-07-08T09:51:39Z</time>
      </trkpt>
      <trkpt lat="41.29674" lon="-7.73457">
        <ele>414.6278</ele>
        <time>2021-07-08T09:51:52Z</time>
      </trkpt>
      <trkpt lat="41.29684" lon="-7.73446">
        <ele>414.6278</ele>
        <time>2021-07-08T09:52:05Z</time>
      </trkpt>
      <trkpt lat="41.29697" lon="-7.73448">
        <ele>414.6278</ele>
        <time>2021-07-08T09:52:18Z</time>
      </trkpt>
      <trkpt lat="41.29703" lon="-7.73458">
        <ele>414.6278</ele>
        <time>2021-07-08T09:52:31Z</time>
      </trkpt>
      <trkpt lat="41.29714" lon="-7.73454">
        <ele>414.6278</ele>
        <time>2021-07-08T09:52:43Z</time>
      </trkpt>
      <trkpt lat="41.29719" lon="-7.73476">
        <ele>412.4078</ele>
        <time>2021-07-08T09:52:57Z</time>
      </trkpt>
      <trkpt lat="41.2971" lon="-7.73494">
        <ele>412.4078</ele>
        <time>2021-07-08T09:53:10Z</time>
      </trkpt>
      <trkpt lat="41.29741" lon="-7.73487">
        <ele>412.4078</ele>
        <time>2021-07-08T09:53:23Z</time>
      </trkpt>
      <trkpt lat="41.29731" lon="-7.73492">
        <ele>411.0078</ele>
        <time>2021-07-08T09:53:36Z</time>
      </trkpt>
      <trkpt lat="41.29725" lon="-7.73499">
        <ele>411.0078</ele>
        <time>2021-07-08T09:53:49Z</time>
      </trkpt>
      <trkpt lat="41.29708" lon="-7.73517">
        <ele>411.0078</ele>
        <time>2021-07-08T09:54:02Z</time>
      </trkpt>
      <trkpt lat="41.29685" lon="-7.73514">
        <ele>411.0078</ele>
        <time>2021-07-08T09:54:15Z</time>
      </trkpt>
      <trkpt lat="41.29692" lon="-7.73519">
        <ele>411.0078</ele>
        <time>2021-07-08T09:54:28Z</time>
      </trkpt>
      <trkpt lat="41.2968" lon="-7.73522">
        <ele>411.0078</ele>
        <time>2021-07-08T09:54:43Z</time>
      </trkpt>
      <trkpt lat="41.29715" lon="-7.7359">
        <ele>411.0078</ele>
        <time>2021-07-08T09:54:57Z</time>
      </trkpt>
      <trkpt lat="41.29702" lon="-7.73564">
        <ele>411.0078</ele>
        <time>2021-07-08T09:55:11Z</time>
      </trkpt>
      <trkpt lat="41.29694" lon="-7.73564">
        <ele>411.0078</ele>
        <time>2021-07-08T09:55:24Z</time>
      </trkpt>
      <trkpt lat="41.29693" lon="-7.73548">
        <ele>411.0078</ele>
        <time>2021-07-08T09:55:37Z</time>
      </trkpt>
      <trkpt lat="41.29686" lon="-7.73514">
        <ele>411.0078</ele>
        <time>2021-07-08T09:55:50Z</time>
      </trkpt>
      <trkpt lat="41.29687" lon="-7.73527">
        <ele>411.0078</ele>
        <time>2021-07-08T09:56:10Z</time>
      </trkpt>
      <trkpt lat="41.29693" lon="-7.73508">
        <ele>411.0078</ele>
        <time>2021-07-08T09:56:29Z</time>
      </trkpt>
      <trkpt lat="41.29677" lon="-7.73515">
        <ele>411.0078</ele>
        <time>2021-07-08T09:56:42Z</time>
      </trkpt>
      <trkpt lat="41.29672" lon="-7.73518">
        <ele>411.0078</ele>
        <time>2021-07-08T09:57:08Z</time>
      </trkpt>
      <trkpt lat="41.29667" lon="-7.73521">
        <ele>411.0078</ele>
        <time>2021-07-08T09:57:28Z</time>
      </trkpt>
      <trkpt lat="41.29673" lon="-7.73516">
        <ele>411.0078</ele>
        <time>2021-07-08T09:57:41Z</time>
      </trkpt>
      <trkpt lat="41.2967" lon="-7.73519">
        <ele>411.0078</ele>
        <time>2021-07-08T09:57:54Z</time>
      </trkpt>
      <trkpt lat="41.29678" lon="-7.73513">
        <ele>411.0078</ele>
        <time>2021-07-08T09:58:14Z</time>
      </trkpt>
      <trkpt lat="41.29672" lon="-7.73516">
        <ele>411.0078</ele>
        <time>2021-07-08T09:58:41Z</time>
      </trkpt>
      <trkpt lat="41.29679" lon="-7.73513">
        <ele>411.0078</ele>
        <time>2021-07-08T09:59:01Z</time>
      </trkpt>
      <trkpt lat="41.29674" lon="-7.73515">
        <ele>411.0078</ele>
        <time>2021-07-08T09:59:14Z</time>
      </trkpt>
      <trkpt lat="41.29693" lon="-7.73503">
        <ele>411.0078</ele>
        <time>2021-07-08T09:59:27Z</time>
      </trkpt>
      <trkpt lat="41.29682" lon="-7.7351">
        <ele>411.0078</ele>
        <time>2021-07-08T09:59:40Z</time>
      </trkpt>
      <trkpt lat="41.29687" lon="-7.73503">
        <ele>411.0078</ele>
        <time>2021-07-08T09:59:53Z</time>
      </trkpt>
      <trkpt lat="41.29677" lon="-7.73511">
        <ele>411.0078</ele>
        <time>2021-07-08T10:00:25Z</time>
      </trkpt>
      <trkpt lat="41.29682" lon="-7.73509">
        <ele>411.0078</ele>
        <time>2021-07-08T10:00:45Z</time>
      </trkpt>
      <trkpt lat="41.29687" lon="-7.73505">
        <ele>411.0078</ele>
        <time>2021-07-08T10:00:58Z</time>
      </trkpt>
      <trkpt lat="41.29683" lon="-7.73508">
        <ele>411.0078</ele>
        <time>2021-07-08T10:01:12Z</time>
      </trkpt>
      <trkpt lat="41.29687" lon="-7.73504">
        <ele>411.0078</ele>
        <time>2021-07-08T10:01:25Z</time>
      </trkpt>
      <trkpt lat="41.2968" lon="-7.73511">
        <ele>411.0078</ele>
        <time>2021-07-08T10:01:44Z</time>
      </trkpt>
      <trkpt lat="41.29698" lon="-7.735">
        <ele>411.0078</ele>
        <time>2021-07-08T10:01:57Z</time>
      </trkpt>
      <trkpt lat="41.29702" lon="-7.73495">
        <ele>411.0078</ele>
        <time>2021-07-08T10:02:10Z</time>
      </trkpt>
      <trkpt lat="41.29716" lon="-7.73489">
        <ele>411.0078</ele>
        <time>2021-07-08T10:02:23Z</time>
      </trkpt>
      <trkpt lat="41.29726" lon="-7.73469">
        <ele>411.0078</ele>
        <time>2021-07-08T10:02:36Z</time>
      </trkpt>
      <trkpt lat="41.29711" lon="-7.73465">
        <ele>411.0078</ele>
        <time>2021-07-08T10:02:50Z</time>
      </trkpt>
      <trkpt lat="41.29705" lon="-7.73445">
        <ele>413.0978</ele>
        <time>2021-07-08T10:03:03Z</time>
      </trkpt>
      <trkpt lat="41.29676" lon="-7.73441">
        <ele>413.0978</ele>
        <time>2021-07-08T10:03:16Z</time>
      </trkpt>
      <trkpt lat="41.29681" lon="-7.7344">
        <ele>414.2778</ele>
        <time>2021-07-08T10:03:36Z</time>
      </trkpt>
      <trkpt lat="41.29679" lon="-7.73454">
        <ele>414.2778</ele>
        <time>2021-07-08T10:03:49Z</time>
      </trkpt>
      <trkpt lat="41.29672" lon="-7.73452">
        <ele>414.2778</ele>
        <time>2021-07-08T10:04:02Z</time>
      </trkpt>
      <trkpt lat="41.29679" lon="-7.73444">
        <ele>414.2778</ele>
        <time>2021-07-08T10:04:15Z</time>
      </trkpt>
      <trkpt lat="41.29678" lon="-7.73454">
        <ele>414.2778</ele>
        <time>2021-07-08T10:04:29Z</time>
      </trkpt>
      <trkpt lat="41.29682" lon="-7.73453">
        <ele>414.2778</ele>
        <time>2021-07-08T10:04:57Z</time>
      </trkpt>
      <trkpt lat="41.29685" lon="-7.7345">
        <ele>414.2778</ele>
        <time>2021-07-08T10:05:12Z</time>
      </trkpt>
      <trkpt lat="41.2967" lon="-7.7345">
        <ele>414.2778</ele>
        <time>2021-07-08T10:05:31Z</time>
      </trkpt>
      <trkpt lat="41.29678" lon="-7.73463">
        <ele>414.2778</ele>
        <time>2021-07-08T10:05:49Z</time>
      </trkpt>
      <trkpt lat="41.29682" lon="-7.73451">
        <ele>414.2778</ele>
        <time>2021-07-08T10:06:08Z</time>
      </trkpt>
      <trkpt lat="41.29677" lon="-7.73451">
        <ele>414.2778</ele>
        <time>2021-07-08T10:06:21Z</time>
      </trkpt>
      <trkpt lat="41.29678" lon="-7.73446">
        <ele>414.2778</ele>
        <time>2021-07-08T10:06:34Z</time>
      </trkpt>
      <trkpt lat="41.29683" lon="-7.73454">
        <ele>414.2778</ele>
        <time>2021-07-08T10:06:47Z</time>
      </trkpt>
      <trkpt lat="41.29672" lon="-7.73464">
        <ele>414.2778</ele>
        <time>2021-07-08T10:07:00Z</time>
      </trkpt>
      <trkpt lat="41.29681" lon="-7.73451">
        <ele>414.2778</ele>
        <time>2021-07-08T10:07:13Z</time>
      </trkpt>
      <trkpt lat="41.2968" lon="-7.73456">
        <ele>414.2778</ele>
        <time>2021-07-08T10:07:32Z</time>
      </trkpt>
      <trkpt lat="41.29686" lon="-7.73458">
        <ele>414.2778</ele>
        <time>2021-07-08T10:07:52Z</time>
      </trkpt>
      <trkpt lat="41.29685" lon="-7.73451">
        <ele>414.2778</ele>
        <time>2021-07-08T10:08:05Z</time>
      </trkpt>
      <trkpt lat="41.2968" lon="-7.73465">
        <ele>414.2778</ele>
        <time>2021-07-08T10:08:18Z</time>
      </trkpt>
      <trkpt lat="41.29676" lon="-7.73458">
        <ele>414.2778</ele>
        <time>2021-07-08T10:08:31Z</time>
      </trkpt>
      <trkpt lat="41.29685" lon="-7.73455">
        <ele>414.2778</ele>
        <time>2021-07-08T10:08:44Z</time>
      </trkpt>
      <trkpt lat="41.29673" lon="-7.73456">
        <ele>414.2778</ele>
        <time>2021-07-08T10:09:03Z</time>
      </trkpt>
      <trkpt lat="41.29678" lon="-7.73457">
        <ele>414.2778</ele>
        <time>2021-07-08T10:09:16Z</time>
      </trkpt>
      <trkpt lat="41.29683" lon="-7.73443">
        <ele>414.2778</ele>
        <time>2021-07-08T10:09:29Z</time>
      </trkpt>
      <trkpt lat="41.2968" lon="-7.73449">
        <ele>414.2778</ele>
        <time>2021-07-08T10:09:42Z</time>
      </trkpt>
      <trkpt lat="41.29672" lon="-7.73459">
        <ele>414.2778</ele>
        <time>2021-07-08T10:09:55Z</time>
      </trkpt>
      <trkpt lat="41.29686" lon="-7.73456">
        <ele>414.2778</ele>
        <time>2021-07-08T10:10:08Z</time>
      </trkpt>
      <trkpt lat="41.29678" lon="-7.73447">
        <ele>414.2778</ele>
        <time>2021-07-08T10:10:21Z</time>
      </trkpt>
      <trkpt lat="41.29677" lon="-7.73462">
        <ele>414.2778</ele>
        <time>2021-07-08T10:10:34Z</time>
      </trkpt>
      <trkpt lat="41.29675" lon="-7.73456">
        <ele>414.2778</ele>
        <time>2021-07-08T10:10:47Z</time>
      </trkpt>
      <trkpt lat="41.29681" lon="-7.73461">
        <ele>414.2778</ele>
        <time>2021-07-08T10:11:00Z</time>
      </trkpt>
      <trkpt lat="41.29678" lon="-7.73448">
        <ele>414.2778</ele>
        <time>2021-07-08T10:11:13Z</time>
      </trkpt>
      <trkpt lat="41.29682" lon="-7.73441">
        <ele>414.2778</ele>
        <time>2021-07-08T10:11:26Z</time>
      </trkpt>
      <trkpt lat="41.29711" lon="-7.73412">
        <ele>414.2778</ele>
        <time>2021-07-08T10:11:39Z</time>
      </trkpt>
      <trkpt lat="41.29764" lon="-7.73453">
        <ele>414.2778</ele>
        <time>2021-07-08T10:11:53Z</time>
      </trkpt>
      <trkpt lat="41.29771" lon="-7.73481">
        <ele>413.6229</ele>
        <time>2021-07-08T10:12:04Z</time>
      </trkpt>
      <trkpt lat="41.29806" lon="-7.73488">
        <ele>412.7865</ele>
        <time>2021-07-08T10:12:15Z</time>
      </trkpt>
      <trkpt lat="41.2984" lon="-7.73407">
        <ele>416.8678</ele>
        <time>2021-07-08T10:12:26Z</time>
      </trkpt>
      <trkpt lat="41.29826" lon="-7.73337">
        <ele>420.8958</ele>
        <time>2021-07-08T10:12:37Z</time>
      </trkpt>
      <trkpt lat="41.29735" lon="-7.73291">
        <ele>424.6394</ele>
        <time>2021-07-08T10:12:48Z</time>
      </trkpt>
      <trkpt lat="41.29658" lon="-7.7326">
        <ele>429.2374</ele>
        <time>2021-07-08T10:12:59Z</time>
      </trkpt>
      <trkpt lat="41.29594" lon="-7.733">
        <ele>428.2581</ele>
        <time>2021-07-08T10:13:10Z</time>
      </trkpt>
      <trkpt lat="41.29542" lon="-7.7335">
        <ele>427.6178</ele>
        <time>2021-07-08T10:13:21Z</time>
      </trkpt>
      <trkpt lat="41.29468" lon="-7.73435">
        <ele>431.3971</ele>
        <time>2021-07-08T10:13:32Z</time>
      </trkpt>
      <trkpt lat="41.29455" lon="-7.73503">
        <ele>433.2761</ele>
        <time>2021-07-08T10:13:43Z</time>
      </trkpt>
      <trkpt lat="41.29506" lon="-7.73534">
        <ele>426.0977</ele>
        <time>2021-07-08T10:13:54Z</time>
      </trkpt>
      <trkpt lat="41.29506" lon="-7.73607">
        <ele>426.217</ele>
        <time>2021-07-08T10:14:05Z</time>
      </trkpt>
      <trkpt lat="41.29471" lon="-7.73678">
        <ele>422.4455</ele>
        <time>2021-07-08T10:14:16Z</time>
      </trkpt>
      <trkpt lat="41.29445" lon="-7.73665">
        <ele>424.4527</ele>
        <time>2021-07-08T10:14:27Z</time>
      </trkpt>
      <trkpt lat="41.29444" lon="-7.73664">
        <ele>425.3616</ele>
        <time>2021-07-08T10:15:25Z</time>
      </trkpt>
      <trkpt lat="41.29447" lon="-7.73667">
        <ele>424.5523</ele>
        <time>2021-07-08T10:15:44Z</time>
      </trkpt>
      <trkpt lat="41.29431" lon="-7.73651">
        <ele>425.4619</ele>
        <time>2021-07-08T10:15:55Z</time>
      </trkpt>
      <trkpt lat="41.29421" lon="-7.73627">
        <ele>425.9559</ele>
        <time>2021-07-08T10:16:06Z</time>
      </trkpt>
      <trkpt lat="41.29425" lon="-7.73665">
        <ele>425.5976</ele>
        <time>2021-07-08T10:16:17Z</time>
      </trkpt>
      <trkpt lat="41.2948" lon="-7.73761">
        <ele>422.0075</ele>
        <time>2021-07-08T10:16:28Z</time>
      </trkpt>
      <trkpt lat="41.29529" lon="-7.73882">
        <ele>420.7058</ele>
        <time>2021-07-08T10:16:39Z</time>
      </trkpt>
      <trkpt lat="41.29576" lon="-7.73968">
        <ele>418.3253</ele>
        <time>2021-07-08T10:16:50Z</time>
      </trkpt>
      <trkpt lat="41.2965" lon="-7.74025">
        <ele>415.5829</ele>
        <time>2021-07-08T10:17:01Z</time>
      </trkpt>
      <trkpt lat="41.29722" lon="-7.74075">
        <ele>417.8753</ele>
        <time>2021-07-08T10:17:12Z</time>
      </trkpt>
      <trkpt lat="41.29726" lon="-7.74079">
        <ele>420.4474</ele>
        <time>2021-07-08T10:17:23Z</time>
      </trkpt>
      <trkpt lat="41.29732" lon="-7.74084">
        <ele>422.7829</ele>
        <time>2021-07-08T10:18:11Z</time>
      </trkpt>
      <trkpt lat="41.29795" lon="-7.74085">
        <ele>421.9279</ele>
        <time>2021-07-08T10:18:22Z</time>
      </trkpt>
      <trkpt lat="41.29854" lon="-7.74055">
        <ele>405.6127</ele>
        <time>2021-07-08T10:18:33Z</time>
      </trkpt>
      <trkpt lat="41.2977" lon="-7.74032">
        <ele>395.9799</ele>
        <time>2021-07-08T10:18:44Z</time>
      </trkpt>
      <trkpt lat="41.29697" lon="-7.74017">
        <ele>394.0643</ele>
        <time>2021-07-08T10:18:55Z</time>
      </trkpt>
      <trkpt lat="41.29681" lon="-7.73895">
        <ele>404.5028</ele>
        <time>2021-07-08T10:19:06Z</time>
      </trkpt>
      <trkpt lat="41.2963" lon="-7.73763">
        <ele>405.5286</ele>
        <time>2021-07-08T10:19:17Z</time>
      </trkpt>
      <trkpt lat="41.29655" lon="-7.73648">
        <ele>410.4032</ele>
        <time>2021-07-08T10:19:28Z</time>
      </trkpt>
      <trkpt lat="41.29663" lon="-7.73623">
        <ele>412.3116</ele>
        <time>2021-07-08T10:19:39Z</time>
      </trkpt>
      <trkpt lat="41.29663" lon="-7.73617">
        <ele>411.0293</ele>
        <time>2021-07-08T10:19:50Z</time>
      </trkpt>
      <trkpt lat="41.29725" lon="-7.73623">
        <ele>408.6089</ele>
        <time>2021-07-08T10:20:01Z</time>
      </trkpt>
      <trkpt lat="41.29746" lon="-7.73627">
        <ele>406.7356</ele>
        <time>2021-07-08T10:20:12Z</time>
      </trkpt>
      <trkpt lat="41.2973" lon="-7.73653">
        <ele>405.4758</ele>
        <time>2021-07-08T10:20:23Z</time>
      </trkpt>
      <trkpt lat="41.29718" lon="-7.73652">
        <ele>406.0247</ele>
        <time>2021-07-08T10:20:34Z</time>
      </trkpt>
      <trkpt lat="41.2972" lon="-7.73657">
        <ele>405.6811</ele>
        <time>2021-07-08T10:20:50Z</time>
      </trkpt>
      <trkpt lat="41.29722" lon="-7.73661">
        <ele>405.5586</ele>
        <time>2021-07-08T10:21:07Z</time>
      </trkpt>
      <trkpt lat="41.29717" lon="-7.73665">
        <ele>404.6195</ele>
        <time>2021-07-08T10:21:51Z</time>
      </trkpt>
      <trkpt lat="41.29702" lon="-7.73663">
        <ele>407.112</ele>
        <time>2021-07-08T10:22:02Z</time>
      </trkpt>
      <trkpt lat="41.29698" lon="-7.73657">
        <ele>407.5741</ele>
        <time>2021-07-08T10:22:13Z</time>
      </trkpt>
      <trkpt lat="41.29692" lon="-7.73658">
        <ele>407.9876</ele>
        <time>2021-07-08T10:22:24Z</time>
      </trkpt>
      <trkpt lat="41.29689" lon="-7.73654">
        <ele>408.584</ele>
        <time>2021-07-08T10:22:48Z</time>
      </trkpt>
      <trkpt lat="41.29685" lon="-7.73641">
        <ele>409.4019</ele>
        <time>2021-07-08T10:22:59Z</time>
      </trkpt>
      <trkpt lat="41.29682" lon="-7.73637">
        <ele>409.6869</ele>
        <time>2021-07-08T10:23:22Z</time>
      </trkpt>
      <trkpt lat="41.29684" lon="-7.73642">
        <ele>407.813</ele>
        <time>2021-07-08T10:23:35Z</time>
      </trkpt>
      <trkpt lat="41.29681" lon="-7.73635">
        <ele>409.3464</ele>
        <time>2021-07-08T10:24:07Z</time>
      </trkpt>
      <trkpt lat="41.29664" lon="-7.73557">
        <ele>412.7477</ele>
        <time>2021-07-08T10:24:18Z</time>
      </trkpt>
      <trkpt lat="41.29619" lon="-7.7343">
        <ele>417.0243</ele>
        <time>2021-07-08T10:24:29Z</time>
      </trkpt>
      <trkpt lat="41.29571" lon="-7.7334">
        <ele>423.006</ele>
        <time>2021-07-08T10:24:40Z</time>
      </trkpt>
      <trkpt lat="41.295" lon="-7.73238">
        <ele>432.2774</ele>
        <time>2021-07-08T10:24:51Z</time>
      </trkpt>
      <trkpt lat="41.2949" lon="-7.73212">
        <ele>432.6838</ele>
        <time>2021-07-08T10:25:02Z</time>
      </trkpt>
      <trkpt lat="41.29603" lon="-7.73155">
        <ele>431.5915</ele>
        <time>2021-07-08T10:25:13Z</time>
      </trkpt>
      <trkpt lat="41.29747" lon="-7.73212">
        <ele>435.1611</ele>
        <time>2021-07-08T10:25:24Z</time>
      </trkpt>
      <trkpt lat="41.29869" lon="-7.7322">
        <ele>426.7836</ele>
        <time>2021-07-08T10:25:35Z</time>
      </trkpt>
      <trkpt lat="41.2994" lon="-7.73201">
        <ele>423.6841</ele>
        <time>2021-07-08T10:25:46Z</time>
      </trkpt>
      <trkpt lat="41.30055" lon="-7.73154">
        <ele>424.3936</ele>
        <time>2021-07-08T10:25:57Z</time>
      </trkpt>
      <trkpt lat="41.30174" lon="-7.73029">
        <ele>425.786</ele>
        <time>2021-07-08T10:26:08Z</time>
      </trkpt>
      <trkpt lat="41.30309" lon="-7.73154">
        <ele>423.3026</ele>
        <time>2021-07-08T10:26:19Z</time>
      </trkpt>
      <trkpt lat="41.30297" lon="-7.73347">
        <ele>416.2522</ele>
        <time>2021-07-08T10:26:30Z</time>
      </trkpt>
      <trkpt lat="41.30432" lon="-7.73372">
        <ele>405.3814</ele>
        <time>2021-07-08T10:26:41Z</time>
      </trkpt>
      <trkpt lat="41.30551" lon="-7.73367">
        <ele>402.9719</ele>
        <time>2021-07-08T10:26:52Z</time>
      </trkpt>
      <trkpt lat="41.30625" lon="-7.73448">
        <ele>402.2119</ele>
        <time>2021-07-08T10:27:03Z</time>
      </trkpt>
      <trkpt lat="41.30661" lon="-7.73623">
        <ele>409.061</ele>
        <time>2021-07-08T10:27:14Z</time>
      </trkpt>
      <trkpt lat="41.30599" lon="-7.73761">
        <ele>413.5949</ele>
        <time>2021-07-08T10:27:25Z</time>
      </trkpt>
      <trkpt lat="41.30495" lon="-7.73862">
        <ele>419.3269</ele>
        <time>2021-07-08T10:27:36Z</time>
      </trkpt>
      <trkpt lat="41.30425" lon="-7.73921">
        <ele>424.3125</ele>
        <time>2021-07-08T10:27:47Z</time>
      </trkpt>
      <trkpt lat="41.30342" lon="-7.73981">
        <ele>428.5018</ele>
        <time>2021-07-08T10:27:58Z</time>
      </trkpt>
      <trkpt lat="41.30351" lon="-7.74063">
        <ele>431.1916</ele>
        <time>2021-07-08T10:28:09Z</time>
      </trkpt>
      <trkpt lat="41.30431" lon="-7.74043">
        <ele>432.5231</ele>
        <time>2021-07-08T10:28:20Z</time>
      </trkpt>
      <trkpt lat="41.30563" lon="-7.74009">
        <ele>434.0546</ele>
        <time>2021-07-08T10:28:31Z</time>
      </trkpt>
      <trkpt lat="41.30672" lon="-7.73906">
        <ele>441.5331</ele>
        <time>2021-07-08T10:28:42Z</time>
      </trkpt>
      <trkpt lat="41.30734" lon="-7.73766">
        <ele>440.2914</ele>
        <time>2021-07-08T10:28:53Z</time>
      </trkpt>
      <trkpt lat="41.30801" lon="-7.73636">
        <ele>439.3594</ele>
        <time>2021-07-08T10:29:04Z</time>
      </trkpt>
      <trkpt lat="41.30863" lon="-7.73514">
        <ele>445.095</ele>
        <time>2021-07-08T10:29:15Z</time>
      </trkpt>
      <trkpt lat="41.30936" lon="-7.73476">
        <ele>445.6428</ele>
        <time>2021-07-08T10:29:26Z</time>
      </trkpt>
      <trkpt lat="41.31058" lon="-7.73484">
        <ele>450.7738</ele>
        <time>2021-07-08T10:29:37Z</time>
      </trkpt>
      <trkpt lat="41.31172" lon="-7.73449">
        <ele>454.2439</ele>
        <time>2021-07-08T10:29:48Z</time>
      </trkpt>
      <trkpt lat="41.31273" lon="-7.73399">
        <ele>457.457</ele>
        <time>2021-07-08T10:29:59Z</time>
      </trkpt>
      <trkpt lat="41.31293" lon="-7.73261">
        <ele>459.2778</ele>
        <time>2021-07-08T10:30:10Z</time>
      </trkpt>
      <trkpt lat="41.31374" lon="-7.73116">
        <ele>460.5081</ele>
        <time>2021-07-08T10:30:21Z</time>
      </trkpt>
      <trkpt lat="41.31528" lon="-7.72886">
        <ele>459.7643</ele>
        <time>2021-07-08T10:30:32Z</time>
      </trkpt>
      <trkpt lat="41.31664" lon="-7.72648">
        <ele>452.5092</ele>
        <time>2021-07-08T10:30:43Z</time>
      </trkpt>
      <trkpt lat="41.31618" lon="-7.72364">
        <ele>455.0214</ele>
        <time>2021-07-08T10:30:54Z</time>
      </trkpt>
      <trkpt lat="41.31567" lon="-7.72033">
        <ele>470.8005</ele>
        <time>2021-07-08T10:31:05Z</time>
      </trkpt>
      <trkpt lat="41.31552" lon="-7.71727">
        <ele>490.1852</ele>
        <time>2021-07-08T10:31:16Z</time>
      </trkpt>
      <trkpt lat="41.31639" lon="-7.71437">
        <ele>508.4507</ele>
        <time>2021-07-08T10:31:27Z</time>
      </trkpt>
      <trkpt lat="41.3165" lon="-7.71126">
        <ele>524.2442</ele>
        <time>2021-07-08T10:31:38Z</time>
      </trkpt>
      <trkpt lat="41.31615" lon="-7.70793">
        <ele>542.5931</ele>
        <time>2021-07-08T10:31:49Z</time>
      </trkpt>
      <trkpt lat="41.31713" lon="-7.70519">
        <ele>552.1668</ele>
        <time>2021-07-08T10:32:00Z</time>
      </trkpt>
      <trkpt lat="41.31925" lon="-7.70343">
        <ele>565.3539</ele>
        <time>2021-07-08T10:32:11Z</time>
      </trkpt>
      <trkpt lat="41.3214" lon="-7.70176">
        <ele>578.041</ele>
        <time>2021-07-08T10:32:22Z</time>
      </trkpt>
      <trkpt lat="41.32354" lon="-7.69979">
        <ele>592.9123</ele>
        <time>2021-07-08T10:32:33Z</time>
      </trkpt>
      <trkpt lat="41.32456" lon="-7.69666">
        <ele>607.3076</ele>
        <time>2021-07-08T10:32:44Z</time>
      </trkpt>
      <trkpt lat="41.32509" lon="-7.6932">
        <ele>615.3163</ele>
        <time>2021-07-08T10:32:55Z</time>
      </trkpt>
      <trkpt lat="41.3265" lon="-7.68969">
        <ele>616.8978</ele>
        <time>2021-07-08T10:33:06Z</time>
      </trkpt>
      <trkpt lat="41.32698" lon="-7.68616">
        <ele>631.1459</ele>
        <time>2021-07-08T10:33:17Z</time>
      </trkpt>
      <trkpt lat="41.32667" lon="-7.68287">
        <ele>644.6979</ele>
        <time>2021-07-08T10:33:28Z</time>
      </trkpt>
      <trkpt lat="41.32692" lon="-7.67932">
        <ele>662.8437</ele>
        <time>2021-07-08T10:33:39Z</time>
      </trkpt>
      <trkpt lat="41.32851" lon="-7.67663">
        <ele>679.6302</ele>
        <time>2021-07-08T10:33:50Z</time>
      </trkpt>
      <trkpt lat="41.32832" lon="-7.67465">
        <ele>691.8525</ele>
        <time>2021-07-08T10:34:01Z</time>
      </trkpt>
      <trkpt lat="41.32772" lon="-7.67389">
        <ele>694.5333</ele>
        <time>2021-07-08T10:34:12Z</time>
      </trkpt>
      <trkpt lat="41.32876" lon="-7.67276">
        <ele>695.5863</ele>
        <time>2021-07-08T10:34:23Z</time>
      </trkpt>
      <trkpt lat="41.32964" lon="-7.67013">
        <ele>688.2812</ele>
        <time>2021-07-08T10:34:34Z</time>
      </trkpt>
      <trkpt lat="41.32953" lon="-7.66811">
        <ele>693.0254</ele>
        <time>2021-07-08T10:34:45Z</time>
      </trkpt>
      <trkpt lat="41.33108" lon="-7.66673">
        <ele>701.0204</ele>
        <time>2021-07-08T10:34:56Z</time>
      </trkpt>
      <trkpt lat="41.33254" lon="-7.6652">
        <ele>707.0868</ele>
        <time>2021-07-08T10:35:07Z</time>
      </trkpt>
      <trkpt lat="41.3344" lon="-7.66436">
        <ele>715.0684</ele>
        <time>2021-07-08T10:35:18Z</time>
      </trkpt>
      <trkpt lat="41.33629" lon="-7.66369">
        <ele>724.8061</ele>
        <time>2021-07-08T10:35:29Z</time>
      </trkpt>
      <trkpt lat="41.33768" lon="-7.66261">
        <ele>729.4813</ele>
        <time>2021-07-08T10:35:40Z</time>
      </trkpt>
      <trkpt lat="41.33904" lon="-7.6609">
        <ele>728.6555</ele>
        <time>2021-07-08T10:35:51Z</time>
      </trkpt>
      <trkpt lat="41.34067" lon="-7.65909">
        <ele>732.7789</ele>
        <time>2021-07-08T10:36:02Z</time>
      </trkpt>
      <trkpt lat="41.34227" lon="-7.6573">
        <ele>737.4084</ele>
        <time>2021-07-08T10:36:13Z</time>
      </trkpt>
      <trkpt lat="41.3438" lon="-7.65539">
        <ele>746.3403</ele>
        <time>2021-07-08T10:36:24Z</time>
      </trkpt>
      <trkpt lat="41.34458" lon="-7.65349">
        <ele>743.7557</ele>
        <time>2021-07-08T10:36:35Z</time>
      </trkpt>
      <trkpt lat="41.34612" lon="-7.65206">
        <ele>749.6733</ele>
        <time>2021-07-08T10:36:46Z</time>
      </trkpt>
      <trkpt lat="41.34846" lon="-7.65097">
        <ele>764.0023</ele>
        <time>2021-07-08T10:36:57Z</time>
      </trkpt>
      <trkpt lat="41.35068" lon="-7.64994">
        <ele>774.6235</ele>
        <time>2021-07-08T10:37:08Z</time>
      </trkpt>
      <trkpt lat="41.35244" lon="-7.64823">
        <ele>788.2831</ele>
        <time>2021-07-08T10:37:19Z</time>
      </trkpt>
      <trkpt lat="41.35384" lon="-7.64665">
        <ele>792.4684</ele>
        <time>2021-07-08T10:37:30Z</time>
      </trkpt>
      <trkpt lat="41.35573" lon="-7.64501">
        <ele>805.6346</ele>
        <time>2021-07-08T10:37:41Z</time>
      </trkpt>
      <trkpt lat="41.35796" lon="-7.64402">
        <ele>814.0898</ele>
        <time>2021-07-08T10:37:52Z</time>
      </trkpt>
      <trkpt lat="41.36005" lon="-7.64327">
        <ele>818.6381</ele>
        <time>2021-07-08T10:38:03Z</time>
      </trkpt>
      <trkpt lat="41.36226" lon="-7.64235">
        <ele>828.7755</ele>
        <time>2021-07-08T10:38:14Z</time>
      </trkpt>
      <trkpt lat="41.36257" lon="-7.6403">
        <ele>831.1254</ele>
        <time>2021-07-08T10:38:25Z</time>
      </trkpt>
      <trkpt lat="41.36152" lon="-7.63736">
        <ele>821.6207</ele>
        <time>2021-07-08T10:38:36Z</time>
      </trkpt>
      <trkpt lat="41.36031" lon="-7.6349">
        <ele>816.4184</ele>
        <time>2021-07-08T10:38:47Z</time>
      </trkpt>
      <trkpt lat="41.35853" lon="-7.6328">
        <ele>806.9222</ele>
        <time>2021-07-08T10:38:58Z</time>
      </trkpt>
      <trkpt lat="41.35769" lon="-7.63058">
        <ele>795.5626</ele>
        <time>2021-07-08T10:39:09Z</time>
      </trkpt>
      <trkpt lat="41.35723" lon="-7.62786">
        <ele>788.8406</ele>
        <time>2021-07-08T10:39:20Z</time>
      </trkpt>
      <trkpt lat="41.35764" lon="-7.62572">
        <ele>780.8662</ele>
        <time>2021-07-08T10:39:31Z</time>
      </trkpt>
      <trkpt lat="41.35709" lon="-7.62365">
        <ele>774.4734</ele>
        <time>2021-07-08T10:39:42Z</time>
      </trkpt>
      <trkpt lat="41.35623" lon="-7.62203">
        <ele>774.0998</ele>
        <time>2021-07-08T10:39:53Z</time>
      </trkpt>
      <trkpt lat="41.35649" lon="-7.61996">
        <ele>765.1896</ele>
        <time>2021-07-08T10:40:04Z</time>
      </trkpt>
      <trkpt lat="41.35732" lon="-7.61749">
        <ele>755.41</ele>
        <time>2021-07-08T10:40:15Z</time>
      </trkpt>
      <trkpt lat="41.35697" lon="-7.61479">
        <ele>743.8923</ele>
        <time>2021-07-08T10:40:26Z</time>
      </trkpt>
      <trkpt lat="41.35591" lon="-7.61326">
        <ele>734.8395</ele>
        <time>2021-07-08T10:40:37Z</time>
      </trkpt>
      <trkpt lat="41.35423" lon="-7.61289">
        <ele>724.7338</ele>
        <time>2021-07-08T10:40:48Z</time>
      </trkpt>
      <trkpt lat="41.35273" lon="-7.61143">
        <ele>714.1062</ele>
        <time>2021-07-08T10:40:59Z</time>
      </trkpt>
      <trkpt lat="41.35354" lon="-7.60937">
        <ele>710.2892</ele>
        <time>2021-07-08T10:41:10Z</time>
      </trkpt>
      <trkpt lat="41.35276" lon="-7.60826">
        <ele>705.95</ele>
        <time>2021-07-08T10:41:21Z</time>
      </trkpt>
      <trkpt lat="41.35143" lon="-7.60636">
        <ele>692.611</ele>
        <time>2021-07-08T10:41:32Z</time>
      </trkpt>
      <trkpt lat="41.35113" lon="-7.60422">
        <ele>678.0832</ele>
        <time>2021-07-08T10:41:43Z</time>
      </trkpt>
      <trkpt lat="41.35268" lon="-7.60265">
        <ele>667.7555</ele>
        <time>2021-07-08T10:41:54Z</time>
      </trkpt>
      <trkpt lat="41.35222" lon="-7.60081">
        <ele>660.473</ele>
        <time>2021-07-08T10:42:05Z</time>
      </trkpt>
      <trkpt lat="41.35141" lon="-7.60018">
        <ele>654.7283</ele>
        <time>2021-07-08T10:42:16Z</time>
      </trkpt>
      <trkpt lat="41.35075" lon="-7.59824">
        <ele>644.5282</ele>
        <time>2021-07-08T10:42:27Z</time>
      </trkpt>
      <trkpt lat="41.34937" lon="-7.59858">
        <ele>641.4147</ele>
        <time>2021-07-08T10:42:38Z</time>
      </trkpt>
      <trkpt lat="41.34766" lon="-7.59682">
        <ele>630.6114</ele>
        <time>2021-07-08T10:42:49Z</time>
      </trkpt>
      <trkpt lat="41.34609" lon="-7.59512">
        <ele>621.1286</ele>
        <time>2021-07-08T10:43:00Z</time>
      </trkpt>
      <trkpt lat="41.3463" lon="-7.5933">
        <ele>612.6617</ele>
        <time>2021-07-08T10:43:11Z</time>
      </trkpt>
      <trkpt lat="41.34803" lon="-7.59272">
        <ele>603.4457</ele>
        <time>2021-07-08T10:43:22Z</time>
      </trkpt>
      <trkpt lat="41.34903" lon="-7.59154">
        <ele>596.8637</ele>
        <time>2021-07-08T10:43:33Z</time>
      </trkpt>
      <trkpt lat="41.35005" lon="-7.59283">
        <ele>593.2792</ele>
        <time>2021-07-08T10:43:44Z</time>
      </trkpt>
      <trkpt lat="41.35185" lon="-7.59263">
        <ele>583.1462</ele>
        <time>2021-07-08T10:43:55Z</time>
      </trkpt>
      <trkpt lat="41.35225" lon="-7.59141">
        <ele>579.4475</ele>
        <time>2021-07-08T10:44:06Z</time>
      </trkpt>
      <trkpt lat="41.35164" lon="-7.58976">
        <ele>578.8485</ele>
        <time>2021-07-08T10:44:17Z</time>
      </trkpt>
      <trkpt lat="41.35276" lon="-7.58823">
        <ele>575.3312</ele>
        <time>2021-07-08T10:44:28Z</time>
      </trkpt>
      <trkpt lat="41.35383" lon="-7.58691">
        <ele>577.7401</ele>
        <time>2021-07-08T10:44:39Z</time>
      </trkpt>
      <trkpt lat="41.35469" lon="-7.5851">
        <ele>582.6105</ele>
        <time>2021-07-08T10:44:50Z</time>
      </trkpt>
      <trkpt lat="41.35562" lon="-7.58297">
        <ele>594.5882</ele>
        <time>2021-07-08T10:45:01Z</time>
      </trkpt>
      <trkpt lat="41.35649" lon="-7.58027">
        <ele>593.4814</ele>
        <time>2021-07-08T10:45:12Z</time>
      </trkpt>
      <trkpt lat="41.35621" lon="-7.57744">
        <ele>591.8842</ele>
        <time>2021-07-08T10:45:23Z</time>
      </trkpt>
      <trkpt lat="41.35565" lon="-7.57558">
        <ele>594.4189</ele>
        <time>2021-07-08T10:45:34Z</time>
      </trkpt>
      <trkpt lat="41.35669" lon="-7.57361">
        <ele>597.8636</ele>
        <time>2021-07-08T10:45:45Z</time>
      </trkpt>
      <trkpt lat="41.35904" lon="-7.57305">
        <ele>601.0131</ele>
        <time>2021-07-08T10:45:56Z</time>
      </trkpt>
      <trkpt lat="41.36143" lon="-7.57234">
        <ele>601.1485</ele>
        <time>2021-07-08T10:46:07Z</time>
      </trkpt>
      <trkpt lat="41.3633" lon="-7.57123">
        <ele>612.5266</ele>
        <time>2021-07-08T10:46:18Z</time>
      </trkpt>
      <trkpt lat="41.365" lon="-7.56991">
        <ele>623.6013</ele>
        <time>2021-07-08T10:46:29Z</time>
      </trkpt>
      <trkpt lat="41.36699" lon="-7.56823">
        <ele>633.3279</ele>
        <time>2021-07-08T10:46:40Z</time>
      </trkpt>
      <trkpt lat="41.36882" lon="-7.56685">
        <ele>637.4191</ele>
        <time>2021-07-08T10:46:51Z</time>
      </trkpt>
      <trkpt lat="41.37021" lon="-7.56505">
        <ele>641.9064</ele>
        <time>2021-07-08T10:47:02Z</time>
      </trkpt>
      <trkpt lat="41.37158" lon="-7.56267">
        <ele>648.9064</ele>
        <time>2021-07-08T10:47:13Z</time>
      </trkpt>
      <trkpt lat="41.37309" lon="-7.56032">
        <ele>655.1099</ele>
        <time>2021-07-08T10:47:24Z</time>
      </trkpt>
      <trkpt lat="41.37505" lon="-7.55845">
        <ele>665.469</ele>
        <time>2021-07-08T10:47:35Z</time>
      </trkpt>
      <trkpt lat="41.37609" lon="-7.55581">
        <ele>671.9893</ele>
        <time>2021-07-08T10:47:46Z</time>
      </trkpt>
      <trkpt lat="41.37685" lon="-7.55311">
        <ele>685.3254</ele>
        <time>2021-07-08T10:47:57Z</time>
      </trkpt>
      <trkpt lat="41.37764" lon="-7.55053">
        <ele>696.2611</ele>
        <time>2021-07-08T10:48:08Z</time>
      </trkpt>
      <trkpt lat="41.3779" lon="-7.54738">
        <ele>707.7413</ele>
        <time>2021-07-08T10:48:19Z</time>
      </trkpt>
      <trkpt lat="41.37643" lon="-7.54565">
        <ele>712.6158</ele>
        <time>2021-07-08T10:48:30Z</time>
      </trkpt>
      <trkpt lat="41.37476" lon="-7.54451">
        <ele>719.3637</ele>
        <time>2021-07-08T10:48:41Z</time>
      </trkpt>
      <trkpt lat="41.3739" lon="-7.54298">
        <ele>722.8326</ele>
        <time>2021-07-08T10:48:52Z</time>
      </trkpt>
      <trkpt lat="41.37285" lon="-7.54334">
        <ele>724.3122</ele>
        <time>2021-07-08T10:49:03Z</time>
      </trkpt>
      <trkpt lat="41.37239" lon="-7.54257">
        <ele>719.7464</ele>
        <time>2021-07-08T10:49:14Z</time>
      </trkpt>
      <trkpt lat="41.37045" lon="-7.54183">
        <ele>709.6268</ele>
        <time>2021-07-08T10:49:25Z</time>
      </trkpt>
      <trkpt lat="41.37008" lon="-7.53957">
        <ele>701.435</ele>
        <time>2021-07-08T10:49:36Z</time>
      </trkpt>
      <trkpt lat="41.3702" lon="-7.53706">
        <ele>695.1529</ele>
        <time>2021-07-08T10:49:47Z</time>
      </trkpt>
      <trkpt lat="41.37028" lon="-7.53423">
        <ele>689.2037</ele>
        <time>2021-07-08T10:49:58Z</time>
      </trkpt>
      <trkpt lat="41.37114" lon="-7.53202">
        <ele>691.6791</ele>
        <time>2021-07-08T10:50:09Z</time>
      </trkpt>
      <trkpt lat="41.37205" lon="-7.52944">
        <ele>690.8214</ele>
        <time>2021-07-08T10:50:20Z</time>
      </trkpt>
      <trkpt lat="41.3736" lon="-7.52687">
        <ele>698.9979</ele>
        <time>2021-07-08T10:50:31Z</time>
      </trkpt>
      <trkpt lat="41.37549" lon="-7.52489">
        <ele>708.3349</ele>
        <time>2021-07-08T10:50:42Z</time>
      </trkpt>
      <trkpt lat="41.37661" lon="-7.52279">
        <ele>718.0778</ele>
        <time>2021-07-08T10:50:53Z</time>
      </trkpt>
      <trkpt lat="41.37747" lon="-7.52012">
        <ele>732.9281</ele>
        <time>2021-07-08T10:51:04Z</time>
      </trkpt>
      <trkpt lat="41.37817" lon="-7.51753">
        <ele>743.0945</ele>
        <time>2021-07-08T10:51:15Z</time>
      </trkpt>
      <trkpt lat="41.37936" lon="-7.5156">
        <ele>755.2003</ele>
        <time>2021-07-08T10:51:26Z</time>
      </trkpt>
      <trkpt lat="41.38009" lon="-7.51368">
        <ele>763.8222</ele>
        <time>2021-07-08T10:51:37Z</time>
      </trkpt>
      <trkpt lat="41.38046" lon="-7.5117">
        <ele>771.8025</ele>
        <time>2021-07-08T10:51:48Z</time>
      </trkpt>
      <trkpt lat="41.3788" lon="-7.51034">
        <ele>780.1856</ele>
        <time>2021-07-08T10:51:59Z</time>
      </trkpt>
      <trkpt lat="41.37632" lon="-7.50932">
        <ele>773.2236</ele>
        <time>2021-07-08T10:52:10Z</time>
      </trkpt>
      <trkpt lat="41.37389" lon="-7.5082">
        <ele>762.5137</ele>
        <time>2021-07-08T10:52:21Z</time>
      </trkpt>
      <trkpt lat="41.37165" lon="-7.50626">
        <ele>750.9951</ele>
        <time>2021-07-08T10:52:32Z</time>
      </trkpt>
      <trkpt lat="41.3699" lon="-7.50365">
        <ele>739.259</ele>
        <time>2021-07-08T10:52:43Z</time>
      </trkpt>
      <trkpt lat="41.36821" lon="-7.50081">
        <ele>724.4292</ele>
        <time>2021-07-08T10:52:54Z</time>
      </trkpt>
      <trkpt lat="41.36647" lon="-7.49791">
        <ele>703.5017</ele>
        <time>2021-07-08T10:53:05Z</time>
      </trkpt>
      <trkpt lat="41.36458" lon="-7.49522">
        <ele>686.4614</ele>
        <time>2021-07-08T10:53:16Z</time>
      </trkpt>
      <trkpt lat="41.36208" lon="-7.49354">
        <ele>684.2071</ele>
        <time>2021-07-08T10:53:27Z</time>
      </trkpt>
      <trkpt lat="41.3593" lon="-7.49309">
        <ele>685.5274</ele>
        <time>2021-07-08T10:53:38Z</time>
      </trkpt>
      <trkpt lat="41.3567" lon="-7.49192">
        <ele>698.9748</ele>
        <time>2021-07-08T10:53:49Z</time>
      </trkpt>
      <trkpt lat="41.3547" lon="-7.48935">
        <ele>714.0075</ele>
        <time>2021-07-08T10:54:00Z</time>
      </trkpt>
      <trkpt lat="41.35373" lon="-7.48589">
        <ele>730.8287</ele>
        <time>2021-07-08T10:54:11Z</time>
      </trkpt>
      <trkpt lat="41.35394" lon="-7.48224">
        <ele>738.0634</ele>
        <time>2021-07-08T10:54:22Z</time>
      </trkpt>
      <trkpt lat="41.3542" lon="-7.47865">
        <ele>743.079</ele>
        <time>2021-07-08T10:54:33Z</time>
      </trkpt>
      <trkpt lat="41.35338" lon="-7.4753">
        <ele>762.9363</ele>
        <time>2021-07-08T10:54:44Z</time>
      </trkpt>
      <trkpt lat="41.35134" lon="-7.47249">
        <ele>774.8627</ele>
        <time>2021-07-08T10:54:55Z</time>
      </trkpt>
      <trkpt lat="41.34875" lon="-7.47124">
        <ele>776.3353</ele>
        <time>2021-07-08T10:55:06Z</time>
      </trkpt>
      <trkpt lat="41.34602" lon="-7.4709">
        <ele>771.2759</ele>
        <time>2021-07-08T10:55:17Z</time>
      </trkpt>
      <trkpt lat="41.3435" lon="-7.46929">
        <ele>756.8359</ele>
        <time>2021-07-08T10:55:28Z</time>
      </trkpt>
      <trkpt lat="41.34172" lon="-7.46636">
        <ele>743.7302</ele>
        <time>2021-07-08T10:55:39Z</time>
      </trkpt>
      <trkpt lat="41.34109" lon="-7.46261">
        <ele>731.1873</ele>
        <time>2021-07-08T10:55:50Z</time>
      </trkpt>
      <trkpt lat="41.34064" lon="-7.45893">
        <ele>719.9534</ele>
        <time>2021-07-08T10:56:01Z</time>
      </trkpt>
      <trkpt lat="41.33931" lon="-7.45569">
        <ele>717.6298</ele>
        <time>2021-07-08T10:56:12Z</time>
      </trkpt>
      <trkpt lat="41.33722" lon="-7.45316">
        <ele>720.5935</ele>
        <time>2021-07-08T10:56:23Z</time>
      </trkpt>
      <trkpt lat="41.33505" lon="-7.45062">
        <ele>714.9788</ele>
        <time>2021-07-08T10:56:34Z</time>
      </trkpt>
      <trkpt lat="41.33355" lon="-7.44734">
        <ele>710.1328</ele>
        <time>2021-07-08T10:56:45Z</time>
      </trkpt>
      <trkpt lat="41.33208" lon="-7.44405">
        <ele>695.3669</ele>
        <time>2021-07-08T10:56:56Z</time>
      </trkpt>
      <trkpt lat="41.33065" lon="-7.44074">
        <ele>691.192</ele>
        <time>2021-07-08T10:57:07Z</time>
      </trkpt>
      <trkpt lat="41.32954" lon="-7.43719">
        <ele>673.4824</ele>
        <time>2021-07-08T10:57:18Z</time>
      </trkpt>
      <trkpt lat="41.32971" lon="-7.43326">
        <ele>658.4878</ele>
        <time>2021-07-08T10:57:29Z</time>
      </trkpt>
      <trkpt lat="41.32992" lon="-7.42939">
        <ele>636.9026</ele>
        <time>2021-07-08T10:57:40Z</time>
      </trkpt>
      <trkpt lat="41.3296" lon="-7.42566">
        <ele>620.8745</ele>
        <time>2021-07-08T10:57:51Z</time>
      </trkpt>
      <trkpt lat="41.32813" lon="-7.42232">
        <ele>602.2959</ele>
        <time>2021-07-08T10:58:02Z</time>
      </trkpt>
      <trkpt lat="41.32665" lon="-7.41906">
        <ele>577.1175</ele>
        <time>2021-07-08T10:58:13Z</time>
      </trkpt>
      <trkpt lat="41.32517" lon="-7.41579">
        <ele>565.0443</ele>
        <time>2021-07-08T10:58:24Z</time>
      </trkpt>
      <trkpt lat="41.32479" lon="-7.412">
        <ele>550.7707</ele>
        <time>2021-07-08T10:58:35Z</time>
      </trkpt>
      <trkpt lat="41.32484" lon="-7.40812">
        <ele>517.0997</ele>
        <time>2021-07-08T10:58:46Z</time>
      </trkpt>
      <trkpt lat="41.32462" lon="-7.40434">
        <ele>497.9568</ele>
        <time>2021-07-08T10:58:57Z</time>
      </trkpt>
      <trkpt lat="41.32416" lon="-7.40069">
        <ele>479.0351</ele>
        <time>2021-07-08T10:59:08Z</time>
      </trkpt>
      <trkpt lat="41.32526" lon="-7.39727">
        <ele>460.1717</ele>
        <time>2021-07-08T10:59:19Z</time>
      </trkpt>
      <trkpt lat="41.32486" lon="-7.39357">
        <ele>453.0171</ele>
        <time>2021-07-08T10:59:30Z</time>
      </trkpt>
      <trkpt lat="41.32342" lon="-7.39064">
        <ele>418.2884</ele>
        <time>2021-07-08T10:59:41Z</time>
      </trkpt>
      <trkpt lat="41.32352" lon="-7.38699">
        <ele>399.5158</ele>
        <time>2021-07-08T10:59:52Z</time>
      </trkpt>
      <trkpt lat="41.32219" lon="-7.38364">
        <ele>382.1781</ele>
        <time>2021-07-08T11:00:03Z</time>
      </trkpt>
      <trkpt lat="41.3201" lon="-7.3812">
        <ele>358.5898</ele>
        <time>2021-07-08T11:00:14Z</time>
      </trkpt>
      <trkpt lat="41.31905" lon="-7.37769">
        <ele>346.9158</ele>
        <time>2021-07-08T11:00:25Z</time>
      </trkpt>
      <trkpt lat="41.31993" lon="-7.37438">
        <ele>317.4265</ele>
        <time>2021-07-08T11:00:36Z</time>
      </trkpt>
      <trkpt lat="41.32217" lon="-7.37223">
        <ele>296.9404</ele>
        <time>2021-07-08T11:00:47Z</time>
      </trkpt>
      <trkpt lat="41.3233" lon="-7.36893">
        <ele>284.1252</ele>
        <time>2021-07-08T11:00:58Z</time>
      </trkpt>
      <trkpt lat="41.32215" lon="-7.36575">
        <ele>286.0599</ele>
        <time>2021-07-08T11:01:09Z</time>
      </trkpt>
      <trkpt lat="41.32062" lon="-7.36271">
        <ele>304.4205</ele>
        <time>2021-07-08T11:01:20Z</time>
      </trkpt>
      <trkpt lat="41.31896" lon="-7.35988">
        <ele>326.346</ele>
        <time>2021-07-08T11:01:31Z</time>
      </trkpt>
      <trkpt lat="41.31711" lon="-7.35703">
        <ele>352.5025</ele>
        <time>2021-07-08T11:01:42Z</time>
      </trkpt>
      <trkpt lat="41.31645" lon="-7.35329">
        <ele>376.3733</ele>
        <time>2021-07-08T11:01:53Z</time>
      </trkpt>
      <trkpt lat="41.31509" lon="-7.34997">
        <ele>394.7852</ele>
        <time>2021-07-08T11:02:04Z</time>
      </trkpt>
      <trkpt lat="41.31254" lon="-7.34799">
        <ele>416.2587</ele>
        <time>2021-07-08T11:02:15Z</time>
      </trkpt>
      <trkpt lat="41.30979" lon="-7.34636">
        <ele>444.0454</ele>
        <time>2021-07-08T11:02:26Z</time>
      </trkpt>
      <trkpt lat="41.30717" lon="-7.34482">
        <ele>462.556</ele>
        <time>2021-07-08T11:02:37Z</time>
      </trkpt>
      <trkpt lat="41.30452" lon="-7.34315">
        <ele>478.7649</ele>
        <time>2021-07-08T11:02:48Z</time>
      </trkpt>
      <trkpt lat="41.30241" lon="-7.34044">
        <ele>492.0975</ele>
        <time>2021-07-08T11:02:59Z</time>
      </trkpt>
      <trkpt lat="41.30049" lon="-7.33756">
        <ele>493.8765</ele>
        <time>2021-07-08T11:03:10Z</time>
      </trkpt>
      <trkpt lat="41.29826" lon="-7.33507">
        <ele>492.455</ele>
        <time>2021-07-08T11:03:21Z</time>
      </trkpt>
      <trkpt lat="41.29544" lon="-7.33396">
        <ele>502.903</ele>
        <time>2021-07-08T11:03:32Z</time>
      </trkpt>
      <trkpt lat="41.2925" lon="-7.33439">
        <ele>523.2073</ele>
        <time>2021-07-08T11:03:43Z</time>
      </trkpt>
      <trkpt lat="41.28953" lon="-7.33458">
        <ele>546.2758</ele>
        <time>2021-07-08T11:03:54Z</time>
      </trkpt>
      <trkpt lat="41.28664" lon="-7.33506">
        <ele>565.6188</ele>
        <time>2021-07-08T11:04:05Z</time>
      </trkpt>
      <trkpt lat="41.28375" lon="-7.3362">
        <ele>581.67</ele>
        <time>2021-07-08T11:04:16Z</time>
      </trkpt>
      <trkpt lat="41.28074" lon="-7.33615">
        <ele>604.5736</ele>
        <time>2021-07-08T11:04:27Z</time>
      </trkpt>
      <trkpt lat="41.27807" lon="-7.33453">
        <ele>624.4729</ele>
        <time>2021-07-08T11:04:38Z</time>
      </trkpt>
      <trkpt lat="41.27607" lon="-7.33166">
        <ele>637.6711</ele>
        <time>2021-07-08T11:04:49Z</time>
      </trkpt>
      <trkpt lat="41.27431" lon="-7.3284">
        <ele>642.848</ele>
        <time>2021-07-08T11:05:00Z</time>
      </trkpt>
      <trkpt lat="41.27254" lon="-7.32515">
        <ele>642.1668</ele>
        <time>2021-07-08T11:05:11Z</time>
      </trkpt>
      <trkpt lat="41.27077" lon="-7.3219">
        <ele>642.5876</ele>
        <time>2021-07-08T11:05:22Z</time>
      </trkpt>
      <trkpt lat="41.26914" lon="-7.31849">
        <ele>655.523</ele>
        <time>2021-07-08T11:05:33Z</time>
      </trkpt>
      <trkpt lat="41.2686" lon="-7.31457">
        <ele>671.9071</ele>
        <time>2021-07-08T11:05:44Z</time>
      </trkpt>
      <trkpt lat="41.26925" lon="-7.31076">
        <ele>687.8933</ele>
        <time>2021-07-08T11:05:55Z</time>
      </trkpt>
      <trkpt lat="41.27093" lon="-7.30751">
        <ele>714.9679</ele>
        <time>2021-07-08T11:06:06Z</time>
      </trkpt>
      <trkpt lat="41.27227" lon="-7.30404">
        <ele>735.334</ele>
        <time>2021-07-08T11:06:17Z</time>
      </trkpt>
      <trkpt lat="41.27232" lon="-7.30018">
        <ele>750.5525</ele>
        <time>2021-07-08T11:06:28Z</time>
      </trkpt>
      <trkpt lat="41.27103" lon="-7.29677">
        <ele>775.4238</ele>
        <time>2021-07-08T11:06:39Z</time>
      </trkpt>
      <trkpt lat="41.26878" lon="-7.29433">
        <ele>778.1742</ele>
        <time>2021-07-08T11:06:50Z</time>
      </trkpt>
      <trkpt lat="41.26623" lon="-7.29227">
        <ele>781.195</ele>
        <time>2021-07-08T11:07:01Z</time>
      </trkpt>
      <trkpt lat="41.26362" lon="-7.29016">
        <ele>768.7886</ele>
        <time>2021-07-08T11:07:12Z</time>
      </trkpt>
      <trkpt lat="41.2611" lon="-7.28796">
        <ele>757.1818</ele>
        <time>2021-07-08T11:07:23Z</time>
      </trkpt>
      <trkpt lat="41.25906" lon="-7.28498">
        <ele>746.5696</ele>
        <time>2021-07-08T11:07:34Z</time>
      </trkpt>
      <trkpt lat="41.25781" lon="-7.28139">
        <ele>736.7759</ele>
        <time>2021-07-08T11:07:45Z</time>
      </trkpt>
      <trkpt lat="41.2572" lon="-7.27741">
        <ele>740.9265</ele>
        <time>2021-07-08T11:07:56Z</time>
      </trkpt>
      <trkpt lat="41.25663" lon="-7.27346">
        <ele>751.6095</ele>
        <time>2021-07-08T11:08:07Z</time>
      </trkpt>
      <trkpt lat="41.25608" lon="-7.2695">
        <ele>763.526</ele>
        <time>2021-07-08T11:08:18Z</time>
      </trkpt>
      <trkpt lat="41.25568" lon="-7.26545">
        <ele>771.2017</ele>
        <time>2021-07-08T11:08:29Z</time>
      </trkpt>
      <trkpt lat="41.2561" lon="-7.26135">
        <ele>782.7234</ele>
        <time>2021-07-08T11:08:40Z</time>
      </trkpt>
      <trkpt lat="41.25689" lon="-7.25722">
        <ele>793.8431</ele>
        <time>2021-07-08T11:08:51Z</time>
      </trkpt>
      <trkpt lat="41.25765" lon="-7.25317">
        <ele>803.5272</ele>
        <time>2021-07-08T11:09:02Z</time>
      </trkpt>
      <trkpt lat="41.2584" lon="-7.24915">
        <ele>810.434</ele>
        <time>2021-07-08T11:09:13Z</time>
      </trkpt>
      <trkpt lat="41.25913" lon="-7.24521">
        <ele>807.0269</ele>
        <time>2021-07-08T11:09:24Z</time>
      </trkpt>
      <trkpt lat="41.2602" lon="-7.24148">
        <ele>791.8824</ele>
        <time>2021-07-08T11:09:35Z</time>
      </trkpt>
      <trkpt lat="41.26193" lon="-7.23815">
        <ele>779.5278</ele>
        <time>2021-07-08T11:09:46Z</time>
      </trkpt>
      <trkpt lat="41.26382" lon="-7.23484">
        <ele>766.7381</ele>
        <time>2021-07-08T11:09:57Z</time>
      </trkpt>
      <trkpt lat="41.26552" lon="-7.2319">
        <ele>750.976</ele>
        <time>2021-07-08T11:10:08Z</time>
      </trkpt>
      <trkpt lat="41.26705" lon="-7.22842">
        <ele>733.6693</ele>
        <time>2021-07-08T11:10:19Z</time>
      </trkpt>
      <trkpt lat="41.26756" lon="-7.22439">
        <ele>715.049</ele>
        <time>2021-07-08T11:10:30Z</time>
      </trkpt>
      <trkpt lat="41.26763" lon="-7.22027">
        <ele>699.3241</ele>
        <time>2021-07-08T11:10:41Z</time>
      </trkpt>
      <trkpt lat="41.2677" lon="-7.21578">
        <ele>699.2698</ele>
        <time>2021-07-08T11:10:52Z</time>
      </trkpt>
      <trkpt lat="41.26813" lon="-7.21168">
        <ele>698.8994</ele>
        <time>2021-07-08T11:11:03Z</time>
      </trkpt>
      <trkpt lat="41.2696" lon="-7.20806">
        <ele>691.81</ele>
        <time>2021-07-08T11:11:14Z</time>
      </trkpt>
      <trkpt lat="41.27117" lon="-7.20455">
        <ele>674.8346</ele>
        <time>2021-07-08T11:11:25Z</time>
      </trkpt>
      <trkpt lat="41.27273" lon="-7.20111">
        <ele>667.3743</ele>
        <time>2021-07-08T11:11:36Z</time>
      </trkpt>
      <trkpt lat="41.27476" lon="-7.19822">
        <ele>676.5397</ele>
        <time>2021-07-08T11:11:47Z</time>
      </trkpt>
      <trkpt lat="41.2776" lon="-7.19678">
        <ele>690.1169</ele>
        <time>2021-07-08T11:11:58Z</time>
      </trkpt>
      <trkpt lat="41.28052" lon="-7.19567">
        <ele>697.0201</ele>
        <time>2021-07-08T11:12:09Z</time>
      </trkpt>
      <trkpt lat="41.28329" lon="-7.19396">
        <ele>679.0612</ele>
        <time>2021-07-08T11:12:20Z</time>
      </trkpt>
      <trkpt lat="41.28632" lon="-7.19283">
        <ele>660.8683</ele>
        <time>2021-07-08T11:12:31Z</time>
      </trkpt>
      <trkpt lat="41.28936" lon="-7.19187">
        <ele>645.8689</ele>
        <time>2021-07-08T11:12:42Z</time>
      </trkpt>
      <trkpt lat="41.29227" lon="-7.19043">
        <ele>641.6506</ele>
        <time>2021-07-08T11:12:53Z</time>
      </trkpt>
      <trkpt lat="41.29517" lon="-7.1889">
        <ele>650.8153</ele>
        <time>2021-07-08T11:13:04Z</time>
      </trkpt>
      <trkpt lat="41.29797" lon="-7.18738">
        <ele>651.0288</ele>
        <time>2021-07-08T11:13:15Z</time>
      </trkpt>
      <trkpt lat="41.30024" lon="-7.18483">
        <ele>633.1913</ele>
        <time>2021-07-08T11:13:26Z</time>
      </trkpt>
      <trkpt lat="41.30136" lon="-7.18115">
        <ele>628.3417</ele>
        <time>2021-07-08T11:13:37Z</time>
      </trkpt>
      <trkpt lat="41.30121" lon="-7.1775">
        <ele>622.4437</ele>
        <time>2021-07-08T11:13:48Z</time>
      </trkpt>
      <trkpt lat="41.30069" lon="-7.17345">
        <ele>614.3188</ele>
        <time>2021-07-08T11:13:59Z</time>
      </trkpt>
      <trkpt lat="41.30015" lon="-7.16946">
        <ele>599.4413</ele>
        <time>2021-07-08T11:14:10Z</time>
      </trkpt>
      <trkpt lat="41.29968" lon="-7.16545">
        <ele>588.0708</ele>
        <time>2021-07-08T11:14:21Z</time>
      </trkpt>
      <trkpt lat="41.30011" lon="-7.16153">
        <ele>575.5201</ele>
        <time>2021-07-08T11:14:32Z</time>
      </trkpt>
      <trkpt lat="41.3009" lon="-7.15775">
        <ele>560.896</ele>
        <time>2021-07-08T11:14:43Z</time>
      </trkpt>
      <trkpt lat="41.30096" lon="-7.15376">
        <ele>544.9598</ele>
        <time>2021-07-08T11:14:54Z</time>
      </trkpt>
      <trkpt lat="41.30093" lon="-7.14973">
        <ele>532.3099</ele>
        <time>2021-07-08T11:15:05Z</time>
      </trkpt>
      <trkpt lat="41.30091" lon="-7.14571">
        <ele>518.214</ele>
        <time>2021-07-08T11:15:16Z</time>
      </trkpt>
      <trkpt lat="41.30118" lon="-7.14172">
        <ele>505.7188</ele>
        <time>2021-07-08T11:15:27Z</time>
      </trkpt>
      <trkpt lat="41.30244" lon="-7.13822">
        <ele>498.7176</ele>
        <time>2021-07-08T11:15:38Z</time>
      </trkpt>
      <trkpt lat="41.3039" lon="-7.13485">
        <ele>502.2531</ele>
        <time>2021-07-08T11:15:49Z</time>
      </trkpt>
      <trkpt lat="41.3054" lon="-7.1315">
        <ele>489.5618</ele>
        <time>2021-07-08T11:16:00Z</time>
      </trkpt>
      <trkpt lat="41.30718" lon="-7.12825">
        <ele>465.5486</ele>
        <time>2021-07-08T11:16:11Z</time>
      </trkpt>
      <trkpt lat="41.30947" lon="-7.12565">
        <ele>444.1847</ele>
        <time>2021-07-08T11:16:22Z</time>
      </trkpt>
      <trkpt lat="41.31223" lon="-7.12436">
        <ele>433.6449</ele>
        <time>2021-07-08T11:16:33Z</time>
      </trkpt>
      <trkpt lat="41.31521" lon="-7.12386">
        <ele>420.9663</ele>
        <time>2021-07-08T11:16:44Z</time>
      </trkpt>
      <trkpt lat="41.31715" lon="-7.12095">
        <ele>389.8774</ele>
        <time>2021-07-08T11:16:55Z</time>
      </trkpt>
      <trkpt lat="41.31773" lon="-7.11698">
        <ele>362.4556</ele>
        <time>2021-07-08T11:17:06Z</time>
      </trkpt>
      <trkpt lat="41.31963" lon="-7.11356">
        <ele>351.5725</ele>
        <time>2021-07-08T11:17:17Z</time>
      </trkpt>
      <trkpt lat="41.32252" lon="-7.11252">
        <ele>334.9138</ele>
        <time>2021-07-08T11:17:28Z</time>
      </trkpt>
      <trkpt lat="41.32516" lon="-7.11085">
        <ele>324.1785</ele>
        <time>2021-07-08T11:17:39Z</time>
      </trkpt>
      <trkpt lat="41.32615" lon="-7.10731">
        <ele>315.3873</ele>
        <time>2021-07-08T11:17:50Z</time>
      </trkpt>
      <trkpt lat="41.32495" lon="-7.10366">
        <ele>307.8417</ele>
        <time>2021-07-08T11:18:01Z</time>
      </trkpt>
      <trkpt lat="41.32317" lon="-7.1004">
        <ele>294.578</ele>
        <time>2021-07-08T11:18:12Z</time>
      </trkpt>
      <trkpt lat="41.32256" lon="-7.09646">
        <ele>272.0401</ele>
        <time>2021-07-08T11:18:23Z</time>
      </trkpt>
      <trkpt lat="41.32209" lon="-7.09255">
        <ele>264.5746</ele>
        <time>2021-07-08T11:18:34Z</time>
      </trkpt>
      <trkpt lat="41.32172" lon="-7.08863">
        <ele>252.4703</ele>
        <time>2021-07-08T11:18:45Z</time>
      </trkpt>
      <trkpt lat="41.32237" lon="-7.0849">
        <ele>244.304</ele>
        <time>2021-07-08T11:18:56Z</time>
      </trkpt>
      <trkpt lat="41.32355" lon="-7.08235">
        <ele>241.779</ele>
        <time>2021-07-08T11:19:07Z</time>
      </trkpt>
      <trkpt lat="41.32325" lon="-7.0798">
        <ele>229.5206</ele>
        <time>2021-07-08T11:19:18Z</time>
      </trkpt>
      <trkpt lat="41.32085" lon="-7.07839">
        <ele>211.2906</ele>
        <time>2021-07-08T11:19:29Z</time>
      </trkpt>
      <trkpt lat="41.31783" lon="-7.07829">
        <ele>198.9158</ele>
        <time>2021-07-08T11:19:40Z</time>
      </trkpt>
      <trkpt lat="41.31507" lon="-7.07967">
        <ele>192.8916</ele>
        <time>2021-07-08T11:19:51Z</time>
      </trkpt>
      <trkpt lat="41.31232" lon="-7.08085">
        <ele>190.3183</ele>
        <time>2021-07-08T11:20:02Z</time>
      </trkpt>
      <trkpt lat="41.30944" lon="-7.08037">
        <ele>188.458</ele>
        <time>2021-07-08T11:20:13Z</time>
      </trkpt>
      <trkpt lat="41.30709" lon="-7.07811">
        <ele>191.2778</ele>
        <time>2021-07-08T11:20:24Z</time>
      </trkpt>
      <trkpt lat="41.30513" lon="-7.0756">
        <ele>186.153</ele>
        <time>2021-07-08T11:20:35Z</time>
      </trkpt>
      <trkpt lat="41.30251" lon="-7.07372">
        <ele>177.3141</ele>
        <time>2021-07-08T11:20:46Z</time>
      </trkpt>
      <trkpt lat="41.30006" lon="-7.07362">
        <ele>175.9611</ele>
        <time>2021-07-08T11:20:57Z</time>
      </trkpt>
      <trkpt lat="41.29868" lon="-7.07406">
        <ele>174.6821</ele>
        <time>2021-07-08T11:21:08Z</time>
      </trkpt>
      <trkpt lat="41.2985" lon="-7.0708">
        <ele>187.2199</ele>
        <time>2021-07-08T11:21:19Z</time>
      </trkpt>
      <trkpt lat="41.3" lon="-7.06774">
        <ele>207.7246</ele>
        <time>2021-07-08T11:21:30Z</time>
      </trkpt>
      <trkpt lat="41.3023" lon="-7.06574">
        <ele>215.1826</ele>
        <time>2021-07-08T11:21:41Z</time>
      </trkpt>
      <trkpt lat="41.30505" lon="-7.06459">
        <ele>234.2527</ele>
        <time>2021-07-08T11:21:52Z</time>
      </trkpt>
      <trkpt lat="41.30745" lon="-7.06292">
        <ele>230.566</ele>
        <time>2021-07-08T11:22:03Z</time>
      </trkpt>
      <trkpt lat="41.30854" lon="-7.06017">
        <ele>241.6621</ele>
        <time>2021-07-08T11:22:14Z</time>
      </trkpt>
      <trkpt lat="41.30836" lon="-7.05666">
        <ele>243.8483</ele>
        <time>2021-07-08T11:22:25Z</time>
      </trkpt>
      <trkpt lat="41.30785" lon="-7.05277">
        <ele>247.4808</ele>
        <time>2021-07-08T11:22:36Z</time>
      </trkpt>
      <trkpt lat="41.30746" lon="-7.04902">
        <ele>252.6052</ele>
        <time>2021-07-08T11:22:47Z</time>
      </trkpt>
      <trkpt lat="41.30782" lon="-7.04522">
        <ele>269.8994</ele>
        <time>2021-07-08T11:22:58Z</time>
      </trkpt>
      <trkpt lat="41.30907" lon="-7.04174">
        <ele>281.1788</ele>
        <time>2021-07-08T11:23:09Z</time>
      </trkpt>
      <trkpt lat="41.31105" lon="-7.03897">
        <ele>303.5554</ele>
        <time>2021-07-08T11:23:20Z</time>
      </trkpt>
      <trkpt lat="41.3135" lon="-7.03633">
        <ele>314.7618</ele>
        <time>2021-07-08T11:23:31Z</time>
      </trkpt>
      <trkpt lat="41.31566" lon="-7.03384">
        <ele>328.0718</ele>
        <time>2021-07-08T11:23:42Z</time>
      </trkpt>
      <trkpt lat="41.31703" lon="-7.03047">
        <ele>341.3328</ele>
        <time>2021-07-08T11:23:53Z</time>
      </trkpt>
      <trkpt lat="41.31753" lon="-7.02669">
        <ele>360.8269</ele>
        <time>2021-07-08T11:24:04Z</time>
      </trkpt>
      <trkpt lat="41.31775" lon="-7.02291">
        <ele>377.0071</ele>
        <time>2021-07-08T11:24:15Z</time>
      </trkpt>
      <trkpt lat="41.317" lon="-7.0192">
        <ele>390.3454</ele>
        <time>2021-07-08T11:24:26Z</time>
      </trkpt>
      <trkpt lat="41.31739" lon="-7.0154">
        <ele>395.6097</ele>
        <time>2021-07-08T11:24:37Z</time>
      </trkpt>
      <trkpt lat="41.31888" lon="-7.01203">
        <ele>409.3109</ele>
        <time>2021-07-08T11:24:48Z</time>
      </trkpt>
      <trkpt lat="41.31924" lon="-7.00845">
        <ele>424.221</ele>
        <time>2021-07-08T11:24:59Z</time>
      </trkpt>
      <trkpt lat="41.31849" lon="-7.00483">
        <ele>437.1769</ele>
        <time>2021-07-08T11:25:10Z</time>
      </trkpt>
      <trkpt lat="41.31764" lon="-7.00117">
        <ele>451.1616</ele>
        <time>2021-07-08T11:25:21Z</time>
      </trkpt>
      <trkpt lat="41.31772" lon="-6.9973">
        <ele>466.3162</ele>
        <time>2021-07-08T11:25:32Z</time>
      </trkpt>
      <trkpt lat="41.31817" lon="-6.99346">
        <ele>485.7089</ele>
        <time>2021-07-08T11:25:43Z</time>
      </trkpt>
      <trkpt lat="41.31893" lon="-6.98979">
        <ele>488.1358</ele>
        <time>2021-07-08T11:25:54Z</time>
      </trkpt>
      <trkpt lat="41.32078" lon="-6.98682">
        <ele>501.5785</ele>
        <time>2021-07-08T11:26:05Z</time>
      </trkpt>
      <trkpt lat="41.32267" lon="-6.98387">
        <ele>508.3114</ele>
        <time>2021-07-08T11:26:16Z</time>
      </trkpt>
      <trkpt lat="41.32364" lon="-6.98016">
        <ele>515.0966</ele>
        <time>2021-07-08T11:26:27Z</time>
      </trkpt>
      <trkpt lat="41.32449" lon="-6.97638">
        <ele>514.6245</ele>
        <time>2021-07-08T11:26:38Z</time>
      </trkpt>
      <trkpt lat="41.32595" lon="-6.97291">
        <ele>513.3162</ele>
        <time>2021-07-08T11:26:49Z</time>
      </trkpt>
      <trkpt lat="41.32775" lon="-6.96973">
        <ele>512.3554</ele>
        <time>2021-07-08T11:27:00Z</time>
      </trkpt>
      <trkpt lat="41.32926" lon="-6.96629">
        <ele>504.7729</ele>
        <time>2021-07-08T11:27:11Z</time>
      </trkpt>
      <trkpt lat="41.33012" lon="-6.96244">
        <ele>499.5264</ele>
        <time>2021-07-08T11:27:22Z</time>
      </trkpt>
      <trkpt lat="41.33039" lon="-6.9585">
        <ele>497.0306</ele>
        <time>2021-07-08T11:27:33Z</time>
      </trkpt>
      <trkpt lat="41.32969" lon="-6.95467">
        <ele>491.3454</ele>
        <time>2021-07-08T11:27:44Z</time>
      </trkpt>
      <trkpt lat="41.32891" lon="-6.95105">
        <ele>483.7355</ele>
        <time>2021-07-08T11:27:55Z</time>
      </trkpt>
      <trkpt lat="41.32735" lon="-6.94791">
        <ele>475.9483</ele>
        <time>2021-07-08T11:28:06Z</time>
      </trkpt>
      <trkpt lat="41.32594" lon="-6.94454">
        <ele>477.2117</ele>
        <time>2021-07-08T11:28:17Z</time>
      </trkpt>
      <trkpt lat="41.32526" lon="-6.94068">
        <ele>453.6051</ele>
        <time>2021-07-08T11:28:28Z</time>
      </trkpt>
      <trkpt lat="41.32458" lon="-6.93687">
        <ele>437.8383</ele>
        <time>2021-07-08T11:28:39Z</time>
      </trkpt>
      <trkpt lat="41.3232" lon="-6.93341">
        <ele>419.6454</ele>
        <time>2021-07-08T11:28:50Z</time>
      </trkpt>
      <trkpt lat="41.32109" lon="-6.93133">
        <ele>402.3972</ele>
        <time>2021-07-08T11:29:01Z</time>
      </trkpt>
      <trkpt lat="41.31843" lon="-6.9297">
        <ele>389.4994</ele>
        <time>2021-07-08T11:29:12Z</time>
      </trkpt>
      <trkpt lat="41.31563" lon="-6.92841">
        <ele>365.092</ele>
        <time>2021-07-08T11:29:23Z</time>
      </trkpt>
      <trkpt lat="41.31267" lon="-6.9275">
        <ele>340.9612</ele>
        <time>2021-07-08T11:29:34Z</time>
      </trkpt>
      <trkpt lat="41.31001" lon="-6.92568">
        <ele>318.3485</ele>
        <time>2021-07-08T11:29:45Z</time>
      </trkpt>
      <trkpt lat="41.30815" lon="-6.9226">
        <ele>302.1698</ele>
        <time>2021-07-08T11:29:56Z</time>
      </trkpt>
      <trkpt lat="41.30739" lon="-6.91876">
        <ele>295.527</ele>
        <time>2021-07-08T11:30:07Z</time>
      </trkpt>
      <trkpt lat="41.30774" lon="-6.91488">
        <ele>306.0568</ele>
        <time>2021-07-08T11:30:18Z</time>
      </trkpt>
      <trkpt lat="41.30827" lon="-6.91096">
        <ele>323.1922</ele>
        <time>2021-07-08T11:30:29Z</time>
      </trkpt>
      <trkpt lat="41.30711" lon="-6.90743">
        <ele>333.6817</ele>
        <time>2021-07-08T11:30:40Z</time>
      </trkpt>
      <trkpt lat="41.30486" lon="-6.90487">
        <ele>346.0842</ele>
        <time>2021-07-08T11:30:51Z</time>
      </trkpt>
      <trkpt lat="41.30344" lon="-6.90145">
        <ele>358.0159</ele>
        <time>2021-07-08T11:31:02Z</time>
      </trkpt>
      <trkpt lat="41.3009" lon="-6.89976">
        <ele>374.5632</ele>
        <time>2021-07-08T11:31:13Z</time>
      </trkpt>
      <trkpt lat="41.29795" lon="-6.89962">
        <ele>391.7782</ele>
        <time>2021-07-08T11:31:24Z</time>
      </trkpt>
      <trkpt lat="41.29571" lon="-6.89714">
        <ele>405.2332</ele>
        <time>2021-07-08T11:31:35Z</time>
      </trkpt>
      <trkpt lat="41.29291" lon="-6.89589">
        <ele>413.9741</ele>
        <time>2021-07-08T11:31:46Z</time>
      </trkpt>
      <trkpt lat="41.28995" lon="-6.8958">
        <ele>425.502</ele>
        <time>2021-07-08T11:31:57Z</time>
      </trkpt>
      <trkpt lat="41.2872" lon="-6.89437">
        <ele>435.7708</ele>
        <time>2021-07-08T11:32:08Z</time>
      </trkpt>
      <trkpt lat="41.28432" lon="-6.89365">
        <ele>435.7108</ele>
        <time>2021-07-08T11:32:19Z</time>
      </trkpt>
      <trkpt lat="41.28131" lon="-6.8939">
        <ele>422.5227</ele>
        <time>2021-07-08T11:32:30Z</time>
      </trkpt>
      <trkpt lat="41.27828" lon="-6.89416">
        <ele>400.4963</ele>
        <time>2021-07-08T11:32:41Z</time>
      </trkpt>
      <trkpt lat="41.27633" lon="-6.89214">
        <ele>380.0622</ele>
        <time>2021-07-08T11:32:52Z</time>
      </trkpt>
      <trkpt lat="41.27806" lon="-6.88944">
        <ele>359.04</ele>
        <time>2021-07-08T11:33:03Z</time>
      </trkpt>
      <trkpt lat="41.27965" lon="-6.88677">
        <ele>335.7312</ele>
        <time>2021-07-08T11:33:14Z</time>
      </trkpt>
      <trkpt lat="41.2795" lon="-6.88341">
        <ele>317.6375</ele>
        <time>2021-07-08T11:33:25Z</time>
      </trkpt>
      <trkpt lat="41.2816" lon="-6.88116">
        <ele>303.5139</ele>
        <time>2021-07-08T11:33:36Z</time>
      </trkpt>
      <trkpt lat="41.28358" lon="-6.87855">
        <ele>290.0931</ele>
        <time>2021-07-08T11:33:47Z</time>
      </trkpt>
      <trkpt lat="41.28587" lon="-6.87717">
        <ele>279.7092</ele>
        <time>2021-07-08T11:33:58Z</time>
      </trkpt>
      <trkpt lat="41.28722" lon="-6.87451">
        <ele>263.9922</ele>
        <time>2021-07-08T11:34:09Z</time>
      </trkpt>
      <trkpt lat="41.28602" lon="-6.8715">
        <ele>264.9504</ele>
        <time>2021-07-08T11:34:20Z</time>
      </trkpt>
      <trkpt lat="41.28346" lon="-6.87081">
        <ele>282.3141</ele>
        <time>2021-07-08T11:34:31Z</time>
      </trkpt>
      <trkpt lat="41.28093" lon="-6.87038">
        <ele>304.5903</ele>
        <time>2021-07-08T11:34:42Z</time>
      </trkpt>
      <trkpt lat="41.27878" lon="-6.87177">
        <ele>322.0817</ele>
        <time>2021-07-08T11:34:53Z</time>
      </trkpt>
      <trkpt lat="41.27693" lon="-6.87389">
        <ele>340.8887</ele>
        <time>2021-07-08T11:35:04Z</time>
      </trkpt>
      <trkpt lat="41.2755" lon="-6.87134">
        <ele>358.1273</ele>
        <time>2021-07-08T11:35:15Z</time>
      </trkpt>
      <trkpt lat="41.27399" lon="-6.86915">
        <ele>374.8207</ele>
        <time>2021-07-08T11:35:26Z</time>
      </trkpt>
      <trkpt lat="41.27229" lon="-6.86703">
        <ele>390.1338</ele>
        <time>2021-07-08T11:35:37Z</time>
      </trkpt>
      <trkpt lat="41.27123" lon="-6.86408">
        <ele>408.9451</ele>
        <time>2021-07-08T11:35:48Z</time>
      </trkpt>
      <trkpt lat="41.27096" lon="-6.86049">
        <ele>429.9542</ele>
        <time>2021-07-08T11:35:59Z</time>
      </trkpt>
      <trkpt lat="41.27076" lon="-6.85685">
        <ele>451.0536</ele>
        <time>2021-07-08T11:36:10Z</time>
      </trkpt>
      <trkpt lat="41.2701" lon="-6.85327">
        <ele>476.4828</ele>
        <time>2021-07-08T11:36:21Z</time>
      </trkpt>
      <trkpt lat="41.26833" lon="-6.85027">
        <ele>498.4642</ele>
        <time>2021-07-08T11:36:32Z</time>
      </trkpt>
      <trkpt lat="41.26664" lon="-6.84712">
        <ele>513.6257</ele>
        <time>2021-07-08T11:36:43Z</time>
      </trkpt>
      <trkpt lat="41.26602" lon="-6.84326">
        <ele>520.5326</ele>
        <time>2021-07-08T11:36:54Z</time>
      </trkpt>
      <trkpt lat="41.26549" lon="-6.83912">
        <ele>528.1829</ele>
        <time>2021-07-08T11:37:05Z</time>
      </trkpt>
      <trkpt lat="41.26503" lon="-6.83521">
        <ele>527.6188</ele>
        <time>2021-07-08T11:37:16Z</time>
      </trkpt>
      <trkpt lat="41.26394" lon="-6.83155">
        <ele>524.4271</ele>
        <time>2021-07-08T11:37:27Z</time>
      </trkpt>
      <trkpt lat="41.26189" lon="-6.82866">
        <ele>519.9378</ele>
        <time>2021-07-08T11:37:38Z</time>
      </trkpt>
      <trkpt lat="41.25928" lon="-6.82687">
        <ele>516.2312</ele>
        <time>2021-07-08T11:37:49Z</time>
      </trkpt>
      <trkpt lat="41.25679" lon="-6.82502">
        <ele>511.1629</ele>
        <time>2021-07-08T11:38:00Z</time>
      </trkpt>
      <trkpt lat="41.25525" lon="-6.82184">
        <ele>514.3631</ele>
        <time>2021-07-08T11:38:11Z</time>
      </trkpt>
      <trkpt lat="41.25502" lon="-6.81809">
        <ele>518.7553</ele>
        <time>2021-07-08T11:38:22Z</time>
      </trkpt>
      <trkpt lat="41.25558" lon="-6.8143">
        <ele>524.8772</ele>
        <time>2021-07-08T11:38:33Z</time>
      </trkpt>
      <trkpt lat="41.25617" lon="-6.81051">
        <ele>532.8494</ele>
        <time>2021-07-08T11:38:44Z</time>
      </trkpt>
      <trkpt lat="41.25698" lon="-6.80682">
        <ele>542.7149</ele>
        <time>2021-07-08T11:38:55Z</time>
      </trkpt>
      <trkpt lat="41.25788" lon="-6.80328">
        <ele>553.7017</ele>
        <time>2021-07-08T11:39:06Z</time>
      </trkpt>
      <trkpt lat="41.25839" lon="-6.79958">
        <ele>562.7683</ele>
        <time>2021-07-08T11:39:17Z</time>
      </trkpt>
      <trkpt lat="41.25883" lon="-6.7958">
        <ele>572.4767</ele>
        <time>2021-07-08T11:39:28Z</time>
      </trkpt>
      <trkpt lat="41.2593" lon="-6.79194">
        <ele>581.9045</ele>
        <time>2021-07-08T11:39:39Z</time>
      </trkpt>
      <trkpt lat="41.26005" lon="-6.78816">
        <ele>585.0734</ele>
        <time>2021-07-08T11:39:50Z</time>
      </trkpt>
      <trkpt lat="41.26168" lon="-6.78485">
        <ele>582.392</ele>
        <time>2021-07-08T11:40:01Z</time>
      </trkpt>
      <trkpt lat="41.26354" lon="-6.78176">
        <ele>580.6413</ele>
        <time>2021-07-08T11:40:12Z</time>
      </trkpt>
      <trkpt lat="41.26463" lon="-6.77809">
        <ele>577.6934</ele>
        <time>2021-07-08T11:40:23Z</time>
      </trkpt>
      <trkpt lat="41.26478" lon="-6.7742">
        <ele>581.6555</ele>
        <time>2021-07-08T11:40:34Z</time>
      </trkpt>
      <trkpt lat="41.26472" lon="-6.77038">
        <ele>591.0057</ele>
        <time>2021-07-08T11:40:45Z</time>
      </trkpt>
      <trkpt lat="41.26514" lon="-6.76648">
        <ele>602.7544</ele>
        <time>2021-07-08T11:40:56Z</time>
      </trkpt>
      <trkpt lat="41.26565" lon="-6.76263">
        <ele>613.7265</ele>
        <time>2021-07-08T11:41:07Z</time>
      </trkpt>
      <trkpt lat="41.26644" lon="-6.75895">
        <ele>618.7605</ele>
        <time>2021-07-08T11:41:18Z</time>
      </trkpt>
      <trkpt lat="41.26721" lon="-6.75611">
        <ele>621.5594</ele>
        <time>2021-07-08T11:41:29Z</time>
      </trkpt>
      <trkpt lat="41.26727" lon="-6.75413">
        <ele>616.5946</ele>
        <time>2021-07-08T11:41:40Z</time>
      </trkpt>
      <trkpt lat="41.26707" lon="-6.75159">
        <ele>612.0713</ele>
        <time>2021-07-08T11:41:51Z</time>
      </trkpt>
      <trkpt lat="41.26608" lon="-6.7485">
        <ele>615.7038</ele>
        <time>2021-07-08T11:42:02Z</time>
      </trkpt>
      <trkpt lat="41.26649" lon="-6.74506">
        <ele>621.8093</ele>
        <time>2021-07-08T11:42:13Z</time>
      </trkpt>
      <trkpt lat="41.2667" lon="-6.74203">
        <ele>623.8443</ele>
        <time>2021-07-08T11:42:24Z</time>
      </trkpt>
      <trkpt lat="41.26528" lon="-6.73943">
        <ele>639.9937</ele>
        <time>2021-07-08T11:42:35Z</time>
      </trkpt>
      <trkpt lat="41.26317" lon="-6.74011">
        <ele>661.9867</ele>
        <time>2021-07-08T11:42:46Z</time>
      </trkpt>
      <trkpt lat="41.26137" lon="-6.74095">
        <ele>674.7084</ele>
        <time>2021-07-08T11:42:57Z</time>
      </trkpt>
      <trkpt lat="41.26068" lon="-6.73785">
        <ele>683.4549</ele>
        <time>2021-07-08T11:43:08Z</time>
      </trkpt>
      <trkpt lat="41.26111" lon="-6.73428">
        <ele>694.3056</ele>
        <time>2021-07-08T11:43:19Z</time>
      </trkpt>
      <trkpt lat="41.25978" lon="-6.73196">
        <ele>706.8944</ele>
        <time>2021-07-08T11:43:30Z</time>
      </trkpt>
      <trkpt lat="41.25785" lon="-6.72976">
        <ele>726.2954</ele>
        <time>2021-07-08T11:43:41Z</time>
      </trkpt>
      <trkpt lat="41.2557" lon="-6.72892">
        <ele>742.7395</ele>
        <time>2021-07-08T11:43:52Z</time>
      </trkpt>
      <trkpt lat="41.2537" lon="-6.73036">
        <ele>753.3429</ele>
        <time>2021-07-08T11:44:03Z</time>
      </trkpt>
      <trkpt lat="41.25188" lon="-6.73181">
        <ele>739.187</ele>
        <time>2021-07-08T11:44:14Z</time>
      </trkpt>
      <trkpt lat="41.25" lon="-6.73156">
        <ele>726.8732</ele>
        <time>2021-07-08T11:44:25Z</time>
      </trkpt>
      <trkpt lat="41.24938" lon="-6.72863">
        <ele>713.29</ele>
        <time>2021-07-08T11:44:36Z</time>
      </trkpt>
      <trkpt lat="41.2492" lon="-6.72532">
        <ele>697.7693</ele>
        <time>2021-07-08T11:44:47Z</time>
      </trkpt>
      <trkpt lat="41.24947" lon="-6.72188">
        <ele>681.7807</ele>
        <time>2021-07-08T11:44:58Z</time>
      </trkpt>
      <trkpt lat="41.24965" lon="-6.71892">
        <ele>667.2303</ele>
        <time>2021-07-08T11:45:09Z</time>
      </trkpt>
      <trkpt lat="41.24833" lon="-6.7178">
        <ele>666.343</ele>
        <time>2021-07-08T11:45:20Z</time>
      </trkpt>
      <trkpt lat="41.24666" lon="-6.72035">
        <ele>668.4497</ele>
        <time>2021-07-08T11:45:31Z</time>
      </trkpt>
      <trkpt lat="41.24497" lon="-6.72331">
        <ele>675.2822</ele>
        <time>2021-07-08T11:45:42Z</time>
      </trkpt>
      <trkpt lat="41.24279" lon="-6.72403">
        <ele>679.0461</ele>
        <time>2021-07-08T11:45:53Z</time>
      </trkpt>
      <trkpt lat="41.24058" lon="-6.72454">
        <ele>665.8643</ele>
        <time>2021-07-08T11:46:04Z</time>
      </trkpt>
      <trkpt lat="41.23989" lon="-6.72803">
        <ele>654.0118</ele>
        <time>2021-07-08T11:46:15Z</time>
      </trkpt>
      <trkpt lat="41.23795" lon="-6.73004">
        <ele>656.3025</ele>
        <time>2021-07-08T11:46:26Z</time>
      </trkpt>
      <trkpt lat="41.23659" lon="-6.7327">
        <ele>657.7018</ele>
        <time>2021-07-08T11:46:37Z</time>
      </trkpt>
      <trkpt lat="41.2347" lon="-6.73409">
        <ele>662.7512</ele>
        <time>2021-07-08T11:46:48Z</time>
      </trkpt>
      <trkpt lat="41.23192" lon="-6.73427">
        <ele>667.0612</ele>
        <time>2021-07-08T11:46:59Z</time>
      </trkpt>
      <trkpt lat="41.22931" lon="-6.7345">
        <ele>675.0667</ele>
        <time>2021-07-08T11:47:10Z</time>
      </trkpt>
      <trkpt lat="41.22652" lon="-6.73614">
        <ele>672.5621</ele>
        <time>2021-07-08T11:47:21Z</time>
      </trkpt>
      <trkpt lat="41.22386" lon="-6.73773">
        <ele>677.1877</ele>
        <time>2021-07-08T11:47:32Z</time>
      </trkpt>
      <trkpt lat="41.22113" lon="-6.73932">
        <ele>680.3435</ele>
        <time>2021-07-08T11:47:43Z</time>
      </trkpt>
      <trkpt lat="41.21842" lon="-6.74089">
        <ele>685.4101</ele>
        <time>2021-07-08T11:47:54Z</time>
      </trkpt>
      <trkpt lat="41.21576" lon="-6.74246">
        <ele>693.7005</ele>
        <time>2021-07-08T11:48:05Z</time>
      </trkpt>
      <trkpt lat="41.21317" lon="-6.744">
        <ele>708.6166</ele>
        <time>2021-07-08T11:48:16Z</time>
      </trkpt>
      <trkpt lat="41.21109" lon="-6.74628">
        <ele>719.679</ele>
        <time>2021-07-08T11:48:27Z</time>
      </trkpt>
      <trkpt lat="41.20962" lon="-6.7481">
        <ele>710.3554</ele>
        <time>2021-07-08T11:48:38Z</time>
      </trkpt>
      <trkpt lat="41.20729" lon="-6.74805">
        <ele>698.5686</ele>
        <time>2021-07-08T11:48:49Z</time>
      </trkpt>
      <trkpt lat="41.20617" lon="-6.74609">
        <ele>701.1363</ele>
        <time>2021-07-08T11:49:00Z</time>
      </trkpt>
      <trkpt lat="41.20493" lon="-6.74318">
        <ele>700.9493</ele>
        <time>2021-07-08T11:49:11Z</time>
      </trkpt>
      <trkpt lat="41.20302" lon="-6.74067">
        <ele>692.6577</ele>
        <time>2021-07-08T11:49:22Z</time>
      </trkpt>
      <trkpt lat="41.20134" lon="-6.73862">
        <ele>691.2971</ele>
        <time>2021-07-08T11:49:33Z</time>
      </trkpt>
      <trkpt lat="41.19938" lon="-6.73966">
        <ele>696.3277</ele>
        <time>2021-07-08T11:49:44Z</time>
      </trkpt>
      <trkpt lat="41.19736" lon="-6.74022">
        <ele>702.0472</ele>
        <time>2021-07-08T11:49:55Z</time>
      </trkpt>
      <trkpt lat="41.1959" lon="-6.7381">
        <ele>709.9165</ele>
        <time>2021-07-08T11:50:06Z</time>
      </trkpt>
      <trkpt lat="41.19467" lon="-6.73615">
        <ele>715.1639</ele>
        <time>2021-07-08T11:50:17Z</time>
      </trkpt>
      <trkpt lat="41.19422" lon="-6.73494">
        <ele>718.1449</ele>
        <time>2021-07-08T11:50:28Z</time>
      </trkpt>
      <trkpt lat="41.19433" lon="-6.73332">
        <ele>712.2837</ele>
        <time>2021-07-08T11:50:39Z</time>
      </trkpt>
      <trkpt lat="41.19408" lon="-6.73211">
        <ele>711.3079</ele>
        <time>2021-07-08T11:50:50Z</time>
      </trkpt>
      <trkpt lat="41.19386" lon="-6.73107">
        <ele>709.3809</ele>
        <time>2021-07-08T11:51:01Z</time>
      </trkpt>
      <trkpt lat="41.19343" lon="-6.73056">
        <ele>708.1864</ele>
        <time>2021-07-08T11:51:12Z</time>
      </trkpt>
      <trkpt lat="41.19326" lon="-6.72953">
        <ele>702.4953</ele>
        <time>2021-07-08T11:51:23Z</time>
      </trkpt>
      <trkpt lat="41.19254" lon="-6.72965">
        <ele>705.7749</ele>
        <time>2021-07-08T11:51:34Z</time>
      </trkpt>
      <trkpt lat="41.19175" lon="-6.72971">
        <ele>707.5432</ele>
        <time>2021-07-08T11:51:45Z</time>
      </trkpt>
      <trkpt lat="41.19101" lon="-6.73069">
        <ele>696.3041</ele>
        <time>2021-07-08T11:51:56Z</time>
      </trkpt>
      <trkpt lat="41.19069" lon="-6.73194">
        <ele>694.6228</ele>
        <time>2021-07-08T11:52:07Z</time>
      </trkpt>
      <trkpt lat="41.19061" lon="-6.73196">
        <ele>696.3593</ele>
        <time>2021-07-08T11:52:24Z</time>
      </trkpt>
      <trkpt lat="41.19043" lon="-6.73218">
        <ele>695.1624</ele>
        <time>2021-07-08T11:52:35Z</time>
      </trkpt>
      <trkpt lat="41.19039" lon="-6.73222">
        <ele>693.8873</ele>
        <time>2021-07-08T11:52:48Z</time>
      </trkpt>
      <trkpt lat="41.1897" lon="-6.73285">
        <ele>688.3016</ele>
        <time>2021-07-08T11:52:59Z</time>
      </trkpt>
      <trkpt lat="41.18881" lon="-6.73294">
        <ele>690.7421</ele>
        <time>2021-07-08T11:53:10Z</time>
      </trkpt>
      <trkpt lat="41.18782" lon="-6.73252">
        <ele>698.0045</ele>
        <time>2021-07-08T11:53:21Z</time>
      </trkpt>
      <trkpt lat="41.18684" lon="-6.73255">
        <ele>702.1327</ele>
        <time>2021-07-08T11:53:32Z</time>
      </trkpt>
      <trkpt lat="41.1859" lon="-6.73308">
        <ele>695.1274</ele>
        <time>2021-07-08T11:53:43Z</time>
      </trkpt>
      <trkpt lat="41.18483" lon="-6.7334">
        <ele>691.3473</ele>
        <time>2021-07-08T11:53:54Z</time>
      </trkpt>
      <trkpt lat="41.18423" lon="-6.73379">
        <ele>688.8566</ele>
        <time>2021-07-08T11:54:05Z</time>
      </trkpt>
      <trkpt lat="41.1836" lon="-6.73406">
        <ele>688.4757</ele>
        <time>2021-07-08T11:54:16Z</time>
      </trkpt>
      <trkpt lat="41.18271" lon="-6.73436">
        <ele>692.1364</ele>
        <time>2021-07-08T11:54:27Z</time>
      </trkpt>
      <trkpt lat="41.18188" lon="-6.73453">
        <ele>693.4449</ele>
        <time>2021-07-08T11:54:38Z</time>
      </trkpt>
      <trkpt lat="41.18169" lon="-6.73491">
        <ele>692.7131</ele>
        <time>2021-07-08T11:54:49Z</time>
      </trkpt>
      <trkpt lat="41.18162" lon="-6.73601">
        <ele>693.8289</ele>
        <time>2021-07-08T11:55:00Z</time>
      </trkpt>
      <trkpt lat="41.18183" lon="-6.73682">
        <ele>700.5577</ele>
        <time>2021-07-08T11:55:11Z</time>
      </trkpt>
      <trkpt lat="41.18271" lon="-6.73741">
        <ele>707.0198</ele>
        <time>2021-07-08T11:55:22Z</time>
      </trkpt>
      <trkpt lat="41.18351" lon="-6.73738">
        <ele>711.0347</ele>
        <time>2021-07-08T11:55:33Z</time>
      </trkpt>
      <trkpt lat="41.18364" lon="-6.73809">
        <ele>710.8341</ele>
        <time>2021-07-08T11:55:44Z</time>
      </trkpt>
      <trkpt lat="41.18305" lon="-6.73857">
        <ele>710.486</ele>
        <time>2021-07-08T11:55:55Z</time>
      </trkpt>
      <trkpt lat="41.18195" lon="-6.73933">
        <ele>702.6284</ele>
        <time>2021-07-08T11:56:06Z</time>
      </trkpt>
      <trkpt lat="41.18088" lon="-6.74042">
        <ele>693.5573</ele>
        <time>2021-07-08T11:56:17Z</time>
      </trkpt>
      <trkpt lat="41.18002" lon="-6.74128">
        <ele>687.642</ele>
        <time>2021-07-08T11:56:28Z</time>
      </trkpt>
      <trkpt lat="41.17975" lon="-6.74152">
        <ele>686.3354</ele>
        <time>2021-07-08T11:56:39Z</time>
      </trkpt>
      <trkpt lat="41.17979" lon="-6.74241">
        <ele>685.6162</ele>
        <time>2021-07-08T11:56:50Z</time>
      </trkpt>
      <trkpt lat="41.17999" lon="-6.74308">
        <ele>677.2717</ele>
        <time>2021-07-08T11:57:01Z</time>
      </trkpt>
      <trkpt lat="41.1803" lon="-6.74369">
        <ele>670.5286</ele>
        <time>2021-07-08T11:57:12Z</time>
      </trkpt>
      <trkpt lat="41.18072" lon="-6.74448">
        <ele>662.8801</ele>
        <time>2021-07-08T11:57:23Z</time>
      </trkpt>
      <trkpt lat="41.18126" lon="-6.74515">
        <ele>654.705</ele>
        <time>2021-07-08T11:57:34Z</time>
      </trkpt>
      <trkpt lat="41.18183" lon="-6.74574">
        <ele>654.8288</ele>
        <time>2021-07-08T11:57:45Z</time>
      </trkpt>
      <trkpt lat="41.18254" lon="-6.74593">
        <ele>657.5195</ele>
        <time>2021-07-08T11:57:56Z</time>
      </trkpt>
      <trkpt lat="41.18302" lon="-6.74623">
        <ele>659.7801</ele>
        <time>2021-07-08T11:58:07Z</time>
      </trkpt>
      <trkpt lat="41.18329" lon="-6.74709">
        <ele>661.8823</ele>
        <time>2021-07-08T11:58:18Z</time>
      </trkpt>
      <trkpt lat="41.18397" lon="-6.74756">
        <ele>677.4729</ele>
        <time>2021-07-08T11:58:29Z</time>
      </trkpt>
      <trkpt lat="41.18435" lon="-6.74826">
        <ele>694.2636</ele>
        <time>2021-07-08T11:58:40Z</time>
      </trkpt>
      <trkpt lat="41.18484" lon="-6.74884">
        <ele>699.0408</ele>
        <time>2021-07-08T11:58:51Z</time>
      </trkpt>
      <trkpt lat="41.18529" lon="-6.7497">
        <ele>697.04</ele>
        <time>2021-07-08T11:59:02Z</time>
      </trkpt>
      <trkpt lat="41.18566" lon="-6.7501">
        <ele>694.8239</ele>
        <time>2021-07-08T11:59:13Z</time>
      </trkpt>
      <trkpt lat="41.18609" lon="-6.75032">
        <ele>700.5918</ele>
        <time>2021-07-08T11:59:24Z</time>
      </trkpt>
      <trkpt lat="41.18658" lon="-6.75074">
        <ele>705.4397</ele>
        <time>2021-07-08T11:59:35Z</time>
      </trkpt>
      <trkpt lat="41.18687" lon="-6.75165">
        <ele>701.0035</ele>
        <time>2021-07-08T11:59:46Z</time>
      </trkpt>
      <trkpt lat="41.18742" lon="-6.75218">
        <ele>703.3146</ele>
        <time>2021-07-08T11:59:57Z</time>
      </trkpt>
      <trkpt lat="41.18719" lon="-6.7527">
        <ele>705.1745</ele>
        <time>2021-07-08T12:00:08Z</time>
      </trkpt>
      <trkpt lat="41.18694" lon="-6.75334">
        <ele>704.3921</ele>
        <time>2021-07-08T12:00:19Z</time>
      </trkpt>
      <trkpt lat="41.18677" lon="-6.75438">
        <ele>708.9851</ele>
        <time>2021-07-08T12:00:30Z</time>
      </trkpt>
      <trkpt lat="41.1867" lon="-6.75523">
        <ele>714.443</ele>
        <time>2021-07-08T12:00:41Z</time>
      </trkpt>
      <trkpt lat="41.1864" lon="-6.75561">
        <ele>713.8007</ele>
        <time>2021-07-08T12:00:52Z</time>
      </trkpt>
      <trkpt lat="41.18551" lon="-6.75594">
        <ele>709.9799</ele>
        <time>2021-07-08T12:01:03Z</time>
      </trkpt>
      <trkpt lat="41.18454" lon="-6.75607">
        <ele>703.8951</ele>
        <time>2021-07-08T12:01:14Z</time>
      </trkpt>
      <trkpt lat="41.18384" lon="-6.75651">
        <ele>696.2571</ele>
        <time>2021-07-08T12:01:25Z</time>
      </trkpt>
      <trkpt lat="41.18317" lon="-6.75711">
        <ele>694.669</ele>
        <time>2021-07-08T12:01:36Z</time>
      </trkpt>
      <trkpt lat="41.1826" lon="-6.75754">
        <ele>698.5155</ele>
        <time>2021-07-08T12:01:47Z</time>
      </trkpt>
      <trkpt lat="41.18219" lon="-6.75827">
        <ele>700.1895</ele>
        <time>2021-07-08T12:01:58Z</time>
      </trkpt>
      <trkpt lat="41.18159" lon="-6.75854">
        <ele>698.455</ele>
        <time>2021-07-08T12:02:09Z</time>
      </trkpt>
      <trkpt lat="41.18101" lon="-6.75886">
        <ele>701.5489</ele>
        <time>2021-07-08T12:02:20Z</time>
      </trkpt>
      <trkpt lat="41.18041" lon="-6.75939">
        <ele>702.3391</ele>
        <time>2021-07-08T12:02:31Z</time>
      </trkpt>
      <trkpt lat="41.17975" lon="-6.76007">
        <ele>704.1248</ele>
        <time>2021-07-08T12:02:42Z</time>
      </trkpt>
      <trkpt lat="41.17921" lon="-6.76052">
        <ele>700.7548</ele>
        <time>2021-07-08T12:02:53Z</time>
      </trkpt>
      <trkpt lat="41.17885" lon="-6.76107">
        <ele>698.705</ele>
        <time>2021-07-08T12:03:04Z</time>
      </trkpt>
      <trkpt lat="41.17848" lon="-6.76167">
        <ele>692.895</ele>
        <time>2021-07-08T12:03:15Z</time>
      </trkpt>
      <trkpt lat="41.17809" lon="-6.76225">
        <ele>687.4204</ele>
        <time>2021-07-08T12:03:26Z</time>
      </trkpt>
      <trkpt lat="41.17763" lon="-6.7626">
        <ele>682.3784</ele>
        <time>2021-07-08T12:03:37Z</time>
      </trkpt>
      <trkpt lat="41.17703" lon="-6.76277">
        <ele>681.2654</ele>
        <time>2021-07-08T12:03:48Z</time>
      </trkpt>
      <trkpt lat="41.17646" lon="-6.76289">
        <ele>684.8258</ele>
        <time>2021-07-08T12:03:59Z</time>
      </trkpt>
      <trkpt lat="41.17608" lon="-6.76334">
        <ele>683.6849</ele>
        <time>2021-07-08T12:04:10Z</time>
      </trkpt>
      <trkpt lat="41.17555" lon="-6.76347">
        <ele>683.0628</ele>
        <time>2021-07-08T12:04:21Z</time>
      </trkpt>
      <trkpt lat="41.17493" lon="-6.76367">
        <ele>684.5394</ele>
        <time>2021-07-08T12:04:32Z</time>
      </trkpt>
      <trkpt lat="41.17418" lon="-6.76378">
        <ele>690.4459</ele>
        <time>2021-07-08T12:04:43Z</time>
      </trkpt>
      <trkpt lat="41.17343" lon="-6.76406">
        <ele>696.5463</ele>
        <time>2021-07-08T12:04:54Z</time>
      </trkpt>
      <trkpt lat="41.17272" lon="-6.7644">
        <ele>695.3096</ele>
        <time>2021-07-08T12:05:05Z</time>
      </trkpt>
      <trkpt lat="41.17191" lon="-6.765">
        <ele>694.7737</ele>
        <time>2021-07-08T12:05:16Z</time>
      </trkpt>
      <trkpt lat="41.17126" lon="-6.76515">
        <ele>695.8458</ele>
        <time>2021-07-08T12:05:27Z</time>
      </trkpt>
      <trkpt lat="41.1709" lon="-6.76533">
        <ele>697.7215</ele>
        <time>2021-07-08T12:05:38Z</time>
      </trkpt>
      <trkpt lat="41.1709" lon="-6.76532">
        <ele>696.5539</ele>
        <time>2021-07-08T12:06:38Z</time>
      </trkpt>
      <trkpt lat="41.1709" lon="-6.76532">
        <ele>696.5539</ele>
        <time>2021-07-08T12:07:37Z</time>
      </trkpt>
      <trkpt lat="41.17087" lon="-6.76529">
        <ele>696.126</ele>
        <time>2021-07-08T12:08:19Z</time>
      </trkpt>
      <trkpt lat="41.17084" lon="-6.76526">
        <ele>696.4678</ele>
        <time>2021-07-08T12:08:35Z</time>
      </trkpt>
      <trkpt lat="41.17084" lon="-6.76529">
        <ele>696.7539</ele>
        <time>2021-07-08T12:09:35Z</time>
      </trkpt>
      <trkpt lat="41.17088" lon="-6.7653">
        <ele>696.8083</ele>
        <time>2021-07-08T12:09:49Z</time>
      </trkpt>
      <trkpt lat="41.1709" lon="-6.76533">
        <ele>696.8346</ele>
        <time>2021-07-08T12:10:49Z</time>
      </trkpt>
      <trkpt lat="41.1709" lon="-6.76533">
        <ele>696.8346</ele>
        <time>2021-07-08T12:11:49Z</time>
      </trkpt>
      <trkpt lat="41.1709" lon="-6.76534">
        <ele>695.7219</ele>
        <time>2021-07-08T12:12:49Z</time>
      </trkpt>
      <trkpt lat="41.17089" lon="-6.76541">
        <ele>695.2634</ele>
        <time>2021-07-08T12:13:46Z</time>
      </trkpt>
      <trkpt lat="41.17087" lon="-6.76549">
        <ele>694.6598</ele>
        <time>2021-07-08T12:13:57Z</time>
      </trkpt>
      <trkpt lat="41.17084" lon="-6.76559">
        <ele>693.4213</ele>
        <time>2021-07-08T12:14:08Z</time>
      </trkpt>
      <trkpt lat="41.17077" lon="-6.76586">
        <ele>692.6749</ele>
        <time>2021-07-08T12:14:19Z</time>
      </trkpt>
      <trkpt lat="41.17074" lon="-6.76594">
        <ele>693.3273</ele>
        <time>2021-07-08T12:14:40Z</time>
      </trkpt>
      <trkpt lat="41.17064" lon="-6.76644">
        <ele>691.2341</ele>
        <time>2021-07-08T12:14:51Z</time>
      </trkpt>
      <trkpt lat="41.17044" lon="-6.76685">
        <ele>688.9344</ele>
        <time>2021-07-08T12:15:02Z</time>
      </trkpt>
      <trkpt lat="41.17011" lon="-6.76715">
        <ele>688.1579</ele>
        <time>2021-07-08T12:15:13Z</time>
      </trkpt>
      <trkpt lat="41.16987" lon="-6.7676">
        <ele>684.9106</ele>
        <time>2021-07-08T12:15:24Z</time>
      </trkpt>
      <trkpt lat="41.16962" lon="-6.76804">
        <ele>681.3711</ele>
        <time>2021-07-08T12:15:35Z</time>
      </trkpt>
      <trkpt lat="41.1695" lon="-6.76852">
        <ele>678.2101</ele>
        <time>2021-07-08T12:15:46Z</time>
      </trkpt>
      <trkpt lat="41.1694" lon="-6.76892">
        <ele>673.276</ele>
        <time>2021-07-08T12:15:57Z</time>
      </trkpt>
      <trkpt lat="41.16933" lon="-6.76907">
        <ele>672.324</ele>
        <time>2021-07-08T12:16:08Z</time>
      </trkpt>
      <trkpt lat="41.1693" lon="-6.7695">
        <ele>669.3096</ele>
        <time>2021-07-08T12:16:19Z</time>
      </trkpt>
      <trkpt lat="41.16928" lon="-6.76993">
        <ele>668.1627</ele>
        <time>2021-07-08T12:16:30Z</time>
      </trkpt>
      <trkpt lat="41.16921" lon="-6.77023">
        <ele>664.0324</ele>
        <time>2021-07-08T12:16:41Z</time>
      </trkpt>
      <trkpt lat="41.16925" lon="-6.77053">
        <ele>662.0734</ele>
        <time>2021-07-08T12:16:52Z</time>
      </trkpt>
      <trkpt lat="41.16934" lon="-6.77088">
        <ele>658.4844</ele>
        <time>2021-07-08T12:17:03Z</time>
      </trkpt>
      <trkpt lat="41.16941" lon="-6.77115">
        <ele>657.5674</ele>
        <time>2021-07-08T12:17:14Z</time>
      </trkpt>
      <trkpt lat="41.16945" lon="-6.77155">
        <ele>654.7886</ele>
        <time>2021-07-08T12:17:25Z</time>
      </trkpt>
      <trkpt lat="41.16929" lon="-6.77183">
        <ele>653.1878</ele>
        <time>2021-07-08T12:17:36Z</time>
      </trkpt>
      <trkpt lat="41.16893" lon="-6.77202">
        <ele>650.663</ele>
        <time>2021-07-08T12:17:47Z</time>
      </trkpt>
      <trkpt lat="41.16861" lon="-6.77217">
        <ele>651.2027</ele>
        <time>2021-07-08T12:17:58Z</time>
      </trkpt>
      <trkpt lat="41.16844" lon="-6.77255">
        <ele>652.3615</ele>
        <time>2021-07-08T12:18:09Z</time>
      </trkpt>
      <trkpt lat="41.16816" lon="-6.77288">
        <ele>650.3122</ele>
        <time>2021-07-08T12:18:21Z</time>
      </trkpt>
      <trkpt lat="41.16803" lon="-6.7732">
        <ele>648.4587</ele>
        <time>2021-07-08T12:18:32Z</time>
      </trkpt>
      <trkpt lat="41.16783" lon="-6.77343">
        <ele>644.8545</ele>
        <time>2021-07-08T12:18:43Z</time>
      </trkpt>
      <trkpt lat="41.16762" lon="-6.77377">
        <ele>643.1573</ele>
        <time>2021-07-08T12:18:54Z</time>
      </trkpt>
      <trkpt lat="41.16751" lon="-6.77396">
        <ele>641.9129</ele>
        <time>2021-07-08T12:19:05Z</time>
      </trkpt>
      <trkpt lat="41.16747" lon="-6.774">
        <ele>641.4131</ele>
        <time>2021-07-08T12:19:21Z</time>
      </trkpt>
      <trkpt lat="41.16745" lon="-6.77403">
        <ele>640.5539</ele>
        <time>2021-07-08T12:19:32Z</time>
      </trkpt>
      <trkpt lat="41.16736" lon="-6.77413">
        <ele>640.1517</ele>
        <time>2021-07-08T12:19:43Z</time>
      </trkpt>
      <trkpt lat="41.16728" lon="-6.77422">
        <ele>639.9512</ele>
        <time>2021-07-08T12:19:54Z</time>
      </trkpt>
      <trkpt lat="41.16727" lon="-6.77421">
        <ele>639.3066</ele>
        <time>2021-07-08T12:20:54Z</time>
      </trkpt>
      <trkpt lat="41.16723" lon="-6.77426">
        <ele>639.7524</ele>
        <time>2021-07-08T12:21:37Z</time>
      </trkpt>
      <trkpt lat="41.16688" lon="-6.77432">
        <ele>641.4486</ele>
        <time>2021-07-08T12:21:48Z</time>
      </trkpt>
      <trkpt lat="41.16657" lon="-6.7744">
        <ele>638.7852</ele>
        <time>2021-07-08T12:21:59Z</time>
      </trkpt>
      <trkpt lat="41.16627" lon="-6.77436">
        <ele>635.1313</ele>
        <time>2021-07-08T12:22:10Z</time>
      </trkpt>
      <trkpt lat="41.16597" lon="-6.77454">
        <ele>634.9232</ele>
        <time>2021-07-08T12:22:21Z</time>
      </trkpt>
      <trkpt lat="41.16553" lon="-6.77437">
        <ele>635.1114</ele>
        <time>2021-07-08T12:22:33Z</time>
      </trkpt>
      <trkpt lat="41.16512" lon="-6.77429">
        <ele>636.8237</ele>
        <time>2021-07-08T12:22:44Z</time>
      </trkpt>
      <trkpt lat="41.16459" lon="-6.77398">
        <ele>634.3643</ele>
        <time>2021-07-08T12:22:55Z</time>
      </trkpt>
      <trkpt lat="41.16399" lon="-6.77338">
        <ele>636.7323</ele>
        <time>2021-07-08T12:23:06Z</time>
      </trkpt>
      <trkpt lat="41.16361" lon="-6.77266">
        <ele>638.9329</ele>
        <time>2021-07-08T12:23:17Z</time>
      </trkpt>
      <trkpt lat="41.16312" lon="-6.77183">
        <ele>640.1799</ele>
        <time>2021-07-08T12:23:28Z</time>
      </trkpt>
      <trkpt lat="41.1626" lon="-6.77106">
        <ele>641.8061</ele>
        <time>2021-07-08T12:23:39Z</time>
      </trkpt>
      <trkpt lat="41.16202" lon="-6.77032">
        <ele>645.1849</ele>
        <time>2021-07-08T12:23:50Z</time>
      </trkpt>
      <trkpt lat="41.16133" lon="-6.77047">
        <ele>637.4605</ele>
        <time>2021-07-08T12:24:01Z</time>
      </trkpt>
      <trkpt lat="41.16067" lon="-6.77102">
        <ele>637.5892</ele>
        <time>2021-07-08T12:24:12Z</time>
      </trkpt>
      <trkpt lat="41.15983" lon="-6.77127">
        <ele>636.4692</ele>
        <time>2021-07-08T12:24:23Z</time>
      </trkpt>
      <trkpt lat="41.15899" lon="-6.77168">
        <ele>630.7693</ele>
        <time>2021-07-08T12:24:34Z</time>
      </trkpt>
      <trkpt lat="41.15807" lon="-6.77219">
        <ele>628.0613</ele>
        <time>2021-07-08T12:24:45Z</time>
      </trkpt>
      <trkpt lat="41.15748" lon="-6.77269">
        <ele>625.8144</ele>
        <time>2021-07-08T12:24:56Z</time>
      </trkpt>
      <trkpt lat="41.1571" lon="-6.77306">
        <ele>622.7405</ele>
        <time>2021-07-08T12:25:07Z</time>
      </trkpt>
      <trkpt lat="41.15661" lon="-6.77312">
        <ele>616.2957</ele>
        <time>2021-07-08T12:25:18Z</time>
      </trkpt>
      <trkpt lat="41.15611" lon="-6.77323">
        <ele>609.8138</ele>
        <time>2021-07-08T12:25:29Z</time>
      </trkpt>
      <trkpt lat="41.15542" lon="-6.7732">
        <ele>604.5957</ele>
        <time>2021-07-08T12:25:40Z</time>
      </trkpt>
      <trkpt lat="41.15487" lon="-6.77351">
        <ele>598.7119</ele>
        <time>2021-07-08T12:25:51Z</time>
      </trkpt>
      <trkpt lat="41.15428" lon="-6.77393">
        <ele>593.8085</ele>
        <time>2021-07-08T12:26:02Z</time>
      </trkpt>
      <trkpt lat="41.15374" lon="-6.77428">
        <ele>589.4248</ele>
        <time>2021-07-08T12:26:13Z</time>
      </trkpt>
      <trkpt lat="41.15349" lon="-6.77475">
        <ele>583.7645</ele>
        <time>2021-07-08T12:26:24Z</time>
      </trkpt>
      <trkpt lat="41.15354" lon="-6.77553">
        <ele>577.0214</ele>
        <time>2021-07-08T12:26:35Z</time>
      </trkpt>
      <trkpt lat="41.15332" lon="-6.77616">
        <ele>568.8893</ele>
        <time>2021-07-08T12:26:46Z</time>
      </trkpt>
      <trkpt lat="41.15295" lon="-6.77665">
        <ele>559.0207</ele>
        <time>2021-07-08T12:26:57Z</time>
      </trkpt>
      <trkpt lat="41.1526" lon="-6.77702">
        <ele>550.6983</ele>
        <time>2021-07-08T12:27:08Z</time>
      </trkpt>
      <trkpt lat="41.15243" lon="-6.7777">
        <ele>541.4065</ele>
        <time>2021-07-08T12:27:19Z</time>
      </trkpt>
      <trkpt lat="41.15256" lon="-6.77848">
        <ele>525.9316</ele>
        <time>2021-07-08T12:27:31Z</time>
      </trkpt>
      <trkpt lat="41.15312" lon="-6.77871">
        <ele>530.925</ele>
        <time>2021-07-08T12:27:42Z</time>
      </trkpt>
      <trkpt lat="41.15322" lon="-6.77944">
        <ele>544.3693</ele>
        <time>2021-07-08T12:27:53Z</time>
      </trkpt>
      <trkpt lat="41.15261" lon="-6.7797">
        <ele>533.8478</ele>
        <time>2021-07-08T12:28:04Z</time>
      </trkpt>
      <trkpt lat="41.15199" lon="-6.7803">
        <ele>533.0713</ele>
        <time>2021-07-08T12:28:15Z</time>
      </trkpt>
      <trkpt lat="41.15158" lon="-6.78152">
        <ele>542.8348</ele>
        <time>2021-07-08T12:28:26Z</time>
      </trkpt>
      <trkpt lat="41.15117" lon="-6.78282">
        <ele>543.955</ele>
        <time>2021-07-08T12:28:37Z</time>
      </trkpt>
      <trkpt lat="41.15062" lon="-6.78354">
        <ele>539.4216</ele>
        <time>2021-07-08T12:28:48Z</time>
      </trkpt>
      <trkpt lat="41.15018" lon="-6.7841">
        <ele>549.6598</ele>
        <time>2021-07-08T12:28:59Z</time>
      </trkpt>
      <trkpt lat="41.14955" lon="-6.78445">
        <ele>556.2442</ele>
        <time>2021-07-08T12:29:10Z</time>
      </trkpt>
      <trkpt lat="41.14908" lon="-6.78417">
        <ele>550.0554</ele>
        <time>2021-07-08T12:29:21Z</time>
      </trkpt>
      <trkpt lat="41.14857" lon="-6.78383">
        <ele>543.4093</ele>
        <time>2021-07-08T12:29:32Z</time>
      </trkpt>
      <trkpt lat="41.14794" lon="-6.78359">
        <ele>533.2662</ele>
        <time>2021-07-08T12:29:43Z</time>
      </trkpt>
      <trkpt lat="41.1473" lon="-6.78341">
        <ele>523.2751</ele>
        <time>2021-07-08T12:29:54Z</time>
      </trkpt>
      <trkpt lat="41.14681" lon="-6.78336">
        <ele>526.524</ele>
        <time>2021-07-08T12:30:05Z</time>
      </trkpt>
      <trkpt lat="41.14649" lon="-6.78286">
        <ele>518.9034</ele>
        <time>2021-07-08T12:30:16Z</time>
      </trkpt>
      <trkpt lat="41.14648" lon="-6.78237">
        <ele>509.6393</ele>
        <time>2021-07-08T12:30:27Z</time>
      </trkpt>
      <trkpt lat="41.14627" lon="-6.78163">
        <ele>502.2991</ele>
        <time>2021-07-08T12:30:38Z</time>
      </trkpt>
      <trkpt lat="41.14603" lon="-6.78082">
        <ele>497.1794</ele>
        <time>2021-07-08T12:30:49Z</time>
      </trkpt>
      <trkpt lat="41.14556" lon="-6.78061">
        <ele>487.5033</ele>
        <time>2021-07-08T12:31:00Z</time>
      </trkpt>
      <trkpt lat="41.14515" lon="-6.78163">
        <ele>478.5309</ele>
        <time>2021-07-08T12:31:11Z</time>
      </trkpt>
      <trkpt lat="41.14433" lon="-6.78143">
        <ele>467.9408</ele>
        <time>2021-07-08T12:31:22Z</time>
      </trkpt>
      <trkpt lat="41.14475" lon="-6.78076">
        <ele>459.0511</ele>
        <time>2021-07-08T12:31:33Z</time>
      </trkpt>
      <trkpt lat="41.14435" lon="-6.7789">
        <ele>441.6117</ele>
        <time>2021-07-08T12:31:44Z</time>
      </trkpt>
      <trkpt lat="41.14401" lon="-6.77768">
        <ele>422.5785</ele>
        <time>2021-07-08T12:31:55Z</time>
      </trkpt>
      <trkpt lat="41.14431" lon="-6.77641">
        <ele>411.9957</ele>
        <time>2021-07-08T12:32:06Z</time>
      </trkpt>
      <trkpt lat="41.14531" lon="-6.77557">
        <ele>399.0066</ele>
        <time>2021-07-08T12:32:17Z</time>
      </trkpt>
      <trkpt lat="41.14586" lon="-6.77518">
        <ele>386.765</ele>
        <time>2021-07-08T12:32:28Z</time>
      </trkpt>
      <trkpt lat="41.14526" lon="-6.77444">
        <ele>373.7908</ele>
        <time>2021-07-08T12:32:39Z</time>
      </trkpt>
      <trkpt lat="41.14512" lon="-6.77392">
        <ele>364.2822</ele>
        <time>2021-07-08T12:32:50Z</time>
      </trkpt>
      <trkpt lat="41.14444" lon="-6.7743">
        <ele>352.9193</ele>
        <time>2021-07-08T12:33:01Z</time>
      </trkpt>
      <trkpt lat="41.14371" lon="-6.77449">
        <ele>340.8457</ele>
        <time>2021-07-08T12:33:12Z</time>
      </trkpt>
      <trkpt lat="41.14281" lon="-6.7742">
        <ele>325.1512</ele>
        <time>2021-07-08T12:33:23Z</time>
      </trkpt>
      <trkpt lat="41.14206" lon="-6.77408">
        <ele>310.2877</ele>
        <time>2021-07-08T12:33:34Z</time>
      </trkpt>
      <trkpt lat="41.1426" lon="-6.77341">
        <ele>296.6455</ele>
        <time>2021-07-08T12:33:45Z</time>
      </trkpt>
      <trkpt lat="41.14248" lon="-6.77213">
        <ele>281.0862</ele>
        <time>2021-07-08T12:33:56Z</time>
      </trkpt>
      <trkpt lat="41.1417" lon="-6.77168">
        <ele>283.102</ele>
        <time>2021-07-08T12:34:07Z</time>
      </trkpt>
      <trkpt lat="41.14076" lon="-6.77127">
        <ele>271.8006</ele>
        <time>2021-07-08T12:34:18Z</time>
      </trkpt>
      <trkpt lat="41.13963" lon="-6.77152">
        <ele>258.1311</ele>
        <time>2021-07-08T12:34:29Z</time>
      </trkpt>
      <trkpt lat="41.13894" lon="-6.77136">
        <ele>242.9972</ele>
        <time>2021-07-08T12:34:40Z</time>
      </trkpt>
      <trkpt lat="41.13804" lon="-6.77081">
        <ele>225.4107</ele>
        <time>2021-07-08T12:34:51Z</time>
      </trkpt>
      <trkpt lat="41.13732" lon="-6.76992">
        <ele>214.192</ele>
        <time>2021-07-08T12:35:02Z</time>
      </trkpt>
      <trkpt lat="41.13644" lon="-6.77053">
        <ele>200.627</ele>
        <time>2021-07-08T12:35:13Z</time>
      </trkpt>
      <trkpt lat="41.1357" lon="-6.77067">
        <ele>191.8679</ele>
        <time>2021-07-08T12:35:24Z</time>
      </trkpt>
      <trkpt lat="41.13623" lon="-6.77117">
        <ele>187.7104</ele>
        <time>2021-07-08T12:35:35Z</time>
      </trkpt>
      <trkpt lat="41.13617" lon="-6.7719">
        <ele>193.0483</ele>
        <time>2021-07-08T12:35:46Z</time>
      </trkpt>
      <trkpt lat="41.13722" lon="-6.77275">
        <ele>202.2668</ele>
        <time>2021-07-08T12:35:57Z</time>
      </trkpt>
      <trkpt lat="41.13717" lon="-6.7736">
        <ele>195.9915</ele>
        <time>2021-07-08T12:36:08Z</time>
      </trkpt>
      <trkpt lat="41.13626" lon="-6.77373">
        <ele>203.6369</ele>
        <time>2021-07-08T12:36:19Z</time>
      </trkpt>
      <trkpt lat="41.13519" lon="-6.77423">
        <ele>213.2455</ele>
        <time>2021-07-08T12:36:30Z</time>
      </trkpt>
      <trkpt lat="41.13366" lon="-6.77437">
        <ele>233.004</ele>
        <time>2021-07-08T12:36:41Z</time>
      </trkpt>
      <trkpt lat="41.13249" lon="-6.77447">
        <ele>230.4853</ele>
        <time>2021-07-08T12:36:52Z</time>
      </trkpt>
      <trkpt lat="41.13187" lon="-6.77431">
        <ele>224.6627</ele>
        <time>2021-07-08T12:37:03Z</time>
      </trkpt>
      <trkpt lat="41.13104" lon="-6.77431">
        <ele>215.292</ele>
        <time>2021-07-08T12:37:14Z</time>
      </trkpt>
      <trkpt lat="41.13027" lon="-6.77505">
        <ele>198.8531</ele>
        <time>2021-07-08T12:37:25Z</time>
      </trkpt>
      <trkpt lat="41.12986" lon="-6.77567">
        <ele>195.0237</ele>
        <time>2021-07-08T12:37:36Z</time>
      </trkpt>
      <trkpt lat="41.12909" lon="-6.77487">
        <ele>203.6765</ele>
        <time>2021-07-08T12:37:47Z</time>
      </trkpt>
      <trkpt lat="41.12793" lon="-6.77485">
        <ele>214.1183</ele>
        <time>2021-07-08T12:37:58Z</time>
      </trkpt>
      <trkpt lat="41.12646" lon="-6.77418">
        <ele>231.5612</ele>
        <time>2021-07-08T12:38:09Z</time>
      </trkpt>
      <trkpt lat="41.12555" lon="-6.77458">
        <ele>242.8555</ele>
        <time>2021-07-08T12:38:20Z</time>
      </trkpt>
      <trkpt lat="41.1247" lon="-6.77443">
        <ele>242.5666</ele>
        <time>2021-07-08T12:38:31Z</time>
      </trkpt>
      <trkpt lat="41.12337" lon="-6.77474">
        <ele>253.7723</ele>
        <time>2021-07-08T12:38:42Z</time>
      </trkpt>
      <trkpt lat="41.12213" lon="-6.77447">
        <ele>266.7989</ele>
        <time>2021-07-08T12:38:53Z</time>
      </trkpt>
      <trkpt lat="41.12093" lon="-6.77411">
        <ele>285.3348</ele>
        <time>2021-07-08T12:39:04Z</time>
      </trkpt>
      <trkpt lat="41.12042" lon="-6.77485">
        <ele>273.551</ele>
        <time>2021-07-08T12:39:15Z</time>
      </trkpt>
      <trkpt lat="41.11962" lon="-6.77495">
        <ele>274.9023</ele>
        <time>2021-07-08T12:39:26Z</time>
      </trkpt>
      <trkpt lat="41.11855" lon="-6.77522">
        <ele>285.9258</ele>
        <time>2021-07-08T12:39:37Z</time>
      </trkpt>
      <trkpt lat="41.11737" lon="-6.77472">
        <ele>288.2451</ele>
        <time>2021-07-08T12:39:48Z</time>
      </trkpt>
      <trkpt lat="41.11659" lon="-6.77382">
        <ele>301.1623</ele>
        <time>2021-07-08T12:39:59Z</time>
      </trkpt>
      <trkpt lat="41.11539" lon="-6.77309">
        <ele>320.4102</ele>
        <time>2021-07-08T12:40:10Z</time>
      </trkpt>
      <trkpt lat="41.11395" lon="-6.77226">
        <ele>340.6514</ele>
        <time>2021-07-08T12:40:21Z</time>
      </trkpt>
      <trkpt lat="41.11275" lon="-6.77217">
        <ele>356.7395</ele>
        <time>2021-07-08T12:40:32Z</time>
      </trkpt>
      <trkpt lat="41.11243" lon="-6.77206">
        <ele>352.3235</ele>
        <time>2021-07-08T12:40:43Z</time>
      </trkpt>
      <trkpt lat="41.11198" lon="-6.77239">
        <ele>344.3235</ele>
        <time>2021-07-08T12:40:54Z</time>
      </trkpt>
      <trkpt lat="41.11135" lon="-6.77166">
        <ele>341.1949</ele>
        <time>2021-07-08T12:41:05Z</time>
      </trkpt>
      <trkpt lat="41.11064" lon="-6.77089">
        <ele>329.0915</ele>
        <time>2021-07-08T12:41:16Z</time>
      </trkpt>
      <trkpt lat="41.11001" lon="-6.77036">
        <ele>321.0402</ele>
        <time>2021-07-08T12:41:27Z</time>
      </trkpt>
      <trkpt lat="41.10914" lon="-6.76963">
        <ele>312.3411</ele>
        <time>2021-07-08T12:41:38Z</time>
      </trkpt>
      <trkpt lat="41.10844" lon="-6.76863">
        <ele>315.853</ele>
        <time>2021-07-08T12:41:49Z</time>
      </trkpt>
      <trkpt lat="41.10783" lon="-6.76844">
        <ele>316.391</ele>
        <time>2021-07-08T12:42:00Z</time>
      </trkpt>
      <trkpt lat="41.10707" lon="-6.7687">
        <ele>303.3761</ele>
        <time>2021-07-08T12:42:11Z</time>
      </trkpt>
      <trkpt lat="41.10626" lon="-6.76895">
        <ele>294.9412</ele>
        <time>2021-07-08T12:42:22Z</time>
      </trkpt>
      <trkpt lat="41.10585" lon="-6.76953">
        <ele>301.964</ele>
        <time>2021-07-08T12:42:33Z</time>
      </trkpt>
      <trkpt lat="41.10595" lon="-6.77021">
        <ele>314.6957</ele>
        <time>2021-07-08T12:42:44Z</time>
      </trkpt>
      <trkpt lat="41.10543" lon="-6.77042">
        <ele>329.0134</ele>
        <time>2021-07-08T12:42:55Z</time>
      </trkpt>
      <trkpt lat="41.10587" lon="-6.77075">
        <ele>336.793</ele>
        <time>2021-07-08T12:43:06Z</time>
      </trkpt>
      <trkpt lat="41.10606" lon="-6.77117">
        <ele>336.4631</ele>
        <time>2021-07-08T12:43:17Z</time>
      </trkpt>
      <trkpt lat="41.10581" lon="-6.77209">
        <ele>339.7735</ele>
        <time>2021-07-08T12:43:28Z</time>
      </trkpt>
      <trkpt lat="41.10534" lon="-6.77291">
        <ele>336.538</ele>
        <time>2021-07-08T12:43:39Z</time>
      </trkpt>
      <trkpt lat="41.10477" lon="-6.77335">
        <ele>342.8728</ele>
        <time>2021-07-08T12:43:50Z</time>
      </trkpt>
      <trkpt lat="41.10415" lon="-6.77362">
        <ele>348.8392</ele>
        <time>2021-07-08T12:44:01Z</time>
      </trkpt>
      <trkpt lat="41.10414" lon="-6.77438">
        <ele>374.1338</ele>
        <time>2021-07-08T12:44:12Z</time>
      </trkpt>
      <trkpt lat="41.10413" lon="-6.77527">
        <ele>386.2049</ele>
        <time>2021-07-08T12:44:23Z</time>
      </trkpt>
      <trkpt lat="41.10428" lon="-6.77603">
        <ele>384.0795</ele>
        <time>2021-07-08T12:44:34Z</time>
      </trkpt>
      <trkpt lat="41.10472" lon="-6.77662">
        <ele>375.5085</ele>
        <time>2021-07-08T12:44:45Z</time>
      </trkpt>
      <trkpt lat="41.10502" lon="-6.77719">
        <ele>377.7918</ele>
        <time>2021-07-08T12:44:56Z</time>
      </trkpt>
      <trkpt lat="41.10474" lon="-6.77808">
        <ele>381.4135</ele>
        <time>2021-07-08T12:45:07Z</time>
      </trkpt>
      <trkpt lat="41.10456" lon="-6.77941">
        <ele>377.2347</ele>
        <time>2021-07-08T12:45:18Z</time>
      </trkpt>
      <trkpt lat="41.10363" lon="-6.77974">
        <ele>377.3115</ele>
        <time>2021-07-08T12:45:29Z</time>
      </trkpt>
      <trkpt lat="41.10306" lon="-6.7803">
        <ele>367.9401</ele>
        <time>2021-07-08T12:45:40Z</time>
      </trkpt>
      <trkpt lat="41.10351" lon="-6.78119">
        <ele>419.8138</ele>
        <time>2021-07-08T12:45:51Z</time>
      </trkpt>
      <trkpt lat="41.10401" lon="-6.78234">
        <ele>446.5256</ele>
        <time>2021-07-08T12:46:02Z</time>
      </trkpt>
      <trkpt lat="41.10454" lon="-6.78269">
        <ele>443.6017</ele>
        <time>2021-07-08T12:46:13Z</time>
      </trkpt>
      <trkpt lat="41.10394" lon="-6.78266">
        <ele>447.28</ele>
        <time>2021-07-08T12:46:24Z</time>
      </trkpt>
      <trkpt lat="41.10295" lon="-6.78246">
        <ele>446.3039</ele>
        <time>2021-07-08T12:46:35Z</time>
      </trkpt>
      <trkpt lat="41.10288" lon="-6.78273">
        <ele>454.3742</ele>
        <time>2021-07-08T12:46:46Z</time>
      </trkpt>
      <trkpt lat="41.10332" lon="-6.78346">
        <ele>465.4935</ele>
        <time>2021-07-08T12:46:57Z</time>
      </trkpt>
      <trkpt lat="41.10253" lon="-6.78421">
        <ele>479.988</ele>
        <time>2021-07-08T12:47:08Z</time>
      </trkpt>
      <trkpt lat="41.10304" lon="-6.78522">
        <ele>487.0112</ele>
        <time>2021-07-08T12:47:19Z</time>
      </trkpt>
      <trkpt lat="41.10334" lon="-6.78636">
        <ele>493.684</ele>
        <time>2021-07-08T12:47:30Z</time>
      </trkpt>
      <trkpt lat="41.1039" lon="-6.78733">
        <ele>495.5771</ele>
        <time>2021-07-08T12:47:41Z</time>
      </trkpt>
      <trkpt lat="41.10461" lon="-6.78814">
        <ele>505.6908</ele>
        <time>2021-07-08T12:47:52Z</time>
      </trkpt>
      <trkpt lat="41.10463" lon="-6.78905">
        <ele>515.7733</ele>
        <time>2021-07-08T12:48:03Z</time>
      </trkpt>
      <trkpt lat="41.10445" lon="-6.78919">
        <ele>524.709</ele>
        <time>2021-07-08T12:48:14Z</time>
      </trkpt>
      <trkpt lat="41.10365" lon="-6.78923">
        <ele>519.2355</ele>
        <time>2021-07-08T12:48:25Z</time>
      </trkpt>
      <trkpt lat="41.10282" lon="-6.78958">
        <ele>517.3031</ele>
        <time>2021-07-08T12:48:36Z</time>
      </trkpt>
      <trkpt lat="41.10204" lon="-6.79">
        <ele>509.2426</ele>
        <time>2021-07-08T12:48:47Z</time>
      </trkpt>
      <trkpt lat="41.10118" lon="-6.79053">
        <ele>504.4916</ele>
        <time>2021-07-08T12:48:58Z</time>
      </trkpt>
      <trkpt lat="41.10124" lon="-6.79105">
        <ele>503.4524</ele>
        <time>2021-07-08T12:49:09Z</time>
      </trkpt>
      <trkpt lat="41.10124" lon="-6.7919">
        <ele>499.0338</ele>
        <time>2021-07-08T12:49:20Z</time>
      </trkpt>
      <trkpt lat="41.10106" lon="-6.79257">
        <ele>487.6711</ele>
        <time>2021-07-08T12:49:31Z</time>
      </trkpt>
      <trkpt lat="41.10056" lon="-6.79305">
        <ele>489.4298</ele>
        <time>2021-07-08T12:49:42Z</time>
      </trkpt>
      <trkpt lat="41.10019" lon="-6.79396">
        <ele>492.984</ele>
        <time>2021-07-08T12:49:53Z</time>
      </trkpt>
      <trkpt lat="41.09972" lon="-6.79468">
        <ele>490.2117</ele>
        <time>2021-07-08T12:50:04Z</time>
      </trkpt>
      <trkpt lat="41.09935" lon="-6.79536">
        <ele>480.8874</ele>
        <time>2021-07-08T12:50:15Z</time>
      </trkpt>
      <trkpt lat="41.09929" lon="-6.79544">
        <ele>488.0183</ele>
        <time>2021-07-08T12:50:26Z</time>
      </trkpt>
      <trkpt lat="41.0993" lon="-6.79545">
        <ele>486.9782</ele>
        <time>2021-07-08T12:51:26Z</time>
      </trkpt>
      <trkpt lat="41.09923" lon="-6.79578">
        <ele>482.3359</ele>
        <time>2021-07-08T12:51:37Z</time>
      </trkpt>
      <trkpt lat="41.09935" lon="-6.79641">
        <ele>476.7093</ele>
        <time>2021-07-08T12:51:48Z</time>
      </trkpt>
      <trkpt lat="41.09962" lon="-6.79707">
        <ele>473.3007</ele>
        <time>2021-07-08T12:51:59Z</time>
      </trkpt>
      <trkpt lat="41.09963" lon="-6.79777">
        <ele>465.441</ele>
        <time>2021-07-08T12:52:10Z</time>
      </trkpt>
      <trkpt lat="41.09912" lon="-6.79814">
        <ele>463.3073</ele>
        <time>2021-07-08T12:52:21Z</time>
      </trkpt>
      <trkpt lat="41.09841" lon="-6.79818">
        <ele>465.5118</ele>
        <time>2021-07-08T12:52:32Z</time>
      </trkpt>
      <trkpt lat="41.09772" lon="-6.79814">
        <ele>468.2889</ele>
        <time>2021-07-08T12:52:43Z</time>
      </trkpt>
      <trkpt lat="41.09705" lon="-6.79827">
        <ele>458.3431</ele>
        <time>2021-07-08T12:52:54Z</time>
      </trkpt>
      <trkpt lat="41.09657" lon="-6.79843">
        <ele>439.9639</ele>
        <time>2021-07-08T12:53:05Z</time>
      </trkpt>
      <trkpt lat="41.09608" lon="-6.79887">
        <ele>441.072</ele>
        <time>2021-07-08T12:53:16Z</time>
      </trkpt>
      <trkpt lat="41.09586" lon="-6.79971">
        <ele>438.7546</ele>
        <time>2021-07-08T12:53:27Z</time>
      </trkpt>
      <trkpt lat="41.09606" lon="-6.80062">
        <ele>430.1282</ele>
        <time>2021-07-08T12:53:38Z</time>
      </trkpt>
      <trkpt lat="41.09615" lon="-6.80107">
        <ele>431.0996</ele>
        <time>2021-07-08T12:53:49Z</time>
      </trkpt>
      <trkpt lat="41.09612" lon="-6.80114">
        <ele>437.8817</ele>
        <time>2021-07-08T12:54:00Z</time>
      </trkpt>
      <trkpt lat="41.09614" lon="-6.80125">
        <ele>435.2343</ele>
        <time>2021-07-08T12:54:11Z</time>
      </trkpt>
      <trkpt lat="41.09614" lon="-6.80116">
        <ele>435.1517</ele>
        <time>2021-07-08T12:54:22Z</time>
      </trkpt>
      <trkpt lat="41.09614" lon="-6.80106">
        <ele>435.1943</ele>
        <time>2021-07-08T12:54:34Z</time>
      </trkpt>
      <trkpt lat="41.09591" lon="-6.80013">
        <ele>440.6002</ele>
        <time>2021-07-08T12:54:45Z</time>
      </trkpt>
      <trkpt lat="41.09589" lon="-6.80016">
        <ele>436.803</ele>
        <time>2021-07-08T12:54:59Z</time>
      </trkpt>
      <trkpt lat="41.09593" lon="-6.80053">
        <ele>428.8377</ele>
        <time>2021-07-08T12:55:10Z</time>
      </trkpt>
      <trkpt lat="41.09594" lon="-6.80079">
        <ele>424.6781</ele>
        <time>2021-07-08T12:55:21Z</time>
      </trkpt>
      <trkpt lat="41.09585" lon="-6.80099">
        <ele>419.8628</ele>
        <time>2021-07-08T12:55:32Z</time>
      </trkpt>
      <trkpt lat="41.09582" lon="-6.8014">
        <ele>411.9106</ele>
        <time>2021-07-08T12:55:43Z</time>
      </trkpt>
      <trkpt lat="41.09576" lon="-6.8018">
        <ele>406.5209</ele>
        <time>2021-07-08T12:55:54Z</time>
      </trkpt>
      <trkpt lat="41.09566" lon="-6.8021">
        <ele>407.8051</ele>
        <time>2021-07-08T12:56:05Z</time>
      </trkpt>
      <trkpt lat="41.09549" lon="-6.8026">
        <ele>408.5918</ele>
        <time>2021-07-08T12:56:16Z</time>
      </trkpt>
      <trkpt lat="41.09532" lon="-6.80238">
        <ele>411.6731</ele>
        <time>2021-07-08T12:56:27Z</time>
      </trkpt>
      <trkpt lat="41.09518" lon="-6.80211">
        <ele>417.4696</ele>
        <time>2021-07-08T12:56:38Z</time>
      </trkpt>
      <trkpt lat="41.09489" lon="-6.80262">
        <ele>423.2168</ele>
        <time>2021-07-08T12:56:49Z</time>
      </trkpt>
      <trkpt lat="41.09453" lon="-6.80317">
        <ele>426.4832</ele>
        <time>2021-07-08T12:57:00Z</time>
      </trkpt>
      <trkpt lat="41.09394" lon="-6.80355">
        <ele>427.4521</ele>
        <time>2021-07-08T12:57:11Z</time>
      </trkpt>
      <trkpt lat="41.09362" lon="-6.80403">
        <ele>436.0263</ele>
        <time>2021-07-08T12:57:22Z</time>
      </trkpt>
      <trkpt lat="41.09327" lon="-6.80477">
        <ele>447.7455</ele>
        <time>2021-07-08T12:57:33Z</time>
      </trkpt>
      <trkpt lat="41.09301" lon="-6.80536">
        <ele>459.4716</ele>
        <time>2021-07-08T12:57:44Z</time>
      </trkpt>
      <trkpt lat="41.09259" lon="-6.80562">
        <ele>465.2769</ele>
        <time>2021-07-08T12:57:55Z</time>
      </trkpt>
      <trkpt lat="41.09218" lon="-6.80565">
        <ele>471.4548</ele>
        <time>2021-07-08T12:58:06Z</time>
      </trkpt>
      <trkpt lat="41.09176" lon="-6.80605">
        <ele>466.0202</ele>
        <time>2021-07-08T12:58:17Z</time>
      </trkpt>
      <trkpt lat="41.09142" lon="-6.8062">
        <ele>466.3988</ele>
        <time>2021-07-08T12:58:28Z</time>
      </trkpt>
      <trkpt lat="41.09083" lon="-6.80657">
        <ele>465.2722</ele>
        <time>2021-07-08T12:58:39Z</time>
      </trkpt>
      <trkpt lat="41.09051" lon="-6.80728">
        <ele>466.6073</ele>
        <time>2021-07-08T12:58:50Z</time>
      </trkpt>
      <trkpt lat="41.09011" lon="-6.80774">
        <ele>465.3582</ele>
        <time>2021-07-08T12:59:01Z</time>
      </trkpt>
      <trkpt lat="41.08999" lon="-6.80791">
        <ele>466.7216</ele>
        <time>2021-07-08T12:59:12Z</time>
      </trkpt>
      <trkpt lat="41.09015" lon="-6.80822">
        <ele>468.2328</ele>
        <time>2021-07-08T12:59:23Z</time>
      </trkpt>
      <trkpt lat="41.09041" lon="-6.80855">
        <ele>470.2174</ele>
        <time>2021-07-08T12:59:34Z</time>
      </trkpt>
      <trkpt lat="41.09037" lon="-6.80852">
        <ele>472.3238</ele>
        <time>2021-07-08T12:59:45Z</time>
      </trkpt>
      <trkpt lat="41.09007" lon="-6.80816">
        <ele>468.6974</ele>
        <time>2021-07-08T12:59:56Z</time>
      </trkpt>
      <trkpt lat="41.08968" lon="-6.80796">
        <ele>463.5063</ele>
        <time>2021-07-08T13:00:07Z</time>
      </trkpt>
      <trkpt lat="41.08939" lon="-6.80861">
        <ele>462.0851</ele>
        <time>2021-07-08T13:00:18Z</time>
      </trkpt>
      <trkpt lat="41.08906" lon="-6.80865">
        <ele>458.4313</ele>
        <time>2021-07-08T13:00:29Z</time>
      </trkpt>
      <trkpt lat="41.08988" lon="-6.80908">
        <ele>459.9951</ele>
        <time>2021-07-08T13:00:40Z</time>
      </trkpt>
      <trkpt lat="41.09008" lon="-6.80957">
        <ele>465.884</ele>
        <time>2021-07-08T13:00:51Z</time>
      </trkpt>
      <trkpt lat="41.09005" lon="-6.8096">
        <ele>472.4873</ele>
        <time>2021-07-08T13:01:04Z</time>
      </trkpt>
      <trkpt lat="41.09003" lon="-6.8096">
        <ele>480.2374</ele>
        <time>2021-07-08T13:02:04Z</time>
      </trkpt>
      <trkpt lat="41.08967" lon="-6.80909">
        <ele>476.0572</ele>
        <time>2021-07-08T13:02:15Z</time>
      </trkpt>
      <trkpt lat="41.08903" lon="-6.80902">
        <ele>468.2167</ele>
        <time>2021-07-08T13:02:26Z</time>
      </trkpt>
      <trkpt lat="41.08852" lon="-6.81022">
        <ele>469.7615</ele>
        <time>2021-07-08T13:02:37Z</time>
      </trkpt>
      <trkpt lat="41.08801" lon="-6.81123">
        <ele>474.408</ele>
        <time>2021-07-08T13:02:48Z</time>
      </trkpt>
      <trkpt lat="41.08725" lon="-6.81229">
        <ele>488.1142</ele>
        <time>2021-07-08T13:02:59Z</time>
      </trkpt>
      <trkpt lat="41.08702" lon="-6.81332">
        <ele>501.4376</ele>
        <time>2021-07-08T13:03:10Z</time>
      </trkpt>
      <trkpt lat="41.08596" lon="-6.81363">
        <ele>510.1668</ele>
        <time>2021-07-08T13:03:21Z</time>
      </trkpt>
      <trkpt lat="41.08492" lon="-6.81489">
        <ele>519.4575</ele>
        <time>2021-07-08T13:03:32Z</time>
      </trkpt>
      <trkpt lat="41.08462" lon="-6.81519">
        <ele>522.9408</ele>
        <time>2021-07-08T13:03:43Z</time>
      </trkpt>
      <trkpt lat="41.08395" lon="-6.81595">
        <ele>516.6092</ele>
        <time>2021-07-08T13:03:54Z</time>
      </trkpt>
      <trkpt lat="41.08306" lon="-6.81649">
        <ele>514.1424</ele>
        <time>2021-07-08T13:04:05Z</time>
      </trkpt>
      <trkpt lat="41.08238" lon="-6.81753">
        <ele>523.2031</ele>
        <time>2021-07-08T13:04:16Z</time>
      </trkpt>
      <trkpt lat="41.08196" lon="-6.81873">
        <ele>520.4979</ele>
        <time>2021-07-08T13:04:27Z</time>
      </trkpt>
      <trkpt lat="41.08168" lon="-6.82">
        <ele>519.3224</ele>
        <time>2021-07-08T13:04:38Z</time>
      </trkpt>
      <trkpt lat="41.08098" lon="-6.82121">
        <ele>531.8485</ele>
        <time>2021-07-08T13:04:49Z</time>
      </trkpt>
      <trkpt lat="41.08074" lon="-6.82281">
        <ele>541.842</ele>
        <time>2021-07-08T13:05:00Z</time>
      </trkpt>
      <trkpt lat="41.08063" lon="-6.82333">
        <ele>540.7738</ele>
        <time>2021-07-08T13:05:11Z</time>
      </trkpt>
      <trkpt lat="41.07971" lon="-6.82347">
        <ele>542.151</ele>
        <time>2021-07-08T13:05:22Z</time>
      </trkpt>
      <trkpt lat="41.07943" lon="-6.82307">
        <ele>543.6353</ele>
        <time>2021-07-08T13:05:33Z</time>
      </trkpt>
      <trkpt lat="41.07924" lon="-6.82225">
        <ele>539.644</ele>
        <time>2021-07-08T13:05:44Z</time>
      </trkpt>
      <trkpt lat="41.07879" lon="-6.82241">
        <ele>530.8232</ele>
        <time>2021-07-08T13:05:55Z</time>
      </trkpt>
      <trkpt lat="41.07816" lon="-6.82306">
        <ele>520.9104</ele>
        <time>2021-07-08T13:06:06Z</time>
      </trkpt>
      <trkpt lat="41.07735" lon="-6.82342">
        <ele>515.4716</ele>
        <time>2021-07-08T13:06:17Z</time>
      </trkpt>
      <trkpt lat="41.07673" lon="-6.82394">
        <ele>504.9792</ele>
        <time>2021-07-08T13:06:28Z</time>
      </trkpt>
      <trkpt lat="41.07633" lon="-6.82379">
        <ele>501.4382</ele>
        <time>2021-07-08T13:06:39Z</time>
      </trkpt>
      <trkpt lat="41.0757" lon="-6.82436">
        <ele>497.0698</ele>
        <time>2021-07-08T13:06:50Z</time>
      </trkpt>
      <trkpt lat="41.07504" lon="-6.82436">
        <ele>489.3997</ele>
        <time>2021-07-08T13:07:01Z</time>
      </trkpt>
      <trkpt lat="41.07422" lon="-6.82476">
        <ele>484.5271</ele>
        <time>2021-07-08T13:07:12Z</time>
      </trkpt>
      <trkpt lat="41.07335" lon="-6.82473">
        <ele>479.8438</ele>
        <time>2021-07-08T13:07:23Z</time>
      </trkpt>
      <trkpt lat="41.07266" lon="-6.82458">
        <ele>474.4763</ele>
        <time>2021-07-08T13:07:34Z</time>
      </trkpt>
      <trkpt lat="41.07196" lon="-6.82453">
        <ele>470.7321</ele>
        <time>2021-07-08T13:07:45Z</time>
      </trkpt>
      <trkpt lat="41.07115" lon="-6.82467">
        <ele>466.6293</ele>
        <time>2021-07-08T13:07:56Z</time>
      </trkpt>
      <trkpt lat="41.07061" lon="-6.82537">
        <ele>461.0902</ele>
        <time>2021-07-08T13:08:07Z</time>
      </trkpt>
      <trkpt lat="41.06988" lon="-6.82577">
        <ele>456.0906</ele>
        <time>2021-07-08T13:08:18Z</time>
      </trkpt>
      <trkpt lat="41.06895" lon="-6.82606">
        <ele>453.7392</ele>
        <time>2021-07-08T13:08:29Z</time>
      </trkpt>
      <trkpt lat="41.06819" lon="-6.82588">
        <ele>460.2035</ele>
        <time>2021-07-08T13:08:40Z</time>
      </trkpt>
      <trkpt lat="41.06778" lon="-6.82673">
        <ele>461.0661</ele>
        <time>2021-07-08T13:08:51Z</time>
      </trkpt>
      <trkpt lat="41.06741" lon="-6.82754">
        <ele>458.2505</ele>
        <time>2021-07-08T13:09:02Z</time>
      </trkpt>
      <trkpt lat="41.06722" lon="-6.82825">
        <ele>453.957</ele>
        <time>2021-07-08T13:09:13Z</time>
      </trkpt>
      <trkpt lat="41.06654" lon="-6.82792">
        <ele>466.2584</ele>
        <time>2021-07-08T13:09:24Z</time>
      </trkpt>
      <trkpt lat="41.06614" lon="-6.82733">
        <ele>473.525</ele>
        <time>2021-07-08T13:09:35Z</time>
      </trkpt>
      <trkpt lat="41.06558" lon="-6.82711">
        <ele>468.5928</ele>
        <time>2021-07-08T13:09:46Z</time>
      </trkpt>
      <trkpt lat="41.06551" lon="-6.82642">
        <ele>466.5163</ele>
        <time>2021-07-08T13:09:57Z</time>
      </trkpt>
      <trkpt lat="41.06553" lon="-6.82557">
        <ele>479.9497</ele>
        <time>2021-07-08T13:10:08Z</time>
      </trkpt>
      <trkpt lat="41.06513" lon="-6.82543">
        <ele>491.0139</ele>
        <time>2021-07-08T13:10:19Z</time>
      </trkpt>
      <trkpt lat="41.06483" lon="-6.82587">
        <ele>499.3648</ele>
        <time>2021-07-08T13:10:30Z</time>
      </trkpt>
      <trkpt lat="41.06429" lon="-6.82647">
        <ele>506.6749</ele>
        <time>2021-07-08T13:10:41Z</time>
      </trkpt>
      <trkpt lat="41.06367" lon="-6.82717">
        <ele>516.5982</ele>
        <time>2021-07-08T13:10:52Z</time>
      </trkpt>
      <trkpt lat="41.06314" lon="-6.82766">
        <ele>526.9336</ele>
        <time>2021-07-08T13:11:03Z</time>
      </trkpt>
      <trkpt lat="41.06307" lon="-6.82738">
        <ele>534.2332</ele>
        <time>2021-07-08T13:11:14Z</time>
      </trkpt>
      <trkpt lat="41.06303" lon="-6.82746">
        <ele>535.5953</ele>
        <time>2021-07-08T13:11:25Z</time>
      </trkpt>
      <trkpt lat="41.06301" lon="-6.82755">
        <ele>537.2572</ele>
        <time>2021-07-08T13:11:36Z</time>
      </trkpt>
      <trkpt lat="41.06274" lon="-6.82744">
        <ele>544.5722</ele>
        <time>2021-07-08T13:11:47Z</time>
      </trkpt>
      <trkpt lat="41.06296" lon="-6.82776">
        <ele>547.6126</ele>
        <time>2021-07-08T13:11:58Z</time>
      </trkpt>
      <trkpt lat="41.06286" lon="-6.82774">
        <ele>547.1694</ele>
        <time>2021-07-08T13:12:09Z</time>
      </trkpt>
      <trkpt lat="41.06303" lon="-6.8275">
        <ele>551.6655</ele>
        <time>2021-07-08T13:12:20Z</time>
      </trkpt>
      <trkpt lat="41.06311" lon="-6.82726">
        <ele>553.4736</ele>
        <time>2021-07-08T13:12:31Z</time>
      </trkpt>
      <trkpt lat="41.06313" lon="-6.82721">
        <ele>554.1732</ele>
        <time>2021-07-08T13:12:44Z</time>
      </trkpt>
      <trkpt lat="41.06313" lon="-6.8272">
        <ele>554.4012</ele>
        <time>2021-07-08T13:13:44Z</time>
      </trkpt>
      <trkpt lat="41.0628" lon="-6.82701">
        <ele>554.4012</ele>
        <time>2021-07-08T13:14:19Z</time>
      </trkpt>
      <trkpt lat="41.0628" lon="-6.82701">
        <ele>554.4012</ele>
        <time>2021-07-08T13:15:19Z</time>
      </trkpt>
      <trkpt lat="41.0628" lon="-6.82701">
        <ele>554.4012</ele>
        <time>2021-07-08T13:16:19Z</time>
      </trkpt>
      <trkpt lat="41.0628" lon="-6.82701">
        <ele>554.4012</ele>
        <time>2021-07-08T13:17:19Z</time>
      </trkpt>
      <trkpt lat="41.0628" lon="-6.82701">
        <ele>554.4012</ele>
        <time>2021-07-08T13:18:19Z</time>
      </trkpt>
      <trkpt lat="41.06283" lon="-6.82707">
        <ele>552.993</ele>
        <time>2021-07-08T13:18:30Z</time>
      </trkpt>
      <trkpt lat="41.06285" lon="-6.82698">
        <ele>551.7334</ele>
        <time>2021-07-08T13:19:03Z</time>
      </trkpt>
      <trkpt lat="41.06324" lon="-6.82631">
        <ele>552.5339</ele>
        <time>2021-07-08T13:19:14Z</time>
      </trkpt>
      <trkpt lat="41.0634" lon="-6.82586">
        <ele>550.1532</ele>
        <time>2021-07-08T13:19:25Z</time>
      </trkpt>
      <trkpt lat="41.06337" lon="-6.8256">
        <ele>553.613</ele>
        <time>2021-07-08T13:19:36Z</time>
      </trkpt>
      <trkpt lat="41.06335" lon="-6.82508">
        <ele>559.3357</ele>
        <time>2021-07-08T13:19:47Z</time>
      </trkpt>
      <trkpt lat="41.06304" lon="-6.8255">
        <ele>571.5624</ele>
        <time>2021-07-08T13:19:58Z</time>
      </trkpt>
      <trkpt lat="41.06256" lon="-6.82618">
        <ele>584.3597</ele>
        <time>2021-07-08T13:20:09Z</time>
      </trkpt>
      <trkpt lat="41.06236" lon="-6.82612">
        <ele>591.0029</ele>
        <time>2021-07-08T13:20:20Z</time>
      </trkpt>
      <trkpt lat="41.06237" lon="-6.82604">
        <ele>591.9514</ele>
        <time>2021-07-08T13:20:31Z</time>
      </trkpt>
      <trkpt lat="41.06241" lon="-6.82547">
        <ele>597.374</ele>
        <time>2021-07-08T13:20:42Z</time>
      </trkpt>
      <trkpt lat="41.06233" lon="-6.82457">
        <ele>611.8388</ele>
        <time>2021-07-08T13:20:53Z</time>
      </trkpt>
      <trkpt lat="41.06229" lon="-6.82433">
        <ele>619.1126</ele>
        <time>2021-07-08T13:21:04Z</time>
      </trkpt>
      <trkpt lat="41.06194" lon="-6.82514">
        <ele>625.269</ele>
        <time>2021-07-08T13:21:15Z</time>
      </trkpt>
      <trkpt lat="41.06182" lon="-6.82548">
        <ele>629.7731</ele>
        <time>2021-07-08T13:21:26Z</time>
      </trkpt>
      <trkpt lat="41.06177" lon="-6.82474">
        <ele>634.7698</ele>
        <time>2021-07-08T13:21:37Z</time>
      </trkpt>
      <trkpt lat="41.06177" lon="-6.82392">
        <ele>644.5298</ele>
        <time>2021-07-08T13:21:48Z</time>
      </trkpt>
      <trkpt lat="41.06161" lon="-6.82406">
        <ele>651.4078</ele>
        <time>2021-07-08T13:21:59Z</time>
      </trkpt>
      <trkpt lat="41.06119" lon="-6.82469">
        <ele>656.4907</ele>
        <time>2021-07-08T13:22:10Z</time>
      </trkpt>
      <trkpt lat="41.06086" lon="-6.8243">
        <ele>664.1636</ele>
        <time>2021-07-08T13:22:21Z</time>
      </trkpt>
      <trkpt lat="41.06063" lon="-6.82346">
        <ele>676.5891</ele>
        <time>2021-07-08T13:22:32Z</time>
      </trkpt>
      <trkpt lat="41.0605" lon="-6.82279">
        <ele>679.3475</ele>
        <time>2021-07-08T13:22:43Z</time>
      </trkpt>
      <trkpt lat="41.06011" lon="-6.82195">
        <ele>672.838</ele>
        <time>2021-07-08T13:22:54Z</time>
      </trkpt>
      <trkpt lat="41.0596" lon="-6.82113">
        <ele>664.4799</ele>
        <time>2021-07-08T13:23:05Z</time>
      </trkpt>
      <trkpt lat="41.05932" lon="-6.82037">
        <ele>669.8395</ele>
        <time>2021-07-08T13:23:16Z</time>
      </trkpt>
      <trkpt lat="41.05865" lon="-6.82059">
        <ele>687.5711</ele>
        <time>2021-07-08T13:23:27Z</time>
      </trkpt>
      <trkpt lat="41.05792" lon="-6.82092">
        <ele>698.2575</ele>
        <time>2021-07-08T13:23:38Z</time>
      </trkpt>
      <trkpt lat="41.05723" lon="-6.82126">
        <ele>703.5682</ele>
        <time>2021-07-08T13:23:49Z</time>
      </trkpt>
      <trkpt lat="41.05653" lon="-6.82152">
        <ele>709.5432</ele>
        <time>2021-07-08T13:24:00Z</time>
      </trkpt>
      <trkpt lat="41.05674" lon="-6.82053">
        <ele>717.711</ele>
        <time>2021-07-08T13:24:11Z</time>
      </trkpt>
      <trkpt lat="41.0569" lon="-6.81954">
        <ele>725.195</ele>
        <time>2021-07-08T13:24:22Z</time>
      </trkpt>
      <trkpt lat="41.05672" lon="-6.8192">
        <ele>725.8399</ele>
        <time>2021-07-08T13:24:33Z</time>
      </trkpt>
      <trkpt lat="41.05652" lon="-6.81899">
        <ele>721.756</ele>
        <time>2021-07-08T13:24:44Z</time>
      </trkpt>
      <trkpt lat="41.05605" lon="-6.81897">
        <ele>712.557</ele>
        <time>2021-07-08T13:24:55Z</time>
      </trkpt>
      <trkpt lat="41.05562" lon="-6.81898">
        <ele>704.7171</ele>
        <time>2021-07-08T13:25:06Z</time>
      </trkpt>
      <trkpt lat="41.05513" lon="-6.81901">
        <ele>698.4131</ele>
        <time>2021-07-08T13:25:17Z</time>
      </trkpt>
      <trkpt lat="41.05438" lon="-6.81889">
        <ele>690.0774</ele>
        <time>2021-07-08T13:25:28Z</time>
      </trkpt>
      <trkpt lat="41.05373" lon="-6.81879">
        <ele>682.3399</ele>
        <time>2021-07-08T13:25:39Z</time>
      </trkpt>
      <trkpt lat="41.05309" lon="-6.81886">
        <ele>680.1877</ele>
        <time>2021-07-08T13:25:50Z</time>
      </trkpt>
      <trkpt lat="41.05157" lon="-6.81951">
        <ele>680.9143</ele>
        <time>2021-07-08T13:26:01Z</time>
      </trkpt>
      <trkpt lat="41.05001" lon="-6.82081">
        <ele>697.0792</ele>
        <time>2021-07-08T13:26:12Z</time>
      </trkpt>
      <trkpt lat="41.04845" lon="-6.82123">
        <ele>700.3816</ele>
        <time>2021-07-08T13:26:23Z</time>
      </trkpt>
      <trkpt lat="41.0475" lon="-6.82123">
        <ele>696.0588</ele>
        <time>2021-07-08T13:26:34Z</time>
      </trkpt>
      <trkpt lat="41.04681" lon="-6.8197">
        <ele>686.5466</ele>
        <time>2021-07-08T13:26:45Z</time>
      </trkpt>
      <trkpt lat="41.04676" lon="-6.81905">
        <ele>679.9934</ele>
        <time>2021-07-08T13:26:56Z</time>
      </trkpt>
      <trkpt lat="41.04677" lon="-6.81904">
        <ele>679.1859</ele>
        <time>2021-07-08T13:27:55Z</time>
      </trkpt>
      <trkpt lat="41.04676" lon="-6.81905">
        <ele>678.7034</ele>
        <time>2021-07-08T13:28:53Z</time>
      </trkpt>
      <trkpt lat="41.04667" lon="-6.81895">
        <ele>678.4896</ele>
        <time>2021-07-08T13:29:04Z</time>
      </trkpt>
      <trkpt lat="41.04666" lon="-6.81894">
        <ele>677.5897</ele>
        <time>2021-07-08T13:30:03Z</time>
      </trkpt>
      <trkpt lat="41.04669" lon="-6.81886">
        <ele>676.9503</ele>
        <time>2021-07-08T13:30:14Z</time>
      </trkpt>
      <trkpt lat="41.04673" lon="-6.81883">
        <ele>675.5484</ele>
        <time>2021-07-08T13:30:45Z</time>
      </trkpt>
      <trkpt lat="41.04678" lon="-6.81883">
        <ele>675.9495</ele>
        <time>2021-07-08T13:30:56Z</time>
      </trkpt>
      <trkpt lat="41.04677" lon="-6.81888">
        <ele>677.7615</ele>
        <time>2021-07-08T13:31:15Z</time>
      </trkpt>
      <trkpt lat="41.0467" lon="-6.81892">
        <ele>678.9547</ele>
        <time>2021-07-08T13:31:26Z</time>
      </trkpt>
      <trkpt lat="41.04667" lon="-6.81895">
        <ele>678.6165</ele>
        <time>2021-07-08T13:31:56Z</time>
      </trkpt>
      <trkpt lat="41.04668" lon="-6.81894">
        <ele>678.6001</ele>
        <time>2021-07-08T13:32:56Z</time>
      </trkpt>
      <trkpt lat="41.04666" lon="-6.81894">
        <ele>678.4959</ele>
        <time>2021-07-08T13:33:56Z</time>
      </trkpt>
      <trkpt lat="41.04671" lon="-6.81882">
        <ele>676.8481</ele>
        <time>2021-07-08T13:34:07Z</time>
      </trkpt>
      <trkpt lat="41.04671" lon="-6.81888">
        <ele>678.1879</ele>
        <time>2021-07-08T13:34:23Z</time>
      </trkpt>
      <trkpt lat="41.04668" lon="-6.81893">
        <ele>679.0146</ele>
        <time>2021-07-08T13:34:34Z</time>
      </trkpt>
      <trkpt lat="41.04667" lon="-6.81896">
        <ele>679.1379</ele>
        <time>2021-07-08T13:35:33Z</time>
      </trkpt>
      <trkpt lat="41.04671" lon="-6.81898">
        <ele>680.1512</ele>
        <time>2021-07-08T13:36:22Z</time>
      </trkpt>
      <trkpt lat="41.04667" lon="-6.819">
        <ele>679.124</ele>
        <time>2021-07-08T13:36:40Z</time>
      </trkpt>
      <trkpt lat="41.04669" lon="-6.81895">
        <ele>679.5809</ele>
        <time>2021-07-08T13:37:01Z</time>
      </trkpt>
      <trkpt lat="41.04667" lon="-6.81895">
        <ele>679.2553</ele>
        <time>2021-07-08T13:38:01Z</time>
      </trkpt>
      <trkpt lat="41.04668" lon="-6.81895">
        <ele>678.8986</ele>
        <time>2021-07-08T13:39:00Z</time>
      </trkpt>
      <trkpt lat="41.04666" lon="-6.81895">
        <ele>677.0951</ele>
        <time>2021-07-08T13:39:59Z</time>
      </trkpt>
      <trkpt lat="41.04666" lon="-6.8189">
        <ele>677.9374</ele>
        <time>2021-07-08T13:40:32Z</time>
      </trkpt>
      <trkpt lat="41.04666" lon="-6.8189">
        <ele>675.6998</ele>
        <time>2021-07-08T13:41:32Z</time>
      </trkpt>
      <trkpt lat="41.04666" lon="-6.8189">
        <ele>673.6355</ele>
        <time>2021-07-08T13:42:32Z</time>
      </trkpt>
      <trkpt lat="41.04666" lon="-6.81895">
        <ele>678.5826</ele>
        <time>2021-07-08T13:43:24Z</time>
      </trkpt>
      <trkpt lat="41.04666" lon="-6.81892">
        <ele>678.1879</ele>
        <time>2021-07-08T13:44:24Z</time>
      </trkpt>
      <trkpt lat="41.04666" lon="-6.81892">
        <ele>677.3975</ele>
        <time>2021-07-08T13:45:23Z</time>
      </trkpt>
      <trkpt lat="41.04667" lon="-6.81892">
        <ele>678.2728</ele>
        <time>2021-07-08T13:46:23Z</time>
      </trkpt>
      <trkpt lat="41.04666" lon="-6.81894">
        <ele>677.9482</ele>
        <time>2021-07-08T13:47:22Z</time>
      </trkpt>
      <trkpt lat="41.04667" lon="-6.81895">
        <ele>678.8022</ele>
        <time>2021-07-08T13:48:22Z</time>
      </trkpt>
      <trkpt lat="41.04667" lon="-6.81895">
        <ele>678.2074</ele>
        <time>2021-07-08T13:49:22Z</time>
      </trkpt>
      <trkpt lat="41.04666" lon="-6.81892">
        <ele>676.08</ele>
        <time>2021-07-08T13:50:21Z</time>
      </trkpt>
      <trkpt lat="41.04666" lon="-6.81893">
        <ele>678.0709</ele>
        <time>2021-07-08T13:51:20Z</time>
      </trkpt>
      <trkpt lat="41.04667" lon="-6.81894">
        <ele>678.1398</ele>
        <time>2021-07-08T13:52:18Z</time>
      </trkpt>
      <trkpt lat="41.04669" lon="-6.81899">
        <ele>679.3843</ele>
        <time>2021-07-08T13:52:52Z</time>
      </trkpt>
      <trkpt lat="41.04669" lon="-6.81894">
        <ele>679.2945</ele>
        <time>2021-07-08T13:53:24Z</time>
      </trkpt>
      <trkpt lat="41.04666" lon="-6.81893">
        <ele>678.1719</ele>
        <time>2021-07-08T13:54:23Z</time>
      </trkpt>
      <trkpt lat="41.04666" lon="-6.81894">
        <ele>677.3503</ele>
        <time>2021-07-08T13:55:22Z</time>
      </trkpt>
      <trkpt lat="41.04667" lon="-6.81898">
        <ele>678.5336</ele>
        <time>2021-07-08T13:56:20Z</time>
      </trkpt>
      <trkpt lat="41.04678" lon="-6.81898">
        <ele>679.51</ele>
        <time>2021-07-08T13:56:31Z</time>
      </trkpt>
      <trkpt lat="41.04673" lon="-6.81896">
        <ele>679.6524</ele>
        <time>2021-07-08T13:56:43Z</time>
      </trkpt>
      <trkpt lat="41.04669" lon="-6.81897">
        <ele>678.9059</ele>
        <time>2021-07-08T13:57:32Z</time>
      </trkpt>
      <trkpt lat="41.04667" lon="-6.81895">
        <ele>677.8221</ele>
        <time>2021-07-08T13:58:31Z</time>
      </trkpt>
      <trkpt lat="41.04667" lon="-6.81893">
        <ele>677.6208</ele>
        <time>2021-07-08T13:59:31Z</time>
      </trkpt>
      <trkpt lat="41.04667" lon="-6.81891">
        <ele>677.6695</ele>
        <time>2021-07-08T14:00:30Z</time>
      </trkpt>
      <trkpt lat="41.04666" lon="-6.81895">
        <ele>678.3039</ele>
        <time>2021-07-08T14:01:24Z</time>
      </trkpt>
      <trkpt lat="41.04667" lon="-6.81895">
        <ele>678.9194</ele>
        <time>2021-07-08T14:02:23Z</time>
      </trkpt>
      <trkpt lat="41.04667" lon="-6.81896">
        <ele>678.8556</ele>
        <time>2021-07-08T14:03:22Z</time>
      </trkpt>
      <trkpt lat="41.04667" lon="-6.81894">
        <ele>678.1756</ele>
        <time>2021-07-08T14:04:21Z</time>
      </trkpt>
      <trkpt lat="41.04669" lon="-6.81895">
        <ele>678.5789</ele>
        <time>2021-07-08T14:05:20Z</time>
      </trkpt>
      <trkpt lat="41.04669" lon="-6.81894">
        <ele>678.1009</ele>
        <time>2021-07-08T14:06:19Z</time>
      </trkpt>
      <trkpt lat="41.04668" lon="-6.81894">
        <ele>678.9296</ele>
        <time>2021-07-08T14:07:18Z</time>
      </trkpt>
      <trkpt lat="41.04668" lon="-6.81895">
        <ele>679.1497</ele>
        <time>2021-07-08T14:08:17Z</time>
      </trkpt>
      <trkpt lat="41.04666" lon="-6.81894">
        <ele>678.1287</ele>
        <time>2021-07-08T14:09:16Z</time>
      </trkpt>
      <trkpt lat="41.04666" lon="-6.81893">
        <ele>678.3237</ele>
        <time>2021-07-08T14:10:15Z</time>
      </trkpt>
      <trkpt lat="41.04667" lon="-6.81894">
        <ele>678.4774</ele>
        <time>2021-07-08T14:11:14Z</time>
      </trkpt>
      <trkpt lat="41.04666" lon="-6.81894">
        <ele>677.591</ele>
        <time>2021-07-08T14:12:13Z</time>
      </trkpt>
      <trkpt lat="41.04667" lon="-6.81895">
        <ele>677.8754</ele>
        <time>2021-07-08T14:13:11Z</time>
      </trkpt>
      <trkpt lat="41.04667" lon="-6.81894">
        <ele>678.3838</ele>
        <time>2021-07-08T14:14:10Z</time>
      </trkpt>
      <trkpt lat="41.04667" lon="-6.81895">
        <ele>678.3157</ele>
        <time>2021-07-08T14:15:09Z</time>
      </trkpt>
      <trkpt lat="41.04668" lon="-6.81894">
        <ele>678.3461</ele>
        <time>2021-07-08T14:16:09Z</time>
      </trkpt>
      <trkpt lat="41.04666" lon="-6.81894">
        <ele>678.2156</ele>
        <time>2021-07-08T14:17:09Z</time>
      </trkpt>
      <trkpt lat="41.04667" lon="-6.81894">
        <ele>678.0096</ele>
        <time>2021-07-08T14:18:09Z</time>
      </trkpt>
      <trkpt lat="41.04666" lon="-6.81895">
        <ele>678.4976</ele>
        <time>2021-07-08T14:19:09Z</time>
      </trkpt>
      <trkpt lat="41.04666" lon="-6.81896">
        <ele>677.7439</ele>
        <time>2021-07-08T14:20:09Z</time>
      </trkpt>
      <trkpt lat="41.04668" lon="-6.81895">
        <ele>678.9034</ele>
        <time>2021-07-08T14:21:09Z</time>
      </trkpt>
      <trkpt lat="41.04666" lon="-6.81895">
        <ele>678.0903</ele>
        <time>2021-07-08T14:22:08Z</time>
      </trkpt>
      <trkpt lat="41.04668" lon="-6.81897">
        <ele>679.361</ele>
        <time>2021-07-08T14:23:07Z</time>
      </trkpt>
      <trkpt lat="41.04668" lon="-6.81895">
        <ele>679.1122</ele>
        <time>2021-07-08T14:24:06Z</time>
      </trkpt>
      <trkpt lat="41.04667" lon="-6.81895">
        <ele>679.0682</ele>
        <time>2021-07-08T14:25:05Z</time>
      </trkpt>
      <trkpt lat="41.04669" lon="-6.81899">
        <ele>679.6414</ele>
        <time>2021-07-08T14:25:17Z</time>
      </trkpt>
      <trkpt lat="41.04669" lon="-6.81899">
        <ele>679.8909</ele>
        <time>2021-07-08T14:26:17Z</time>
      </trkpt>
      <trkpt lat="41.04669" lon="-6.81896">
        <ele>678.7917</ele>
        <time>2021-07-08T14:27:15Z</time>
      </trkpt>
      <trkpt lat="41.04669" lon="-6.81893">
        <ele>678.6702</ele>
        <time>2021-07-08T14:28:14Z</time>
      </trkpt>
      <trkpt lat="41.04669" lon="-6.81896">
        <ele>679.107</ele>
        <time>2021-07-08T14:29:13Z</time>
      </trkpt>
      <trkpt lat="41.04669" lon="-6.81896">
        <ele>679.107</ele>
        <time>2021-07-08T14:30:12Z</time>
      </trkpt>
      <trkpt lat="41.04669" lon="-6.81896">
        <ele>679.107</ele>
        <time>2021-07-08T14:31:11Z</time>
      </trkpt>
      <trkpt lat="41.0467" lon="-6.81896">
        <ele>678.9106</ele>
        <time>2021-07-08T14:32:10Z</time>
      </trkpt>
      <trkpt lat="41.04674" lon="-6.81896">
        <ele>679.2556</ele>
        <time>2021-07-08T14:32:22Z</time>
      </trkpt>
      <trkpt lat="41.04701" lon="-6.81995">
        <ele>689.1654</ele>
        <time>2021-07-08T14:32:33Z</time>
      </trkpt>
      <trkpt lat="41.0475" lon="-6.82113">
        <ele>695.32</ele>
        <time>2021-07-08T14:32:44Z</time>
      </trkpt>
      <trkpt lat="41.04716" lon="-6.82184">
        <ele>698.162</ele>
        <time>2021-07-08T14:32:55Z</time>
      </trkpt>
      <trkpt lat="41.04634" lon="-6.82268">
        <ele>699.8847</ele>
        <time>2021-07-08T14:33:06Z</time>
      </trkpt>
      <trkpt lat="41.04577" lon="-6.82413">
        <ele>701.1864</ele>
        <time>2021-07-08T14:33:17Z</time>
      </trkpt>
      <trkpt lat="41.04539" lon="-6.82567">
        <ele>700.3579</ele>
        <time>2021-07-08T14:33:28Z</time>
      </trkpt>
      <trkpt lat="41.04507" lon="-6.82708">
        <ele>696.9734</ele>
        <time>2021-07-08T14:33:39Z</time>
      </trkpt>
      <trkpt lat="41.04481" lon="-6.82857">
        <ele>685.9341</ele>
        <time>2021-07-08T14:33:50Z</time>
      </trkpt>
      <trkpt lat="41.04468" lon="-6.83023">
        <ele>687.7219</ele>
        <time>2021-07-08T14:34:01Z</time>
      </trkpt>
      <trkpt lat="41.04422" lon="-6.83165">
        <ele>697.8127</ele>
        <time>2021-07-08T14:34:12Z</time>
      </trkpt>
      <trkpt lat="41.04335" lon="-6.83262">
        <ele>703.6198</ele>
        <time>2021-07-08T14:34:23Z</time>
      </trkpt>
      <trkpt lat="41.0422" lon="-6.83346">
        <ele>691.7553</ele>
        <time>2021-07-08T14:34:34Z</time>
      </trkpt>
      <trkpt lat="41.04146" lon="-6.83451">
        <ele>689.206</ele>
        <time>2021-07-08T14:34:45Z</time>
      </trkpt>
      <trkpt lat="41.04056" lon="-6.83587">
        <ele>694.9702</ele>
        <time>2021-07-08T14:34:56Z</time>
      </trkpt>
      <trkpt lat="41.04059" lon="-6.83741">
        <ele>689.9757</ele>
        <time>2021-07-08T14:35:07Z</time>
      </trkpt>
      <trkpt lat="41.04093" lon="-6.8388">
        <ele>684.4295</ele>
        <time>2021-07-08T14:35:18Z</time>
      </trkpt>
      <trkpt lat="41.04108" lon="-6.84026">
        <ele>679.3843</ele>
        <time>2021-07-08T14:35:29Z</time>
      </trkpt>
      <trkpt lat="41.0411" lon="-6.8418">
        <ele>677.5546</ele>
        <time>2021-07-08T14:35:40Z</time>
      </trkpt>
      <trkpt lat="41.04114" lon="-6.84321">
        <ele>672.7731</ele>
        <time>2021-07-08T14:35:51Z</time>
      </trkpt>
      <trkpt lat="41.0412" lon="-6.84524">
        <ele>678.5891</ele>
        <time>2021-07-08T14:36:02Z</time>
      </trkpt>
      <trkpt lat="41.04124" lon="-6.84737">
        <ele>671.9513</ele>
        <time>2021-07-08T14:36:13Z</time>
      </trkpt>
      <trkpt lat="41.0411" lon="-6.84921">
        <ele>672.3784</ele>
        <time>2021-07-08T14:36:24Z</time>
      </trkpt>
      <trkpt lat="41.0408" lon="-6.8511">
        <ele>674.9939</ele>
        <time>2021-07-08T14:36:35Z</time>
      </trkpt>
      <trkpt lat="41.04101" lon="-6.85207">
        <ele>667.9625</ele>
        <time>2021-07-08T14:36:46Z</time>
      </trkpt>
      <trkpt lat="41.04138" lon="-6.85313">
        <ele>657.4934</ele>
        <time>2021-07-08T14:36:57Z</time>
      </trkpt>
      <trkpt lat="41.04154" lon="-6.85462">
        <ele>660.7113</ele>
        <time>2021-07-08T14:37:08Z</time>
      </trkpt>
      <trkpt lat="41.04166" lon="-6.85607">
        <ele>668.0275</ele>
        <time>2021-07-08T14:37:19Z</time>
      </trkpt>
      <trkpt lat="41.04161" lon="-6.85707">
        <ele>662.2053</ele>
        <time>2021-07-08T14:37:30Z</time>
      </trkpt>
      <trkpt lat="41.04144" lon="-6.85771">
        <ele>656.1474</ele>
        <time>2021-07-08T14:37:41Z</time>
      </trkpt>
      <trkpt lat="41.04146" lon="-6.85838">
        <ele>650.6363</ele>
        <time>2021-07-08T14:37:52Z</time>
      </trkpt>
      <trkpt lat="41.04174" lon="-6.85916">
        <ele>642.8264</ele>
        <time>2021-07-08T14:38:03Z</time>
      </trkpt>
      <trkpt lat="41.04221" lon="-6.8599">
        <ele>635.9783</ele>
        <time>2021-07-08T14:38:14Z</time>
      </trkpt>
      <trkpt lat="41.04288" lon="-6.86046">
        <ele>641.6997</ele>
        <time>2021-07-08T14:38:25Z</time>
      </trkpt>
      <trkpt lat="41.04373" lon="-6.86126">
        <ele>646.8997</ele>
        <time>2021-07-08T14:38:36Z</time>
      </trkpt>
      <trkpt lat="41.04439" lon="-6.86203">
        <ele>647.8199</ele>
        <time>2021-07-08T14:38:47Z</time>
      </trkpt>
      <trkpt lat="41.04453" lon="-6.86274">
        <ele>643.9817</ele>
        <time>2021-07-08T14:38:58Z</time>
      </trkpt>
      <trkpt lat="41.04383" lon="-6.86385">
        <ele>644.4876</ele>
        <time>2021-07-08T14:39:09Z</time>
      </trkpt>
      <trkpt lat="41.04381" lon="-6.86534">
        <ele>642.8177</ele>
        <time>2021-07-08T14:39:20Z</time>
      </trkpt>
      <trkpt lat="41.04377" lon="-6.86712">
        <ele>646.567</ele>
        <time>2021-07-08T14:39:31Z</time>
      </trkpt>
      <trkpt lat="41.04365" lon="-6.86868">
        <ele>656.0594</ele>
        <time>2021-07-08T14:39:42Z</time>
      </trkpt>
      <trkpt lat="41.04358" lon="-6.86992">
        <ele>650.0871</ele>
        <time>2021-07-08T14:39:53Z</time>
      </trkpt>
      <trkpt lat="41.04345" lon="-6.87137">
        <ele>641.781</ele>
        <time>2021-07-08T14:40:04Z</time>
      </trkpt>
      <trkpt lat="41.04338" lon="-6.87283">
        <ele>640.7671</ele>
        <time>2021-07-08T14:40:15Z</time>
      </trkpt>
      <trkpt lat="41.04353" lon="-6.87403">
        <ele>651.0718</ele>
        <time>2021-07-08T14:40:26Z</time>
      </trkpt>
      <trkpt lat="41.04366" lon="-6.87549">
        <ele>660.7472</ele>
        <time>2021-07-08T14:40:37Z</time>
      </trkpt>
      <trkpt lat="41.04371" lon="-6.87705">
        <ele>664.5859</ele>
        <time>2021-07-08T14:40:48Z</time>
      </trkpt>
      <trkpt lat="41.04356" lon="-6.87832">
        <ele>664.1514</ele>
        <time>2021-07-08T14:40:59Z</time>
      </trkpt>
      <trkpt lat="41.04339" lon="-6.87948">
        <ele>658.4399</ele>
        <time>2021-07-08T14:41:10Z</time>
      </trkpt>
      <trkpt lat="41.04357" lon="-6.88109">
        <ele>657.6029</ele>
        <time>2021-07-08T14:41:21Z</time>
      </trkpt>
      <trkpt lat="41.04321" lon="-6.88255">
        <ele>659.088</ele>
        <time>2021-07-08T14:41:32Z</time>
      </trkpt>
      <trkpt lat="41.04255" lon="-6.88369">
        <ele>662.2145</ele>
        <time>2021-07-08T14:41:43Z</time>
      </trkpt>
      <trkpt lat="41.04252" lon="-6.88491">
        <ele>655.4957</ele>
        <time>2021-07-08T14:41:54Z</time>
      </trkpt>
      <trkpt lat="41.04267" lon="-6.88578">
        <ele>657.9033</ele>
        <time>2021-07-08T14:42:05Z</time>
      </trkpt>
      <trkpt lat="41.04266" lon="-6.8856">
        <ele>657.1364</ele>
        <time>2021-07-08T14:42:16Z</time>
      </trkpt>
      <trkpt lat="41.04262" lon="-6.88526">
        <ele>654.7336</ele>
        <time>2021-07-08T14:42:27Z</time>
      </trkpt>
      <trkpt lat="41.04216" lon="-6.88498">
        <ele>648.7114</ele>
        <time>2021-07-08T14:42:38Z</time>
      </trkpt>
      <trkpt lat="41.04174" lon="-6.88478">
        <ele>646.5279</ele>
        <time>2021-07-08T14:42:49Z</time>
      </trkpt>
      <trkpt lat="41.04174" lon="-6.88499">
        <ele>642.0424</ele>
        <time>2021-07-08T14:43:00Z</time>
      </trkpt>
      <trkpt lat="41.04187" lon="-6.88548">
        <ele>636.1154</ele>
        <time>2021-07-08T14:43:11Z</time>
      </trkpt>
      <trkpt lat="41.0419" lon="-6.8863">
        <ele>635.9615</ele>
        <time>2021-07-08T14:43:22Z</time>
      </trkpt>
      <trkpt lat="41.04183" lon="-6.88714">
        <ele>634.9765</ele>
        <time>2021-07-08T14:43:33Z</time>
      </trkpt>
      <trkpt lat="41.04185" lon="-6.88758">
        <ele>631.7428</ele>
        <time>2021-07-08T14:43:44Z</time>
      </trkpt>
      <trkpt lat="41.04185" lon="-6.88802">
        <ele>624.7382</ele>
        <time>2021-07-08T14:43:55Z</time>
      </trkpt>
      <trkpt lat="41.04192" lon="-6.88866">
        <ele>617.0963</ele>
        <time>2021-07-08T14:44:06Z</time>
      </trkpt>
      <trkpt lat="41.04197" lon="-6.8892">
        <ele>610.1594</ele>
        <time>2021-07-08T14:44:17Z</time>
      </trkpt>
      <trkpt lat="41.04203" lon="-6.88986">
        <ele>602.1009</ele>
        <time>2021-07-08T14:44:28Z</time>
      </trkpt>
      <trkpt lat="41.04209" lon="-6.8905">
        <ele>594.2884</ele>
        <time>2021-07-08T14:44:39Z</time>
      </trkpt>
      <trkpt lat="41.04211" lon="-6.89121">
        <ele>585.8774</ele>
        <time>2021-07-08T14:44:50Z</time>
      </trkpt>
      <trkpt lat="41.04212" lon="-6.89198">
        <ele>573.9687</ele>
        <time>2021-07-08T14:45:01Z</time>
      </trkpt>
      <trkpt lat="41.04218" lon="-6.89246">
        <ele>568.9894</ele>
        <time>2021-07-08T14:45:12Z</time>
      </trkpt>
      <trkpt lat="41.04218" lon="-6.89245">
        <ele>569.6456</ele>
        <time>2021-07-08T14:46:12Z</time>
      </trkpt>
      <trkpt lat="41.04219" lon="-6.89251">
        <ele>569.9133</ele>
        <time>2021-07-08T14:46:44Z</time>
      </trkpt>
      <trkpt lat="41.0422" lon="-6.89258">
        <ele>567.4288</ele>
        <time>2021-07-08T14:47:35Z</time>
      </trkpt>
      <trkpt lat="41.04236" lon="-6.89303">
        <ele>563.2113</ele>
        <time>2021-07-08T14:47:46Z</time>
      </trkpt>
      <trkpt lat="41.0425" lon="-6.89344">
        <ele>555.3858</ele>
        <time>2021-07-08T14:47:57Z</time>
      </trkpt>
      <trkpt lat="41.04275" lon="-6.89409">
        <ele>547.0792</ele>
        <time>2021-07-08T14:48:08Z</time>
      </trkpt>
      <trkpt lat="41.04293" lon="-6.89486">
        <ele>537.811</ele>
        <time>2021-07-08T14:48:19Z</time>
      </trkpt>
      <trkpt lat="41.04303" lon="-6.89536">
        <ele>532.6263</ele>
        <time>2021-07-08T14:48:30Z</time>
      </trkpt>
      <trkpt lat="41.04272" lon="-6.895">
        <ele>524.6582</ele>
        <time>2021-07-08T14:48:41Z</time>
      </trkpt>
      <trkpt lat="41.04231" lon="-6.89438">
        <ele>517.5241</ele>
        <time>2021-07-08T14:48:52Z</time>
      </trkpt>
      <trkpt lat="41.04173" lon="-6.89382">
        <ele>506.1753</ele>
        <time>2021-07-08T14:49:03Z</time>
      </trkpt>
      <trkpt lat="41.04106" lon="-6.89334">
        <ele>498.663</ele>
        <time>2021-07-08T14:49:14Z</time>
      </trkpt>
      <trkpt lat="41.04075" lon="-6.89249">
        <ele>489.7053</ele>
        <time>2021-07-08T14:49:25Z</time>
      </trkpt>
      <trkpt lat="41.04045" lon="-6.89142">
        <ele>486.8457</ele>
        <time>2021-07-08T14:49:36Z</time>
      </trkpt>
      <trkpt lat="41.03992" lon="-6.89041">
        <ele>481.4327</ele>
        <time>2021-07-08T14:49:47Z</time>
      </trkpt>
      <trkpt lat="41.03958" lon="-6.88935">
        <ele>468.6191</ele>
        <time>2021-07-08T14:49:58Z</time>
      </trkpt>
      <trkpt lat="41.0393" lon="-6.88894">
        <ele>465.4441</ele>
        <time>2021-07-08T14:50:09Z</time>
      </trkpt>
      <trkpt lat="41.03935" lon="-6.88933">
        <ele>463.7287</ele>
        <time>2021-07-08T14:50:20Z</time>
      </trkpt>
      <trkpt lat="41.03927" lon="-6.89021">
        <ele>454.0207</ele>
        <time>2021-07-08T14:50:31Z</time>
      </trkpt>
      <trkpt lat="41.03878" lon="-6.89088">
        <ele>441.5903</ele>
        <time>2021-07-08T14:50:42Z</time>
      </trkpt>
      <trkpt lat="41.03882" lon="-6.89113">
        <ele>438.0236</ele>
        <time>2021-07-08T14:50:53Z</time>
      </trkpt>
      <trkpt lat="41.03923" lon="-6.8916">
        <ele>432.1485</ele>
        <time>2021-07-08T14:51:04Z</time>
      </trkpt>
      <trkpt lat="41.03954" lon="-6.89223">
        <ele>423.041</ele>
        <time>2021-07-08T14:51:15Z</time>
      </trkpt>
      <trkpt lat="41.03948" lon="-6.89302">
        <ele>421.4506</ele>
        <time>2021-07-08T14:51:26Z</time>
      </trkpt>
      <trkpt lat="41.03942" lon="-6.89313">
        <ele>418.413</ele>
        <time>2021-07-08T14:51:37Z</time>
      </trkpt>
      <trkpt lat="41.03922" lon="-6.89359">
        <ele>412.9897</ele>
        <time>2021-07-08T14:51:48Z</time>
      </trkpt>
      <trkpt lat="41.03895" lon="-6.89431">
        <ele>405.388</ele>
        <time>2021-07-08T14:51:59Z</time>
      </trkpt>
      <trkpt lat="41.03896" lon="-6.89492">
        <ele>398.9254</ele>
        <time>2021-07-08T14:52:10Z</time>
      </trkpt>
      <trkpt lat="41.03946" lon="-6.89536">
        <ele>389.8156</ele>
        <time>2021-07-08T14:52:21Z</time>
      </trkpt>
      <trkpt lat="41.03992" lon="-6.89596">
        <ele>380.122</ele>
        <time>2021-07-08T14:52:32Z</time>
      </trkpt>
      <trkpt lat="41.04009" lon="-6.89644">
        <ele>378.1791</ele>
        <time>2021-07-08T14:52:43Z</time>
      </trkpt>
      <trkpt lat="41.03961" lon="-6.89683">
        <ele>366.798</ele>
        <time>2021-07-08T14:52:54Z</time>
      </trkpt>
      <trkpt lat="41.03936" lon="-6.89741">
        <ele>359.1098</ele>
        <time>2021-07-08T14:53:05Z</time>
      </trkpt>
      <trkpt lat="41.03945" lon="-6.89799">
        <ele>350.6903</ele>
        <time>2021-07-08T14:53:16Z</time>
      </trkpt>
      <trkpt lat="41.03979" lon="-6.89825">
        <ele>345.1395</ele>
        <time>2021-07-08T14:53:27Z</time>
      </trkpt>
      <trkpt lat="41.03948" lon="-6.89834">
        <ele>338.9209</ele>
        <time>2021-07-08T14:53:38Z</time>
      </trkpt>
      <trkpt lat="41.03896" lon="-6.89827">
        <ele>333.006</ele>
        <time>2021-07-08T14:53:49Z</time>
      </trkpt>
      <trkpt lat="41.03892" lon="-6.89831">
        <ele>331.1604</ele>
        <time>2021-07-08T14:54:00Z</time>
      </trkpt>
      <trkpt lat="41.03911" lon="-6.89868">
        <ele>324.6413</ele>
        <time>2021-07-08T14:54:11Z</time>
      </trkpt>
      <trkpt lat="41.03971" lon="-6.89909">
        <ele>316.879</ele>
        <time>2021-07-08T14:54:22Z</time>
      </trkpt>
      <trkpt lat="41.03986" lon="-6.89923">
        <ele>310.7219</ele>
        <time>2021-07-08T14:54:33Z</time>
      </trkpt>
      <trkpt lat="41.03939" lon="-6.8993">
        <ele>306.5302</ele>
        <time>2021-07-08T14:54:44Z</time>
      </trkpt>
      <trkpt lat="41.03941" lon="-6.89955">
        <ele>300.0375</ele>
        <time>2021-07-08T14:54:55Z</time>
      </trkpt>
      <trkpt lat="41.03967" lon="-6.9001">
        <ele>291.825</ele>
        <time>2021-07-08T14:55:06Z</time>
      </trkpt>
      <trkpt lat="41.03935" lon="-6.90002">
        <ele>286.9835</ele>
        <time>2021-07-08T14:55:17Z</time>
      </trkpt>
      <trkpt lat="41.03918" lon="-6.89999">
        <ele>284.0289</ele>
        <time>2021-07-08T14:55:28Z</time>
      </trkpt>
      <trkpt lat="41.03928" lon="-6.90047">
        <ele>281.1079</ele>
        <time>2021-07-08T14:55:39Z</time>
      </trkpt>
      <trkpt lat="41.03945" lon="-6.90075">
        <ele>277.1244</ele>
        <time>2021-07-08T14:55:50Z</time>
      </trkpt>
      <trkpt lat="41.03998" lon="-6.90056">
        <ele>273.0404</ele>
        <time>2021-07-08T14:56:01Z</time>
      </trkpt>
      <trkpt lat="41.04043" lon="-6.90016">
        <ele>263.8887</ele>
        <time>2021-07-08T14:56:12Z</time>
      </trkpt>
      <trkpt lat="41.04076" lon="-6.90024">
        <ele>262.2985</ele>
        <time>2021-07-08T14:56:23Z</time>
      </trkpt>
      <trkpt lat="41.04112" lon="-6.90071">
        <ele>252.5878</ele>
        <time>2021-07-08T14:56:34Z</time>
      </trkpt>
      <trkpt lat="41.04168" lon="-6.90092">
        <ele>243.1845</ele>
        <time>2021-07-08T14:56:45Z</time>
      </trkpt>
      <trkpt lat="41.0417" lon="-6.90155">
        <ele>239.4592</ele>
        <time>2021-07-08T14:56:56Z</time>
      </trkpt>
      <trkpt lat="41.04155" lon="-6.90221">
        <ele>229.6791</ele>
        <time>2021-07-08T14:57:07Z</time>
      </trkpt>
      <trkpt lat="41.04139" lon="-6.90203">
        <ele>222.4978</ele>
        <time>2021-07-08T14:57:18Z</time>
      </trkpt>
      <trkpt lat="41.04119" lon="-6.90166">
        <ele>220.15</ele>
        <time>2021-07-08T14:57:29Z</time>
      </trkpt>
      <trkpt lat="41.04119" lon="-6.90172">
        <ele>219.0292</ele>
        <time>2021-07-08T14:57:51Z</time>
      </trkpt>
      <trkpt lat="41.04114" lon="-6.9021">
        <ele>215.3897</ele>
        <time>2021-07-08T14:58:02Z</time>
      </trkpt>
      <trkpt lat="41.04081" lon="-6.90268">
        <ele>207.5857</ele>
        <time>2021-07-08T14:58:13Z</time>
      </trkpt>
      <trkpt lat="41.04055" lon="-6.90335">
        <ele>198.784</ele>
        <time>2021-07-08T14:58:24Z</time>
      </trkpt>
      <trkpt lat="41.04085" lon="-6.90387">
        <ele>194.9002</ele>
        <time>2021-07-08T14:58:35Z</time>
      </trkpt>
      <trkpt lat="41.04054" lon="-6.90376">
        <ele>191.5405</ele>
        <time>2021-07-08T14:58:46Z</time>
      </trkpt>
      <trkpt lat="41.04025" lon="-6.90308">
        <ele>189.507</ele>
        <time>2021-07-08T14:58:57Z</time>
      </trkpt>
      <trkpt lat="41.04008" lon="-6.90258">
        <ele>191.7507</ele>
        <time>2021-07-08T14:59:08Z</time>
      </trkpt>
      <trkpt lat="41.0394" lon="-6.90299">
        <ele>190.7426</ele>
        <time>2021-07-08T14:59:19Z</time>
      </trkpt>
      <trkpt lat="41.03923" lon="-6.9037">
        <ele>179.7257</ele>
        <time>2021-07-08T14:59:30Z</time>
      </trkpt>
      <trkpt lat="41.03942" lon="-6.90437">
        <ele>170.2837</ele>
        <time>2021-07-08T14:59:41Z</time>
      </trkpt>
      <trkpt lat="41.03933" lon="-6.90538">
        <ele>162.5632</ele>
        <time>2021-07-08T14:59:52Z</time>
      </trkpt>
      <trkpt lat="41.03889" lon="-6.90536">
        <ele>160.2429</ele>
        <time>2021-07-08T15:00:03Z</time>
      </trkpt>
      <trkpt lat="41.03865" lon="-6.90502">
        <ele>156.9387</ele>
        <time>2021-07-08T15:00:14Z</time>
      </trkpt>
      <trkpt lat="41.0386" lon="-6.90528">
        <ele>154.116</ele>
        <time>2021-07-08T15:00:25Z</time>
      </trkpt>
      <trkpt lat="41.03885" lon="-6.90598">
        <ele>140.6489</ele>
        <time>2021-07-08T15:00:36Z</time>
      </trkpt>
      <trkpt lat="41.03855" lon="-6.90594">
        <ele>136.6227</ele>
        <time>2021-07-08T15:00:47Z</time>
      </trkpt>
      <trkpt lat="41.03796" lon="-6.90632">
        <ele>138.3576</ele>
        <time>2021-07-08T15:00:58Z</time>
      </trkpt>
      <trkpt lat="41.03781" lon="-6.90682">
        <ele>135.4058</ele>
        <time>2021-07-08T15:01:09Z</time>
      </trkpt>
      <trkpt lat="41.03821" lon="-6.90859">
        <ele>139.7251</ele>
        <time>2021-07-08T15:01:20Z</time>
      </trkpt>
      <trkpt lat="41.03897" lon="-6.91048">
        <ele>140.7899</ele>
        <time>2021-07-08T15:01:31Z</time>
      </trkpt>
      <trkpt lat="41.03935" lon="-6.91267">
        <ele>140.3449</ele>
        <time>2021-07-08T15:01:42Z</time>
      </trkpt>
      <trkpt lat="41.03972" lon="-6.91527">
        <ele>140.7035</ele>
        <time>2021-07-08T15:01:53Z</time>
      </trkpt>
      <trkpt lat="41.03986" lon="-6.91735">
        <ele>143.0604</ele>
        <time>2021-07-08T15:02:04Z</time>
      </trkpt>
      <trkpt lat="41.03919" lon="-6.91924">
        <ele>141.2717</ele>
        <time>2021-07-08T15:02:15Z</time>
      </trkpt>
      <trkpt lat="41.03854" lon="-6.92106">
        <ele>144.8533</ele>
        <time>2021-07-08T15:02:26Z</time>
      </trkpt>
      <trkpt lat="41.03727" lon="-6.92279">
        <ele>142.2112</ele>
        <time>2021-07-08T15:02:37Z</time>
      </trkpt>
      <trkpt lat="41.03554" lon="-6.9241">
        <ele>138.9094</ele>
        <time>2021-07-08T15:02:48Z</time>
      </trkpt>
      <trkpt lat="41.03434" lon="-6.92592">
        <ele>136.1839</ele>
        <time>2021-07-08T15:02:59Z</time>
      </trkpt>
      <trkpt lat="41.03319" lon="-6.92788">
        <ele>141.2509</ele>
        <time>2021-07-08T15:03:10Z</time>
      </trkpt>
      <trkpt lat="41.03237" lon="-6.92967">
        <ele>145.5388</ele>
        <time>2021-07-08T15:03:21Z</time>
      </trkpt>
      <trkpt lat="41.03155" lon="-6.93183">
        <ele>147.5396</ele>
        <time>2021-07-08T15:03:32Z</time>
      </trkpt>
      <trkpt lat="41.03177" lon="-6.93382">
        <ele>149.3239</ele>
        <time>2021-07-08T15:03:43Z</time>
      </trkpt>
      <trkpt lat="41.03161" lon="-6.93573">
        <ele>151.3513</ele>
        <time>2021-07-08T15:03:54Z</time>
      </trkpt>
      <trkpt lat="41.03089" lon="-6.93787">
        <ele>153.6181</ele>
        <time>2021-07-08T15:04:05Z</time>
      </trkpt>
      <trkpt lat="41.03087" lon="-6.94021">
        <ele>146.1453</ele>
        <time>2021-07-08T15:04:16Z</time>
      </trkpt>
      <trkpt lat="41.0301" lon="-6.94137">
        <ele>137.2155</ele>
        <time>2021-07-08T15:04:27Z</time>
      </trkpt>
      <trkpt lat="41.0286" lon="-6.94156">
        <ele>123.6748</ele>
        <time>2021-07-08T15:04:38Z</time>
      </trkpt>
      <trkpt lat="41.02774" lon="-6.94126">
        <ele>125.3938</ele>
        <time>2021-07-08T15:04:49Z</time>
      </trkpt>
      <trkpt lat="41.0274" lon="-6.94064">
        <ele>135.7404</ele>
        <time>2021-07-08T15:05:00Z</time>
      </trkpt>
      <trkpt lat="41.02785" lon="-6.94171">
        <ele>137.6965</ele>
        <time>2021-07-08T15:05:11Z</time>
      </trkpt>
      <trkpt lat="41.02828" lon="-6.94293">
        <ele>138.9259</ele>
        <time>2021-07-08T15:05:22Z</time>
      </trkpt>
      <trkpt lat="41.02849" lon="-6.94404">
        <ele>134.7762</ele>
        <time>2021-07-08T15:05:33Z</time>
      </trkpt>
      <trkpt lat="41.02854" lon="-6.94557">
        <ele>115.652</ele>
        <time>2021-07-08T15:05:44Z</time>
      </trkpt>
      <trkpt lat="41.02845" lon="-6.94679">
        <ele>46.96827</ele>
        <time>2021-07-08T15:05:55Z</time>
      </trkpt>
      <trkpt lat="41.02803" lon="-6.94699">
        <ele>144.0554</ele>
        <time>2021-07-08T15:06:06Z</time>
      </trkpt>
      <trkpt lat="41.02715" lon="-6.94713">
        <ele>147.7812</ele>
        <time>2021-07-08T15:06:17Z</time>
      </trkpt>
      <trkpt lat="41.02653" lon="-6.94763">
        <ele>154.2548</ele>
        <time>2021-07-08T15:06:28Z</time>
      </trkpt>
      <trkpt lat="41.02712" lon="-6.94786">
        <ele>156.5212</ele>
        <time>2021-07-08T15:06:39Z</time>
      </trkpt>
      <trkpt lat="41.0277" lon="-6.94818">
        <ele>161.1773</ele>
        <time>2021-07-08T15:06:50Z</time>
      </trkpt>
      <trkpt lat="41.02759" lon="-6.94826">
        <ele>163.244</ele>
        <time>2021-07-08T15:07:01Z</time>
      </trkpt>
      <trkpt lat="41.02763" lon="-6.94898">
        <ele>169.8271</ele>
        <time>2021-07-08T15:07:12Z</time>
      </trkpt>
      <trkpt lat="41.0275" lon="-6.94962">
        <ele>171.8393</ele>
        <time>2021-07-08T15:07:23Z</time>
      </trkpt>
      <trkpt lat="41.02745" lon="-6.94985">
        <ele>174.3833</ele>
        <time>2021-07-08T15:07:34Z</time>
      </trkpt>
      <trkpt lat="41.02745" lon="-6.94984">
        <ele>174.2916</ele>
        <time>2021-07-08T15:08:33Z</time>
      </trkpt>
      <trkpt lat="41.02746" lon="-6.94984">
        <ele>174.4896</ele>
        <time>2021-07-08T15:09:33Z</time>
      </trkpt>
      <trkpt lat="41.02741" lon="-6.95014">
        <ele>176.1599</ele>
        <time>2021-07-08T15:09:44Z</time>
      </trkpt>
      <trkpt lat="41.02733" lon="-6.95096">
        <ele>179.081</ele>
        <time>2021-07-08T15:09:55Z</time>
      </trkpt>
      <trkpt lat="41.02717" lon="-6.95045">
        <ele>185.1308</ele>
        <time>2021-07-08T15:10:06Z</time>
      </trkpt>
      <trkpt lat="41.02695" lon="-6.94932">
        <ele>192.2664</ele>
        <time>2021-07-08T15:10:17Z</time>
      </trkpt>
      <trkpt lat="41.02668" lon="-6.94956">
        <ele>198.5482</ele>
        <time>2021-07-08T15:10:28Z</time>
      </trkpt>
      <trkpt lat="41.02641" lon="-6.95062">
        <ele>215.0027</ele>
        <time>2021-07-08T15:10:39Z</time>
      </trkpt>
      <trkpt lat="41.02589" lon="-6.95135">
        <ele>229.2975</ele>
        <time>2021-07-08T15:10:50Z</time>
      </trkpt>
      <trkpt lat="41.02565" lon="-6.95197">
        <ele>224.3205</ele>
        <time>2021-07-08T15:11:01Z</time>
      </trkpt>
      <trkpt lat="41.0252" lon="-6.95249">
        <ele>212.0986</ele>
        <time>2021-07-08T15:11:12Z</time>
      </trkpt>
      <trkpt lat="41.02472" lon="-6.953">
        <ele>208.9073</ele>
        <time>2021-07-08T15:11:23Z</time>
      </trkpt>
      <trkpt lat="41.02469" lon="-6.95346">
        <ele>214.7439</ele>
        <time>2021-07-08T15:11:34Z</time>
      </trkpt>
      <trkpt lat="41.02453" lon="-6.95391">
        <ele>220.9343</ele>
        <time>2021-07-08T15:11:45Z</time>
      </trkpt>
      <trkpt lat="41.02409" lon="-6.95428">
        <ele>230.8086</ele>
        <time>2021-07-08T15:11:56Z</time>
      </trkpt>
      <trkpt lat="41.02338" lon="-6.95384">
        <ele>237.0585</ele>
        <time>2021-07-08T15:12:07Z</time>
      </trkpt>
      <trkpt lat="41.0225" lon="-6.95432">
        <ele>241.383</ele>
        <time>2021-07-08T15:12:18Z</time>
      </trkpt>
      <trkpt lat="41.02154" lon="-6.95465">
        <ele>252.3919</ele>
        <time>2021-07-08T15:12:29Z</time>
      </trkpt>
      <trkpt lat="41.02058" lon="-6.95492">
        <ele>265.8796</ele>
        <time>2021-07-08T15:12:40Z</time>
      </trkpt>
      <trkpt lat="41.01985" lon="-6.9551">
        <ele>264.1062</ele>
        <time>2021-07-08T15:12:51Z</time>
      </trkpt>
      <trkpt lat="41.01907" lon="-6.95518">
        <ele>262.34</ele>
        <time>2021-07-08T15:13:02Z</time>
      </trkpt>
      <trkpt lat="41.01835" lon="-6.95529">
        <ele>257.9117</ele>
        <time>2021-07-08T15:13:13Z</time>
      </trkpt>
      <trkpt lat="41.01808" lon="-6.95535">
        <ele>251.1719</ele>
        <time>2021-07-08T15:13:24Z</time>
      </trkpt>
      <trkpt lat="41.01806" lon="-6.95535">
        <ele>251.4229</ele>
        <time>2021-07-08T15:14:24Z</time>
      </trkpt>
      <trkpt lat="41.01802" lon="-6.95536">
        <ele>250.5231</ele>
        <time>2021-07-08T15:14:54Z</time>
      </trkpt>
      <trkpt lat="41.01731" lon="-6.95552">
        <ele>248.4936</ele>
        <time>2021-07-08T15:15:05Z</time>
      </trkpt>
      <trkpt lat="41.01655" lon="-6.95565">
        <ele>242.6724</ele>
        <time>2021-07-08T15:15:16Z</time>
      </trkpt>
      <trkpt lat="41.01593" lon="-6.95569">
        <ele>235.5649</ele>
        <time>2021-07-08T15:15:27Z</time>
      </trkpt>
      <trkpt lat="41.01521" lon="-6.95596">
        <ele>230.7164</ele>
        <time>2021-07-08T15:15:38Z</time>
      </trkpt>
      <trkpt lat="41.01439" lon="-6.95641">
        <ele>225.5842</ele>
        <time>2021-07-08T15:15:49Z</time>
      </trkpt>
      <trkpt lat="41.01379" lon="-6.95679">
        <ele>222.0851</ele>
        <time>2021-07-08T15:16:00Z</time>
      </trkpt>
      <trkpt lat="41.01286" lon="-6.95697">
        <ele>234.6836</ele>
        <time>2021-07-08T15:16:11Z</time>
      </trkpt>
      <trkpt lat="41.01181" lon="-6.95708">
        <ele>253.846</ele>
        <time>2021-07-08T15:16:22Z</time>
      </trkpt>
      <trkpt lat="41.0109" lon="-6.95692">
        <ele>268.6538</ele>
        <time>2021-07-08T15:16:33Z</time>
      </trkpt>
      <trkpt lat="41.01025" lon="-6.95645">
        <ele>255.0092</ele>
        <time>2021-07-08T15:16:44Z</time>
      </trkpt>
      <trkpt lat="41.00981" lon="-6.95564">
        <ele>255.3198</ele>
        <time>2021-07-08T15:16:55Z</time>
      </trkpt>
      <trkpt lat="41.00963" lon="-6.95453">
        <ele>262.9033</ele>
        <time>2021-07-08T15:17:06Z</time>
      </trkpt>
      <trkpt lat="41.00911" lon="-6.95368">
        <ele>265.8126</ele>
        <time>2021-07-08T15:17:17Z</time>
      </trkpt>
      <trkpt lat="41.00876" lon="-6.95254">
        <ele>271.0457</ele>
        <time>2021-07-08T15:17:28Z</time>
      </trkpt>
      <trkpt lat="41.00824" lon="-6.95162">
        <ele>273.3104</ele>
        <time>2021-07-08T15:17:39Z</time>
      </trkpt>
      <trkpt lat="41.00808" lon="-6.95103">
        <ele>278.0149</ele>
        <time>2021-07-08T15:17:50Z</time>
      </trkpt>
      <trkpt lat="41.00788" lon="-6.94994">
        <ele>277.0897</ele>
        <time>2021-07-08T15:18:01Z</time>
      </trkpt>
      <trkpt lat="41.00747" lon="-6.94908">
        <ele>279.8961</ele>
        <time>2021-07-08T15:18:12Z</time>
      </trkpt>
      <trkpt lat="41.00712" lon="-6.94864">
        <ele>287.3625</ele>
        <time>2021-07-08T15:18:23Z</time>
      </trkpt>
      <trkpt lat="41.00633" lon="-6.9489">
        <ele>289.6214</ele>
        <time>2021-07-08T15:18:34Z</time>
      </trkpt>
      <trkpt lat="41.0059" lon="-6.94853">
        <ele>291.9554</ele>
        <time>2021-07-08T15:18:45Z</time>
      </trkpt>
      <trkpt lat="41.0062" lon="-6.94828">
        <ele>282.9992</ele>
        <time>2021-07-08T15:18:56Z</time>
      </trkpt>
      <trkpt lat="41.00639" lon="-6.94801">
        <ele>277.8473</ele>
        <time>2021-07-08T15:19:07Z</time>
      </trkpt>
      <trkpt lat="41.0066" lon="-6.947">
        <ele>267.7781</ele>
        <time>2021-07-08T15:19:18Z</time>
      </trkpt>
      <trkpt lat="41.00627" lon="-6.94615">
        <ele>259.6354</ele>
        <time>2021-07-08T15:19:29Z</time>
      </trkpt>
      <trkpt lat="41.00589" lon="-6.94569">
        <ele>254.6106</ele>
        <time>2021-07-08T15:19:40Z</time>
      </trkpt>
      <trkpt lat="41.00603" lon="-6.9447">
        <ele>248.1104</ele>
        <time>2021-07-08T15:19:51Z</time>
      </trkpt>
      <trkpt lat="41.00631" lon="-6.94367">
        <ele>244.0303</ele>
        <time>2021-07-08T15:20:02Z</time>
      </trkpt>
      <trkpt lat="41.00647" lon="-6.94257">
        <ele>232.2607</ele>
        <time>2021-07-08T15:20:13Z</time>
      </trkpt>
      <trkpt lat="41.00657" lon="-6.94151">
        <ele>227.0472</ele>
        <time>2021-07-08T15:20:24Z</time>
      </trkpt>
      <trkpt lat="41.00658" lon="-6.94066">
        <ele>228.6824</ele>
        <time>2021-07-08T15:20:35Z</time>
      </trkpt>
      <trkpt lat="41.00672" lon="-6.93983">
        <ele>223.0544</ele>
        <time>2021-07-08T15:20:46Z</time>
      </trkpt>
      <trkpt lat="41.00716" lon="-6.93907">
        <ele>209.7499</ele>
        <time>2021-07-08T15:20:57Z</time>
      </trkpt>
      <trkpt lat="41.00701" lon="-6.93843">
        <ele>205.9675</ele>
        <time>2021-07-08T15:21:08Z</time>
      </trkpt>
      <trkpt lat="41.0064" lon="-6.9386">
        <ele>207.5516</ele>
        <time>2021-07-08T15:21:19Z</time>
      </trkpt>
      <trkpt lat="41.00612" lon="-6.93839">
        <ele>205.5009</ele>
        <time>2021-07-08T15:21:30Z</time>
      </trkpt>
      <trkpt lat="41.00592" lon="-6.93762">
        <ele>200.1194</ele>
        <time>2021-07-08T15:21:41Z</time>
      </trkpt>
      <trkpt lat="41.00558" lon="-6.93706">
        <ele>196.6874</ele>
        <time>2021-07-08T15:21:52Z</time>
      </trkpt>
      <trkpt lat="41.00489" lon="-6.93734">
        <ele>195.4278</ele>
        <time>2021-07-08T15:22:03Z</time>
      </trkpt>
      <trkpt lat="41.0042" lon="-6.93739">
        <ele>190.8485</ele>
        <time>2021-07-08T15:22:14Z</time>
      </trkpt>
      <trkpt lat="41.00418" lon="-6.93682">
        <ele>185.1108</ele>
        <time>2021-07-08T15:22:25Z</time>
      </trkpt>
      <trkpt lat="41.00482" lon="-6.93629">
        <ele>183.3384</ele>
        <time>2021-07-08T15:22:36Z</time>
      </trkpt>
      <trkpt lat="41.00508" lon="-6.93544">
        <ele>184.671</ele>
        <time>2021-07-08T15:22:47Z</time>
      </trkpt>
      <trkpt lat="41.00545" lon="-6.93486">
        <ele>183.9222</ele>
        <time>2021-07-08T15:22:58Z</time>
      </trkpt>
      <trkpt lat="41.0058" lon="-6.93459">
        <ele>182.8743</ele>
        <time>2021-07-08T15:23:09Z</time>
      </trkpt>
      <trkpt lat="41.00553" lon="-6.93368">
        <ele>198.0795</ele>
        <time>2021-07-08T15:23:20Z</time>
      </trkpt>
      <trkpt lat="41.00505" lon="-6.93338">
        <ele>211.9291</ele>
        <time>2021-07-08T15:23:31Z</time>
      </trkpt>
      <trkpt lat="41.00478" lon="-6.93301">
        <ele>220.4886</ele>
        <time>2021-07-08T15:23:42Z</time>
      </trkpt>
      <trkpt lat="41.00452" lon="-6.93234">
        <ele>233.1143</ele>
        <time>2021-07-08T15:23:53Z</time>
      </trkpt>
      <trkpt lat="41.00496" lon="-6.93138">
        <ele>249.296</ele>
        <time>2021-07-08T15:24:04Z</time>
      </trkpt>
      <trkpt lat="41.0053" lon="-6.93053">
        <ele>264.1277</ele>
        <time>2021-07-08T15:24:15Z</time>
      </trkpt>
      <trkpt lat="41.00517" lon="-6.93038">
        <ele>273.979</ele>
        <time>2021-07-08T15:24:26Z</time>
      </trkpt>
      <trkpt lat="41.00501" lon="-6.93025">
        <ele>279.9495</ele>
        <time>2021-07-08T15:24:37Z</time>
      </trkpt>
      <trkpt lat="41.00565" lon="-6.9298">
        <ele>288.4365</ele>
        <time>2021-07-08T15:24:48Z</time>
      </trkpt>
      <trkpt lat="41.00565" lon="-6.9298">
        <ele>288.3336</ele>
        <time>2021-07-08T15:25:48Z</time>
      </trkpt>
      <trkpt lat="41.0057" lon="-6.92976">
        <ele>288.7341</ele>
        <time>2021-07-08T15:26:00Z</time>
      </trkpt>
      <trkpt lat="41.00581" lon="-6.92937">
        <ele>294.2975</ele>
        <time>2021-07-08T15:26:11Z</time>
      </trkpt>
      <trkpt lat="41.00577" lon="-6.92936">
        <ele>293.4187</ele>
        <time>2021-07-08T15:27:04Z</time>
      </trkpt>
      <trkpt lat="41.00496" lon="-6.92922">
        <ele>307.6302</ele>
        <time>2021-07-08T15:27:15Z</time>
      </trkpt>
      <trkpt lat="41.00415" lon="-6.92951">
        <ele>325.3072</ele>
        <time>2021-07-08T15:27:26Z</time>
      </trkpt>
      <trkpt lat="41.0035" lon="-6.92976">
        <ele>345.142</ele>
        <time>2021-07-08T15:27:37Z</time>
      </trkpt>
      <trkpt lat="41.00302" lon="-6.92955">
        <ele>360.7428</ele>
        <time>2021-07-08T15:27:48Z</time>
      </trkpt>
      <trkpt lat="41.00293" lon="-6.92958">
        <ele>362.5964</ele>
        <time>2021-07-08T15:27:59Z</time>
      </trkpt>
      <trkpt lat="41.00287" lon="-6.9296">
        <ele>365.3148</ele>
        <time>2021-07-08T15:28:44Z</time>
      </trkpt>
      <trkpt lat="41.00239" lon="-6.92976">
        <ele>377.0201</ele>
        <time>2021-07-08T15:28:55Z</time>
      </trkpt>
      <trkpt lat="41.00187" lon="-6.93009">
        <ele>390.6956</ele>
        <time>2021-07-08T15:29:06Z</time>
      </trkpt>
      <trkpt lat="41.00126" lon="-6.9304">
        <ele>408.4391</ele>
        <time>2021-07-08T15:29:17Z</time>
      </trkpt>
      <trkpt lat="41.00126" lon="-6.93038">
        <ele>408.9829</ele>
        <time>2021-07-08T15:30:17Z</time>
      </trkpt>
      <trkpt lat="41.00122" lon="-6.93041">
        <ele>408.0797</ele>
        <time>2021-07-08T15:30:32Z</time>
      </trkpt>
      <trkpt lat="41.00032" lon="-6.93059">
        <ele>420.6354</ele>
        <time>2021-07-08T15:30:43Z</time>
      </trkpt>
      <trkpt lat="40.99983" lon="-6.93007">
        <ele>435.3451</ele>
        <time>2021-07-08T15:30:54Z</time>
      </trkpt>
      <trkpt lat="40.99919" lon="-6.92973">
        <ele>449.8118</ele>
        <time>2021-07-08T15:31:05Z</time>
      </trkpt>
      <trkpt lat="40.99863" lon="-6.92937">
        <ele>460.9836</ele>
        <time>2021-07-08T15:31:16Z</time>
      </trkpt>
      <trkpt lat="40.99851" lon="-6.92924">
        <ele>458.1154</ele>
        <time>2021-07-08T15:31:27Z</time>
      </trkpt>
      <trkpt lat="40.99852" lon="-6.92927">
        <ele>457.2868</ele>
        <time>2021-07-08T15:32:27Z</time>
      </trkpt>
      <trkpt lat="40.9985" lon="-6.92923">
        <ele>457.3649</ele>
        <time>2021-07-08T15:32:55Z</time>
      </trkpt>
      <trkpt lat="40.99846" lon="-6.92916">
        <ele>457.825</ele>
        <time>2021-07-08T15:33:06Z</time>
      </trkpt>
      <trkpt lat="40.99845" lon="-6.9292">
        <ele>458.4528</ele>
        <time>2021-07-08T15:34:06Z</time>
      </trkpt>
      <trkpt lat="40.99844" lon="-6.92919">
        <ele>457.8924</ele>
        <time>2021-07-08T15:35:06Z</time>
      </trkpt>
      <trkpt lat="40.99845" lon="-6.92919">
        <ele>458.0421</ele>
        <time>2021-07-08T15:36:06Z</time>
      </trkpt>
      <trkpt lat="40.99846" lon="-6.92918">
        <ele>458.0516</ele>
        <time>2021-07-08T15:37:06Z</time>
      </trkpt>
      <trkpt lat="40.99845" lon="-6.92917">
        <ele>457.8327</ele>
        <time>2021-07-08T15:38:06Z</time>
      </trkpt>
      <trkpt lat="40.99846" lon="-6.92917">
        <ele>457.9805</ele>
        <time>2021-07-08T15:39:05Z</time>
      </trkpt>
      <trkpt lat="40.99845" lon="-6.92919">
        <ele>457.5698</ele>
        <time>2021-07-08T15:40:05Z</time>
      </trkpt>
      <trkpt lat="40.99843" lon="-6.9292">
        <ele>458.3201</ele>
        <time>2021-07-08T15:41:04Z</time>
      </trkpt>
      <trkpt lat="40.99847" lon="-6.9292">
        <ele>458.2959</ele>
        <time>2021-07-08T15:41:17Z</time>
      </trkpt>
      <trkpt lat="40.99852" lon="-6.92926">
        <ele>457.8946</ele>
        <time>2021-07-08T15:41:28Z</time>
      </trkpt>
      <trkpt lat="40.99852" lon="-6.92925">
        <ele>457.4572</ele>
        <time>2021-07-08T15:42:27Z</time>
      </trkpt>
      <trkpt lat="40.99852" lon="-6.92925">
        <ele>457.9113</ele>
        <time>2021-07-08T15:43:27Z</time>
      </trkpt>
      <trkpt lat="40.99835" lon="-6.929">
        <ele>459.0756</ele>
        <time>2021-07-08T15:43:38Z</time>
      </trkpt>
      <trkpt lat="40.99742" lon="-6.92854">
        <ele>462.7434</ele>
        <time>2021-07-08T15:43:49Z</time>
      </trkpt>
      <trkpt lat="40.99648" lon="-6.92839">
        <ele>466.34</ele>
        <time>2021-07-08T15:44:00Z</time>
      </trkpt>
      <trkpt lat="40.99567" lon="-6.92863">
        <ele>467.9207</ele>
        <time>2021-07-08T15:44:11Z</time>
      </trkpt>
      <trkpt lat="40.9951" lon="-6.92901">
        <ele>460.1442</ele>
        <time>2021-07-08T15:44:22Z</time>
      </trkpt>
      <trkpt lat="40.99444" lon="-6.92872">
        <ele>461.0024</ele>
        <time>2021-07-08T15:44:33Z</time>
      </trkpt>
      <trkpt lat="40.99379" lon="-6.92815">
        <ele>467.966</ele>
        <time>2021-07-08T15:44:44Z</time>
      </trkpt>
      <trkpt lat="40.99313" lon="-6.92761">
        <ele>469.8042</ele>
        <time>2021-07-08T15:44:55Z</time>
      </trkpt>
      <trkpt lat="40.99264" lon="-6.92668">
        <ele>466.0501</ele>
        <time>2021-07-08T15:45:06Z</time>
      </trkpt>
      <trkpt lat="40.99185" lon="-6.92585">
        <ele>462.977</ele>
        <time>2021-07-08T15:45:17Z</time>
      </trkpt>
      <trkpt lat="40.99109" lon="-6.92505">
        <ele>463.7151</ele>
        <time>2021-07-08T15:45:29Z</time>
      </trkpt>
      <trkpt lat="40.99025" lon="-6.92475">
        <ele>470.5417</ele>
        <time>2021-07-08T15:45:40Z</time>
      </trkpt>
      <trkpt lat="40.98977" lon="-6.92537">
        <ele>478.5505</ele>
        <time>2021-07-08T15:45:51Z</time>
      </trkpt>
      <trkpt lat="40.98917" lon="-6.92606">
        <ele>482.3099</ele>
        <time>2021-07-08T15:46:02Z</time>
      </trkpt>
      <trkpt lat="40.98887" lon="-6.92541">
        <ele>492.1531</ele>
        <time>2021-07-08T15:46:13Z</time>
      </trkpt>
      <trkpt lat="40.98877" lon="-6.92454">
        <ele>495.9834</ele>
        <time>2021-07-08T15:46:24Z</time>
      </trkpt>
      <trkpt lat="40.98848" lon="-6.92388">
        <ele>494.8812</ele>
        <time>2021-07-08T15:46:35Z</time>
      </trkpt>
      <trkpt lat="40.98804" lon="-6.92366">
        <ele>501.5554</ele>
        <time>2021-07-08T15:46:46Z</time>
      </trkpt>
      <trkpt lat="40.98759" lon="-6.92355">
        <ele>506.1701</ele>
        <time>2021-07-08T15:46:57Z</time>
      </trkpt>
      <trkpt lat="40.98729" lon="-6.92324">
        <ele>508.5369</ele>
        <time>2021-07-08T15:47:08Z</time>
      </trkpt>
      <trkpt lat="40.98691" lon="-6.92311">
        <ele>513.2064</ele>
        <time>2021-07-08T15:47:19Z</time>
      </trkpt>
      <trkpt lat="40.98686" lon="-6.92297">
        <ele>515.097</ele>
        <time>2021-07-08T15:47:30Z</time>
      </trkpt>
      <trkpt lat="40.98683" lon="-6.92273">
        <ele>517.7564</ele>
        <time>2021-07-08T15:47:41Z</time>
      </trkpt>
      <trkpt lat="40.98677" lon="-6.92244">
        <ele>517.8835</ele>
        <time>2021-07-08T15:47:52Z</time>
      </trkpt>
      <trkpt lat="40.98674" lon="-6.92233">
        <ele>517.9016</ele>
        <time>2021-07-08T15:48:03Z</time>
      </trkpt>
      <trkpt lat="40.98672" lon="-6.92227">
        <ele>518.4339</ele>
        <time>2021-07-08T15:48:28Z</time>
      </trkpt>
      <trkpt lat="40.98664" lon="-6.92215">
        <ele>519.7326</ele>
        <time>2021-07-08T15:48:39Z</time>
      </trkpt>
      <trkpt lat="40.98649" lon="-6.92205">
        <ele>523.5866</ele>
        <time>2021-07-08T15:48:50Z</time>
      </trkpt>
      <trkpt lat="40.98625" lon="-6.92196">
        <ele>527.4426</ele>
        <time>2021-07-08T15:49:01Z</time>
      </trkpt>
      <trkpt lat="40.98622" lon="-6.92191">
        <ele>527.9855</ele>
        <time>2021-07-08T15:49:12Z</time>
      </trkpt>
      <trkpt lat="40.98622" lon="-6.92187">
        <ele>528.883</ele>
        <time>2021-07-08T15:50:10Z</time>
      </trkpt>
      <trkpt lat="40.9861" lon="-6.92193">
        <ele>529.7844</ele>
        <time>2021-07-08T15:50:21Z</time>
      </trkpt>
      <trkpt lat="40.98603" lon="-6.92198">
        <ele>530.5939</ele>
        <time>2021-07-08T15:50:32Z</time>
      </trkpt>
      <trkpt lat="40.98585" lon="-6.92197">
        <ele>535.4747</ele>
        <time>2021-07-08T15:50:43Z</time>
      </trkpt>
      <trkpt lat="40.98567" lon="-6.92192">
        <ele>536.1981</ele>
        <time>2021-07-08T15:50:54Z</time>
      </trkpt>
      <trkpt lat="40.98545" lon="-6.92192">
        <ele>536.5263</ele>
        <time>2021-07-08T15:51:05Z</time>
      </trkpt>
      <trkpt lat="40.98546" lon="-6.92192">
        <ele>536.4541</ele>
        <time>2021-07-08T15:52:05Z</time>
      </trkpt>
      <trkpt lat="40.98544" lon="-6.92194">
        <ele>537.079</ele>
        <time>2021-07-08T15:53:04Z</time>
      </trkpt>
      <trkpt lat="40.98544" lon="-6.92192">
        <ele>536.3934</ele>
        <time>2021-07-08T15:54:04Z</time>
      </trkpt>
      <trkpt lat="40.98544" lon="-6.92192">
        <ele>536.3934</ele>
        <time>2021-07-08T15:55:04Z</time>
      </trkpt>
      <trkpt lat="40.98544" lon="-6.92192">
        <ele>536.3934</ele>
        <time>2021-07-08T15:56:04Z</time>
      </trkpt>
      <trkpt lat="40.98545" lon="-6.92192">
        <ele>536.587</ele>
        <time>2021-07-08T15:57:04Z</time>
      </trkpt>
      <trkpt lat="40.98543" lon="-6.92194">
        <ele>536.4802</ele>
        <time>2021-07-08T15:58:04Z</time>
      </trkpt>
      <trkpt lat="40.9854" lon="-6.92191">
        <ele>536.5946</ele>
        <time>2021-07-08T15:58:26Z</time>
      </trkpt>
      <trkpt lat="40.98516" lon="-6.92188">
        <ele>537.5379</ele>
        <time>2021-07-08T15:58:37Z</time>
      </trkpt>
      <trkpt lat="40.98503" lon="-6.92186">
        <ele>537.6505</ele>
        <time>2021-07-08T15:58:48Z</time>
      </trkpt>
      <trkpt lat="40.98469" lon="-6.92186">
        <ele>536.631</ele>
        <time>2021-07-08T15:58:59Z</time>
      </trkpt>
      <trkpt lat="40.9843" lon="-6.9218">
        <ele>537.289</ele>
        <time>2021-07-08T15:59:10Z</time>
      </trkpt>
      <trkpt lat="40.98402" lon="-6.92174">
        <ele>537.3716</ele>
        <time>2021-07-08T15:59:21Z</time>
      </trkpt>
      <trkpt lat="40.98375" lon="-6.92163">
        <ele>537.4254</ele>
        <time>2021-07-08T15:59:32Z</time>
      </trkpt>
      <trkpt lat="40.98341" lon="-6.92133">
        <ele>536.0631</ele>
        <time>2021-07-08T15:59:43Z</time>
      </trkpt>
      <trkpt lat="40.98293" lon="-6.92115">
        <ele>534.7639</ele>
        <time>2021-07-08T15:59:54Z</time>
      </trkpt>
      <trkpt lat="40.98245" lon="-6.92097">
        <ele>534.3609</ele>
        <time>2021-07-08T16:00:05Z</time>
      </trkpt>
      <trkpt lat="40.98171" lon="-6.92109">
        <ele>537.099</ele>
        <time>2021-07-08T16:00:16Z</time>
      </trkpt>
      <trkpt lat="40.98101" lon="-6.92104">
        <ele>541.2534</ele>
        <time>2021-07-08T16:00:27Z</time>
      </trkpt>
      <trkpt lat="40.98042" lon="-6.9214">
        <ele>538.8884</ele>
        <time>2021-07-08T16:00:38Z</time>
      </trkpt>
      <trkpt lat="40.9799" lon="-6.92158">
        <ele>547.2276</ele>
        <time>2021-07-08T16:00:49Z</time>
      </trkpt>
      <trkpt lat="40.97976" lon="-6.92223">
        <ele>551.2426</ele>
        <time>2021-07-08T16:01:00Z</time>
      </trkpt>
      <trkpt lat="40.98" lon="-6.92272">
        <ele>551.3207</ele>
        <time>2021-07-08T16:01:12Z</time>
      </trkpt>
      <trkpt lat="40.97975" lon="-6.92271">
        <ele>560.3559</ele>
        <time>2021-07-08T16:01:23Z</time>
      </trkpt>
      <trkpt lat="40.9793" lon="-6.92299">
        <ele>555.1172</ele>
        <time>2021-07-08T16:01:34Z</time>
      </trkpt>
      <trkpt lat="40.97879" lon="-6.92282">
        <ele>560.1007</ele>
        <time>2021-07-08T16:01:45Z</time>
      </trkpt>
      <trkpt lat="40.97833" lon="-6.92248">
        <ele>557.6127</ele>
        <time>2021-07-08T16:01:56Z</time>
      </trkpt>
      <trkpt lat="40.97778" lon="-6.92246">
        <ele>561.7447</ele>
        <time>2021-07-08T16:02:07Z</time>
      </trkpt>
      <trkpt lat="40.97705" lon="-6.92257">
        <ele>532.1676</ele>
        <time>2021-07-08T16:02:18Z</time>
      </trkpt>
      <trkpt lat="40.97636" lon="-6.92245">
        <ele>577.7132</ele>
        <time>2021-07-08T16:02:29Z</time>
      </trkpt>
      <trkpt lat="40.97584" lon="-6.92249">
        <ele>579.3033</ele>
        <time>2021-07-08T16:02:40Z</time>
      </trkpt>
      <trkpt lat="40.97521" lon="-6.92291">
        <ele>582.613</ele>
        <time>2021-07-08T16:02:51Z</time>
      </trkpt>
      <trkpt lat="40.97443" lon="-6.92319">
        <ele>581.2563</ele>
        <time>2021-07-08T16:03:02Z</time>
      </trkpt>
      <trkpt lat="40.97373" lon="-6.92328">
        <ele>579.8322</ele>
        <time>2021-07-08T16:03:13Z</time>
      </trkpt>
      <trkpt lat="40.97299" lon="-6.92366">
        <ele>575.4724</ele>
        <time>2021-07-08T16:03:24Z</time>
      </trkpt>
      <trkpt lat="40.9728" lon="-6.92365">
        <ele>574.0943</ele>
        <time>2021-07-08T16:03:35Z</time>
      </trkpt>
      <trkpt lat="40.97274" lon="-6.92367">
        <ele>573.777</ele>
        <time>2021-07-08T16:03:52Z</time>
      </trkpt>
      <trkpt lat="40.97233" lon="-6.92369">
        <ele>573.0808</ele>
        <time>2021-07-08T16:04:03Z</time>
      </trkpt>
      <trkpt lat="40.97223" lon="-6.92411">
        <ele>569.4199</ele>
        <time>2021-07-08T16:04:14Z</time>
      </trkpt>
      <trkpt lat="40.9718" lon="-6.92417">
        <ele>567.2952</ele>
        <time>2021-07-08T16:04:25Z</time>
      </trkpt>
      <trkpt lat="40.97121" lon="-6.92377">
        <ele>565.6294</ele>
        <time>2021-07-08T16:04:36Z</time>
      </trkpt>
      <trkpt lat="40.97072" lon="-6.92382">
        <ele>562.9804</ele>
        <time>2021-07-08T16:04:47Z</time>
      </trkpt>
      <trkpt lat="40.97017" lon="-6.92377">
        <ele>560.3687</ele>
        <time>2021-07-08T16:04:58Z</time>
      </trkpt>
      <trkpt lat="40.96965" lon="-6.92393">
        <ele>558.2674</ele>
        <time>2021-07-08T16:05:09Z</time>
      </trkpt>
      <trkpt lat="40.9692" lon="-6.92414">
        <ele>559.4272</ele>
        <time>2021-07-08T16:05:20Z</time>
      </trkpt>
      <trkpt lat="40.96852" lon="-6.92415">
        <ele>556.637</ele>
        <time>2021-07-08T16:05:31Z</time>
      </trkpt>
      <trkpt lat="40.96786" lon="-6.92442">
        <ele>553.3474</ele>
        <time>2021-07-08T16:05:42Z</time>
      </trkpt>
      <trkpt lat="40.96709" lon="-6.92463">
        <ele>552.3096</ele>
        <time>2021-07-08T16:05:53Z</time>
      </trkpt>
      <trkpt lat="40.96649" lon="-6.92491">
        <ele>553.7678</ele>
        <time>2021-07-08T16:06:04Z</time>
      </trkpt>
      <trkpt lat="40.9654" lon="-6.92465">
        <ele>559.8398</ele>
        <time>2021-07-08T16:06:15Z</time>
      </trkpt>
      <trkpt lat="40.96455" lon="-6.92513">
        <ele>565.2182</ele>
        <time>2021-07-08T16:06:26Z</time>
      </trkpt>
      <trkpt lat="40.96359" lon="-6.92548">
        <ele>568.0112</ele>
        <time>2021-07-08T16:06:37Z</time>
      </trkpt>
      <trkpt lat="40.9628" lon="-6.9253">
        <ele>570.5253</ele>
        <time>2021-07-08T16:06:48Z</time>
      </trkpt>
      <trkpt lat="40.96206" lon="-6.92534">
        <ele>568.5056</ele>
        <time>2021-07-08T16:06:59Z</time>
      </trkpt>
      <trkpt lat="40.96137" lon="-6.92525">
        <ele>580.436</ele>
        <time>2021-07-08T16:07:10Z</time>
      </trkpt>
      <trkpt lat="40.96158" lon="-6.92468">
        <ele>586.0497</ele>
        <time>2021-07-08T16:07:21Z</time>
      </trkpt>
      <trkpt lat="40.96116" lon="-6.92414">
        <ele>586.6971</ele>
        <time>2021-07-08T16:07:32Z</time>
      </trkpt>
      <trkpt lat="40.96076" lon="-6.92352">
        <ele>588.6191</ele>
        <time>2021-07-08T16:07:43Z</time>
      </trkpt>
      <trkpt lat="40.96041" lon="-6.9227">
        <ele>582.8281</ele>
        <time>2021-07-08T16:07:54Z</time>
      </trkpt>
      <trkpt lat="40.95972" lon="-6.92284">
        <ele>585.1586</ele>
        <time>2021-07-08T16:08:05Z</time>
      </trkpt>
      <trkpt lat="40.95882" lon="-6.92316">
        <ele>591.0595</ele>
        <time>2021-07-08T16:08:16Z</time>
      </trkpt>
      <trkpt lat="40.95817" lon="-6.92335">
        <ele>592.5651</ele>
        <time>2021-07-08T16:08:27Z</time>
      </trkpt>
      <trkpt lat="40.95728" lon="-6.9235">
        <ele>592.796</ele>
        <time>2021-07-08T16:08:38Z</time>
      </trkpt>
      <trkpt lat="40.95627" lon="-6.92385">
        <ele>594.9634</ele>
        <time>2021-07-08T16:08:49Z</time>
      </trkpt>
      <trkpt lat="40.95531" lon="-6.9246">
        <ele>603.1424</ele>
        <time>2021-07-08T16:09:00Z</time>
      </trkpt>
      <trkpt lat="40.95456" lon="-6.92536">
        <ele>607.8726</ele>
        <time>2021-07-08T16:09:11Z</time>
      </trkpt>
      <trkpt lat="40.95328" lon="-6.92546">
        <ele>612.1006</ele>
        <time>2021-07-08T16:09:22Z</time>
      </trkpt>
      <trkpt lat="40.95218" lon="-6.92492">
        <ele>615.6685</ele>
        <time>2021-07-08T16:09:33Z</time>
      </trkpt>
      <trkpt lat="40.95149" lon="-6.92469">
        <ele>618.4058</ele>
        <time>2021-07-08T16:09:44Z</time>
      </trkpt>
      <trkpt lat="40.95133" lon="-6.92506">
        <ele>627.0771</ele>
        <time>2021-07-08T16:09:55Z</time>
      </trkpt>
      <trkpt lat="40.95072" lon="-6.92546">
        <ele>627.4576</ele>
        <time>2021-07-08T16:10:06Z</time>
      </trkpt>
      <trkpt lat="40.95014" lon="-6.92605">
        <ele>614.0775</ele>
        <time>2021-07-08T16:10:17Z</time>
      </trkpt>
      <trkpt lat="40.94955" lon="-6.92671">
        <ele>612.0385</ele>
        <time>2021-07-08T16:10:28Z</time>
      </trkpt>
      <trkpt lat="40.94919" lon="-6.92678">
        <ele>617.2411</ele>
        <time>2021-07-08T16:10:39Z</time>
      </trkpt>
      <trkpt lat="40.94896" lon="-6.92588">
        <ele>621.8522</ele>
        <time>2021-07-08T16:10:50Z</time>
      </trkpt>
      <trkpt lat="40.94831" lon="-6.92519">
        <ele>618.3008</ele>
        <time>2021-07-08T16:11:01Z</time>
      </trkpt>
      <trkpt lat="40.94796" lon="-6.92464">
        <ele>612.0401</ele>
        <time>2021-07-08T16:11:12Z</time>
      </trkpt>
      <trkpt lat="40.94799" lon="-6.92463">
        <ele>610.9606</ele>
        <time>2021-07-08T16:11:27Z</time>
      </trkpt>
      <trkpt lat="40.94803" lon="-6.92465">
        <ele>610.7819</ele>
        <time>2021-07-08T16:11:56Z</time>
      </trkpt>
      <trkpt lat="40.94803" lon="-6.9247">
        <ele>610.476</ele>
        <time>2021-07-08T16:12:34Z</time>
      </trkpt>
      <trkpt lat="40.94799" lon="-6.92469">
        <ele>610.6151</ele>
        <time>2021-07-08T16:12:56Z</time>
      </trkpt>
      <trkpt lat="40.948" lon="-6.92464">
        <ele>610.5417</ele>
        <time>2021-07-08T16:13:07Z</time>
      </trkpt>
      <trkpt lat="40.94801" lon="-6.92469">
        <ele>611.1845</ele>
        <time>2021-07-08T16:13:18Z</time>
      </trkpt>
      <trkpt lat="40.94805" lon="-6.92468">
        <ele>610.8567</ele>
        <time>2021-07-08T16:13:43Z</time>
      </trkpt>
      <trkpt lat="40.94805" lon="-6.92468">
        <ele>610.0658</ele>
        <time>2021-07-08T16:14:43Z</time>
      </trkpt>
      <trkpt lat="40.94806" lon="-6.92467">
        <ele>610.6952</ele>
        <time>2021-07-08T16:15:43Z</time>
      </trkpt>
      <trkpt lat="40.94805" lon="-6.92463">
        <ele>611.0325</ele>
        <time>2021-07-08T16:16:43Z</time>
      </trkpt>
      <trkpt lat="40.94803" lon="-6.92467">
        <ele>611.6937</ele>
        <time>2021-07-08T16:17:38Z</time>
      </trkpt>
      <trkpt lat="40.94802" lon="-6.92462">
        <ele>611.1327</ele>
        <time>2021-07-08T16:17:59Z</time>
      </trkpt>
      <trkpt lat="40.94805" lon="-6.92464">
        <ele>611.2102</ele>
        <time>2021-07-08T16:18:59Z</time>
      </trkpt>
      <trkpt lat="40.94806" lon="-6.92465">
        <ele>611.0948</ele>
        <time>2021-07-08T16:19:59Z</time>
      </trkpt>
      <trkpt lat="40.94786" lon="-6.92448">
        <ele>610.3948</ele>
        <time>2021-07-08T16:20:10Z</time>
      </trkpt>
      <trkpt lat="40.94678" lon="-6.92536">
        <ele>609.9499</ele>
        <time>2021-07-08T16:20:21Z</time>
      </trkpt>
      <trkpt lat="40.94559" lon="-6.92644">
        <ele>613.5017</ele>
        <time>2021-07-08T16:20:32Z</time>
      </trkpt>
      <trkpt lat="40.94426" lon="-6.92752">
        <ele>612.5439</ele>
        <time>2021-07-08T16:20:43Z</time>
      </trkpt>
      <trkpt lat="40.94286" lon="-6.92865">
        <ele>612.0001</ele>
        <time>2021-07-08T16:20:54Z</time>
      </trkpt>
      <trkpt lat="40.94136" lon="-6.92988">
        <ele>605.811</ele>
        <time>2021-07-08T16:21:05Z</time>
      </trkpt>
      <trkpt lat="40.93903" lon="-6.9316">
        <ele>599.5599</ele>
        <time>2021-07-08T16:21:16Z</time>
      </trkpt>
      <trkpt lat="40.93667" lon="-6.93284">
        <ele>594.389</ele>
        <time>2021-07-08T16:21:27Z</time>
      </trkpt>
      <trkpt lat="40.93413" lon="-6.9339">
        <ele>593.5965</ele>
        <time>2021-07-08T16:21:38Z</time>
      </trkpt>
      <trkpt lat="40.93184" lon="-6.93478">
        <ele>593.3197</ele>
        <time>2021-07-08T16:21:49Z</time>
      </trkpt>
      <trkpt lat="40.9296" lon="-6.9332">
        <ele>584.1812</ele>
        <time>2021-07-08T16:22:00Z</time>
      </trkpt>
      <trkpt lat="40.92748" lon="-6.93269">
        <ele>579.4595</ele>
        <time>2021-07-08T16:22:11Z</time>
      </trkpt>
      <trkpt lat="40.92539" lon="-6.93346">
        <ele>575.9314</ele>
        <time>2021-07-08T16:22:22Z</time>
      </trkpt>
      <trkpt lat="40.92419" lon="-6.93557">
        <ele>565.5044</ele>
        <time>2021-07-08T16:22:33Z</time>
      </trkpt>
      <trkpt lat="40.92309" lon="-6.93781">
        <ele>556.3106</ele>
        <time>2021-07-08T16:22:44Z</time>
      </trkpt>
      <trkpt lat="40.92186" lon="-6.93904">
        <ele>563.0056</ele>
        <time>2021-07-08T16:22:55Z</time>
      </trkpt>
      <trkpt lat="40.9218" lon="-6.94038">
        <ele>571.1809</ele>
        <time>2021-07-08T16:23:06Z</time>
      </trkpt>
      <trkpt lat="40.92037" lon="-6.94127">
        <ele>579.4333</ele>
        <time>2021-07-08T16:23:17Z</time>
      </trkpt>
      <trkpt lat="40.91886" lon="-6.94282">
        <ele>591.996</ele>
        <time>2021-07-08T16:23:28Z</time>
      </trkpt>
      <trkpt lat="40.91719" lon="-6.94358">
        <ele>601.6665</ele>
        <time>2021-07-08T16:23:39Z</time>
      </trkpt>
      <trkpt lat="40.91614" lon="-6.94578">
        <ele>611.0652</ele>
        <time>2021-07-08T16:23:50Z</time>
      </trkpt>
      <trkpt lat="40.91514" lon="-6.94767">
        <ele>621.97</ele>
        <time>2021-07-08T16:24:01Z</time>
      </trkpt>
      <trkpt lat="40.91335" lon="-6.94945">
        <ele>628.1023</ele>
        <time>2021-07-08T16:24:12Z</time>
      </trkpt>
      <trkpt lat="40.91154" lon="-6.95132">
        <ele>630.6063</ele>
        <time>2021-07-08T16:24:23Z</time>
      </trkpt>
      <trkpt lat="40.9102" lon="-6.95377">
        <ele>629.0352</ele>
        <time>2021-07-08T16:24:34Z</time>
      </trkpt>
      <trkpt lat="40.9091" lon="-6.95627">
        <ele>626.2363</ele>
        <time>2021-07-08T16:24:45Z</time>
      </trkpt>
      <trkpt lat="40.90742" lon="-6.95795">
        <ele>625.1487</ele>
        <time>2021-07-08T16:24:56Z</time>
      </trkpt>
      <trkpt lat="40.90509" lon="-6.95871">
        <ele>626.8602</ele>
        <time>2021-07-08T16:25:07Z</time>
      </trkpt>
      <trkpt lat="40.90294" lon="-6.95947">
        <ele>632.2708</ele>
        <time>2021-07-08T16:25:18Z</time>
      </trkpt>
      <trkpt lat="40.90095" lon="-6.9601">
        <ele>635.2829</ele>
        <time>2021-07-08T16:25:29Z</time>
      </trkpt>
      <trkpt lat="40.89924" lon="-6.9609">
        <ele>638.7962</ele>
        <time>2021-07-08T16:25:40Z</time>
      </trkpt>
      <trkpt lat="40.89836" lon="-6.96167">
        <ele>636.5948</ele>
        <time>2021-07-08T16:25:51Z</time>
      </trkpt>
      <trkpt lat="40.89749" lon="-6.96235">
        <ele>630.6983</ele>
        <time>2021-07-08T16:26:02Z</time>
      </trkpt>
      <trkpt lat="40.89675" lon="-6.96272">
        <ele>628.7201</ele>
        <time>2021-07-08T16:26:13Z</time>
      </trkpt>
      <trkpt lat="40.89615" lon="-6.96304">
        <ele>633.0978</ele>
        <time>2021-07-08T16:26:24Z</time>
      </trkpt>
      <trkpt lat="40.8953" lon="-6.96289">
        <ele>638.5172</ele>
        <time>2021-07-08T16:26:35Z</time>
      </trkpt>
      <trkpt lat="40.89455" lon="-6.96282">
        <ele>639.3282</ele>
        <time>2021-07-08T16:26:46Z</time>
      </trkpt>
      <trkpt lat="40.89442" lon="-6.96212">
        <ele>645.44</ele>
        <time>2021-07-08T16:26:57Z</time>
      </trkpt>
      <trkpt lat="40.89443" lon="-6.96195">
        <ele>639.8257</ele>
        <time>2021-07-08T16:27:08Z</time>
      </trkpt>
      <trkpt lat="40.89392" lon="-6.96181">
        <ele>639.9309</ele>
        <time>2021-07-08T16:27:19Z</time>
      </trkpt>
      <trkpt lat="40.89389" lon="-6.96176">
        <ele>648.0301</ele>
        <time>2021-07-08T16:27:49Z</time>
      </trkpt>
      <trkpt lat="40.89347" lon="-6.96164">
        <ele>644.8818</ele>
        <time>2021-07-08T16:28:00Z</time>
      </trkpt>
      <trkpt lat="40.89229" lon="-6.96131">
        <ele>644.5368</ele>
        <time>2021-07-08T16:28:11Z</time>
      </trkpt>
      <trkpt lat="40.89106" lon="-6.96094">
        <ele>650.6937</ele>
        <time>2021-07-08T16:28:22Z</time>
      </trkpt>
      <trkpt lat="40.8894" lon="-6.96046">
        <ele>655.6472</ele>
        <time>2021-07-08T16:28:33Z</time>
      </trkpt>
      <trkpt lat="40.88805" lon="-6.96089">
        <ele>660.0518</ele>
        <time>2021-07-08T16:28:44Z</time>
      </trkpt>
      <trkpt lat="40.88741" lon="-6.96246">
        <ele>663.7861</ele>
        <time>2021-07-08T16:28:55Z</time>
      </trkpt>
      <trkpt lat="40.8869" lon="-6.96298">
        <ele>663.8256</ele>
        <time>2021-07-08T16:29:06Z</time>
      </trkpt>
      <trkpt lat="40.88548" lon="-6.96339">
        <ele>671.235</ele>
        <time>2021-07-08T16:29:17Z</time>
      </trkpt>
      <trkpt lat="40.88458" lon="-6.96451">
        <ele>678.783</ele>
        <time>2021-07-08T16:29:28Z</time>
      </trkpt>
      <trkpt lat="40.88456" lon="-6.96608">
        <ele>680.9922</ele>
        <time>2021-07-08T16:29:39Z</time>
      </trkpt>
      <trkpt lat="40.88419" lon="-6.96563">
        <ele>684.8295</ele>
        <time>2021-07-08T16:29:50Z</time>
      </trkpt>
      <trkpt lat="40.88449" lon="-6.96563">
        <ele>683.6849</ele>
        <time>2021-07-08T16:30:01Z</time>
      </trkpt>
      <trkpt lat="40.88446" lon="-6.9656">
        <ele>682.8353</ele>
        <time>2021-07-08T16:30:39Z</time>
      </trkpt>
      <trkpt lat="40.8845" lon="-6.96564">
        <ele>681.939</ele>
        <time>2021-07-08T16:31:36Z</time>
      </trkpt>
      <trkpt lat="40.88449" lon="-6.96568">
        <ele>681.7802</ele>
        <time>2021-07-08T16:32:15Z</time>
      </trkpt>
      <trkpt lat="40.88445" lon="-6.96582">
        <ele>682.3502</ele>
        <time>2021-07-08T16:32:26Z</time>
      </trkpt>
      <trkpt lat="40.88443" lon="-6.96577">
        <ele>687.2306</ele>
        <time>2021-07-08T16:32:58Z</time>
      </trkpt>
      <trkpt lat="40.88443" lon="-6.96581">
        <ele>686.4963</ele>
        <time>2021-07-08T16:33:57Z</time>
      </trkpt>
      <trkpt lat="40.8844" lon="-6.96588">
        <ele>685.5501</ele>
        <time>2021-07-08T16:34:26Z</time>
      </trkpt>
      <trkpt lat="40.88439" lon="-6.96592">
        <ele>684.646</ele>
        <time>2021-07-08T16:34:46Z</time>
      </trkpt>
      <trkpt lat="40.88424" lon="-6.96585">
        <ele>682.9986</ele>
        <time>2021-07-08T16:35:08Z</time>
      </trkpt>
      <trkpt lat="40.88421" lon="-6.96582">
        <ele>682.5992</ele>
        <time>2021-07-08T16:35:42Z</time>
      </trkpt>
      <trkpt lat="40.88415" lon="-6.96594">
        <ele>679.2548</ele>
        <time>2021-07-08T16:36:00Z</time>
      </trkpt>
      <trkpt lat="40.88418" lon="-6.96587">
        <ele>678.0672</ele>
        <time>2021-07-08T16:36:18Z</time>
      </trkpt>
      <trkpt lat="40.88422" lon="-6.9658">
        <ele>677.0154</ele>
        <time>2021-07-08T16:36:29Z</time>
      </trkpt>
      <trkpt lat="40.88424" lon="-6.96575">
        <ele>675.1407</ele>
        <time>2021-07-08T16:36:40Z</time>
      </trkpt>
      <trkpt lat="40.88426" lon="-6.96579">
        <ele>674.3629</ele>
        <time>2021-07-08T16:37:02Z</time>
      </trkpt>
      <trkpt lat="40.88413" lon="-6.96587">
        <ele>680.1979</ele>
        <time>2021-07-08T16:37:13Z</time>
      </trkpt>
      <trkpt lat="40.88421" lon="-6.96595">
        <ele>688.1823</ele>
        <time>2021-07-08T16:37:24Z</time>
      </trkpt>
      <trkpt lat="40.88419" lon="-6.9659">
        <ele>688.0851</ele>
        <time>2021-07-08T16:37:40Z</time>
      </trkpt>
      <trkpt lat="40.88413" lon="-6.9659">
        <ele>693.3481</ele>
        <time>2021-07-08T16:37:51Z</time>
      </trkpt>
      <trkpt lat="40.88418" lon="-6.96591">
        <ele>686.1773</ele>
        <time>2021-07-08T16:38:03Z</time>
      </trkpt>
      <trkpt lat="40.88422" lon="-6.96593">
        <ele>680.4528</ele>
        <time>2021-07-08T16:38:32Z</time>
      </trkpt>
      <trkpt lat="40.8841" lon="-6.96542">
        <ele>688.3324</ele>
        <time>2021-07-08T16:39:22Z</time>
      </trkpt>
      <trkpt lat="40.88405" lon="-6.96542">
        <ele>688.639</ele>
        <time>2021-07-08T16:39:35Z</time>
      </trkpt>
      <trkpt lat="40.88391" lon="-6.96548">
        <ele>690.0761</ele>
        <time>2021-07-08T16:39:46Z</time>
      </trkpt>
      <trkpt lat="40.88387" lon="-6.96546">
        <ele>690.8463</ele>
        <time>2021-07-08T16:40:05Z</time>
      </trkpt>
      <trkpt lat="40.88386" lon="-6.96536">
        <ele>691.9756</ele>
        <time>2021-07-08T16:40:16Z</time>
      </trkpt>
      <trkpt lat="40.88421" lon="-6.96591">
        <ele>680.3059</ele>
        <time>2021-07-08T16:40:42Z</time>
      </trkpt>
      <trkpt lat="40.88422" lon="-6.96593">
        <ele>680.3059</ele>
        <time>2021-07-08T16:41:41Z</time>
      </trkpt>
      <trkpt lat="40.88422" lon="-6.96593">
        <ele>680.3059</ele>
        <time>2021-07-08T16:42:40Z</time>
      </trkpt>
      <trkpt lat="40.88425" lon="-6.96589">
        <ele>689.4135</ele>
        <time>2021-07-08T16:42:52Z</time>
      </trkpt>
      <trkpt lat="40.88422" lon="-6.96593">
        <ele>689</ele>
        <time>2021-07-08T16:43:45Z</time>
      </trkpt>
      <trkpt lat="40.88421" lon="-6.96583">
        <ele>690.7117</ele>
        <time>2021-07-08T16:44:41Z</time>
      </trkpt>
      <trkpt lat="40.8843" lon="-6.96581">
        <ele>688.7019</ele>
        <time>2021-07-08T16:44:59Z</time>
      </trkpt>
      <trkpt lat="40.8841" lon="-6.96579">
        <ele>688.8453</ele>
        <time>2021-07-08T16:45:10Z</time>
      </trkpt>
      <trkpt lat="40.88409" lon="-6.96584">
        <ele>689.3827</ele>
        <time>2021-07-08T16:45:23Z</time>
      </trkpt>
      <trkpt lat="40.88424" lon="-6.9659">
        <ele>688.4769</ele>
        <time>2021-07-08T16:45:34Z</time>
      </trkpt>
      <trkpt lat="40.88417" lon="-6.96593">
        <ele>688.8279</ele>
        <time>2021-07-08T16:45:45Z</time>
      </trkpt>
      <trkpt lat="40.88421" lon="-6.96591">
        <ele>688.8541</ele>
        <time>2021-07-08T16:45:57Z</time>
      </trkpt>
      <trkpt lat="40.88406" lon="-6.96598">
        <ele>689.2002</ele>
        <time>2021-07-08T16:46:08Z</time>
      </trkpt>
      <trkpt lat="40.88413" lon="-6.96581">
        <ele>688.9963</ele>
        <time>2021-07-08T16:46:19Z</time>
      </trkpt>
      <trkpt lat="40.88425" lon="-6.96583">
        <ele>689.0346</ele>
        <time>2021-07-08T16:46:30Z</time>
      </trkpt>
      <trkpt lat="40.88418" lon="-6.96583">
        <ele>688.7224</ele>
        <time>2021-07-08T16:46:41Z</time>
      </trkpt>
      <trkpt lat="40.88422" lon="-6.96585">
        <ele>689.5871</ele>
        <time>2021-07-08T16:47:22Z</time>
      </trkpt>
      <trkpt lat="40.88419" lon="-6.96582">
        <ele>688.6565</ele>
        <time>2021-07-08T16:48:15Z</time>
      </trkpt>
      <trkpt lat="40.88416" lon="-6.96586">
        <ele>689.3546</ele>
        <time>2021-07-08T16:48:34Z</time>
      </trkpt>
      <trkpt lat="40.88412" lon="-6.96589">
        <ele>689.1932</ele>
        <time>2021-07-08T16:48:51Z</time>
      </trkpt>
      <trkpt lat="40.88421" lon="-6.96584">
        <ele>690.4107</ele>
        <time>2021-07-08T16:49:02Z</time>
      </trkpt>
      <trkpt lat="40.88419" lon="-6.96588">
        <ele>688.5099</ele>
        <time>2021-07-08T16:49:15Z</time>
      </trkpt>
      <trkpt lat="40.88423" lon="-6.96584">
        <ele>687.629</ele>
        <time>2021-07-08T16:49:26Z</time>
      </trkpt>
      <trkpt lat="40.8842" lon="-6.96581">
        <ele>688.3581</ele>
        <time>2021-07-08T16:49:37Z</time>
      </trkpt>
      <trkpt lat="40.88429" lon="-6.96582">
        <ele>688.4572</ele>
        <time>2021-07-08T16:49:48Z</time>
      </trkpt>
      <trkpt lat="40.88425" lon="-6.96585">
        <ele>688.2432</ele>
        <time>2021-07-08T16:50:01Z</time>
      </trkpt>
      <trkpt lat="40.88418" lon="-6.96583">
        <ele>688.4138</ele>
        <time>2021-07-08T16:50:12Z</time>
      </trkpt>
      <trkpt lat="40.88413" lon="-6.96588">
        <ele>687.3176</ele>
        <time>2021-07-08T16:50:24Z</time>
      </trkpt>
      <trkpt lat="40.8842" lon="-6.96601">
        <ele>691.2259</ele>
        <time>2021-07-08T16:50:35Z</time>
      </trkpt>
      <trkpt lat="40.88423" lon="-6.96596">
        <ele>688.1894</ele>
        <time>2021-07-08T16:50:46Z</time>
      </trkpt>
      <trkpt lat="40.88424" lon="-6.9659">
        <ele>688.5771</ele>
        <time>2021-07-08T16:50:57Z</time>
      </trkpt>
      <trkpt lat="40.88423" lon="-6.96591">
        <ele>688.3091</ele>
        <time>2021-07-08T16:51:56Z</time>
      </trkpt>
      <trkpt lat="40.88426" lon="-6.96588">
        <ele>687.0756</ele>
        <time>2021-07-08T16:52:18Z</time>
      </trkpt>
      <trkpt lat="40.88425" lon="-6.96583">
        <ele>688.3874</ele>
        <time>2021-07-08T16:52:55Z</time>
      </trkpt>
      <trkpt lat="40.88429" lon="-6.96589">
        <ele>688.8767</ele>
        <time>2021-07-08T16:53:20Z</time>
      </trkpt>
      <trkpt lat="40.88434" lon="-6.96577">
        <ele>689.2412</ele>
        <time>2021-07-08T16:53:31Z</time>
      </trkpt>
      <trkpt lat="40.88428" lon="-6.96583">
        <ele>688.1093</ele>
        <time>2021-07-08T16:53:42Z</time>
      </trkpt>
      <trkpt lat="40.88424" lon="-6.96584">
        <ele>688.8727</ele>
        <time>2021-07-08T16:53:54Z</time>
      </trkpt>
      <trkpt lat="40.88422" lon="-6.96588">
        <ele>688.227</ele>
        <time>2021-07-08T16:54:08Z</time>
      </trkpt>
      <trkpt lat="40.88425" lon="-6.96593">
        <ele>688.4869</ele>
        <time>2021-07-08T16:54:30Z</time>
      </trkpt>
      <trkpt lat="40.88428" lon="-6.96599">
        <ele>688.6063</ele>
        <time>2021-07-08T16:54:42Z</time>
      </trkpt>
      <trkpt lat="40.88428" lon="-6.96598">
        <ele>687.6231</ele>
        <time>2021-07-08T16:55:42Z</time>
      </trkpt>
      <trkpt lat="40.88428" lon="-6.96598">
        <ele>687.6231</ele>
        <time>2021-07-08T16:56:42Z</time>
      </trkpt>
      <trkpt lat="40.88428" lon="-6.96598">
        <ele>687.2048</ele>
        <time>2021-07-08T16:57:42Z</time>
      </trkpt>
      <trkpt lat="40.88431" lon="-6.966">
        <ele>689.1706</ele>
        <time>2021-07-08T16:58:07Z</time>
      </trkpt>
      <trkpt lat="40.8845" lon="-6.96608">
        <ele>685.489</ele>
        <time>2021-07-08T16:58:18Z</time>
      </trkpt>
      <trkpt lat="40.88459" lon="-6.96482">
        <ele>683.1031</ele>
        <time>2021-07-08T16:58:29Z</time>
      </trkpt>
      <trkpt lat="40.88475" lon="-6.96366">
        <ele>680.3785</ele>
        <time>2021-07-08T16:58:40Z</time>
      </trkpt>
      <trkpt lat="40.88617" lon="-6.96313">
        <ele>671.7908</ele>
        <time>2021-07-08T16:58:51Z</time>
      </trkpt>
      <trkpt lat="40.88737" lon="-6.96254">
        <ele>665.7459</ele>
        <time>2021-07-08T16:59:02Z</time>
      </trkpt>
      <trkpt lat="40.88802" lon="-6.96088">
        <ele>662.2715</ele>
        <time>2021-07-08T16:59:13Z</time>
      </trkpt>
      <trkpt lat="40.88931" lon="-6.96032">
        <ele>658.1096</ele>
        <time>2021-07-08T16:59:24Z</time>
      </trkpt>
      <trkpt lat="40.89069" lon="-6.96072">
        <ele>652.5823</ele>
        <time>2021-07-08T16:59:35Z</time>
      </trkpt>
      <trkpt lat="40.8921" lon="-6.96114">
        <ele>647.7926</ele>
        <time>2021-07-08T16:59:46Z</time>
      </trkpt>
      <trkpt lat="40.89353" lon="-6.96155">
        <ele>641.9949</ele>
        <time>2021-07-08T16:59:57Z</time>
      </trkpt>
      <trkpt lat="40.8949" lon="-6.96196">
        <ele>637.4915</ele>
        <time>2021-07-08T17:00:08Z</time>
      </trkpt>
      <trkpt lat="40.89603" lon="-6.9623">
        <ele>634.7601</ele>
        <time>2021-07-08T17:00:19Z</time>
      </trkpt>
      <trkpt lat="40.89643" lon="-6.96249">
        <ele>632.6482</ele>
        <time>2021-07-08T17:00:30Z</time>
      </trkpt>
      <trkpt lat="40.89681" lon="-6.96263">
        <ele>632.1468</ele>
        <time>2021-07-08T17:00:41Z</time>
      </trkpt>
      <trkpt lat="40.89739" lon="-6.96231">
        <ele>634.2185</ele>
        <time>2021-07-08T17:00:52Z</time>
      </trkpt>
      <trkpt lat="40.89827" lon="-6.96173">
        <ele>637.0106</ele>
        <time>2021-07-08T17:01:03Z</time>
      </trkpt>
      <trkpt lat="40.8986" lon="-6.96045">
        <ele>638.6992</ele>
        <time>2021-07-08T17:01:14Z</time>
      </trkpt>
      <trkpt lat="40.89871" lon="-6.95794">
        <ele>642.2248</ele>
        <time>2021-07-08T17:01:25Z</time>
      </trkpt>
      <trkpt lat="40.89921" lon="-6.95528">
        <ele>639.0117</ele>
        <time>2021-07-08T17:01:36Z</time>
      </trkpt>
      <trkpt lat="40.90017" lon="-6.9524">
        <ele>640.7226</ele>
        <time>2021-07-08T17:01:47Z</time>
      </trkpt>
      <trkpt lat="40.90126" lon="-6.94942">
        <ele>642.8743</ele>
        <time>2021-07-08T17:01:58Z</time>
      </trkpt>
      <trkpt lat="40.90186" lon="-6.94647">
        <ele>636.371</ele>
        <time>2021-07-08T17:02:09Z</time>
      </trkpt>
      <trkpt lat="40.90201" lon="-6.94355">
        <ele>630.0753</ele>
        <time>2021-07-08T17:02:20Z</time>
      </trkpt>
      <trkpt lat="40.90174" lon="-6.94065">
        <ele>622.0466</ele>
        <time>2021-07-08T17:02:31Z</time>
      </trkpt>
      <trkpt lat="40.90132" lon="-6.93748">
        <ele>611.0581</ele>
        <time>2021-07-08T17:02:42Z</time>
      </trkpt>
      <trkpt lat="40.90174" lon="-6.93445">
        <ele>611.623</ele>
        <time>2021-07-08T17:02:53Z</time>
      </trkpt>
      <trkpt lat="40.90199" lon="-6.93122">
        <ele>600.6908</ele>
        <time>2021-07-08T17:03:04Z</time>
      </trkpt>
      <trkpt lat="40.90285" lon="-6.9281">
        <ele>590.9584</ele>
        <time>2021-07-08T17:03:15Z</time>
      </trkpt>
      <trkpt lat="40.90284" lon="-6.92485">
        <ele>587.8444</ele>
        <time>2021-07-08T17:03:26Z</time>
      </trkpt>
      <trkpt lat="40.90289" lon="-6.92138">
        <ele>587.194</ele>
        <time>2021-07-08T17:03:37Z</time>
      </trkpt>
      <trkpt lat="40.90329" lon="-6.91779">
        <ele>600.9633</ele>
        <time>2021-07-08T17:03:48Z</time>
      </trkpt>
      <trkpt lat="40.90368" lon="-6.91406">
        <ele>615.2091</ele>
        <time>2021-07-08T17:03:59Z</time>
      </trkpt>
      <trkpt lat="40.90381" lon="-6.91126">
        <ele>612.3333</ele>
        <time>2021-07-08T17:04:10Z</time>
      </trkpt>
      <trkpt lat="40.90356" lon="-6.90913">
        <ele>611.5602</ele>
        <time>2021-07-08T17:04:21Z</time>
      </trkpt>
      <trkpt lat="40.9032" lon="-6.90688">
        <ele>609.1369</ele>
        <time>2021-07-08T17:04:32Z</time>
      </trkpt>
      <trkpt lat="40.90376" lon="-6.90442">
        <ele>607.3587</ele>
        <time>2021-07-08T17:04:43Z</time>
      </trkpt>
      <trkpt lat="40.90422" lon="-6.90243">
        <ele>609.1183</ele>
        <time>2021-07-08T17:04:54Z</time>
      </trkpt>
      <trkpt lat="40.90464" lon="-6.90124">
        <ele>609.9971</ele>
        <time>2021-07-08T17:05:05Z</time>
      </trkpt>
      <trkpt lat="40.90493" lon="-6.90067">
        <ele>613.5844</ele>
        <time>2021-07-08T17:05:16Z</time>
      </trkpt>
      <trkpt lat="40.90517" lon="-6.89984">
        <ele>611.2634</ele>
        <time>2021-07-08T17:05:27Z</time>
      </trkpt>
      <trkpt lat="40.90513" lon="-6.89929">
        <ele>612.6888</ele>
        <time>2021-07-08T17:05:38Z</time>
      </trkpt>
      <trkpt lat="40.90515" lon="-6.89853">
        <ele>613.6395</ele>
        <time>2021-07-08T17:05:49Z</time>
      </trkpt>
      <trkpt lat="40.90554" lon="-6.89796">
        <ele>616.1589</ele>
        <time>2021-07-08T17:06:00Z</time>
      </trkpt>
      <trkpt lat="40.90544" lon="-6.89709">
        <ele>622.1177</ele>
        <time>2021-07-08T17:06:11Z</time>
      </trkpt>
      <trkpt lat="40.90504" lon="-6.89627">
        <ele>626.8484</ele>
        <time>2021-07-08T17:06:22Z</time>
      </trkpt>
      <trkpt lat="40.90464" lon="-6.8952">
        <ele>628.6378</ele>
        <time>2021-07-08T17:06:33Z</time>
      </trkpt>
      <trkpt lat="40.90461" lon="-6.89493">
        <ele>626.2085</ele>
        <time>2021-07-08T17:06:44Z</time>
      </trkpt>
      <trkpt lat="40.90458" lon="-6.8948">
        <ele>623.5533</ele>
        <time>2021-07-08T17:07:03Z</time>
      </trkpt>
      <trkpt lat="40.90441" lon="-6.89416">
        <ele>621.5497</ele>
        <time>2021-07-08T17:07:09Z</time>
      </trkpt>
      <trkpt lat="40.90426" lon="-6.89368">
        <ele>621.9164</ele>
        <time>2021-07-08T17:07:15Z</time>
      </trkpt>
      <trkpt lat="40.90425" lon="-6.89361">
        <ele>622.6528</ele>
        <time>2021-07-08T17:07:50Z</time>
      </trkpt>
      <trkpt lat="40.90368" lon="-6.89165">
        <ele>623.9414</ele>
        <time>2021-07-08T17:08:01Z</time>
      </trkpt>
      <trkpt lat="40.90269" lon="-6.89041">
        <ele>626.0253</ele>
        <time>2021-07-08T17:08:12Z</time>
      </trkpt>
      <trkpt lat="40.90096" lon="-6.88919">
        <ele>626.3967</ele>
        <time>2021-07-08T17:08:23Z</time>
      </trkpt>
      <trkpt lat="40.89927" lon="-6.88801">
        <ele>627.8188</ele>
        <time>2021-07-08T17:08:34Z</time>
      </trkpt>
      <trkpt lat="40.89787" lon="-6.88708">
        <ele>631.3784</ele>
        <time>2021-07-08T17:08:45Z</time>
      </trkpt>
      <trkpt lat="40.89653" lon="-6.88557">
        <ele>635.2421</ele>
        <time>2021-07-08T17:08:56Z</time>
      </trkpt>
      <trkpt lat="40.89546" lon="-6.88436">
        <ele>634.5573</ele>
        <time>2021-07-08T17:09:07Z</time>
      </trkpt>
      <trkpt lat="40.8946" lon="-6.88323">
        <ele>631.8206</ele>
        <time>2021-07-08T17:09:18Z</time>
      </trkpt>
      <trkpt lat="40.89322" lon="-6.88283">
        <ele>629.4898</ele>
        <time>2021-07-08T17:09:29Z</time>
      </trkpt>
      <trkpt lat="40.89181" lon="-6.88227">
        <ele>630.867</ele>
        <time>2021-07-08T17:09:40Z</time>
      </trkpt>
      <trkpt lat="40.8907" lon="-6.88131">
        <ele>635.8553</ele>
        <time>2021-07-08T17:09:51Z</time>
      </trkpt>
      <trkpt lat="40.88968" lon="-6.88046">
        <ele>635.0032</ele>
        <time>2021-07-08T17:10:02Z</time>
      </trkpt>
      <trkpt lat="40.88873" lon="-6.87995">
        <ele>630.7508</ele>
        <time>2021-07-08T17:10:13Z</time>
      </trkpt>
      <trkpt lat="40.88787" lon="-6.87954">
        <ele>630.35</ele>
        <time>2021-07-08T17:10:24Z</time>
      </trkpt>
      <trkpt lat="40.88758" lon="-6.87904">
        <ele>629.1042</ele>
        <time>2021-07-08T17:10:35Z</time>
      </trkpt>
      <trkpt lat="40.88702" lon="-6.87927">
        <ele>630.3051</ele>
        <time>2021-07-08T17:10:46Z</time>
      </trkpt>
      <trkpt lat="40.8871" lon="-6.87929">
        <ele>630.1334</ele>
        <time>2021-07-08T17:10:57Z</time>
      </trkpt>
      <trkpt lat="40.88692" lon="-6.87886">
        <ele>630.3744</ele>
        <time>2021-07-08T17:11:08Z</time>
      </trkpt>
      <trkpt lat="40.88629" lon="-6.87767">
        <ele>630.4099</ele>
        <time>2021-07-08T17:11:19Z</time>
      </trkpt>
      <trkpt lat="40.88579" lon="-6.87684">
        <ele>631.451</ele>
        <time>2021-07-08T17:11:30Z</time>
      </trkpt>
      <trkpt lat="40.88537" lon="-6.8762">
        <ele>625.0872</ele>
        <time>2021-07-08T17:11:41Z</time>
      </trkpt>
      <trkpt lat="40.88465" lon="-6.87575">
        <ele>623.0954</ele>
        <time>2021-07-08T17:11:52Z</time>
      </trkpt>
      <trkpt lat="40.88408" lon="-6.87487">
        <ele>620.3985</ele>
        <time>2021-07-08T17:12:03Z</time>
      </trkpt>
      <trkpt lat="40.88411" lon="-6.8741">
        <ele>616.35</ele>
        <time>2021-07-08T17:12:14Z</time>
      </trkpt>
      <trkpt lat="40.88366" lon="-6.87297">
        <ele>620.0544</ele>
        <time>2021-07-08T17:12:25Z</time>
      </trkpt>
      <trkpt lat="40.88334" lon="-6.8721">
        <ele>609.754</ele>
        <time>2021-07-08T17:12:36Z</time>
      </trkpt>
      <trkpt lat="40.88335" lon="-6.87139">
        <ele>603.4363</ele>
        <time>2021-07-08T17:12:47Z</time>
      </trkpt>
      <trkpt lat="40.88345" lon="-6.87049">
        <ele>609.8189</ele>
        <time>2021-07-08T17:12:58Z</time>
      </trkpt>
      <trkpt lat="40.88331" lon="-6.86966">
        <ele>620.4935</ele>
        <time>2021-07-08T17:13:09Z</time>
      </trkpt>
      <trkpt lat="40.88304" lon="-6.86913">
        <ele>625.8489</ele>
        <time>2021-07-08T17:13:20Z</time>
      </trkpt>
      <trkpt lat="40.88276" lon="-6.86834">
        <ele>618.2425</ele>
        <time>2021-07-08T17:13:31Z</time>
      </trkpt>
      <trkpt lat="40.88259" lon="-6.86756">
        <ele>610.4239</ele>
        <time>2021-07-08T17:13:42Z</time>
      </trkpt>
      <trkpt lat="40.88281" lon="-6.86659">
        <ele>617.1759</ele>
        <time>2021-07-08T17:13:53Z</time>
      </trkpt>
      <trkpt lat="40.88212" lon="-6.86643">
        <ele>624.6449</ele>
        <time>2021-07-08T17:14:04Z</time>
      </trkpt>
      <trkpt lat="40.88131" lon="-6.86627">
        <ele>624.6394</ele>
        <time>2021-07-08T17:14:15Z</time>
      </trkpt>
      <trkpt lat="40.88054" lon="-6.86682">
        <ele>631.7062</ele>
        <time>2021-07-08T17:14:26Z</time>
      </trkpt>
      <trkpt lat="40.87981" lon="-6.86674">
        <ele>636.4192</ele>
        <time>2021-07-08T17:14:37Z</time>
      </trkpt>
      <trkpt lat="40.87892" lon="-6.86669">
        <ele>641.3666</ele>
        <time>2021-07-08T17:14:48Z</time>
      </trkpt>
      <trkpt lat="40.87836" lon="-6.86659">
        <ele>634.385</ele>
        <time>2021-07-08T17:14:59Z</time>
      </trkpt>
      <trkpt lat="40.87776" lon="-6.86663">
        <ele>623.4853</ele>
        <time>2021-07-08T17:15:10Z</time>
      </trkpt>
      <trkpt lat="40.87709" lon="-6.86649">
        <ele>621.2276</ele>
        <time>2021-07-08T17:15:21Z</time>
      </trkpt>
      <trkpt lat="40.87632" lon="-6.86636">
        <ele>642.8075</ele>
        <time>2021-07-08T17:15:32Z</time>
      </trkpt>
      <trkpt lat="40.87555" lon="-6.86589">
        <ele>650.9832</ele>
        <time>2021-07-08T17:15:43Z</time>
      </trkpt>
      <trkpt lat="40.87488" lon="-6.86513">
        <ele>656.3081</ele>
        <time>2021-07-08T17:15:54Z</time>
      </trkpt>
      <trkpt lat="40.87441" lon="-6.86442">
        <ele>653.7544</ele>
        <time>2021-07-08T17:16:05Z</time>
      </trkpt>
      <trkpt lat="40.87457" lon="-6.86373">
        <ele>658.3193</ele>
        <time>2021-07-08T17:16:16Z</time>
      </trkpt>
      <trkpt lat="40.8751" lon="-6.86302">
        <ele>652.8158</ele>
        <time>2021-07-08T17:16:27Z</time>
      </trkpt>
      <trkpt lat="40.8754" lon="-6.86202">
        <ele>649.9981</ele>
        <time>2021-07-08T17:16:38Z</time>
      </trkpt>
      <trkpt lat="40.87549" lon="-6.86103">
        <ele>639.8906</ele>
        <time>2021-07-08T17:16:49Z</time>
      </trkpt>
      <trkpt lat="40.87539" lon="-6.86023">
        <ele>629.0722</ele>
        <time>2021-07-08T17:17:00Z</time>
      </trkpt>
      <trkpt lat="40.87543" lon="-6.86005">
        <ele>631.7218</ele>
        <time>2021-07-08T17:17:11Z</time>
      </trkpt>
      <trkpt lat="40.87546" lon="-6.86003">
        <ele>653.799</ele>
        <time>2021-07-08T17:17:32Z</time>
      </trkpt>
      <trkpt lat="40.87547" lon="-6.85998">
        <ele>656.8555</ele>
        <time>2021-07-08T17:17:43Z</time>
      </trkpt>
      <trkpt lat="40.87527" lon="-6.85991">
        <ele>651.6167</ele>
        <time>2021-07-08T17:17:54Z</time>
      </trkpt>
      <trkpt lat="40.87484" lon="-6.85991">
        <ele>649.8648</ele>
        <time>2021-07-08T17:18:05Z</time>
      </trkpt>
      <trkpt lat="40.87431" lon="-6.86001">
        <ele>647.3479</ele>
        <time>2021-07-08T17:18:16Z</time>
      </trkpt>
      <trkpt lat="40.8737" lon="-6.86023">
        <ele>648.5302</ele>
        <time>2021-07-08T17:18:27Z</time>
      </trkpt>
      <trkpt lat="40.8737" lon="-6.86029">
        <ele>657.947</ele>
        <time>2021-07-08T17:18:39Z</time>
      </trkpt>
      <trkpt lat="40.87357" lon="-6.86037">
        <ele>671.8799</ele>
        <time>2021-07-08T17:18:50Z</time>
      </trkpt>
      <trkpt lat="40.87285" lon="-6.86025">
        <ele>682.4967</ele>
        <time>2021-07-08T17:19:01Z</time>
      </trkpt>
      <trkpt lat="40.87221" lon="-6.86001">
        <ele>680.8748</ele>
        <time>2021-07-08T17:19:12Z</time>
      </trkpt>
      <trkpt lat="40.87153" lon="-6.86007">
        <ele>686.8878</ele>
        <time>2021-07-08T17:19:23Z</time>
      </trkpt>
      <trkpt lat="40.87085" lon="-6.85928">
        <ele>684.4375</ele>
        <time>2021-07-08T17:19:34Z</time>
      </trkpt>
      <trkpt lat="40.86925" lon="-6.85836">
        <ele>683.8819</ele>
        <time>2021-07-08T17:19:45Z</time>
      </trkpt>
      <trkpt lat="40.86794" lon="-6.85865">
        <ele>676.0126</ele>
        <time>2021-07-08T17:19:56Z</time>
      </trkpt>
      <trkpt lat="40.86699" lon="-6.85908">
        <ele>671.6097</ele>
        <time>2021-07-08T17:20:07Z</time>
      </trkpt>
      <trkpt lat="40.86518" lon="-6.8598">
        <ele>668.5416</ele>
        <time>2021-07-08T17:20:18Z</time>
      </trkpt>
      <trkpt lat="40.86333" lon="-6.85999">
        <ele>664.9465</ele>
        <time>2021-07-08T17:20:29Z</time>
      </trkpt>
      <trkpt lat="40.86269" lon="-6.85965">
        <ele>665.3045</ele>
        <time>2021-07-08T17:20:40Z</time>
      </trkpt>
      <trkpt lat="40.86209" lon="-6.85757">
        <ele>662.8758</ele>
        <time>2021-07-08T17:20:51Z</time>
      </trkpt>
      <trkpt lat="40.86161" lon="-6.85562">
        <ele>658.8854</ele>
        <time>2021-07-08T17:21:02Z</time>
      </trkpt>
      <trkpt lat="40.86151" lon="-6.85401">
        <ele>654.9772</ele>
        <time>2021-07-08T17:21:13Z</time>
      </trkpt>
      <trkpt lat="40.8614" lon="-6.85251">
        <ele>654.0641</ele>
        <time>2021-07-08T17:21:24Z</time>
      </trkpt>
      <trkpt lat="40.86118" lon="-6.85078">
        <ele>642.5405</ele>
        <time>2021-07-08T17:21:35Z</time>
      </trkpt>
      <trkpt lat="40.86063" lon="-6.84958">
        <ele>646.0888</ele>
        <time>2021-07-08T17:21:46Z</time>
      </trkpt>
      <trkpt lat="40.86039" lon="-6.84862">
        <ele>651.821</ele>
        <time>2021-07-08T17:21:57Z</time>
      </trkpt>
      <trkpt lat="40.86021" lon="-6.84775">
        <ele>661.8832</ele>
        <time>2021-07-08T17:22:08Z</time>
      </trkpt>
      <trkpt lat="40.8602" lon="-6.84768">
        <ele>663.6142</ele>
        <time>2021-07-08T17:22:19Z</time>
      </trkpt>
      <trkpt lat="40.86001" lon="-6.84691">
        <ele>651.1736</ele>
        <time>2021-07-08T17:22:30Z</time>
      </trkpt>
      <trkpt lat="40.85955" lon="-6.84549">
        <ele>645.8192</ele>
        <time>2021-07-08T17:22:41Z</time>
      </trkpt>
      <trkpt lat="40.85917" lon="-6.84351">
        <ele>648.4325</ele>
        <time>2021-07-08T17:22:52Z</time>
      </trkpt>
      <trkpt lat="40.85878" lon="-6.84182">
        <ele>651.1224</ele>
        <time>2021-07-08T17:23:03Z</time>
      </trkpt>
      <trkpt lat="40.85844" lon="-6.8406">
        <ele>640.3297</ele>
        <time>2021-07-08T17:23:14Z</time>
      </trkpt>
      <trkpt lat="40.85802" lon="-6.83903">
        <ele>643.7489</ele>
        <time>2021-07-08T17:23:25Z</time>
      </trkpt>
      <trkpt lat="40.85746" lon="-6.83776">
        <ele>649.0271</ele>
        <time>2021-07-08T17:23:36Z</time>
      </trkpt>
      <trkpt lat="40.85699" lon="-6.83643">
        <ele>651.5148</ele>
        <time>2021-07-08T17:23:47Z</time>
      </trkpt>
      <trkpt lat="40.8565" lon="-6.83502">
        <ele>656.4666</ele>
        <time>2021-07-08T17:23:58Z</time>
      </trkpt>
      <trkpt lat="40.85588" lon="-6.83376">
        <ele>656.3798</ele>
        <time>2021-07-08T17:24:09Z</time>
      </trkpt>
      <trkpt lat="40.85578" lon="-6.83236">
        <ele>660.5867</ele>
        <time>2021-07-08T17:24:20Z</time>
      </trkpt>
      <trkpt lat="40.85542" lon="-6.83096">
        <ele>666.5698</ele>
        <time>2021-07-08T17:24:31Z</time>
      </trkpt>
      <trkpt lat="40.85507" lon="-6.82997">
        <ele>663.0697</ele>
        <time>2021-07-08T17:24:42Z</time>
      </trkpt>
      <trkpt lat="40.8548" lon="-6.82911">
        <ele>658.4735</ele>
        <time>2021-07-08T17:24:53Z</time>
      </trkpt>
      <trkpt lat="40.85437" lon="-6.82885">
        <ele>650.5746</ele>
        <time>2021-07-08T17:25:04Z</time>
      </trkpt>
      <trkpt lat="40.85372" lon="-6.8288">
        <ele>642.629</ele>
        <time>2021-07-08T17:25:15Z</time>
      </trkpt>
      <trkpt lat="40.85341" lon="-6.82791">
        <ele>641.2337</ele>
        <time>2021-07-08T17:25:26Z</time>
      </trkpt>
      <trkpt lat="40.85353" lon="-6.82677">
        <ele>633.6857</ele>
        <time>2021-07-08T17:25:37Z</time>
      </trkpt>
      <trkpt lat="40.85313" lon="-6.82597">
        <ele>626.2729</ele>
        <time>2021-07-08T17:25:48Z</time>
      </trkpt>
      <trkpt lat="40.85261" lon="-6.82492">
        <ele>629.3136</ele>
        <time>2021-07-08T17:25:59Z</time>
      </trkpt>
      <trkpt lat="40.85204" lon="-6.82409">
        <ele>624.3142</ele>
        <time>2021-07-08T17:26:10Z</time>
      </trkpt>
      <trkpt lat="40.85149" lon="-6.82352">
        <ele>609.5861</ele>
        <time>2021-07-08T17:26:21Z</time>
      </trkpt>
      <trkpt lat="40.85114" lon="-6.82242">
        <ele>602.4058</ele>
        <time>2021-07-08T17:26:32Z</time>
      </trkpt>
      <trkpt lat="40.85081" lon="-6.82135">
        <ele>602.2791</ele>
        <time>2021-07-08T17:26:43Z</time>
      </trkpt>
      <trkpt lat="40.85047" lon="-6.82093">
        <ele>601.6464</ele>
        <time>2021-07-08T17:26:54Z</time>
      </trkpt>
      <trkpt lat="40.85005" lon="-6.82007">
        <ele>602.1041</ele>
        <time>2021-07-08T17:27:05Z</time>
      </trkpt>
      <trkpt lat="40.84937" lon="-6.8194">
        <ele>599.63</ele>
        <time>2021-07-08T17:27:16Z</time>
      </trkpt>
      <trkpt lat="40.84855" lon="-6.81948">
        <ele>595.6627</ele>
        <time>2021-07-08T17:27:27Z</time>
      </trkpt>
      <trkpt lat="40.84808" lon="-6.82007">
        <ele>596.3519</ele>
        <time>2021-07-08T17:27:38Z</time>
      </trkpt>
      <trkpt lat="40.84764" lon="-6.82071">
        <ele>588.9101</ele>
        <time>2021-07-08T17:27:49Z</time>
      </trkpt>
      <trkpt lat="40.84721" lon="-6.82083">
        <ele>584.1531</ele>
        <time>2021-07-08T17:28:00Z</time>
      </trkpt>
      <trkpt lat="40.84713" lon="-6.8216">
        <ele>576.6611</ele>
        <time>2021-07-08T17:28:11Z</time>
      </trkpt>
      <trkpt lat="40.8473" lon="-6.82238">
        <ele>571.0085</ele>
        <time>2021-07-08T17:28:22Z</time>
      </trkpt>
      <trkpt lat="40.84744" lon="-6.82311">
        <ele>568.7755</ele>
        <time>2021-07-08T17:28:33Z</time>
      </trkpt>
      <trkpt lat="40.84678" lon="-6.82399">
        <ele>566.902</ele>
        <time>2021-07-08T17:28:44Z</time>
      </trkpt>
      <trkpt lat="40.84675" lon="-6.82486">
        <ele>563.8313</ele>
        <time>2021-07-08T17:28:55Z</time>
      </trkpt>
      <trkpt lat="40.84616" lon="-6.82501">
        <ele>561.9266</ele>
        <time>2021-07-08T17:29:06Z</time>
      </trkpt>
      <trkpt lat="40.84555" lon="-6.82557">
        <ele>561.4274</ele>
        <time>2021-07-08T17:29:17Z</time>
      </trkpt>
      <trkpt lat="40.84512" lon="-6.82655">
        <ele>562.1883</ele>
        <time>2021-07-08T17:29:28Z</time>
      </trkpt>
      <trkpt lat="40.84481" lon="-6.82742">
        <ele>565.8662</ele>
        <time>2021-07-08T17:29:39Z</time>
      </trkpt>
      <trkpt lat="40.84405" lon="-6.82764">
        <ele>565.0865</ele>
        <time>2021-07-08T17:29:50Z</time>
      </trkpt>
      <trkpt lat="40.84363" lon="-6.82756">
        <ele>572.6722</ele>
        <time>2021-07-08T17:30:01Z</time>
      </trkpt>
      <trkpt lat="40.84375" lon="-6.82844">
        <ele>582.5262</ele>
        <time>2021-07-08T17:30:12Z</time>
      </trkpt>
      <trkpt lat="40.84359" lon="-6.82896">
        <ele>583.2238</ele>
        <time>2021-07-08T17:30:23Z</time>
      </trkpt>
      <trkpt lat="40.84355" lon="-6.8297">
        <ele>584.5322</ele>
        <time>2021-07-08T17:30:34Z</time>
      </trkpt>
      <trkpt lat="40.84348" lon="-6.83014">
        <ele>585.2811</ele>
        <time>2021-07-08T17:30:45Z</time>
      </trkpt>
      <trkpt lat="40.84341" lon="-6.83004">
        <ele>582.4328</ele>
        <time>2021-07-08T17:30:56Z</time>
      </trkpt>
      <trkpt lat="40.84294" lon="-6.82989">
        <ele>576.4203</ele>
        <time>2021-07-08T17:31:07Z</time>
      </trkpt>
      <trkpt lat="40.84228" lon="-6.83001">
        <ele>571.9072</ele>
        <time>2021-07-08T17:31:18Z</time>
      </trkpt>
      <trkpt lat="40.8419" lon="-6.82998">
        <ele>566.6073</ele>
        <time>2021-07-08T17:31:29Z</time>
      </trkpt>
      <trkpt lat="40.84148" lon="-6.83003">
        <ele>565.0874</ele>
        <time>2021-07-08T17:31:40Z</time>
      </trkpt>
      <trkpt lat="40.84144" lon="-6.82963">
        <ele>571.5866</ele>
        <time>2021-07-08T17:31:51Z</time>
      </trkpt>
      <trkpt lat="40.84122" lon="-6.82953">
        <ele>576.1526</ele>
        <time>2021-07-08T17:32:02Z</time>
      </trkpt>
      <trkpt lat="40.84094" lon="-6.82951">
        <ele>577.1528</ele>
        <time>2021-07-08T17:32:13Z</time>
      </trkpt>
      <trkpt lat="40.84059" lon="-6.8295">
        <ele>584.4637</ele>
        <time>2021-07-08T17:32:24Z</time>
      </trkpt>
      <trkpt lat="40.84029" lon="-6.82975">
        <ele>586.5114</ele>
        <time>2021-07-08T17:32:35Z</time>
      </trkpt>
      <trkpt lat="40.84022" lon="-6.82984">
        <ele>593.7343</ele>
        <time>2021-07-08T17:32:46Z</time>
      </trkpt>
      <trkpt lat="40.84019" lon="-6.82987">
        <ele>592.5742</ele>
        <time>2021-07-08T17:33:45Z</time>
      </trkpt>
      <trkpt lat="40.83991" lon="-6.83006">
        <ele>598.9307</ele>
        <time>2021-07-08T17:33:56Z</time>
      </trkpt>
      <trkpt lat="40.83966" lon="-6.83067">
        <ele>603.6285</ele>
        <time>2021-07-08T17:34:07Z</time>
      </trkpt>
      <trkpt lat="40.83963" lon="-6.83065">
        <ele>604.9425</ele>
        <time>2021-07-08T17:35:04Z</time>
      </trkpt>
      <trkpt lat="40.83956" lon="-6.83048">
        <ele>608.0573</ele>
        <time>2021-07-08T17:35:15Z</time>
      </trkpt>
      <trkpt lat="40.83956" lon="-6.83048">
        <ele>607.8143</ele>
        <time>2021-07-08T17:36:15Z</time>
      </trkpt>
      <trkpt lat="40.83955" lon="-6.83043">
        <ele>608.1933</ele>
        <time>2021-07-08T17:36:56Z</time>
      </trkpt>
      <trkpt lat="40.83937" lon="-6.82989">
        <ele>610.7642</ele>
        <time>2021-07-08T17:37:07Z</time>
      </trkpt>
      <trkpt lat="40.83934" lon="-6.82984">
        <ele>611.7075</ele>
        <time>2021-07-08T17:37:18Z</time>
      </trkpt>
      <trkpt lat="40.83931" lon="-6.82981">
        <ele>612.5292</ele>
        <time>2021-07-08T17:38:08Z</time>
      </trkpt>
      <trkpt lat="40.83932" lon="-6.82981">
        <ele>612.5044</ele>
        <time>2021-07-08T17:39:08Z</time>
      </trkpt>
      <trkpt lat="40.83928" lon="-6.82975">
        <ele>613.1175</ele>
        <time>2021-07-08T17:39:29Z</time>
      </trkpt>
      <trkpt lat="40.83865" lon="-6.82959">
        <ele>615.9095</ele>
        <time>2021-07-08T17:39:40Z</time>
      </trkpt>
      <trkpt lat="40.8378" lon="-6.82964">
        <ele>617.1333</ele>
        <time>2021-07-08T17:39:51Z</time>
      </trkpt>
      <trkpt lat="40.83701" lon="-6.82951">
        <ele>618.5287</ele>
        <time>2021-07-08T17:40:02Z</time>
      </trkpt>
      <trkpt lat="40.83631" lon="-6.82931">
        <ele>631.387</ele>
        <time>2021-07-08T17:40:13Z</time>
      </trkpt>
      <trkpt lat="40.83562" lon="-6.82928">
        <ele>629.035</ele>
        <time>2021-07-08T17:40:24Z</time>
      </trkpt>
      <trkpt lat="40.83494" lon="-6.8294">
        <ele>635.585</ele>
        <time>2021-07-08T17:40:35Z</time>
      </trkpt>
      <trkpt lat="40.83405" lon="-6.82953">
        <ele>645.8115</ele>
        <time>2021-07-08T17:40:46Z</time>
      </trkpt>
      <trkpt lat="40.83321" lon="-6.82905">
        <ele>645.6129</ele>
        <time>2021-07-08T17:40:57Z</time>
      </trkpt>
      <trkpt lat="40.83291" lon="-6.82939">
        <ele>649.8429</ele>
        <time>2021-07-08T17:41:08Z</time>
      </trkpt>
      <trkpt lat="40.83284" lon="-6.82954">
        <ele>650.9069</ele>
        <time>2021-07-08T17:41:19Z</time>
      </trkpt>
      <trkpt lat="40.83292" lon="-6.8293">
        <ele>648.4322</ele>
        <time>2021-07-08T17:41:30Z</time>
      </trkpt>
      <trkpt lat="40.83291" lon="-6.82901">
        <ele>646.8138</ele>
        <time>2021-07-08T17:41:41Z</time>
      </trkpt>
      <trkpt lat="40.83296" lon="-6.82896">
        <ele>645.8704</ele>
        <time>2021-07-08T17:41:57Z</time>
      </trkpt>
      <trkpt lat="40.83302" lon="-6.82897">
        <ele>646.0235</ele>
        <time>2021-07-08T17:42:08Z</time>
      </trkpt>
      <trkpt lat="40.83301" lon="-6.82897">
        <ele>646.1971</ele>
        <time>2021-07-08T17:43:07Z</time>
      </trkpt>
      <trkpt lat="40.83298" lon="-6.82897">
        <ele>646.0221</ele>
        <time>2021-07-08T17:43:56Z</time>
      </trkpt>
      <trkpt lat="40.83282" lon="-6.82963">
        <ele>649.4494</ele>
        <time>2021-07-08T17:44:07Z</time>
      </trkpt>
      <trkpt lat="40.83235" lon="-6.83013">
        <ele>652.7675</ele>
        <time>2021-07-08T17:44:18Z</time>
      </trkpt>
      <trkpt lat="40.83138" lon="-6.83031">
        <ele>652.8865</ele>
        <time>2021-07-08T17:44:29Z</time>
      </trkpt>
      <trkpt lat="40.83043" lon="-6.8305">
        <ele>667.3482</ele>
        <time>2021-07-08T17:44:40Z</time>
      </trkpt>
      <trkpt lat="40.82993" lon="-6.83112">
        <ele>675.7349</ele>
        <time>2021-07-08T17:44:51Z</time>
      </trkpt>
      <trkpt lat="40.82984" lon="-6.83241">
        <ele>675.7533</ele>
        <time>2021-07-08T17:45:02Z</time>
      </trkpt>
      <trkpt lat="40.82982" lon="-6.83371">
        <ele>675.5062</ele>
        <time>2021-07-08T17:45:13Z</time>
      </trkpt>
      <trkpt lat="40.8296" lon="-6.83494">
        <ele>678.6968</ele>
        <time>2021-07-08T17:45:24Z</time>
      </trkpt>
      <trkpt lat="40.82961" lon="-6.83593">
        <ele>675.5599</ele>
        <time>2021-07-08T17:45:35Z</time>
      </trkpt>
      <trkpt lat="40.82949" lon="-6.83662">
        <ele>671.4678</ele>
        <time>2021-07-08T17:45:46Z</time>
      </trkpt>
      <trkpt lat="40.82998" lon="-6.83742">
        <ele>667.0335</ele>
        <time>2021-07-08T17:45:57Z</time>
      </trkpt>
      <trkpt lat="40.83047" lon="-6.83826">
        <ele>665.3474</ele>
        <time>2021-07-08T17:46:08Z</time>
      </trkpt>
      <trkpt lat="40.83" lon="-6.8387">
        <ele>663.3624</ele>
        <time>2021-07-08T17:46:19Z</time>
      </trkpt>
      <trkpt lat="40.8294" lon="-6.8394">
        <ele>669.1818</ele>
        <time>2021-07-08T17:46:30Z</time>
      </trkpt>
      <trkpt lat="40.82962" lon="-6.84051">
        <ele>666.413</ele>
        <time>2021-07-08T17:46:41Z</time>
      </trkpt>
      <trkpt lat="40.83021" lon="-6.84143">
        <ele>664.2973</ele>
        <time>2021-07-08T17:46:52Z</time>
      </trkpt>
      <trkpt lat="40.83049" lon="-6.84245">
        <ele>658.7033</ele>
        <time>2021-07-08T17:47:03Z</time>
      </trkpt>
      <trkpt lat="40.8309" lon="-6.84284">
        <ele>660.1952</ele>
        <time>2021-07-08T17:47:14Z</time>
      </trkpt>
      <trkpt lat="40.8307" lon="-6.84373">
        <ele>664.9492</ele>
        <time>2021-07-08T17:47:25Z</time>
      </trkpt>
      <trkpt lat="40.82976" lon="-6.84414">
        <ele>667.0591</ele>
        <time>2021-07-08T17:47:36Z</time>
      </trkpt>
      <trkpt lat="40.82924" lon="-6.84483">
        <ele>668.6587</ele>
        <time>2021-07-08T17:47:47Z</time>
      </trkpt>
      <trkpt lat="40.82819" lon="-6.84589">
        <ele>674.3609</ele>
        <time>2021-07-08T17:47:58Z</time>
      </trkpt>
      <trkpt lat="40.82682" lon="-6.84671">
        <ele>671.5434</ele>
        <time>2021-07-08T17:48:09Z</time>
      </trkpt>
      <trkpt lat="40.8256" lon="-6.84707">
        <ele>677.2922</ele>
        <time>2021-07-08T17:48:20Z</time>
      </trkpt>
      <trkpt lat="40.82471" lon="-6.84726">
        <ele>679.1649</ele>
        <time>2021-07-08T17:48:31Z</time>
      </trkpt>
      <trkpt lat="40.82349" lon="-6.84707">
        <ele>677.4353</ele>
        <time>2021-07-08T17:48:42Z</time>
      </trkpt>
      <trkpt lat="40.82225" lon="-6.84699">
        <ele>665.0726</ele>
        <time>2021-07-08T17:48:53Z</time>
      </trkpt>
      <trkpt lat="40.82104" lon="-6.84691">
        <ele>662.9156</ele>
        <time>2021-07-08T17:49:04Z</time>
      </trkpt>
      <trkpt lat="40.82033" lon="-6.84628">
        <ele>676.4536</ele>
        <time>2021-07-08T17:49:15Z</time>
      </trkpt>
      <trkpt lat="40.81971" lon="-6.84568">
        <ele>678.0496</ele>
        <time>2021-07-08T17:49:26Z</time>
      </trkpt>
      <trkpt lat="40.81914" lon="-6.84544">
        <ele>672.9813</ele>
        <time>2021-07-08T17:49:37Z</time>
      </trkpt>
      <trkpt lat="40.81898" lon="-6.84491">
        <ele>668.4577</ele>
        <time>2021-07-08T17:49:48Z</time>
      </trkpt>
      <trkpt lat="40.81872" lon="-6.8445">
        <ele>666.9184</ele>
        <time>2021-07-08T17:49:59Z</time>
      </trkpt>
      <trkpt lat="40.8184" lon="-6.84394">
        <ele>668.2477</ele>
        <time>2021-07-08T17:50:10Z</time>
      </trkpt>
      <trkpt lat="40.81765" lon="-6.84344">
        <ele>672.3976</ele>
        <time>2021-07-08T17:50:22Z</time>
      </trkpt>
      <trkpt lat="40.81681" lon="-6.84293">
        <ele>676.0131</ele>
        <time>2021-07-08T17:50:33Z</time>
      </trkpt>
      <trkpt lat="40.81606" lon="-6.84238">
        <ele>675.9942</ele>
        <time>2021-07-08T17:50:44Z</time>
      </trkpt>
      <trkpt lat="40.81536" lon="-6.84196">
        <ele>677.6123</ele>
        <time>2021-07-08T17:50:55Z</time>
      </trkpt>
      <trkpt lat="40.81456" lon="-6.84184">
        <ele>680.4484</ele>
        <time>2021-07-08T17:51:06Z</time>
      </trkpt>
      <trkpt lat="40.8137" lon="-6.8418">
        <ele>684.2885</ele>
        <time>2021-07-08T17:51:17Z</time>
      </trkpt>
      <trkpt lat="40.81283" lon="-6.84245">
        <ele>686.4742</ele>
        <time>2021-07-08T17:51:28Z</time>
      </trkpt>
      <trkpt lat="40.81186" lon="-6.84314">
        <ele>688.9406</ele>
        <time>2021-07-08T17:51:39Z</time>
      </trkpt>
      <trkpt lat="40.81119" lon="-6.84359">
        <ele>692.2036</ele>
        <time>2021-07-08T17:51:50Z</time>
      </trkpt>
      <trkpt lat="40.81017" lon="-6.8438">
        <ele>695.3319</ele>
        <time>2021-07-08T17:52:01Z</time>
      </trkpt>
      <trkpt lat="40.80952" lon="-6.84306">
        <ele>694.3184</ele>
        <time>2021-07-08T17:52:12Z</time>
      </trkpt>
      <trkpt lat="40.80873" lon="-6.84273">
        <ele>695.9256</ele>
        <time>2021-07-08T17:52:23Z</time>
      </trkpt>
      <trkpt lat="40.80803" lon="-6.84231">
        <ele>702.0686</ele>
        <time>2021-07-08T17:52:35Z</time>
      </trkpt>
      <trkpt lat="40.80698" lon="-6.84219">
        <ele>708.3866</ele>
        <time>2021-07-08T17:52:46Z</time>
      </trkpt>
      <trkpt lat="40.80591" lon="-6.84191">
        <ele>712.6248</ele>
        <time>2021-07-08T17:52:57Z</time>
      </trkpt>
      <trkpt lat="40.80498" lon="-6.84141">
        <ele>714.0406</ele>
        <time>2021-07-08T17:53:08Z</time>
      </trkpt>
      <trkpt lat="40.8043" lon="-6.8413">
        <ele>716.0611</ele>
        <time>2021-07-08T17:53:19Z</time>
      </trkpt>
      <trkpt lat="40.80363" lon="-6.84059">
        <ele>720.5766</ele>
        <time>2021-07-08T17:53:30Z</time>
      </trkpt>
      <trkpt lat="40.80306" lon="-6.83945">
        <ele>718.1499</ele>
        <time>2021-07-08T17:53:41Z</time>
      </trkpt>
      <trkpt lat="40.80253" lon="-6.83871">
        <ele>722.9504</ele>
        <time>2021-07-08T17:53:52Z</time>
      </trkpt>
      <trkpt lat="40.80178" lon="-6.83816">
        <ele>723.4696</ele>
        <time>2021-07-08T17:54:03Z</time>
      </trkpt>
      <trkpt lat="40.80094" lon="-6.83781">
        <ele>719.5701</ele>
        <time>2021-07-08T17:54:14Z</time>
      </trkpt>
      <trkpt lat="40.80014" lon="-6.83757">
        <ele>718.4362</ele>
        <time>2021-07-08T17:54:25Z</time>
      </trkpt>
      <trkpt lat="40.79896" lon="-6.83779">
        <ele>718.4621</ele>
        <time>2021-07-08T17:54:36Z</time>
      </trkpt>
      <trkpt lat="40.79783" lon="-6.83768">
        <ele>717.5755</ele>
        <time>2021-07-08T17:54:47Z</time>
      </trkpt>
      <trkpt lat="40.79694" lon="-6.83858">
        <ele>718.977</ele>
        <time>2021-07-08T17:54:58Z</time>
      </trkpt>
      <trkpt lat="40.79657" lon="-6.83956">
        <ele>720.7522</ele>
        <time>2021-07-08T17:55:09Z</time>
      </trkpt>
      <trkpt lat="40.79602" lon="-6.84043">
        <ele>722.6773</ele>
        <time>2021-07-08T17:55:20Z</time>
      </trkpt>
      <trkpt lat="40.79554" lon="-6.84101">
        <ele>722.7988</ele>
        <time>2021-07-08T17:55:31Z</time>
      </trkpt>
      <trkpt lat="40.79494" lon="-6.84135">
        <ele>721.9925</ele>
        <time>2021-07-08T17:55:42Z</time>
      </trkpt>
      <trkpt lat="40.79389" lon="-6.84114">
        <ele>723.5878</ele>
        <time>2021-07-08T17:55:53Z</time>
      </trkpt>
      <trkpt lat="40.79298" lon="-6.84074">
        <ele>723.7845</ele>
        <time>2021-07-08T17:56:04Z</time>
      </trkpt>
      <trkpt lat="40.79156" lon="-6.84007">
        <ele>721.5318</ele>
        <time>2021-07-08T17:56:15Z</time>
      </trkpt>
      <trkpt lat="40.79053" lon="-6.83991">
        <ele>720.6412</ele>
        <time>2021-07-08T17:56:26Z</time>
      </trkpt>
      <trkpt lat="40.79051" lon="-6.83987">
        <ele>725.8869</ele>
        <time>2021-07-08T17:56:37Z</time>
      </trkpt>
      <trkpt lat="40.79046" lon="-6.83987">
        <ele>725.8655</ele>
        <time>2021-07-08T17:57:09Z</time>
      </trkpt>
      <trkpt lat="40.79042" lon="-6.83986">
        <ele>726.7025</ele>
        <time>2021-07-08T17:57:56Z</time>
      </trkpt>
      <trkpt lat="40.78958" lon="-6.83977">
        <ele>724.8308</ele>
        <time>2021-07-08T17:58:07Z</time>
      </trkpt>
      <trkpt lat="40.78893" lon="-6.83984">
        <ele>727.0437</ele>
        <time>2021-07-08T17:58:18Z</time>
      </trkpt>
      <trkpt lat="40.78833" lon="-6.83964">
        <ele>726.5833</ele>
        <time>2021-07-08T17:58:29Z</time>
      </trkpt>
      <trkpt lat="40.78776" lon="-6.83946">
        <ele>723.5976</ele>
        <time>2021-07-08T17:58:40Z</time>
      </trkpt>
      <trkpt lat="40.78729" lon="-6.83976">
        <ele>723.4533</ele>
        <time>2021-07-08T17:58:51Z</time>
      </trkpt>
      <trkpt lat="40.78664" lon="-6.83957">
        <ele>723.1446</ele>
        <time>2021-07-08T17:59:02Z</time>
      </trkpt>
      <trkpt lat="40.78604" lon="-6.83946">
        <ele>724.0417</ele>
        <time>2021-07-08T17:59:13Z</time>
      </trkpt>
      <trkpt lat="40.78559" lon="-6.83931">
        <ele>724.9678</ele>
        <time>2021-07-08T17:59:24Z</time>
      </trkpt>
      <trkpt lat="40.78515" lon="-6.83933">
        <ele>724.3298</ele>
        <time>2021-07-08T17:59:35Z</time>
      </trkpt>
      <trkpt lat="40.78459" lon="-6.83932">
        <ele>723.9249</ele>
        <time>2021-07-08T17:59:46Z</time>
      </trkpt>
      <trkpt lat="40.78403" lon="-6.83973">
        <ele>724.6539</ele>
        <time>2021-07-08T17:59:57Z</time>
      </trkpt>
      <trkpt lat="40.7835" lon="-6.83968">
        <ele>723.1744</ele>
        <time>2021-07-08T18:00:08Z</time>
      </trkpt>
      <trkpt lat="40.78289" lon="-6.83963">
        <ele>720.9159</ele>
        <time>2021-07-08T18:00:19Z</time>
      </trkpt>
      <trkpt lat="40.78217" lon="-6.83983">
        <ele>723.0842</ele>
        <time>2021-07-08T18:00:30Z</time>
      </trkpt>
      <trkpt lat="40.78159" lon="-6.84066">
        <ele>726.0861</ele>
        <time>2021-07-08T18:00:41Z</time>
      </trkpt>
      <trkpt lat="40.78104" lon="-6.84123">
        <ele>724.7412</ele>
        <time>2021-07-08T18:00:52Z</time>
      </trkpt>
      <trkpt lat="40.78039" lon="-6.84168">
        <ele>725.4341</ele>
        <time>2021-07-08T18:01:03Z</time>
      </trkpt>
      <trkpt lat="40.77967" lon="-6.8416">
        <ele>722.1206</ele>
        <time>2021-07-08T18:01:14Z</time>
      </trkpt>
      <trkpt lat="40.77908" lon="-6.8412">
        <ele>726.3568</ele>
        <time>2021-07-08T18:01:25Z</time>
      </trkpt>
      <trkpt lat="40.77872" lon="-6.84061">
        <ele>730.5114</ele>
        <time>2021-07-08T18:01:36Z</time>
      </trkpt>
      <trkpt lat="40.77804" lon="-6.84076">
        <ele>729.1306</ele>
        <time>2021-07-08T18:01:47Z</time>
      </trkpt>
      <trkpt lat="40.77691" lon="-6.84076">
        <ele>726.3117</ele>
        <time>2021-07-08T18:01:58Z</time>
      </trkpt>
      <trkpt lat="40.77555" lon="-6.84063">
        <ele>728.4591</ele>
        <time>2021-07-08T18:02:09Z</time>
      </trkpt>
      <trkpt lat="40.77436" lon="-6.84076">
        <ele>728.2736</ele>
        <time>2021-07-08T18:02:20Z</time>
      </trkpt>
      <trkpt lat="40.77334" lon="-6.84081">
        <ele>722.4551</ele>
        <time>2021-07-08T18:02:31Z</time>
      </trkpt>
      <trkpt lat="40.77227" lon="-6.84126">
        <ele>721.0113</ele>
        <time>2021-07-08T18:02:42Z</time>
      </trkpt>
      <trkpt lat="40.77115" lon="-6.84159">
        <ele>722.3756</ele>
        <time>2021-07-08T18:02:53Z</time>
      </trkpt>
      <trkpt lat="40.77021" lon="-6.84272">
        <ele>727.8681</ele>
        <time>2021-07-08T18:03:04Z</time>
      </trkpt>
      <trkpt lat="40.77007" lon="-6.84389">
        <ele>729.2573</ele>
        <time>2021-07-08T18:03:16Z</time>
      </trkpt>
      <trkpt lat="40.76935" lon="-6.84448">
        <ele>724.8369</ele>
        <time>2021-07-08T18:03:27Z</time>
      </trkpt>
      <trkpt lat="40.7688" lon="-6.84482">
        <ele>720.8935</ele>
        <time>2021-07-08T18:03:38Z</time>
      </trkpt>
      <trkpt lat="40.76877" lon="-6.84475">
        <ele>721.7713</ele>
        <time>2021-07-08T18:03:49Z</time>
      </trkpt>
      <trkpt lat="40.76877" lon="-6.84474">
        <ele>721.8424</ele>
        <time>2021-07-08T18:04:48Z</time>
      </trkpt>
      <trkpt lat="40.76877" lon="-6.84466">
        <ele>721.9101</ele>
        <time>2021-07-08T18:05:02Z</time>
      </trkpt>
      <trkpt lat="40.76861" lon="-6.8436">
        <ele>723.002</ele>
        <time>2021-07-08T18:05:13Z</time>
      </trkpt>
      <trkpt lat="40.7682" lon="-6.84258">
        <ele>726.3409</ele>
        <time>2021-07-08T18:05:24Z</time>
      </trkpt>
      <trkpt lat="40.76798" lon="-6.84153">
        <ele>727.4326</ele>
        <time>2021-07-08T18:05:35Z</time>
      </trkpt>
      <trkpt lat="40.76731" lon="-6.84107">
        <ele>724.9879</ele>
        <time>2021-07-08T18:05:46Z</time>
      </trkpt>
      <trkpt lat="40.76658" lon="-6.84098">
        <ele>723.3317</ele>
        <time>2021-07-08T18:05:57Z</time>
      </trkpt>
      <trkpt lat="40.76584" lon="-6.84075">
        <ele>724.6792</ele>
        <time>2021-07-08T18:06:08Z</time>
      </trkpt>
      <trkpt lat="40.76531" lon="-6.84045">
        <ele>728.2526</ele>
        <time>2021-07-08T18:06:19Z</time>
      </trkpt>
      <trkpt lat="40.76437" lon="-6.84054">
        <ele>729.2923</ele>
        <time>2021-07-08T18:06:30Z</time>
      </trkpt>
      <trkpt lat="40.76372" lon="-6.84092">
        <ele>731.954</ele>
        <time>2021-07-08T18:06:41Z</time>
      </trkpt>
      <trkpt lat="40.76295" lon="-6.8406">
        <ele>736.3747</ele>
        <time>2021-07-08T18:06:52Z</time>
      </trkpt>
      <trkpt lat="40.76204" lon="-6.84082">
        <ele>734.1963</ele>
        <time>2021-07-08T18:07:03Z</time>
      </trkpt>
      <trkpt lat="40.76124" lon="-6.84088">
        <ele>732.1631</ele>
        <time>2021-07-08T18:07:14Z</time>
      </trkpt>
      <trkpt lat="40.76024" lon="-6.8409">
        <ele>740.5136</ele>
        <time>2021-07-08T18:07:25Z</time>
      </trkpt>
      <trkpt lat="40.75914" lon="-6.84096">
        <ele>744.9241</ele>
        <time>2021-07-08T18:07:36Z</time>
      </trkpt>
      <trkpt lat="40.75787" lon="-6.84098">
        <ele>744.7118</ele>
        <time>2021-07-08T18:07:47Z</time>
      </trkpt>
      <trkpt lat="40.75665" lon="-6.84135">
        <ele>747.278</ele>
        <time>2021-07-08T18:07:58Z</time>
      </trkpt>
      <trkpt lat="40.75549" lon="-6.84171">
        <ele>742.6601</ele>
        <time>2021-07-08T18:08:09Z</time>
      </trkpt>
      <trkpt lat="40.75428" lon="-6.84194">
        <ele>738.7922</ele>
        <time>2021-07-08T18:08:20Z</time>
      </trkpt>
      <trkpt lat="40.75314" lon="-6.84207">
        <ele>741.2217</ele>
        <time>2021-07-08T18:08:31Z</time>
      </trkpt>
      <trkpt lat="40.75197" lon="-6.84168">
        <ele>749.7656</ele>
        <time>2021-07-08T18:08:42Z</time>
      </trkpt>
      <trkpt lat="40.75093" lon="-6.84109">
        <ele>753.0982</ele>
        <time>2021-07-08T18:08:53Z</time>
      </trkpt>
      <trkpt lat="40.75008" lon="-6.84085">
        <ele>742.3127</ele>
        <time>2021-07-08T18:09:04Z</time>
      </trkpt>
      <trkpt lat="40.74898" lon="-6.84072">
        <ele>739.8459</ele>
        <time>2021-07-08T18:09:15Z</time>
      </trkpt>
      <trkpt lat="40.7478" lon="-6.84056">
        <ele>742.1843</ele>
        <time>2021-07-08T18:09:26Z</time>
      </trkpt>
      <trkpt lat="40.74693" lon="-6.8413">
        <ele>742.4183</ele>
        <time>2021-07-08T18:09:37Z</time>
      </trkpt>
      <trkpt lat="40.74546" lon="-6.84178">
        <ele>740.5144</ele>
        <time>2021-07-08T18:09:48Z</time>
      </trkpt>
      <trkpt lat="40.74415" lon="-6.84172">
        <ele>738.3754</ele>
        <time>2021-07-08T18:09:59Z</time>
      </trkpt>
      <trkpt lat="40.74279" lon="-6.84151">
        <ele>740.1281</ele>
        <time>2021-07-08T18:10:10Z</time>
      </trkpt>
      <trkpt lat="40.74172" lon="-6.84157">
        <ele>739.9581</ele>
        <time>2021-07-08T18:10:21Z</time>
      </trkpt>
      <trkpt lat="40.74167" lon="-6.84155">
        <ele>739.2191</ele>
        <time>2021-07-08T18:10:34Z</time>
      </trkpt>
      <trkpt lat="40.74102" lon="-6.84091">
        <ele>738.9543</ele>
        <time>2021-07-08T18:10:45Z</time>
      </trkpt>
      <trkpt lat="40.74007" lon="-6.84059">
        <ele>735.7719</ele>
        <time>2021-07-08T18:10:56Z</time>
      </trkpt>
      <trkpt lat="40.73896" lon="-6.83968">
        <ele>735.0368</ele>
        <time>2021-07-08T18:11:07Z</time>
      </trkpt>
      <trkpt lat="40.73847" lon="-6.83879">
        <ele>739.0315</ele>
        <time>2021-07-08T18:11:18Z</time>
      </trkpt>
      <trkpt lat="40.73763" lon="-6.83889">
        <ele>739.8992</ele>
        <time>2021-07-08T18:11:29Z</time>
      </trkpt>
      <trkpt lat="40.7368" lon="-6.83834">
        <ele>740.588</ele>
        <time>2021-07-08T18:11:40Z</time>
      </trkpt>
      <trkpt lat="40.73555" lon="-6.83806">
        <ele>742.2622</ele>
        <time>2021-07-08T18:11:51Z</time>
      </trkpt>
      <trkpt lat="40.73414" lon="-6.83801">
        <ele>742.9637</ele>
        <time>2021-07-08T18:12:02Z</time>
      </trkpt>
      <trkpt lat="40.73369" lon="-6.83716">
        <ele>746.9883</ele>
        <time>2021-07-08T18:12:13Z</time>
      </trkpt>
      <trkpt lat="40.73318" lon="-6.83596">
        <ele>749.2501</ele>
        <time>2021-07-08T18:12:24Z</time>
      </trkpt>
      <trkpt lat="40.73238" lon="-6.83532">
        <ele>743.584</ele>
        <time>2021-07-08T18:12:35Z</time>
      </trkpt>
      <trkpt lat="40.73129" lon="-6.83484">
        <ele>738.6572</ele>
        <time>2021-07-08T18:12:46Z</time>
      </trkpt>
      <trkpt lat="40.73031" lon="-6.83416">
        <ele>732.4899</ele>
        <time>2021-07-08T18:12:57Z</time>
      </trkpt>
      <trkpt lat="40.72946" lon="-6.8334">
        <ele>730.7382</ele>
        <time>2021-07-08T18:13:08Z</time>
      </trkpt>
      <trkpt lat="40.72808" lon="-6.83264">
        <ele>730.0379</ele>
        <time>2021-07-08T18:13:19Z</time>
      </trkpt>
      <trkpt lat="40.7277" lon="-6.83254">
        <ele>729.0492</ele>
        <time>2021-07-08T18:13:30Z</time>
      </trkpt>
      <trkpt lat="40.72766" lon="-6.83222">
        <ele>728.3032</ele>
        <time>2021-07-08T18:13:41Z</time>
      </trkpt>
      <trkpt lat="40.72772" lon="-6.83093">
        <ele>723.8747</ele>
        <time>2021-07-08T18:13:52Z</time>
      </trkpt>
      <trkpt lat="40.72738" lon="-6.82976">
        <ele>720.6346</ele>
        <time>2021-07-08T18:14:03Z</time>
      </trkpt>
      <trkpt lat="40.72662" lon="-6.82902">
        <ele>716.109</ele>
        <time>2021-07-08T18:14:14Z</time>
      </trkpt>
      <trkpt lat="40.72573" lon="-6.82851">
        <ele>717.9195</ele>
        <time>2021-07-08T18:14:25Z</time>
      </trkpt>
      <trkpt lat="40.72431" lon="-6.8291">
        <ele>723.8713</ele>
        <time>2021-07-08T18:14:36Z</time>
      </trkpt>
      <trkpt lat="40.72249" lon="-6.82997">
        <ele>727.7611</ele>
        <time>2021-07-08T18:14:47Z</time>
      </trkpt>
      <trkpt lat="40.72033" lon="-6.82952">
        <ele>735.2863</ele>
        <time>2021-07-08T18:14:58Z</time>
      </trkpt>
      <trkpt lat="40.71819" lon="-6.82802">
        <ele>742.3958</ele>
        <time>2021-07-08T18:15:09Z</time>
      </trkpt>
      <trkpt lat="40.7163" lon="-6.82672">
        <ele>732.9582</ele>
        <time>2021-07-08T18:15:20Z</time>
      </trkpt>
      <trkpt lat="40.71426" lon="-6.82626">
        <ele>731.1051</ele>
        <time>2021-07-08T18:15:31Z</time>
      </trkpt>
      <trkpt lat="40.71267" lon="-6.82484">
        <ele>737.4133</ele>
        <time>2021-07-08T18:15:42Z</time>
      </trkpt>
      <trkpt lat="40.71039" lon="-6.82385">
        <ele>742.0777</ele>
        <time>2021-07-08T18:15:53Z</time>
      </trkpt>
      <trkpt lat="40.70816" lon="-6.82297">
        <ele>747.5346</ele>
        <time>2021-07-08T18:16:04Z</time>
      </trkpt>
      <trkpt lat="40.70643" lon="-6.8223">
        <ele>748.583</ele>
        <time>2021-07-08T18:16:15Z</time>
      </trkpt>
      <trkpt lat="40.70505" lon="-6.82322">
        <ele>750.0379</ele>
        <time>2021-07-08T18:16:26Z</time>
      </trkpt>
      <trkpt lat="40.7039" lon="-6.82313">
        <ele>753.0302</ele>
        <time>2021-07-08T18:16:37Z</time>
      </trkpt>
      <trkpt lat="40.70369" lon="-6.8237">
        <ele>755.0119</ele>
        <time>2021-07-08T18:16:48Z</time>
      </trkpt>
      <trkpt lat="40.70295" lon="-6.82407">
        <ele>752.2769</ele>
        <time>2021-07-08T18:16:59Z</time>
      </trkpt>
      <trkpt lat="40.70158" lon="-6.82419">
        <ele>748.2286</ele>
        <time>2021-07-08T18:17:10Z</time>
      </trkpt>
      <trkpt lat="40.70097" lon="-6.82281">
        <ele>748.7149</ele>
        <time>2021-07-08T18:17:22Z</time>
      </trkpt>
      <trkpt lat="40.69998" lon="-6.82185">
        <ele>750.1317</ele>
        <time>2021-07-08T18:17:33Z</time>
      </trkpt>
      <trkpt lat="40.69848" lon="-6.82168">
        <ele>751.1973</ele>
        <time>2021-07-08T18:17:44Z</time>
      </trkpt>
      <trkpt lat="40.69738" lon="-6.82194">
        <ele>748.4983</ele>
        <time>2021-07-08T18:17:55Z</time>
      </trkpt>
      <trkpt lat="40.69577" lon="-6.82153">
        <ele>750.8015</ele>
        <time>2021-07-08T18:18:06Z</time>
      </trkpt>
      <trkpt lat="40.69396" lon="-6.82144">
        <ele>753.0082</ele>
        <time>2021-07-08T18:18:17Z</time>
      </trkpt>
      <trkpt lat="40.6922" lon="-6.82152">
        <ele>753.9412</ele>
        <time>2021-07-08T18:18:28Z</time>
      </trkpt>
      <trkpt lat="40.69061" lon="-6.82211">
        <ele>757.7285</ele>
        <time>2021-07-08T18:18:39Z</time>
      </trkpt>
      <trkpt lat="40.68924" lon="-6.82263">
        <ele>761.3924</ele>
        <time>2021-07-08T18:18:50Z</time>
      </trkpt>
      <trkpt lat="40.68796" lon="-6.8236">
        <ele>767.5492</ele>
        <time>2021-07-08T18:19:01Z</time>
      </trkpt>
      <trkpt lat="40.68634" lon="-6.82381">
        <ele>770.4953</ele>
        <time>2021-07-08T18:19:12Z</time>
      </trkpt>
      <trkpt lat="40.68477" lon="-6.82427">
        <ele>771.7163</ele>
        <time>2021-07-08T18:19:23Z</time>
      </trkpt>
      <trkpt lat="40.68297" lon="-6.82479">
        <ele>774.7556</ele>
        <time>2021-07-08T18:19:34Z</time>
      </trkpt>
      <trkpt lat="40.68116" lon="-6.82493">
        <ele>775.5498</ele>
        <time>2021-07-08T18:19:45Z</time>
      </trkpt>
      <trkpt lat="40.67972" lon="-6.82552">
        <ele>777.2051</ele>
        <time>2021-07-08T18:19:56Z</time>
      </trkpt>
      <trkpt lat="40.67799" lon="-6.82648">
        <ele>774.1977</ele>
        <time>2021-07-08T18:20:07Z</time>
      </trkpt>
      <trkpt lat="40.67635" lon="-6.82772">
        <ele>774.3916</ele>
        <time>2021-07-08T18:20:18Z</time>
      </trkpt>
      <trkpt lat="40.67473" lon="-6.82826">
        <ele>778.6681</ele>
        <time>2021-07-08T18:20:29Z</time>
      </trkpt>
      <trkpt lat="40.67339" lon="-6.82943">
        <ele>776.5005</ele>
        <time>2021-07-08T18:20:40Z</time>
      </trkpt>
      <trkpt lat="40.6719" lon="-6.83101">
        <ele>779.3888</ele>
        <time>2021-07-08T18:20:51Z</time>
      </trkpt>
      <trkpt lat="40.67044" lon="-6.83278">
        <ele>778.7799</ele>
        <time>2021-07-08T18:21:02Z</time>
      </trkpt>
      <trkpt lat="40.66881" lon="-6.83405">
        <ele>777.0418</ele>
        <time>2021-07-08T18:21:13Z</time>
      </trkpt>
      <trkpt lat="40.6673" lon="-6.83531">
        <ele>770.4689</ele>
        <time>2021-07-08T18:21:24Z</time>
      </trkpt>
      <trkpt lat="40.66589" lon="-6.83714">
        <ele>771.5849</ele>
        <time>2021-07-08T18:21:35Z</time>
      </trkpt>
      <trkpt lat="40.66459" lon="-6.83839">
        <ele>769.8859</ele>
        <time>2021-07-08T18:21:46Z</time>
      </trkpt>
      <trkpt lat="40.66328" lon="-6.83974">
        <ele>767.1374</ele>
        <time>2021-07-08T18:21:57Z</time>
      </trkpt>
      <trkpt lat="40.66266" lon="-6.84041">
        <ele>769.6618</ele>
        <time>2021-07-08T18:22:08Z</time>
      </trkpt>
      <trkpt lat="40.66197" lon="-6.84079">
        <ele>771.9403</ele>
        <time>2021-07-08T18:22:19Z</time>
      </trkpt>
      <trkpt lat="40.66132" lon="-6.84096">
        <ele>776.189</ele>
        <time>2021-07-08T18:22:30Z</time>
      </trkpt>
      <trkpt lat="40.66086" lon="-6.84091">
        <ele>771.6331</ele>
        <time>2021-07-08T18:22:41Z</time>
      </trkpt>
      <trkpt lat="40.66071" lon="-6.84001">
        <ele>775.5917</ele>
        <time>2021-07-08T18:22:52Z</time>
      </trkpt>
      <trkpt lat="40.66062" lon="-6.83878">
        <ele>777.6712</ele>
        <time>2021-07-08T18:23:03Z</time>
      </trkpt>
      <trkpt lat="40.66047" lon="-6.83712">
        <ele>777.8552</ele>
        <time>2021-07-08T18:23:14Z</time>
      </trkpt>
      <trkpt lat="40.66024" lon="-6.83614">
        <ele>782.1022</ele>
        <time>2021-07-08T18:23:25Z</time>
      </trkpt>
      <trkpt lat="40.65976" lon="-6.83492">
        <ele>782.4205</ele>
        <time>2021-07-08T18:23:36Z</time>
      </trkpt>
      <trkpt lat="40.66005" lon="-6.83357">
        <ele>780.5248</ele>
        <time>2021-07-08T18:23:47Z</time>
      </trkpt>
      <trkpt lat="40.65999" lon="-6.83211">
        <ele>779.1488</ele>
        <time>2021-07-08T18:23:58Z</time>
      </trkpt>
      <trkpt lat="40.65915" lon="-6.83108">
        <ele>777.3053</ele>
        <time>2021-07-08T18:24:09Z</time>
      </trkpt>
      <trkpt lat="40.65843" lon="-6.82982">
        <ele>776.3894</ele>
        <time>2021-07-08T18:24:20Z</time>
      </trkpt>
      <trkpt lat="40.65772" lon="-6.82884">
        <ele>776.5539</ele>
        <time>2021-07-08T18:24:31Z</time>
      </trkpt>
      <trkpt lat="40.65743" lon="-6.82782">
        <ele>772.2251</ele>
        <time>2021-07-08T18:24:42Z</time>
      </trkpt>
      <trkpt lat="40.6575" lon="-6.82643">
        <ele>766.8715</ele>
        <time>2021-07-08T18:24:53Z</time>
      </trkpt>
      <trkpt lat="40.65743" lon="-6.82529">
        <ele>763.9547</ele>
        <time>2021-07-08T18:25:04Z</time>
      </trkpt>
      <trkpt lat="40.65716" lon="-6.82409">
        <ele>763.0749</ele>
        <time>2021-07-08T18:25:15Z</time>
      </trkpt>
      <trkpt lat="40.65681" lon="-6.82302">
        <ele>760.1934</ele>
        <time>2021-07-08T18:25:26Z</time>
      </trkpt>
      <trkpt lat="40.65654" lon="-6.82207">
        <ele>772.6742</ele>
        <time>2021-07-08T18:25:37Z</time>
      </trkpt>
      <trkpt lat="40.65636" lon="-6.82094">
        <ele>769.1866</ele>
        <time>2021-07-08T18:25:48Z</time>
      </trkpt>
      <trkpt lat="40.65601" lon="-6.82">
        <ele>768.3682</ele>
        <time>2021-07-08T18:25:59Z</time>
      </trkpt>
      <trkpt lat="40.65557" lon="-6.81937">
        <ele>768.9412</ele>
        <time>2021-07-08T18:26:10Z</time>
      </trkpt>
      <trkpt lat="40.65492" lon="-6.81877">
        <ele>769.3308</ele>
        <time>2021-07-08T18:26:21Z</time>
      </trkpt>
      <trkpt lat="40.65464" lon="-6.81825">
        <ele>765.8392</ele>
        <time>2021-07-08T18:26:32Z</time>
      </trkpt>
      <trkpt lat="40.65423" lon="-6.81765">
        <ele>763.5666</ele>
        <time>2021-07-08T18:26:43Z</time>
      </trkpt>
      <trkpt lat="40.65368" lon="-6.8168">
        <ele>760.9836</ele>
        <time>2021-07-08T18:26:54Z</time>
      </trkpt>
      <trkpt lat="40.65282" lon="-6.81649">
        <ele>761.1949</ele>
        <time>2021-07-08T18:27:05Z</time>
      </trkpt>
      <trkpt lat="40.65202" lon="-6.8162">
        <ele>757.5557</ele>
        <time>2021-07-08T18:27:16Z</time>
      </trkpt>
      <trkpt lat="40.65138" lon="-6.81588">
        <ele>756.5052</ele>
        <time>2021-07-08T18:27:27Z</time>
      </trkpt>
      <trkpt lat="40.651" lon="-6.81509">
        <ele>752.6264</ele>
        <time>2021-07-08T18:27:38Z</time>
      </trkpt>
      <trkpt lat="40.64996" lon="-6.8129">
        <ele>744.5556</ele>
        <time>2021-07-08T18:27:49Z</time>
      </trkpt>
      <trkpt lat="40.6487" lon="-6.81062">
        <ele>745.6293</ele>
        <time>2021-07-08T18:28:00Z</time>
      </trkpt>
      <trkpt lat="40.64832" lon="-6.81024">
        <ele>745.9694</ele>
        <time>2021-07-08T18:28:11Z</time>
      </trkpt>
      <trkpt lat="40.64868" lon="-6.81098">
        <ele>741.1191</ele>
        <time>2021-07-08T18:28:22Z</time>
      </trkpt>
      <trkpt lat="40.64853" lon="-6.81112">
        <ele>742.2023</ele>
        <time>2021-07-08T18:28:33Z</time>
      </trkpt>
      <trkpt lat="40.64848" lon="-6.81114">
        <ele>744.3405</ele>
        <time>2021-07-08T18:28:44Z</time>
      </trkpt>
      <trkpt lat="40.64864" lon="-6.81103">
        <ele>744.1345</ele>
        <time>2021-07-08T18:28:55Z</time>
      </trkpt>
      <trkpt lat="40.64884" lon="-6.81107">
        <ele>744.1951</ele>
        <time>2021-07-08T18:29:06Z</time>
      </trkpt>
      <trkpt lat="40.64886" lon="-6.81112">
        <ele>748.8081</ele>
        <time>2021-07-08T18:29:42Z</time>
      </trkpt>
      <trkpt lat="40.64882" lon="-6.81105">
        <ele>748.5179</ele>
        <time>2021-07-08T18:29:53Z</time>
      </trkpt>
      <trkpt lat="40.64832" lon="-6.81018">
        <ele>749.9176</ele>
        <time>2021-07-08T18:30:04Z</time>
      </trkpt>
      <trkpt lat="40.64832" lon="-6.81008">
        <ele>748.7597</ele>
        <time>2021-07-08T18:30:15Z</time>
      </trkpt>
      <trkpt lat="40.648" lon="-6.80951">
        <ele>749.9635</ele>
        <time>2021-07-08T18:30:26Z</time>
      </trkpt>
      <trkpt lat="40.64684" lon="-6.80731">
        <ele>758.309</ele>
        <time>2021-07-08T18:30:37Z</time>
      </trkpt>
      <trkpt lat="40.64612" lon="-6.80495">
        <ele>763.3405</ele>
        <time>2021-07-08T18:30:48Z</time>
      </trkpt>
      <trkpt lat="40.64585" lon="-6.80233">
        <ele>773.485</ele>
        <time>2021-07-08T18:30:59Z</time>
      </trkpt>
      <trkpt lat="40.64556" lon="-6.80136">
        <ele>772.4287</ele>
        <time>2021-07-08T18:31:10Z</time>
      </trkpt>
      <trkpt lat="40.6455" lon="-6.80135">
        <ele>772.9647</ele>
        <time>2021-07-08T18:31:28Z</time>
      </trkpt>
      <trkpt lat="40.64366" lon="-6.80191">
        <ele>779.4548</ele>
        <time>2021-07-08T18:31:39Z</time>
      </trkpt>
      <trkpt lat="40.6411" lon="-6.8027">
        <ele>787.4394</ele>
        <time>2021-07-08T18:31:50Z</time>
      </trkpt>
      <trkpt lat="40.63848" lon="-6.80351">
        <ele>795.2214</ele>
        <time>2021-07-08T18:32:01Z</time>
      </trkpt>
      <trkpt lat="40.63593" lon="-6.80432">
        <ele>789.8274</ele>
        <time>2021-07-08T18:32:12Z</time>
      </trkpt>
      <trkpt lat="40.63333" lon="-6.80514">
        <ele>788.1318</ele>
        <time>2021-07-08T18:32:23Z</time>
      </trkpt>
      <trkpt lat="40.63084" lon="-6.80653">
        <ele>790.787</ele>
        <time>2021-07-08T18:32:34Z</time>
      </trkpt>
      <trkpt lat="40.62841" lon="-6.80824">
        <ele>788.9148</ele>
        <time>2021-07-08T18:32:45Z</time>
      </trkpt>
      <trkpt lat="40.62594" lon="-6.80996">
        <ele>788.4096</ele>
        <time>2021-07-08T18:32:56Z</time>
      </trkpt>
      <trkpt lat="40.6235" lon="-6.81165">
        <ele>791.3903</ele>
        <time>2021-07-08T18:33:07Z</time>
      </trkpt>
      <trkpt lat="40.62109" lon="-6.81333">
        <ele>788.7512</ele>
        <time>2021-07-08T18:33:18Z</time>
      </trkpt>
      <trkpt lat="40.61865" lon="-6.81504">
        <ele>790.1114</ele>
        <time>2021-07-08T18:33:29Z</time>
      </trkpt>
      <trkpt lat="40.61647" lon="-6.81661">
        <ele>791.8881</ele>
        <time>2021-07-08T18:33:40Z</time>
      </trkpt>
      <trkpt lat="40.61464" lon="-6.81762">
        <ele>788.5661</ele>
        <time>2021-07-08T18:33:51Z</time>
      </trkpt>
      <trkpt lat="40.6133" lon="-6.81819">
        <ele>782.6573</ele>
        <time>2021-07-08T18:34:02Z</time>
      </trkpt>
      <trkpt lat="40.61233" lon="-6.819">
        <ele>783.4698</ele>
        <time>2021-07-08T18:34:13Z</time>
      </trkpt>
      <trkpt lat="40.61173" lon="-6.81958">
        <ele>784.2921</ele>
        <time>2021-07-08T18:34:24Z</time>
      </trkpt>
      <trkpt lat="40.61061" lon="-6.82049">
        <ele>791.415</ele>
        <time>2021-07-08T18:34:35Z</time>
      </trkpt>
      <trkpt lat="40.60922" lon="-6.82104">
        <ele>788.5211</ele>
        <time>2021-07-08T18:34:46Z</time>
      </trkpt>
      <trkpt lat="40.60825" lon="-6.82129">
        <ele>786.086</ele>
        <time>2021-07-08T18:34:57Z</time>
      </trkpt>
      <trkpt lat="40.60779" lon="-6.82212">
        <ele>786.2892</ele>
        <time>2021-07-08T18:35:08Z</time>
      </trkpt>
      <trkpt lat="40.60728" lon="-6.82409">
        <ele>787.5576</ele>
        <time>2021-07-08T18:35:19Z</time>
      </trkpt>
      <trkpt lat="40.60811" lon="-6.82598">
        <ele>793.4393</ele>
        <time>2021-07-08T18:35:30Z</time>
      </trkpt>
      <trkpt lat="40.60902" lon="-6.8274">
        <ele>790.0573</ele>
        <time>2021-07-08T18:35:41Z</time>
      </trkpt>
      <trkpt lat="40.61014" lon="-6.82836">
        <ele>781.3955</ele>
        <time>2021-07-08T18:35:52Z</time>
      </trkpt>
      <trkpt lat="40.61084" lon="-6.82926">
        <ele>777.7932</ele>
        <time>2021-07-08T18:36:03Z</time>
      </trkpt>
      <trkpt lat="40.61089" lon="-6.83046">
        <ele>773.9818</ele>
        <time>2021-07-08T18:36:14Z</time>
      </trkpt>
      <trkpt lat="40.61169" lon="-6.83186">
        <ele>769.4442</ele>
        <time>2021-07-08T18:36:25Z</time>
      </trkpt>
      <trkpt lat="40.61264" lon="-6.83297">
        <ele>764.9421</ele>
        <time>2021-07-08T18:36:36Z</time>
      </trkpt>
      <trkpt lat="40.61367" lon="-6.83409">
        <ele>760.6367</ele>
        <time>2021-07-08T18:36:47Z</time>
      </trkpt>
      <trkpt lat="40.61432" lon="-6.83522">
        <ele>761.0732</ele>
        <time>2021-07-08T18:36:58Z</time>
      </trkpt>
      <trkpt lat="40.61482" lon="-6.83681">
        <ele>765.5902</ele>
        <time>2021-07-08T18:37:09Z</time>
      </trkpt>
      <trkpt lat="40.61524" lon="-6.83827">
        <ele>771.1805</ele>
        <time>2021-07-08T18:37:20Z</time>
      </trkpt>
      <trkpt lat="40.61455" lon="-6.83842">
        <ele>774.8015</ele>
        <time>2021-07-08T18:37:31Z</time>
      </trkpt>
      <trkpt lat="40.61382" lon="-6.83859">
        <ele>773.0476</ele>
        <time>2021-07-08T18:37:42Z</time>
      </trkpt>
      <trkpt lat="40.61294" lon="-6.8393">
        <ele>773.3618</ele>
        <time>2021-07-08T18:37:53Z</time>
      </trkpt>
      <trkpt lat="40.61219" lon="-6.8399">
        <ele>770.2364</ele>
        <time>2021-07-08T18:38:04Z</time>
      </trkpt>
      <trkpt lat="40.61187" lon="-6.8405">
        <ele>770.3814</ele>
        <time>2021-07-08T18:38:15Z</time>
      </trkpt>
      <trkpt lat="40.61158" lon="-6.84069">
        <ele>772.9118</ele>
        <time>2021-07-08T18:38:26Z</time>
      </trkpt>
      <trkpt lat="40.61158" lon="-6.84069">
        <ele>775.5271</ele>
        <time>2021-07-08T18:39:26Z</time>
      </trkpt>
      <trkpt lat="40.61159" lon="-6.84069">
        <ele>774.1785</ele>
        <time>2021-07-08T18:40:26Z</time>
      </trkpt>
      <trkpt lat="40.61163" lon="-6.84071">
        <ele>773.362</ele>
        <time>2021-07-08T18:41:07Z</time>
      </trkpt>
      <trkpt lat="40.61161" lon="-6.8407">
        <ele>770.8713</ele>
        <time>2021-07-08T18:42:07Z</time>
      </trkpt>
      <trkpt lat="40.61162" lon="-6.84071">
        <ele>771.0183</ele>
        <time>2021-07-08T18:43:07Z</time>
      </trkpt>
      <trkpt lat="40.61161" lon="-6.84072">
        <ele>769.9487</ele>
        <time>2021-07-08T18:44:07Z</time>
      </trkpt>
      <trkpt lat="40.61161" lon="-6.84071">
        <ele>768.6885</ele>
        <time>2021-07-08T18:45:07Z</time>
      </trkpt>
      <trkpt lat="40.61162" lon="-6.84071">
        <ele>772.7598</ele>
        <time>2021-07-08T18:46:07Z</time>
      </trkpt>
      <trkpt lat="40.61159" lon="-6.84069">
        <ele>772.0866</ele>
        <time>2021-07-08T18:47:07Z</time>
      </trkpt>
      <trkpt lat="40.61158" lon="-6.84069">
        <ele>775.1212</ele>
        <time>2021-07-08T18:48:07Z</time>
      </trkpt>
      <trkpt lat="40.61151" lon="-6.8407">
        <ele>774.5478</ele>
        <time>2021-07-08T18:49:02Z</time>
      </trkpt>
      <trkpt lat="40.61041" lon="-6.84104">
        <ele>772.597</ele>
        <time>2021-07-08T18:49:13Z</time>
      </trkpt>
      <trkpt lat="40.60936" lon="-6.84173">
        <ele>766.894</ele>
        <time>2021-07-08T18:49:24Z</time>
      </trkpt>
      <trkpt lat="40.60847" lon="-6.84211">
        <ele>759.6566</ele>
        <time>2021-07-08T18:49:35Z</time>
      </trkpt>
      <trkpt lat="40.60724" lon="-6.84261">
        <ele>761.6243</ele>
        <time>2021-07-08T18:49:46Z</time>
      </trkpt>
      <trkpt lat="40.6062" lon="-6.84373">
        <ele>764.2808</ele>
        <time>2021-07-08T18:49:57Z</time>
      </trkpt>
      <trkpt lat="40.60517" lon="-6.84484">
        <ele>764.3203</ele>
        <time>2021-07-08T18:50:08Z</time>
      </trkpt>
      <trkpt lat="40.60383" lon="-6.84569">
        <ele>762.3069</ele>
        <time>2021-07-08T18:50:19Z</time>
      </trkpt>
      <trkpt lat="40.60268" lon="-6.84627">
        <ele>758.8993</ele>
        <time>2021-07-08T18:50:30Z</time>
      </trkpt>
      <trkpt lat="40.60179" lon="-6.84712">
        <ele>755.629</ele>
        <time>2021-07-08T18:50:41Z</time>
      </trkpt>
      <trkpt lat="40.60083" lon="-6.84862">
        <ele>755.0599</ele>
        <time>2021-07-08T18:50:52Z</time>
      </trkpt>
      <trkpt lat="40.60023" lon="-6.85024">
        <ele>770.9733</ele>
        <time>2021-07-08T18:51:03Z</time>
      </trkpt>
      <trkpt lat="40.60023" lon="-6.85208">
        <ele>784.3525</ele>
        <time>2021-07-08T18:51:14Z</time>
      </trkpt>
      <trkpt lat="40.60023" lon="-6.8539">
        <ele>787.2821</ele>
        <time>2021-07-08T18:51:25Z</time>
      </trkpt>
      <trkpt lat="40.60072" lon="-6.8556">
        <ele>791.5588</ele>
        <time>2021-07-08T18:51:36Z</time>
      </trkpt>
      <trkpt lat="40.60145" lon="-6.85673">
        <ele>795.5111</ele>
        <time>2021-07-08T18:51:47Z</time>
      </trkpt>
      <trkpt lat="40.60229" lon="-6.85809">
        <ele>801.3515</ele>
        <time>2021-07-08T18:51:58Z</time>
      </trkpt>
      <trkpt lat="40.60271" lon="-6.85983">
        <ele>804.9088</ele>
        <time>2021-07-08T18:52:09Z</time>
      </trkpt>
      <trkpt lat="40.60303" lon="-6.86102">
        <ele>808.0409</ele>
        <time>2021-07-08T18:52:20Z</time>
      </trkpt>
      <trkpt lat="40.60226" lon="-6.86175">
        <ele>804.206</ele>
        <time>2021-07-08T18:52:31Z</time>
      </trkpt>
      <trkpt lat="40.60105" lon="-6.86268">
        <ele>793.8958</ele>
        <time>2021-07-08T18:52:42Z</time>
      </trkpt>
      <trkpt lat="40.59967" lon="-6.86328">
        <ele>792.0595</ele>
        <time>2021-07-08T18:52:53Z</time>
      </trkpt>
      <trkpt lat="40.59837" lon="-6.86429">
        <ele>795.7078</ele>
        <time>2021-07-08T18:53:04Z</time>
      </trkpt>
      <trkpt lat="40.59732" lon="-6.8643">
        <ele>806.0617</ele>
        <time>2021-07-08T18:53:15Z</time>
      </trkpt>
      <trkpt lat="40.5964" lon="-6.86452">
        <ele>804.404</ele>
        <time>2021-07-08T18:53:26Z</time>
      </trkpt>
      <trkpt lat="40.5955" lon="-6.86506">
        <ele>808.4648</ele>
        <time>2021-07-08T18:53:37Z</time>
      </trkpt>
      <trkpt lat="40.59464" lon="-6.86597">
        <ele>808.1121</ele>
        <time>2021-07-08T18:53:48Z</time>
      </trkpt>
      <trkpt lat="40.5937" lon="-6.8664">
        <ele>806.1008</ele>
        <time>2021-07-08T18:53:59Z</time>
      </trkpt>
      <trkpt lat="40.59252" lon="-6.86642">
        <ele>804.7274</ele>
        <time>2021-07-08T18:54:10Z</time>
      </trkpt>
      <trkpt lat="40.59162" lon="-6.8664">
        <ele>802.6311</ele>
        <time>2021-07-08T18:54:21Z</time>
      </trkpt>
      <trkpt lat="40.59066" lon="-6.8666">
        <ele>801.1297</ele>
        <time>2021-07-08T18:54:32Z</time>
      </trkpt>
      <trkpt lat="40.5897" lon="-6.86753">
        <ele>798.4443</ele>
        <time>2021-07-08T18:54:43Z</time>
      </trkpt>
      <trkpt lat="40.58845" lon="-6.86824">
        <ele>798.821</ele>
        <time>2021-07-08T18:54:54Z</time>
      </trkpt>
      <trkpt lat="40.58726" lon="-6.86889">
        <ele>797.643</ele>
        <time>2021-07-08T18:55:05Z</time>
      </trkpt>
      <trkpt lat="40.58605" lon="-6.8689">
        <ele>795.9951</ele>
        <time>2021-07-08T18:55:16Z</time>
      </trkpt>
      <trkpt lat="40.58485" lon="-6.86929">
        <ele>795.9704</ele>
        <time>2021-07-08T18:55:27Z</time>
      </trkpt>
      <trkpt lat="40.58393" lon="-6.86978">
        <ele>796.4422</ele>
        <time>2021-07-08T18:55:38Z</time>
      </trkpt>
      <trkpt lat="40.58267" lon="-6.8702">
        <ele>797.5278</ele>
        <time>2021-07-08T18:55:50Z</time>
      </trkpt>
      <trkpt lat="40.58143" lon="-6.87077">
        <ele>801.1517</ele>
        <time>2021-07-08T18:56:01Z</time>
      </trkpt>
      <trkpt lat="40.58025" lon="-6.87105">
        <ele>802.1567</ele>
        <time>2021-07-08T18:56:12Z</time>
      </trkpt>
      <trkpt lat="40.57911" lon="-6.87191">
        <ele>801.9239</ele>
        <time>2021-07-08T18:56:23Z</time>
      </trkpt>
      <trkpt lat="40.57784" lon="-6.87255">
        <ele>803.4185</ele>
        <time>2021-07-08T18:56:34Z</time>
      </trkpt>
      <trkpt lat="40.57667" lon="-6.87307">
        <ele>802.6883</ele>
        <time>2021-07-08T18:56:45Z</time>
      </trkpt>
      <trkpt lat="40.57537" lon="-6.87373">
        <ele>804.5975</ele>
        <time>2021-07-08T18:56:56Z</time>
      </trkpt>
      <trkpt lat="40.57406" lon="-6.87441">
        <ele>807.6354</ele>
        <time>2021-07-08T18:57:07Z</time>
      </trkpt>
      <trkpt lat="40.57271" lon="-6.87536">
        <ele>813.5336</ele>
        <time>2021-07-08T18:57:18Z</time>
      </trkpt>
      <trkpt lat="40.57145" lon="-6.87644">
        <ele>815.612</ele>
        <time>2021-07-08T18:57:29Z</time>
      </trkpt>
      <trkpt lat="40.57028" lon="-6.87732">
        <ele>821.4775</ele>
        <time>2021-07-08T18:57:40Z</time>
      </trkpt>
      <trkpt lat="40.56942" lon="-6.87748">
        <ele>824.5535</ele>
        <time>2021-07-08T18:57:51Z</time>
      </trkpt>
      <trkpt lat="40.56811" lon="-6.8768">
        <ele>821.3894</ele>
        <time>2021-07-08T18:58:02Z</time>
      </trkpt>
      <trkpt lat="40.56675" lon="-6.87671">
        <ele>821.6177</ele>
        <time>2021-07-08T18:58:13Z</time>
      </trkpt>
      <trkpt lat="40.56535" lon="-6.87697">
        <ele>820.394</ele>
        <time>2021-07-08T18:58:24Z</time>
      </trkpt>
      <trkpt lat="40.56404" lon="-6.87696">
        <ele>824.25</ele>
        <time>2021-07-08T18:58:35Z</time>
      </trkpt>
      <trkpt lat="40.56278" lon="-6.87652">
        <ele>825.025</ele>
        <time>2021-07-08T18:58:46Z</time>
      </trkpt>
      <trkpt lat="40.56162" lon="-6.87596">
        <ele>822.3522</ele>
        <time>2021-07-08T18:58:57Z</time>
      </trkpt>
      <trkpt lat="40.56055" lon="-6.87541">
        <ele>822.9892</ele>
        <time>2021-07-08T18:59:08Z</time>
      </trkpt>
      <trkpt lat="40.55924" lon="-6.87532">
        <ele>822.1036</ele>
        <time>2021-07-08T18:59:19Z</time>
      </trkpt>
      <trkpt lat="40.55764" lon="-6.8752">
        <ele>822.48</ele>
        <time>2021-07-08T18:59:30Z</time>
      </trkpt>
      <trkpt lat="40.55621" lon="-6.87496">
        <ele>822.1885</ele>
        <time>2021-07-08T18:59:42Z</time>
      </trkpt>
      <trkpt lat="40.55482" lon="-6.87501">
        <ele>821.968</ele>
        <time>2021-07-08T18:59:53Z</time>
      </trkpt>
      <trkpt lat="40.55422" lon="-6.87468">
        <ele>821.7763</ele>
        <time>2021-07-08T19:00:04Z</time>
      </trkpt>
      <trkpt lat="40.553" lon="-6.87451">
        <ele>820.8438</ele>
        <time>2021-07-08T19:00:15Z</time>
      </trkpt>
      <trkpt lat="40.55153" lon="-6.87446">
        <ele>817.8918</ele>
        <time>2021-07-08T19:00:26Z</time>
      </trkpt>
      <trkpt lat="40.55072" lon="-6.87442">
        <ele>816.3471</ele>
        <time>2021-07-08T19:00:37Z</time>
      </trkpt>
      <trkpt lat="40.5493" lon="-6.87471">
        <ele>816.8888</ele>
        <time>2021-07-08T19:00:48Z</time>
      </trkpt>
      <trkpt lat="40.54774" lon="-6.87554">
        <ele>819.9335</ele>
        <time>2021-07-08T19:00:59Z</time>
      </trkpt>
      <trkpt lat="40.54578" lon="-6.87661">
        <ele>817.9855</ele>
        <time>2021-07-08T19:01:10Z</time>
      </trkpt>
      <trkpt lat="40.54402" lon="-6.8777">
        <ele>806.8845</ele>
        <time>2021-07-08T19:01:21Z</time>
      </trkpt>
      <trkpt lat="40.54252" lon="-6.87805">
        <ele>819.6441</ele>
        <time>2021-07-08T19:01:32Z</time>
      </trkpt>
      <trkpt lat="40.5403" lon="-6.87856">
        <ele>809.8743</ele>
        <time>2021-07-08T19:01:43Z</time>
      </trkpt>
      <trkpt lat="40.53883" lon="-6.87936">
        <ele>820.6106</ele>
        <time>2021-07-08T19:01:54Z</time>
      </trkpt>
      <trkpt lat="40.53707" lon="-6.87979">
        <ele>824.6902</ele>
        <time>2021-07-08T19:02:05Z</time>
      </trkpt>
      <trkpt lat="40.53553" lon="-6.87993">
        <ele>828.0233</ele>
        <time>2021-07-08T19:02:16Z</time>
      </trkpt>
      <trkpt lat="40.53364" lon="-6.88001">
        <ele>818.0532</ele>
        <time>2021-07-08T19:02:27Z</time>
      </trkpt>
      <trkpt lat="40.53189" lon="-6.88008">
        <ele>823.1017</ele>
        <time>2021-07-08T19:02:38Z</time>
      </trkpt>
      <trkpt lat="40.5303" lon="-6.8804">
        <ele>826.107</ele>
        <time>2021-07-08T19:02:49Z</time>
      </trkpt>
      <trkpt lat="40.52877" lon="-6.88109">
        <ele>825.5817</ele>
        <time>2021-07-08T19:03:00Z</time>
      </trkpt>
      <trkpt lat="40.52733" lon="-6.88197">
        <ele>822.9749</ele>
        <time>2021-07-08T19:03:11Z</time>
      </trkpt>
      <trkpt lat="40.52567" lon="-6.88234">
        <ele>822.2657</ele>
        <time>2021-07-08T19:03:22Z</time>
      </trkpt>
      <trkpt lat="40.5241" lon="-6.88237">
        <ele>823.1052</ele>
        <time>2021-07-08T19:03:33Z</time>
      </trkpt>
      <trkpt lat="40.52265" lon="-6.883">
        <ele>826.3199</ele>
        <time>2021-07-08T19:03:44Z</time>
      </trkpt>
      <trkpt lat="40.52106" lon="-6.88327">
        <ele>826.9234</ele>
        <time>2021-07-08T19:03:55Z</time>
      </trkpt>
      <trkpt lat="40.51895" lon="-6.88389">
        <ele>827.3533</ele>
        <time>2021-07-08T19:04:06Z</time>
      </trkpt>
      <trkpt lat="40.51714" lon="-6.88439">
        <ele>832.4449</ele>
        <time>2021-07-08T19:04:17Z</time>
      </trkpt>
      <trkpt lat="40.51548" lon="-6.88431">
        <ele>835.3223</ele>
        <time>2021-07-08T19:04:28Z</time>
      </trkpt>
      <trkpt lat="40.51376" lon="-6.8846">
        <ele>839.4302</ele>
        <time>2021-07-08T19:04:39Z</time>
      </trkpt>
      <trkpt lat="40.51218" lon="-6.88516">
        <ele>838.2755</ele>
        <time>2021-07-08T19:04:50Z</time>
      </trkpt>
      <trkpt lat="40.51053" lon="-6.88571">
        <ele>842.2278</ele>
        <time>2021-07-08T19:05:01Z</time>
      </trkpt>
      <trkpt lat="40.5091" lon="-6.88619">
        <ele>841.3904</ele>
        <time>2021-07-08T19:05:12Z</time>
      </trkpt>
      <trkpt lat="40.50753" lon="-6.88601">
        <ele>840.8451</ele>
        <time>2021-07-08T19:05:23Z</time>
      </trkpt>
      <trkpt lat="40.50566" lon="-6.88552">
        <ele>843.2821</ele>
        <time>2021-07-08T19:05:34Z</time>
      </trkpt>
      <trkpt lat="40.50401" lon="-6.88554">
        <ele>845.2746</ele>
        <time>2021-07-08T19:05:45Z</time>
      </trkpt>
      <trkpt lat="40.50239" lon="-6.88563">
        <ele>847.7802</ele>
        <time>2021-07-08T19:05:56Z</time>
      </trkpt>
      <trkpt lat="40.50083" lon="-6.88553">
        <ele>858.022</ele>
        <time>2021-07-08T19:06:07Z</time>
      </trkpt>
      <trkpt lat="40.49926" lon="-6.88583">
        <ele>862.0615</ele>
        <time>2021-07-08T19:06:18Z</time>
      </trkpt>
      <trkpt lat="40.49796" lon="-6.88678">
        <ele>853.7969</ele>
        <time>2021-07-08T19:06:29Z</time>
      </trkpt>
      <trkpt lat="40.49681" lon="-6.88748">
        <ele>853.9017</ele>
        <time>2021-07-08T19:06:40Z</time>
      </trkpt>
      <trkpt lat="40.49506" lon="-6.88713">
        <ele>839.1347</ele>
        <time>2021-07-08T19:06:51Z</time>
      </trkpt>
      <trkpt lat="40.49334" lon="-6.88685">
        <ele>842.0882</ele>
        <time>2021-07-08T19:07:02Z</time>
      </trkpt>
      <trkpt lat="40.49192" lon="-6.88656">
        <ele>845.6088</ele>
        <time>2021-07-08T19:07:13Z</time>
      </trkpt>
      <trkpt lat="40.49056" lon="-6.88603">
        <ele>846.6241</ele>
        <time>2021-07-08T19:07:24Z</time>
      </trkpt>
      <trkpt lat="40.48971" lon="-6.88582">
        <ele>851.2894</ele>
        <time>2021-07-08T19:07:35Z</time>
      </trkpt>
      <trkpt lat="40.48851" lon="-6.8864">
        <ele>850.7132</ele>
        <time>2021-07-08T19:07:46Z</time>
      </trkpt>
      <trkpt lat="40.48746" lon="-6.88697">
        <ele>847.1359</ele>
        <time>2021-07-08T19:07:57Z</time>
      </trkpt>
      <trkpt lat="40.48668" lon="-6.88723">
        <ele>847.108</ele>
        <time>2021-07-08T19:08:08Z</time>
      </trkpt>
      <trkpt lat="40.48586" lon="-6.88769">
        <ele>848.8209</ele>
        <time>2021-07-08T19:08:19Z</time>
      </trkpt>
      <trkpt lat="40.4847" lon="-6.8885">
        <ele>848.1283</ele>
        <time>2021-07-08T19:08:30Z</time>
      </trkpt>
      <trkpt lat="40.48362" lon="-6.88905">
        <ele>848.9828</ele>
        <time>2021-07-08T19:08:41Z</time>
      </trkpt>
      <trkpt lat="40.48261" lon="-6.88954">
        <ele>849.3288</ele>
        <time>2021-07-08T19:08:52Z</time>
      </trkpt>
      <trkpt lat="40.48163" lon="-6.8901">
        <ele>849.9334</ele>
        <time>2021-07-08T19:09:03Z</time>
      </trkpt>
      <trkpt lat="40.48037" lon="-6.8906">
        <ele>848.0062</ele>
        <time>2021-07-08T19:09:14Z</time>
      </trkpt>
      <trkpt lat="40.47914" lon="-6.89064">
        <ele>847.4497</ele>
        <time>2021-07-08T19:09:25Z</time>
      </trkpt>
      <trkpt lat="40.47768" lon="-6.89007">
        <ele>837.8269</ele>
        <time>2021-07-08T19:09:36Z</time>
      </trkpt>
      <trkpt lat="40.47631" lon="-6.88948">
        <ele>837.8576</ele>
        <time>2021-07-08T19:09:47Z</time>
      </trkpt>
      <trkpt lat="40.47522" lon="-6.88862">
        <ele>834.3603</ele>
        <time>2021-07-08T19:09:58Z</time>
      </trkpt>
      <trkpt lat="40.4742" lon="-6.8887">
        <ele>834.0106</ele>
        <time>2021-07-08T19:10:09Z</time>
      </trkpt>
      <trkpt lat="40.47303" lon="-6.88828">
        <ele>838.2502</ele>
        <time>2021-07-08T19:10:20Z</time>
      </trkpt>
      <trkpt lat="40.47214" lon="-6.88787">
        <ele>836.1519</ele>
        <time>2021-07-08T19:10:31Z</time>
      </trkpt>
      <trkpt lat="40.47131" lon="-6.88736">
        <ele>824.8211</ele>
        <time>2021-07-08T19:10:42Z</time>
      </trkpt>
      <trkpt lat="40.47038" lon="-6.88715">
        <ele>812.8368</ele>
        <time>2021-07-08T19:10:53Z</time>
      </trkpt>
      <trkpt lat="40.46937" lon="-6.88697">
        <ele>818.1943</ele>
        <time>2021-07-08T19:11:04Z</time>
      </trkpt>
      <trkpt lat="40.4683" lon="-6.88719">
        <ele>818.2272</ele>
        <time>2021-07-08T19:11:15Z</time>
      </trkpt>
      <trkpt lat="40.46734" lon="-6.88765">
        <ele>816.3978</ele>
        <time>2021-07-08T19:11:26Z</time>
      </trkpt>
      <trkpt lat="40.46635" lon="-6.88763">
        <ele>817.2866</ele>
        <time>2021-07-08T19:11:37Z</time>
      </trkpt>
      <trkpt lat="40.46561" lon="-6.88756">
        <ele>812.4861</ele>
        <time>2021-07-08T19:11:48Z</time>
      </trkpt>
      <trkpt lat="40.46481" lon="-6.88739">
        <ele>806.3357</ele>
        <time>2021-07-08T19:11:59Z</time>
      </trkpt>
      <trkpt lat="40.46396" lon="-6.88768">
        <ele>805.1411</ele>
        <time>2021-07-08T19:12:10Z</time>
      </trkpt>
      <trkpt lat="40.46327" lon="-6.88794">
        <ele>808.7118</ele>
        <time>2021-07-08T19:12:21Z</time>
      </trkpt>
      <trkpt lat="40.46254" lon="-6.88804">
        <ele>811.9305</ele>
        <time>2021-07-08T19:12:32Z</time>
      </trkpt>
      <trkpt lat="40.46186" lon="-6.88839">
        <ele>811.9902</ele>
        <time>2021-07-08T19:12:43Z</time>
      </trkpt>
      <trkpt lat="40.46097" lon="-6.88891">
        <ele>815.4134</ele>
        <time>2021-07-08T19:12:54Z</time>
      </trkpt>
      <trkpt lat="40.4602" lon="-6.88943">
        <ele>814.3511</ele>
        <time>2021-07-08T19:13:05Z</time>
      </trkpt>
      <trkpt lat="40.45969" lon="-6.89043">
        <ele>814.2035</ele>
        <time>2021-07-08T19:13:16Z</time>
      </trkpt>
      <trkpt lat="40.45923" lon="-6.8916">
        <ele>813.2425</ele>
        <time>2021-07-08T19:13:27Z</time>
      </trkpt>
      <trkpt lat="40.45915" lon="-6.89301">
        <ele>814.2406</ele>
        <time>2021-07-08T19:13:38Z</time>
      </trkpt>
      <trkpt lat="40.45906" lon="-6.89356">
        <ele>816.9544</ele>
        <time>2021-07-08T19:13:49Z</time>
      </trkpt>
      <trkpt lat="40.45907" lon="-6.89356">
        <ele>815.7005</ele>
        <time>2021-07-08T19:14:49Z</time>
      </trkpt>
      <trkpt lat="40.45906" lon="-6.89361">
        <ele>816.2064</ele>
        <time>2021-07-08T19:15:23Z</time>
      </trkpt>
      <trkpt lat="40.45913" lon="-6.89515">
        <ele>815.1909</ele>
        <time>2021-07-08T19:15:34Z</time>
      </trkpt>
      <trkpt lat="40.45871" lon="-6.89679">
        <ele>807.58</ele>
        <time>2021-07-08T19:15:45Z</time>
      </trkpt>
      <trkpt lat="40.45771" lon="-6.89783">
        <ele>803.5554</ele>
        <time>2021-07-08T19:15:56Z</time>
      </trkpt>
      <trkpt lat="40.45691" lon="-6.89884">
        <ele>794.5728</ele>
        <time>2021-07-08T19:16:07Z</time>
      </trkpt>
      <trkpt lat="40.45568" lon="-6.89961">
        <ele>782.0091</ele>
        <time>2021-07-08T19:16:18Z</time>
      </trkpt>
      <trkpt lat="40.45494" lon="-6.90169">
        <ele>782.991</ele>
        <time>2021-07-08T19:16:29Z</time>
      </trkpt>
      <trkpt lat="40.45449" lon="-6.9047">
        <ele>792.5377</ele>
        <time>2021-07-08T19:16:40Z</time>
      </trkpt>
      <trkpt lat="40.45406" lon="-6.90762">
        <ele>795.4463</ele>
        <time>2021-07-08T19:16:51Z</time>
      </trkpt>
      <trkpt lat="40.45445" lon="-6.9097">
        <ele>796.8096</ele>
        <time>2021-07-08T19:17:02Z</time>
      </trkpt>
      <trkpt lat="40.45464" lon="-6.91107">
        <ele>799.353</ele>
        <time>2021-07-08T19:17:13Z</time>
      </trkpt>
      <trkpt lat="40.45459" lon="-6.91108">
        <ele>800.6364</ele>
        <time>2021-07-08T19:17:25Z</time>
      </trkpt>
      <trkpt lat="40.45305" lon="-6.91209">
        <ele>806.4168</ele>
        <time>2021-07-08T19:17:36Z</time>
      </trkpt>
      <trkpt lat="40.4514" lon="-6.91254">
        <ele>804.8387</ele>
        <time>2021-07-08T19:17:47Z</time>
      </trkpt>
      <trkpt lat="40.45013" lon="-6.9135">
        <ele>792.566</ele>
        <time>2021-07-08T19:17:58Z</time>
      </trkpt>
      <trkpt lat="40.4492" lon="-6.9146">
        <ele>783.4457</ele>
        <time>2021-07-08T19:18:09Z</time>
      </trkpt>
      <trkpt lat="40.44817" lon="-6.91514">
        <ele>779.0852</ele>
        <time>2021-07-08T19:18:20Z</time>
      </trkpt>
      <trkpt lat="40.4476" lon="-6.9156">
        <ele>773.9834</ele>
        <time>2021-07-08T19:18:31Z</time>
      </trkpt>
      <trkpt lat="40.44703" lon="-6.91562">
        <ele>770.0643</ele>
        <time>2021-07-08T19:18:42Z</time>
      </trkpt>
      <trkpt lat="40.44646" lon="-6.91589">
        <ele>770.0884</ele>
        <time>2021-07-08T19:18:53Z</time>
      </trkpt>
      <trkpt lat="40.44539" lon="-6.91604">
        <ele>770.3444</ele>
        <time>2021-07-08T19:19:04Z</time>
      </trkpt>
      <trkpt lat="40.4442" lon="-6.91641">
        <ele>772.0388</ele>
        <time>2021-07-08T19:19:15Z</time>
      </trkpt>
      <trkpt lat="40.44299" lon="-6.91704">
        <ele>769.064</ele>
        <time>2021-07-08T19:19:26Z</time>
      </trkpt>
      <trkpt lat="40.44244" lon="-6.91736">
        <ele>773.2524</ele>
        <time>2021-07-08T19:19:37Z</time>
      </trkpt>
      <trkpt lat="40.4418" lon="-6.91762">
        <ele>774.1662</ele>
        <time>2021-07-08T19:19:48Z</time>
      </trkpt>
      <trkpt lat="40.44121" lon="-6.91778">
        <ele>766.5643</ele>
        <time>2021-07-08T19:19:59Z</time>
      </trkpt>
      <trkpt lat="40.44061" lon="-6.91803">
        <ele>760.402</ele>
        <time>2021-07-08T19:20:10Z</time>
      </trkpt>
      <trkpt lat="40.44014" lon="-6.91785">
        <ele>756.0484</ele>
        <time>2021-07-08T19:20:21Z</time>
      </trkpt>
      <trkpt lat="40.43972" lon="-6.91716">
        <ele>751.9651</ele>
        <time>2021-07-08T19:20:32Z</time>
      </trkpt>
      <trkpt lat="40.43902" lon="-6.91697">
        <ele>750.4186</ele>
        <time>2021-07-08T19:20:43Z</time>
      </trkpt>
      <trkpt lat="40.43835" lon="-6.91675">
        <ele>751.8472</ele>
        <time>2021-07-08T19:20:54Z</time>
      </trkpt>
      <trkpt lat="40.43778" lon="-6.91632">
        <ele>756.6455</ele>
        <time>2021-07-08T19:21:05Z</time>
      </trkpt>
      <trkpt lat="40.43719" lon="-6.91628">
        <ele>757.0736</ele>
        <time>2021-07-08T19:21:16Z</time>
      </trkpt>
      <trkpt lat="40.43663" lon="-6.91616">
        <ele>757.985</ele>
        <time>2021-07-08T19:21:27Z</time>
      </trkpt>
      <trkpt lat="40.43603" lon="-6.9164">
        <ele>756.8652</ele>
        <time>2021-07-08T19:21:38Z</time>
      </trkpt>
      <trkpt lat="40.43535" lon="-6.91636">
        <ele>756.0723</ele>
        <time>2021-07-08T19:21:49Z</time>
      </trkpt>
      <trkpt lat="40.43464" lon="-6.91657">
        <ele>757.3151</ele>
        <time>2021-07-08T19:22:00Z</time>
      </trkpt>
      <trkpt lat="40.4339" lon="-6.9163">
        <ele>758.199</ele>
        <time>2021-07-08T19:22:11Z</time>
      </trkpt>
      <trkpt lat="40.43332" lon="-6.91645">
        <ele>759.2357</ele>
        <time>2021-07-08T19:22:22Z</time>
      </trkpt>
      <trkpt lat="40.43279" lon="-6.91675">
        <ele>760.2976</ele>
        <time>2021-07-08T19:22:33Z</time>
      </trkpt>
      <trkpt lat="40.43225" lon="-6.91691">
        <ele>764.2384</ele>
        <time>2021-07-08T19:22:44Z</time>
      </trkpt>
      <trkpt lat="40.43168" lon="-6.91675">
        <ele>767.0975</ele>
        <time>2021-07-08T19:22:55Z</time>
      </trkpt>
      <trkpt lat="40.43116" lon="-6.91652">
        <ele>769.3837</ele>
        <time>2021-07-08T19:23:06Z</time>
      </trkpt>
      <trkpt lat="40.43082" lon="-6.91613">
        <ele>767.8973</ele>
        <time>2021-07-08T19:23:17Z</time>
      </trkpt>
      <trkpt lat="40.43025" lon="-6.91608">
        <ele>770.0333</ele>
        <time>2021-07-08T19:23:28Z</time>
      </trkpt>
      <trkpt lat="40.4297" lon="-6.91568">
        <ele>770.722</ele>
        <time>2021-07-08T19:23:39Z</time>
      </trkpt>
      <trkpt lat="40.42913" lon="-6.915">
        <ele>770.8818</ele>
        <time>2021-07-08T19:23:50Z</time>
      </trkpt>
      <trkpt lat="40.42862" lon="-6.91452">
        <ele>773.0675</ele>
        <time>2021-07-08T19:24:01Z</time>
      </trkpt>
      <trkpt lat="40.42788" lon="-6.91481">
        <ele>778.4035</ele>
        <time>2021-07-08T19:24:12Z</time>
      </trkpt>
      <trkpt lat="40.42721" lon="-6.91489">
        <ele>779.7514</ele>
        <time>2021-07-08T19:24:23Z</time>
      </trkpt>
      <trkpt lat="40.42653" lon="-6.91524">
        <ele>778.1498</ele>
        <time>2021-07-08T19:24:34Z</time>
      </trkpt>
      <trkpt lat="40.42617" lon="-6.91523">
        <ele>779.0915</ele>
        <time>2021-07-08T19:24:45Z</time>
      </trkpt>
      <trkpt lat="40.42559" lon="-6.91489">
        <ele>782.2321</ele>
        <time>2021-07-08T19:24:56Z</time>
      </trkpt>
      <trkpt lat="40.42506" lon="-6.91406">
        <ele>786.3361</ele>
        <time>2021-07-08T19:25:07Z</time>
      </trkpt>
      <trkpt lat="40.42427" lon="-6.91355">
        <ele>788.3207</ele>
        <time>2021-07-08T19:25:18Z</time>
      </trkpt>
      <trkpt lat="40.42387" lon="-6.91301">
        <ele>786.1662</ele>
        <time>2021-07-08T19:25:29Z</time>
      </trkpt>
      <trkpt lat="40.42358" lon="-6.91266">
        <ele>790.3989</ele>
        <time>2021-07-08T19:25:40Z</time>
      </trkpt>
      <trkpt lat="40.42267" lon="-6.9127">
        <ele>789.8466</ele>
        <time>2021-07-08T19:25:51Z</time>
      </trkpt>
      <trkpt lat="40.42199" lon="-6.91265">
        <ele>790.9244</ele>
        <time>2021-07-08T19:26:02Z</time>
      </trkpt>
      <trkpt lat="40.42158" lon="-6.9121">
        <ele>794.2644</ele>
        <time>2021-07-08T19:26:13Z</time>
      </trkpt>
      <trkpt lat="40.42125" lon="-6.91352">
        <ele>795.9322</ele>
        <time>2021-07-08T19:26:24Z</time>
      </trkpt>
      <trkpt lat="40.42149" lon="-6.91588">
        <ele>798.8135</ele>
        <time>2021-07-08T19:26:35Z</time>
      </trkpt>
      <trkpt lat="40.42113" lon="-6.91816">
        <ele>786.2596</ele>
        <time>2021-07-08T19:26:46Z</time>
      </trkpt>
      <trkpt lat="40.41944" lon="-6.91919">
        <ele>774.3419</ele>
        <time>2021-07-08T19:26:57Z</time>
      </trkpt>
      <trkpt lat="40.41811" lon="-6.91959">
        <ele>768.7885</ele>
        <time>2021-07-08T19:27:08Z</time>
      </trkpt>
      <trkpt lat="40.41754" lon="-6.91949">
        <ele>769.8756</ele>
        <time>2021-07-08T19:27:19Z</time>
      </trkpt>
      <trkpt lat="40.41667" lon="-6.92016">
        <ele>770.0357</ele>
        <time>2021-07-08T19:27:30Z</time>
      </trkpt>
      <trkpt lat="40.41573" lon="-6.92059">
        <ele>771.56</ele>
        <time>2021-07-08T19:27:41Z</time>
      </trkpt>
      <trkpt lat="40.41444" lon="-6.92075">
        <ele>772.6214</ele>
        <time>2021-07-08T19:27:52Z</time>
      </trkpt>
      <trkpt lat="40.4134" lon="-6.92134">
        <ele>774.3744</ele>
        <time>2021-07-08T19:28:03Z</time>
      </trkpt>
      <trkpt lat="40.41237" lon="-6.92153">
        <ele>777.7428</ele>
        <time>2021-07-08T19:28:14Z</time>
      </trkpt>
      <trkpt lat="40.41129" lon="-6.92143">
        <ele>775.0071</ele>
        <time>2021-07-08T19:28:25Z</time>
      </trkpt>
      <trkpt lat="40.41002" lon="-6.92125">
        <ele>772.888</ele>
        <time>2021-07-08T19:28:36Z</time>
      </trkpt>
      <trkpt lat="40.40911" lon="-6.9208">
        <ele>776.2342</ele>
        <time>2021-07-08T19:28:47Z</time>
      </trkpt>
      <trkpt lat="40.40822" lon="-6.92007">
        <ele>779.0498</ele>
        <time>2021-07-08T19:28:58Z</time>
      </trkpt>
      <trkpt lat="40.40719" lon="-6.91972">
        <ele>778.8742</ele>
        <time>2021-07-08T19:29:09Z</time>
      </trkpt>
      <trkpt lat="40.40588" lon="-6.91902">
        <ele>779.2391</ele>
        <time>2021-07-08T19:29:20Z</time>
      </trkpt>
      <trkpt lat="40.40476" lon="-6.91849">
        <ele>784.4021</ele>
        <time>2021-07-08T19:29:31Z</time>
      </trkpt>
      <trkpt lat="40.40377" lon="-6.91838">
        <ele>782.8603</ele>
        <time>2021-07-08T19:29:42Z</time>
      </trkpt>
      <trkpt lat="40.40289" lon="-6.91792">
        <ele>778.2822</ele>
        <time>2021-07-08T19:29:53Z</time>
      </trkpt>
      <trkpt lat="40.40218" lon="-6.91761">
        <ele>772.4478</ele>
        <time>2021-07-08T19:30:04Z</time>
      </trkpt>
      <trkpt lat="40.40171" lon="-6.91737">
        <ele>777.0563</ele>
        <time>2021-07-08T19:30:15Z</time>
      </trkpt>
      <trkpt lat="40.40098" lon="-6.91695">
        <ele>772.5798</ele>
        <time>2021-07-08T19:30:26Z</time>
      </trkpt>
      <trkpt lat="40.39995" lon="-6.91643">
        <ele>774.5967</ele>
        <time>2021-07-08T19:30:37Z</time>
      </trkpt>
      <trkpt lat="40.39876" lon="-6.91593">
        <ele>782.1971</ele>
        <time>2021-07-08T19:30:48Z</time>
      </trkpt>
      <trkpt lat="40.398" lon="-6.91554">
        <ele>790.6651</ele>
        <time>2021-07-08T19:30:59Z</time>
      </trkpt>
      <trkpt lat="40.39796" lon="-6.9155">
        <ele>793.2819</ele>
        <time>2021-07-08T19:31:17Z</time>
      </trkpt>
      <trkpt lat="40.39704" lon="-6.91547">
        <ele>800.1663</ele>
        <time>2021-07-08T19:31:28Z</time>
      </trkpt>
      <trkpt lat="40.39586" lon="-6.91506">
        <ele>803.5047</ele>
        <time>2021-07-08T19:31:39Z</time>
      </trkpt>
      <trkpt lat="40.3961" lon="-6.91678">
        <ele>791.2792</ele>
        <time>2021-07-08T19:31:50Z</time>
      </trkpt>
      <trkpt lat="40.39569" lon="-6.91764">
        <ele>784.6818</ele>
        <time>2021-07-08T19:32:01Z</time>
      </trkpt>
      <trkpt lat="40.39435" lon="-6.91749">
        <ele>783.6308</ele>
        <time>2021-07-08T19:32:12Z</time>
      </trkpt>
      <trkpt lat="40.39311" lon="-6.91746">
        <ele>778.7251</ele>
        <time>2021-07-08T19:32:23Z</time>
      </trkpt>
      <trkpt lat="40.39273" lon="-6.91745">
        <ele>786.7383</ele>
        <time>2021-07-08T19:32:34Z</time>
      </trkpt>
      <trkpt lat="40.39269" lon="-6.91745">
        <ele>786.4233</ele>
        <time>2021-07-08T19:33:25Z</time>
      </trkpt>
      <trkpt lat="40.39264" lon="-6.91755">
        <ele>785.3768</ele>
        <time>2021-07-08T19:33:38Z</time>
      </trkpt>
      <trkpt lat="40.39203" lon="-6.91933">
        <ele>783.4361</ele>
        <time>2021-07-08T19:33:49Z</time>
      </trkpt>
      <trkpt lat="40.39139" lon="-6.92138">
        <ele>781.8585</ele>
        <time>2021-07-08T19:34:00Z</time>
      </trkpt>
      <trkpt lat="40.39004" lon="-6.92316">
        <ele>793.2333</ele>
        <time>2021-07-08T19:34:11Z</time>
      </trkpt>
      <trkpt lat="40.38855" lon="-6.92501">
        <ele>802.7166</ele>
        <time>2021-07-08T19:34:22Z</time>
      </trkpt>
      <trkpt lat="40.38766" lon="-6.92709">
        <ele>809.4023</ele>
        <time>2021-07-08T19:34:33Z</time>
      </trkpt>
      <trkpt lat="40.38706" lon="-6.92756">
        <ele>811.6404</ele>
        <time>2021-07-08T19:34:44Z</time>
      </trkpt>
      <trkpt lat="40.38644" lon="-6.92718">
        <ele>811.5397</ele>
        <time>2021-07-08T19:34:55Z</time>
      </trkpt>
      <trkpt lat="40.38608" lon="-6.92627">
        <ele>801.1981</ele>
        <time>2021-07-08T19:35:06Z</time>
      </trkpt>
      <trkpt lat="40.38618" lon="-6.92592">
        <ele>801.2403</ele>
        <time>2021-07-08T19:35:17Z</time>
      </trkpt>
      <trkpt lat="40.38595" lon="-6.92519">
        <ele>804.0396</ele>
        <time>2021-07-08T19:35:28Z</time>
      </trkpt>
      <trkpt lat="40.38522" lon="-6.92455">
        <ele>807.4869</ele>
        <time>2021-07-08T19:35:39Z</time>
      </trkpt>
      <trkpt lat="40.38414" lon="-6.92373">
        <ele>806.014</ele>
        <time>2021-07-08T19:35:50Z</time>
      </trkpt>
      <trkpt lat="40.38326" lon="-6.92331">
        <ele>805.2737</ele>
        <time>2021-07-08T19:36:01Z</time>
      </trkpt>
      <trkpt lat="40.38296" lon="-6.92376">
        <ele>803.1023</ele>
        <time>2021-07-08T19:36:12Z</time>
      </trkpt>
      <trkpt lat="40.38203" lon="-6.92522">
        <ele>803.3153</ele>
        <time>2021-07-08T19:36:23Z</time>
      </trkpt>
      <trkpt lat="40.38134" lon="-6.926">
        <ele>804.0509</ele>
        <time>2021-07-08T19:36:34Z</time>
      </trkpt>
      <trkpt lat="40.38124" lon="-6.92612">
        <ele>805.893</ele>
        <time>2021-07-08T19:36:45Z</time>
      </trkpt>
      <trkpt lat="40.38142" lon="-6.9268">
        <ele>805.9881</ele>
        <time>2021-07-08T19:36:56Z</time>
      </trkpt>
      <trkpt lat="40.38174" lon="-6.92737">
        <ele>802.119</ele>
        <time>2021-07-08T19:37:07Z</time>
      </trkpt>
      <trkpt lat="40.38147" lon="-6.92839">
        <ele>802.6432</ele>
        <time>2021-07-08T19:37:18Z</time>
      </trkpt>
      <trkpt lat="40.38093" lon="-6.92947">
        <ele>803.3048</ele>
        <time>2021-07-08T19:37:29Z</time>
      </trkpt>
      <trkpt lat="40.38048" lon="-6.93058">
        <ele>801.6888</ele>
        <time>2021-07-08T19:37:40Z</time>
      </trkpt>
      <trkpt lat="40.38033" lon="-6.93153">
        <ele>801.566</ele>
        <time>2021-07-08T19:37:51Z</time>
      </trkpt>
      <trkpt lat="40.38006" lon="-6.93188">
        <ele>803.9042</ele>
        <time>2021-07-08T19:38:02Z</time>
      </trkpt>
      <trkpt lat="40.37968" lon="-6.93207">
        <ele>809.8831</ele>
        <time>2021-07-08T19:38:13Z</time>
      </trkpt>
      <trkpt lat="40.37906" lon="-6.93219">
        <ele>805.6734</ele>
        <time>2021-07-08T19:38:24Z</time>
      </trkpt>
      <trkpt lat="40.37815" lon="-6.93261">
        <ele>807.7465</ele>
        <time>2021-07-08T19:38:35Z</time>
      </trkpt>
      <trkpt lat="40.37724" lon="-6.93325">
        <ele>807.0364</ele>
        <time>2021-07-08T19:38:46Z</time>
      </trkpt>
      <trkpt lat="40.37694" lon="-6.93343">
        <ele>808.5132</ele>
        <time>2021-07-08T19:38:57Z</time>
      </trkpt>
      <trkpt lat="40.37762" lon="-6.93299">
        <ele>807.9788</ele>
        <time>2021-07-08T19:39:08Z</time>
      </trkpt>
      <trkpt lat="40.37864" lon="-6.93226">
        <ele>804.9225</ele>
        <time>2021-07-08T19:39:19Z</time>
      </trkpt>
      <trkpt lat="40.37947" lon="-6.93215">
        <ele>808.3268</ele>
        <time>2021-07-08T19:39:30Z</time>
      </trkpt>
      <trkpt lat="40.38012" lon="-6.93183">
        <ele>803.1395</ele>
        <time>2021-07-08T19:39:41Z</time>
      </trkpt>
      <trkpt lat="40.38024" lon="-6.93168">
        <ele>801.8817</ele>
        <time>2021-07-08T19:39:52Z</time>
      </trkpt>
      <trkpt lat="40.38028" lon="-6.93162">
        <ele>801.5395</ele>
        <time>2021-07-08T19:40:03Z</time>
      </trkpt>
      <trkpt lat="40.38031" lon="-6.93158">
        <ele>799.6114</ele>
        <time>2021-07-08T19:40:52Z</time>
      </trkpt>
      <trkpt lat="40.38031" lon="-6.93158">
        <ele>804.9825</ele>
        <time>2021-07-08T19:41:52Z</time>
      </trkpt>
    </trkseg>
  </trk>
</gpx>